BCO-DMO ERDDAP
Accessing BCO-DMO data
log in    
Brought to you by BCO-DMO    
 
 
event cast latitude longitude time press temp sal O2 trans_v fluor_v time_elapsed PAR
integer integer degrees_north degrees_east UTC decibars degrees Celsius (C) practical salinity units (PSU) micromoles per kilogram (umol/kg) volts volts seconds microEinsteins (uE)
1 1 9.0 -86.9998 2010-06-23T22:13:30.00Z 0.0 28.6661 33.3787 213.4 4.601 0.011 247.4
1 1 9.0 -86.9998 2010-06-23T22:13:30.00Z 1.0 28.6636 33.3879 213.5 4.6027 0.01 248.8
1 1 9.0 -86.9998 2010-06-23T22:13:30.00Z 2.0 28.661 33.3971 213.7 4.6045 0.01 250.3
1 1 9.0 -86.9998 2010-06-23T22:13:30.00Z 3.0 28.6584 33.4063 213.9 4.6063 0.01 251.8 1370.0
1 1 9.0 -86.9998 2010-06-23T22:13:30.00Z 4.0 28.6558 33.4155 214.0 4.6081 0.009 253.2 1440.0
1 1 9.0 -86.9998 2010-06-23T22:13:30.00Z 5.0 28.6532 33.4247 214.2 4.6098 0.009 254.7 1460.0
1 1 9.0 -86.9998 2010-06-23T22:13:30.00Z 6.0 28.6507 33.434 214.3 4.6116 0.009 256.1 1260.0
1 1 9.0 -86.9998 2010-06-23T22:13:30.00Z 7.0 28.6562 33.434 214.2 4.6113 0.008 266.8 1140.0
1 1 9.0 -86.9998 2010-06-23T22:13:30.00Z 8.0 28.6568 33.4342 214.3 4.6107 0.005 277.2 950.0
1 1 9.0 -86.9998 2010-06-23T22:13:30.00Z 9.0 28.6342 33.4335 214.0 4.6097 0.016 280.6 820.0
1 1 9.0 -86.9998 2010-06-23T22:13:30.00Z 10.0 28.6277 33.4331 214.0 4.6084 0.016 284.6 644.0
1 1 9.0 -86.9998 2010-06-23T22:13:30.00Z 11.0 28.6233 33.4333 214.4 4.6066 0.017 288.2 576.0
1 1 9.0 -86.9998 2010-06-23T22:13:30.00Z 12.0 28.6138 33.4333 214.4 4.6046 0.017 290.8 854.0
1 1 9.0 -86.9998 2010-06-23T22:13:30.00Z 13.0 28.6121 33.4335 214.2 4.6058 0.018 293.6 725.0
1 1 9.0 -86.9998 2010-06-23T22:13:30.00Z 14.0 28.6116 33.4338 214.1 4.6067 0.018 296.6 698.0
1 1 9.0 -86.9998 2010-06-23T22:13:30.00Z 15.0 28.6096 33.4341 214.3 4.6037 0.019 299.2 678.0
1 1 9.0 -86.9998 2010-06-23T22:13:30.00Z 16.0 28.6084 33.4342 213.9 4.6066 0.019 301.6 647.0
1 1 9.0 -86.9998 2010-06-23T22:13:30.00Z 17.0 28.6068 33.4342 214.3 4.6064 0.02 304.9 598.0
1 1 9.0 -86.9998 2010-06-23T22:13:30.00Z 18.0 28.6046 33.4343 214.5 4.6063 0.021 308.1 578.0
1 1 9.0 -86.9998 2010-06-23T22:13:30.00Z 19.0 28.6009 33.4353 214.5 4.6058 0.022 311.2 535.0
1 1 9.0 -86.9998 2010-06-23T22:13:30.00Z 20.0 28.5987 33.4365 214.6 4.6051 0.024 314.1 499.0
1 1 9.0 -86.9998 2010-06-23T22:13:30.00Z 21.0 28.5958 33.4402 214.1 4.6044 0.024 315.9 500.0
1 1 9.0 -86.9998 2010-06-23T22:13:30.00Z 22.0 28.5943 33.4436 213.9 4.6066 0.026 320.0 462.0
1 1 9.0 -86.9998 2010-06-23T22:13:30.00Z 23.0 28.5913 33.453 213.7 4.5949 0.028 322.9 438.0
1 1 9.0 -86.9998 2010-06-23T22:13:30.00Z 24.0 28.5807 33.4823 213.3 4.6013 0.031 324.9 403.0
1 1 9.0 -86.9998 2010-06-23T22:13:30.00Z 25.0 28.5648 33.5237 212.4 4.5958 0.032 327.4 401.0
1 1 9.0 -86.9998 2010-06-23T22:13:30.00Z 26.0 28.5558 33.5976 211.7 4.5992 0.035 331.4 361.0
1 1 9.0 -86.9998 2010-06-23T22:13:30.00Z 27.0 28.4851 33.7304 214.5 4.5983 0.038 334.6 337.0
1 1 9.0 -86.9998 2010-06-23T22:13:30.00Z 28.0 27.998 33.8237 218.9 4.5747 0.049 336.2 323.0
1 1 9.0 -86.9998 2010-06-23T22:13:30.00Z 29.0 27.7208 33.8604 212.3 4.5762 0.052 339.6 292.0
1 1 9.0 -86.9998 2010-06-23T22:13:30.00Z 30.0 26.35 34.0908 194.2 4.5686 0.059 342.6 268.0
1 1 9.0 -86.9998 2010-06-23T22:13:30.00Z 31.0 25.7149 34.1633 162.8 4.568 0.064 347.1 247.0
1 1 9.0 -86.9998 2010-06-23T22:13:30.00Z 32.0 24.3677 34.3041 158.9 4.5637 0.067 348.5 224.0
1 1 9.0 -86.9998 2010-06-23T22:13:30.00Z 33.0 22.9392 34.428 135.1 4.5605 0.067 351.4 215.0
1 1 9.0 -86.9998 2010-06-23T22:13:30.00Z 34.0 22.711 34.4429 125.0 4.5575 0.07 355.2 196.0
1 1 9.0 -86.9998 2010-06-23T22:13:30.00Z 35.0 21.6564 34.5254 123.9 4.5554 0.076 356.9 165.0
1 1 9.0 -86.9998 2010-06-23T22:13:30.00Z 36.0 21.2562 34.5572 109.1 4.5602 0.076 359.9 155.0
1 1 9.0 -86.9998 2010-06-23T22:13:30.00Z 37.0 20.5933 34.6036 104.2 4.5652 0.077 362.5 141.0
1 1 9.0 -86.9998 2010-06-23T22:13:30.00Z 38.0 19.9084 34.6609 101.2 4.5674 0.08 363.6 126.0
1 1 9.0 -86.9998 2010-06-23T22:13:30.00Z 39.0 19.5072 34.7025 92.2 4.569 0.081 368.7 113.0
1 1 9.0 -86.9998 2010-06-23T22:13:30.00Z 40.0 19.1819 34.7225 83.9 4.5695 0.088 371.4 101.0
1 1 9.0 -86.9998 2010-06-23T22:13:30.00Z 41.0 18.9426 34.7351 78.4 4.5749 0.088 373.8 92.5
1 1 9.0 -86.9998 2010-06-23T22:13:30.00Z 42.0 18.6942 34.7553 74.2 4.5798 0.089 376.9 84.9
1 1 9.0 -86.9998 2010-06-23T22:13:30.00Z 43.0 18.5173 34.7661 71.5 4.5868 0.083 380.5 74.4
1 1 9.0 -86.9998 2010-06-23T22:13:30.00Z 44.0 18.3648 34.7765 70.3 4.5856 0.086 383.5 68.2
1 1 9.0 -86.9998 2010-06-23T22:13:30.00Z 45.0 18.1683 34.7868 68.8 4.5836 0.083 385.8 62.3
1 1 9.0 -86.9998 2010-06-23T22:13:30.00Z 46.0 18.1264 34.7882 66.7 4.5841 0.083 387.5 56.7
1 1 9.0 -86.9998 2010-06-23T22:13:30.00Z 47.0 18.0726 34.7889 64.8 4.5858 0.087 390.7 51.1
1 1 9.0 -86.9998 2010-06-23T22:13:30.00Z 48.0 17.8228 34.7923 64.1 4.5919 0.077 393.6 45.7
1 1 9.0 -86.9998 2010-06-23T22:13:30.00Z 49.0 17.6079 34.7861 62.9 4.5938 0.074 395.1 41.7
1 1 9.0 -86.9998 2010-06-23T22:13:30.00Z 50.0 17.3979 34.7783 61.0 4.5966 0.072 396.9 37.7
1 1 9.0 -86.9998 2010-06-23T22:13:30.00Z 51.0 17.2872 34.7765 59.3 4.5958 0.077 399.4 34.5
1 1 9.0 -86.9998 2010-06-23T22:13:30.00Z 52.0 17.0232 34.7655 58.5 4.5969 0.07 401.5 30.9
1 1 9.0 -86.9998 2010-06-23T22:13:30.00Z 53.0 16.6032 34.7441 57.8 4.6009 0.07 403.8 28.2
1 1 9.0 -86.9998 2010-06-23T22:13:30.00Z 54.0 16.4537 34.736 58.7 4.6034 0.064 407.4 25.6
1 1 9.0 -86.9998 2010-06-23T22:13:30.00Z 55.0 16.1975 34.7347 59.0 4.6063 0.059 408.4 23.2
1 1 9.0 -86.9998 2010-06-23T22:13:30.00Z 56.0 15.9921 34.743 59.2 4.6086 0.062 410.5 21.2
1 1 9.0 -86.9998 2010-06-23T22:13:30.00Z 57.0 15.9642 34.7424 58.3 4.6108 0.058 413.1 19.7
1 1 9.0 -86.9998 2010-06-23T22:13:30.00Z 58.0 15.8488 34.7469 58.3 4.6181 0.051 415.0 18.3
1 1 9.0 -86.9998 2010-06-23T22:13:30.00Z 59.0 15.8149 34.7483 58.7 4.6201 0.053 417.1 16.8
1 1 9.0 -86.9998 2010-06-23T22:13:30.00Z 60.0 15.7298 34.7572 59.1 4.6245 0.05 419.4 15.3
1 1 9.0 -86.9998 2010-06-23T22:13:30.00Z 61.0 15.6266 34.7689 58.9 4.6275 0.054 421.5 14.3
1 1 9.0 -86.9998 2010-06-23T22:13:30.00Z 62.0 15.5226 34.7822 58.4 4.6315 0.044 423.4 13.2
1 1 9.0 -86.9998 2010-06-23T22:13:30.00Z 63.0 15.4239 34.7977 57.8 4.6352 0.042 425.0 12.3
1 1 9.0 -86.9998 2010-06-23T22:13:30.00Z 64.0 15.3385 34.8102 57.5 4.6353 0.045 427.6 11.3
1 1 9.0 -86.9998 2010-06-23T22:13:30.00Z 65.0 15.2678 34.8206 57.3 4.6404 0.039 430.1 10.5
1 1 9.0 -86.9998 2010-06-23T22:13:30.00Z 66.0 15.2185 34.8304 56.8 4.6407 0.039 431.9 9.73
1 1 9.0 -86.9998 2010-06-23T22:13:30.00Z 67.0 15.1909 34.8379 56.5 4.642 0.039 434.0 8.96
1 1 9.0 -86.9998 2010-06-23T22:13:30.00Z 68.0 15.161 34.8461 56.6 4.6366 0.043 436.6 8.34
1 1 9.0 -86.9998 2010-06-23T22:13:30.00Z 69.0 15.1228 34.8546 56.7 4.6441 0.038 439.0 7.86
1 1 9.0 -86.9998 2010-06-23T22:13:30.00Z 70.0 15.0911 34.861 56.6 4.6411 0.034 440.8 7.38
1 1 9.0 -86.9998 2010-06-23T22:13:30.00Z 71.0 15.058 34.8637 56.0 4.6464 0.039 443.4 6.64
1 1 9.0 -86.9998 2010-06-23T22:13:30.00Z 72.0 15.0295 34.8671 55.2 4.6445 0.032 445.6 6.19
1 1 9.0 -86.9998 2010-06-23T22:13:30.00Z 73.0 14.9722 34.873 55.0 4.645 0.031 446.6 5.74
1 1 9.0 -86.9998 2010-06-23T22:13:30.00Z 74.0 14.9188 34.8788 54.5 4.6493 0.03 447.6 5.31
1 1 9.0 -86.9998 2010-06-23T22:13:30.00Z 75.0 14.9243 34.879 52.3 4.6475 0.036 450.6 5.06
1 1 9.0 -86.9998 2010-06-23T22:13:30.00Z 76.0 14.8893 34.9032 51.4 4.6497 0.033 453.1 4.68
1 1 9.0 -86.9998 2010-06-23T22:13:30.00Z 77.0 14.8656 34.9099 50.1 4.6508 0.046 454.2 4.33
1 1 9.0 -86.9998 2010-06-23T22:13:30.00Z 78.0 14.8339 34.908 44.8 4.6459 0.034 456.2 4.04
1 1 9.0 -86.9998 2010-06-23T22:13:30.00Z 79.0 14.8116 34.9078 41.7 4.6503 0.039 458.9 3.77
1 1 9.0 -86.9998 2010-06-23T22:13:30.00Z 80.0 14.7912 34.9174 40.6 4.6541 0.029 460.9 3.53
1 1 9.0 -86.9998 2010-06-23T22:13:30.00Z 81.0 14.7694 34.9213 38.8 4.6495 0.028 462.4 3.27
1 1 9.0 -86.9998 2010-06-23T22:13:30.00Z 82.0 14.7453 34.9221 34.2 4.6507 0.033 464.6 3.06
1 1 9.0 -86.9998 2010-06-23T22:13:30.00Z 83.0 14.682 34.9213 31.3 4.6527 0.03 467.0 2.88
1 1 9.0 -86.9998 2010-06-23T22:13:30.00Z 84.0 14.6338 34.9187 29.8 4.6506 0.032 468.8 2.69
1 1 9.0 -86.9998 2010-06-23T22:13:30.00Z 85.0 14.5963 34.9199 27.9 4.6555 0.034 470.8 2.5
1 1 9.0 -86.9998 2010-06-23T22:13:30.00Z 86.0 14.5783 34.9238 26.3 4.6618 0.039 472.9 2.36
1 1 9.0 -86.9998 2010-06-23T22:13:30.00Z 87.0 14.5579 34.9293 25.5 4.6403 0.032 474.6 2.23
1 1 9.0 -86.9998 2010-06-23T22:13:30.00Z 88.0 14.4708 34.9261 25.5 4.6605 0.077 476.0 2.1
1 1 9.0 -86.9998 2010-06-23T22:13:30.00Z 89.0 14.4369 34.9244 26.6 4.6561 0.023 478.5 1.93
1 1 9.0 -86.9998 2010-06-23T22:13:30.00Z 90.0 14.4044 34.9266 27.8 4.664 0.06 481.0 1.83
1 1 9.0 -86.9998 2010-06-23T22:13:30.00Z 91.0 14.3893 34.9274 27.7 4.6625 0.02 482.1 1.75
1 1 9.0 -86.9998 2010-06-23T22:13:30.00Z 92.0 14.3839 34.9272 27.1 4.6681 0.018 483.4 1.66
1 1 9.0 -86.9998 2010-06-23T22:13:30.00Z 93.0 14.3785 34.9275 25.7 4.6684 0.021 486.0 1.57
1 1 9.0 -86.9998 2010-06-23T22:13:30.00Z 94.0 14.34 34.9266 25.1 4.672 0.017 488.5 1.47
1 1 9.0 -86.9998 2010-06-23T22:13:30.00Z 95.0 14.2836 34.9224 24.3 4.6734 0.016 490.1 1.38
1 1 9.0 -86.9998 2010-06-23T22:13:30.00Z 96.0 14.254 34.9201 23.6 4.6746 0.014 491.5 1.31
1 1 9.0 -86.9998 2010-06-23T22:13:30.00Z 97.0 14.1895 34.9186 23.9 4.676 0.015 493.9 1.24
1 1 9.0 -86.9998 2010-06-23T22:13:30.00Z 98.0 14.1855 34.9197 23.7 4.6752 0.013 496.5 1.19
1 1 9.0 -86.9998 2010-06-23T22:13:30.00Z 99.0 14.1738 34.9207 23.5 4.677 0.013 498.0 1.13
1 1 9.0 -86.9998 2010-06-23T22:13:30.00Z 100.0 14.1663 34.9208 23.4 4.675 0.014 499.8 1.07
1 1 9.0 -86.9998 2010-06-23T22:13:30.00Z 101.0 14.1635 34.9209 23.2 4.6779 0.014 502.2 1.0
1 1 9.0 -86.9998 2010-06-23T22:13:30.00Z 102.0 14.152 34.9203 23.1 4.6761 0.012 504.2 0.94
1 1 9.0 -86.9998 2010-06-23T22:13:30.00Z 103.0 14.1461 34.92 23.1 4.6785 0.012 505.6 0.899
1 1 9.0 -86.9998 2010-06-23T22:13:30.00Z 104.0 14.1132 34.9182 23.1 4.6744 0.012 507.4 0.86
1 1 9.0 -86.9998 2010-06-23T22:13:30.00Z 105.0 14.0995 34.9191 22.9 4.6788 0.013 510.0 0.82
1 1 9.0 -86.9998 2010-06-23T22:13:30.00Z 106.0 14.0859 34.9229 22.5 4.6796 0.011 512.5 0.777
1 1 9.0 -86.9998 2010-06-23T22:13:30.00Z 107.0 14.0741 34.927 22.1 4.676 0.011 514.0 0.73
1 1 9.0 -86.9998 2010-06-23T22:13:30.00Z 108.0 14.0679 34.9294 21.8 4.6814 0.011 515.2 0.689
1 1 9.0 -86.9998 2010-06-23T22:13:30.00Z 109.0 14.0498 34.9312 21.6 4.6821 0.011 517.0 0.656
1 1 9.0 -86.9998 2010-06-23T22:13:30.00Z 110.0 14.034 34.9317 21.8 4.6818 0.01 519.1 0.629
1 1 9.0 -86.9998 2010-06-23T22:13:30.00Z 111.0 14.0159 34.9313 22.0 4.6819 0.01 521.1 0.603
1 1 9.0 -86.9998 2010-06-23T22:13:30.00Z 112.0 14.0066 34.9311 22.1 4.6823 0.01 522.9 0.576
1 1 9.0 -86.9998 2010-06-23T22:13:30.00Z 113.0 14.0012 34.9309 22.1 4.6824 0.01 524.8 0.544
1 1 9.0 -86.9998 2010-06-23T22:13:30.00Z 114.0 13.9939 34.9309 22.0 4.682 0.01 526.8 0.509
1 1 9.0 -86.9998 2010-06-23T22:13:30.00Z 115.0 13.9843 34.9315 21.9 4.6817 0.01 528.0 0.484
1 1 9.0 -86.9998 2010-06-23T22:13:30.00Z 116.0 13.97 34.9322 21.8 4.6828 0.01 528.9 0.461
1 1 9.0 -86.9998 2010-06-23T22:13:30.00Z 117.0 13.9561 34.9324 21.5 4.6835 0.01 531.0 0.44
1 1 9.0 -86.9998 2010-06-23T22:13:30.00Z 118.0 13.9474 34.9321 20.9 4.6828 0.01 533.4 0.421
1 1 9.0 -86.9998 2010-06-23T22:13:30.00Z 119.0 13.9398 34.932 20.7 4.6836 0.009 534.8 0.404
1 1 9.0 -86.9998 2010-06-23T22:13:30.00Z 120.0 13.9219 34.9314 20.2 4.6837 0.01 536.4 0.386
1 1 9.0 -86.9998 2010-06-23T22:13:30.00Z 121.0 13.9094 34.9307 19.8 4.6838 0.009 538.4 0.363
1 1 9.0 -86.9998 2010-06-23T22:13:30.00Z 122.0 13.8896 34.9297 19.6 4.6839 0.009 539.9 0.341
1 1 9.0 -86.9998 2010-06-23T22:13:30.00Z 123.0 13.8791 34.9294 19.4 4.684 0.009 540.9 0.325
1 1 9.0 -86.9998 2010-06-23T22:13:30.00Z 124.0 13.8741 34.9295 19.2 4.6848 0.009 542.0 0.309
1 1 9.0 -86.9998 2010-06-23T22:13:30.00Z 125.0 13.869 34.9294 19.0 4.6841 0.009 544.1 0.297
1 1 9.0 -86.9998 2010-06-23T22:13:30.00Z 126.0 13.8498 34.9284 19.1 4.6843 0.009 546.4 0.285
1 1 9.0 -86.9998 2010-06-23T22:13:30.00Z 127.0 13.8335 34.9277 19.1 4.6849 0.008 547.9 0.273
1 1 9.0 -86.9998 2010-06-23T22:13:30.00Z 128.0 13.8175 34.9264 18.9 4.6844 0.009 549.6 0.258
1 1 9.0 -86.9998 2010-06-23T22:13:30.00Z 129.0 13.7943 34.9248 18.6 4.6847 0.008 551.2 0.243
1 1 9.0 -86.9998 2010-06-23T22:13:30.00Z 130.0 13.7796 34.9244 18.2 4.685 0.008 552.2 0.231
1 1 9.0 -86.9998 2010-06-23T22:13:30.00Z 131.0 13.7732 34.9238 17.7 4.6849 0.008 553.1 0.221
1 1 9.0 -86.9998 2010-06-23T22:13:30.00Z 132.0 13.7477 34.9215 17.1 4.6847 0.009 555.2 0.211
1 1 9.0 -86.9998 2010-06-23T22:13:30.00Z 133.0 13.7101 34.9183 16.3 4.6853 0.008 557.6 0.201
1 1 9.0 -86.9998 2010-06-23T22:13:30.00Z 134.0 13.6745 34.9157 15.7 4.6859 0.008 559.0 0.192
1 1 9.0 -86.9998 2010-06-23T22:13:30.00Z 135.0 13.6554 34.9146 15.2 4.6849 0.008 560.2 0.183
1 1 9.0 -86.9998 2010-06-23T22:13:30.00Z 136.0 13.646 34.914 14.3 4.6855 0.008 562.2 0.174
1 1 9.0 -86.9998 2010-06-23T22:13:30.00Z 137.0 13.6356 34.9136 13.8 4.6859 0.008 564.2 0.164
1 1 9.0 -86.9998 2010-06-23T22:13:30.00Z 138.0 13.6264 34.913 13.6 4.6855 0.008 565.4 0.156
1 1 9.0 -86.9998 2010-06-23T22:13:30.00Z 139.0 13.6213 34.9127 13.5 4.6856 0.008 566.2 0.149
1 1 9.0 -86.9998 2010-06-23T22:13:30.00Z 140.0 13.618 34.9125 13.3 4.684 0.008 567.4 0.142
1 1 9.0 -86.9998 2010-06-23T22:13:30.00Z 141.0 13.6153 34.9135 13.0 4.6861 0.008 569.6 0.135
1 1 9.0 -86.9998 2010-06-23T22:13:30.00Z 142.0 13.6057 34.9142 13.0 4.6863 0.008 571.8 0.129
1 1 9.0 -86.9998 2010-06-23T22:13:30.00Z 143.0 13.5963 34.9137 13.0 4.6858 0.008 573.1 0.123
1 1 9.0 -86.9998 2010-06-23T22:13:30.00Z 144.0 13.5886 34.9133 13.0 4.6861 0.008 574.6 0.117
1 1 9.0 -86.9998 2010-06-23T22:13:30.00Z 145.0 13.5799 34.9129 12.9 4.6834 0.008 575.9 0.111
1 1 9.0 -86.9998 2010-06-23T22:13:30.00Z 146.0 13.5698 34.9123 12.8 4.6856 0.008 577.0 0.106
1 1 9.0 -86.9998 2010-06-23T22:13:30.00Z 147.0 13.5555 34.9115 12.7 4.6858 0.008 578.2 0.101
1 1 9.0 -86.9998 2010-06-23T22:13:30.00Z 148.0 13.5407 34.9104 12.5 4.6855 0.008 580.1 0.0957
1 1 9.0 -86.9998 2010-06-23T22:13:30.00Z 149.0 13.5317 34.9097 12.3 4.6854 0.008 582.2 0.0913
1 1 9.0 -86.9998 2010-06-23T22:13:30.00Z 150.0 13.5247 34.9093 12.2 4.6859 0.008 583.6 0.0872
1 1 9.0 -86.9998 2010-06-23T22:13:30.00Z 151.0 13.5171 34.9088 12.2 4.686 0.008 584.6 0.083
1 1 9.0 -86.9998 2010-06-23T22:13:30.00Z 152.0 13.5064 34.9081 12.1 4.6862 0.008 585.9 0.0791
1 1 9.0 -86.9998 2010-06-23T22:13:30.00Z 153.0 13.4983 34.9075 12.0 4.6862 0.008 587.5 0.0753
1 1 9.0 -86.9998 2010-06-23T22:13:30.00Z 154.0 13.4892 34.9071 11.9 4.6861 0.008 589.1 0.0714
1 1 9.0 -86.9998 2010-06-23T22:13:30.00Z 155.0 13.4766 34.9064 11.9 4.686 0.008 590.5 0.0679
1 1 9.0 -86.9998 2010-06-23T22:13:30.00Z 156.0 13.4635 34.9056 11.9 4.686 0.008 591.8 0.0645
1 1 9.0 -86.9998 2010-06-23T22:13:30.00Z 157.0 13.445 34.9044 11.8 4.6858 0.008 593.1 0.0619
1 1 9.0 -86.9998 2010-06-23T22:13:30.00Z 158.0 13.4278 34.9038 11.9 4.686 0.008 594.8 0.0589
1 1 9.0 -86.9998 2010-06-23T22:13:30.00Z 159.0 13.418 34.9034 11.8 4.686 0.009 596.8 0.0562
1 1 9.0 -86.9998 2010-06-23T22:13:30.00Z 160.0 13.4102 34.9028 11.8 4.6854 0.008 598.5 0.0537
1 1 9.0 -86.9998 2010-06-23T22:13:30.00Z 161.0 13.3996 34.902 11.8 4.6851 0.008 599.5 0.0507
1 1 9.0 -86.9998 2010-06-23T22:13:30.00Z 162.0 13.3799 34.9001 11.9 4.6856 0.008 600.5 0.0482
1 1 9.0 -86.9998 2010-06-23T22:13:30.00Z 163.0 13.3757 34.8998 12.1 4.6859 0.008 602.2 0.0455
1 1 9.0 -86.9998 2010-06-23T22:13:30.00Z 164.0 13.3655 34.8991 12.3 4.6853 0.008 604.1 0.0433
1 1 9.0 -86.9998 2010-06-23T22:13:30.00Z 165.0 13.334 34.8982 12.4 4.6851 0.008 605.5 0.041
1 1 9.0 -86.9998 2010-06-23T22:13:30.00Z 166.0 13.327 34.9001 12.6 4.6844 0.008 606.8 0.0393
1 1 9.0 -86.9998 2010-06-23T22:13:30.00Z 167.0 13.311 34.8989 14.9 4.684 0.008 608.2 0.0373
1 1 9.0 -86.9998 2010-06-23T22:13:30.00Z 168.0 13.3015 34.8981 18.4 4.6829 0.008 610.0 0.0356
1 1 9.0 -86.9998 2010-06-23T22:13:30.00Z 169.0 13.2969 34.8987 20.1 4.6834 0.008 611.4 0.034
1 1 9.0 -86.9998 2010-06-23T22:13:30.00Z 170.0 13.2829 34.8974 20.7 4.6825 0.008 612.4 0.0321
1 1 9.0 -86.9998 2010-06-23T22:13:30.00Z 171.0 13.255 34.8937 21.1 4.6792 0.009 613.4 0.0305
1 1 9.0 -86.9998 2010-06-23T22:13:30.00Z 172.0 13.2325 34.8901 21.7 4.6829 0.009 614.9 0.0292
1 1 9.0 -86.9998 2010-06-23T22:13:30.00Z 173.0 13.2158 34.8879 22.6 4.6831 0.009 616.6 0.0274
1 1 9.0 -86.9998 2010-06-23T22:13:30.00Z 174.0 13.1991 34.8864 23.1 4.683 0.009 617.9 0.0259
1 1 9.0 -86.9998 2010-06-23T22:13:30.00Z 175.0 13.1856 34.885 23.5 4.6837 0.008 619.0 0.0245
1 1 9.0 -86.9998 2010-06-23T22:13:30.00Z 176.0 13.1554 34.8815 24.1 4.6832 0.008 620.4 0.0233
1 1 9.0 -86.9998 2010-06-23T22:13:30.00Z 177.0 13.1247 34.8786 24.8 4.6832 0.009 621.8 0.0221
1 1 9.0 -86.9998 2010-06-23T22:13:30.00Z 178.0 13.1181 34.8786 25.5 4.6831 0.009 623.0 0.0208
1 1 9.0 -86.9998 2010-06-23T22:13:30.00Z 179.0 13.1124 34.8783 26.2 4.6838 0.009 624.8 0.0201
1 1 9.0 -86.9998 2010-06-23T22:13:30.00Z 180.0 13.105 34.8801 26.5 4.6835 0.008 626.5 0.0188
1 1 9.0 -86.9998 2010-06-23T22:13:30.00Z 181.0 13.1036 34.8836 26.6 4.6834 0.008 627.5 0.0178
1 1 9.0 -86.9998 2010-06-23T22:13:30.00Z 182.0 13.104 34.8853 26.8 4.6835 0.009 628.4 0.0168
1 1 9.0 -86.9998 2010-06-23T22:13:30.00Z 183.0 13.0981 34.885 26.5 4.6836 0.008 629.5 0.0157
1 1 9.0 -86.9998 2010-06-23T22:13:30.00Z 184.0 13.0862 34.8838 26.0 4.6835 0.009 631.1 0.0147
1 1 9.0 -86.9998 2010-06-23T22:13:30.00Z 185.0 13.064 34.8836 26.0 4.6834 0.008 632.8 0.0141
1 1 9.0 -86.9998 2010-06-23T22:13:30.00Z 186.0 13.0456 34.8842 26.2 4.6836 0.008 634.0 0.0127
1 1 9.0 -86.9998 2010-06-23T22:13:30.00Z 187.0 13.0226 34.8826 26.3 4.6837 0.008 635.6 0.0126
1 1 9.0 -86.9998 2010-06-23T22:13:30.00Z 188.0 13.0093 34.881 26.8 4.6835 0.008 637.2 0.0116
1 1 9.0 -86.9998 2010-06-23T22:13:30.00Z 189.0 13.0009 34.8806 27.4 4.6838 0.009 638.5 0.0109
1 1 9.0 -86.9998 2010-06-23T22:13:30.00Z 190.0 12.992 34.8811 27.9 4.6839 0.008 639.6 0.00986
1 1 9.0 -86.9998 2010-06-23T22:13:30.00Z 191.0 12.9853 34.8821 28.1 4.6834 0.008 640.6 0.00948
1 1 9.0 -86.9998 2010-06-23T22:13:30.00Z 192.0 12.9964 34.8878 27.1 4.6833 0.008 642.0 0.00935
1 1 9.0 -86.9998 2010-06-23T22:13:30.00Z 193.0 12.9957 34.8892 25.4 4.6832 0.008 644.0 0.00819
1 1 9.0 -86.9998 2010-06-23T22:13:30.00Z 194.0 12.9884 34.8901 25.7 4.683 0.008 645.8 0.00782
1 1 9.0 -86.9998 2010-06-23T22:13:30.00Z 195.0 12.9737 34.8895 26.0 4.683 0.008 646.9 0.00721
1 1 9.0 -86.9998 2010-06-23T22:13:30.00Z 196.0 12.9574 34.8877 26.6 4.6827 0.008 647.8 0.00657
1 1 9.0 -86.9998 2010-06-23T22:13:30.00Z 197.0 12.9314 34.8849 27.2 4.6823 0.008 648.9 0.00638
1 1 9.0 -86.9998 2010-06-23T22:13:30.00Z 198.0 12.9125 34.883 26.9 4.6825 0.008 650.8 0.00571
1 1 9.0 -86.9998 2010-06-23T22:13:30.00Z 199.0 12.8957 34.8808 26.4 4.6816 0.008 652.4 0.00493
1 1 9.0 -86.9998 2010-06-23T22:13:30.00Z 200.0 12.8832 34.8793 26.1 4.6805 0.008 653.4 0.00482
1 1 9.0 -86.9998 2010-06-23T22:13:30.00Z 201.0 12.8745 34.8786 25.7 4.6823 0.008 654.4 0.00483
1 1 9.0 -86.9998 2010-06-23T22:13:30.00Z 202.0 12.8675 34.8782 25.1 4.683 0.008 655.4 0.00483
1 1 9.0 -86.9998 2010-06-23T22:13:30.00Z 203.0 12.8652 34.8786 24.6 4.6832 0.008 657.1 0.00412
1 1 9.0 -86.9998 2010-06-23T22:13:30.00Z 204.0 12.8645 34.8795 24.8 4.6831 0.008 659.2 0.00343
1 1 9.0 -86.9998 2010-06-23T22:13:30.00Z 205.0 12.8571 34.8813 25.0 4.6832 0.008 660.6 0.00327
1 1 9.0 -86.9998 2010-06-23T22:13:30.00Z 206.0 12.8474 34.8812 25.1 4.6824 0.008 661.6 0.00306
1 1 9.0 -86.9998 2010-06-23T22:13:30.00Z 207.0 12.8365 34.8804 24.9 4.6833 0.008 662.5 0.0023
1 1 9.0 -86.9998 2010-06-23T22:13:30.00Z 208.0 12.8275 34.8793 25.0 4.6834 0.008 663.5 0.00189
1 1 9.0 -86.9998 2010-06-23T22:13:30.00Z 209.0 12.82 34.8785 25.9 4.6833 0.008 665.4 0.00174
1 1 9.0 -86.9998 2010-06-23T22:13:30.00Z 210.0 12.8114 34.8778 26.4 4.6835 0.008 667.1 0.00174
1 1 9.0 -86.9998 2010-06-23T22:13:30.00Z 211.0 12.8047 34.8773 26.3 4.6834 0.008 668.2 0.00169
1 1 9.0 -86.9998 2010-06-23T22:13:30.00Z 212.0 12.7956 34.8761 26.1 4.6835 0.008 669.6 0.00142
1 1 9.0 -86.9998 2010-06-23T22:13:30.00Z 213.0 12.7896 34.8751 25.9 4.6833 0.008 671.1 9.18E-4
1 1 9.0 -86.9998 2010-06-23T22:13:30.00Z 214.0 12.7795 34.8737 25.4 4.6834 0.008 672.8 4.83E-4
1 1 9.0 -86.9998 2010-06-23T22:13:30.00Z 215.0 12.7703 34.8729 24.7 4.6825 0.008 674.4 2.94E-4
1 1 9.0 -86.9998 2010-06-23T22:13:30.00Z 216.0 12.7545 34.8716 24.1 4.683 0.008 675.6 1.91E-4
1 1 9.0 -86.9998 2010-06-23T22:13:30.00Z 217.0 12.7465 34.8708 23.8 4.6821 0.008 676.5 2.03E-4
1 1 9.0 -86.9998 2010-06-23T22:13:30.00Z 218.0 12.7358 34.8697 23.5 4.6834 0.008 677.4 1.73E-4
1 1 9.0 -86.9998 2010-06-23T22:13:30.00Z 219.0 12.7168 34.8678 22.9 4.6827 0.008 678.9 1.84E-4
1 1 9.0 -86.9998 2010-06-23T22:13:30.00Z 220.0 12.7057 34.8664 21.8 4.6833 0.008 681.0 1.27E-4
1 1 9.0 -86.9998 2010-06-23T22:13:30.00Z 221.0 12.6896 34.865 21.0 4.6816 0.008 682.6 3.16E-5
1 1 9.0 -86.9998 2010-06-23T22:13:30.00Z 222.0 12.6766 34.8645 20.7 4.6831 0.008 683.5 -1.04E-6
1 1 9.0 -86.9998 2010-06-23T22:13:30.00Z 223.0 12.6692 34.8642 20.5 4.6836 0.008 684.4 1.0E-12
1 1 9.0 -86.9998 2010-06-23T22:13:30.00Z 224.0 12.6605 34.8627 20.4 4.6834 0.008 685.6 1.0E-12
1 1 9.0 -86.9998 2010-06-23T22:13:30.00Z 225.0 12.6546 34.8616 20.3 4.6837 0.008 687.5 1.0E-12
1 1 9.0 -86.9998 2010-06-23T22:13:30.00Z 226.0 12.6479 34.861 20.0 4.6832 0.008 689.2 1.0E-12
1 1 9.0 -86.9998 2010-06-23T22:13:30.00Z 227.0 12.6431 34.8613 19.9 4.6833 0.008 690.4 1.0E-12
1 1 9.0 -86.9998 2010-06-23T22:13:30.00Z 228.0 12.633 34.8603 19.9 4.6829 0.008 691.4 1.0E-12
1 1 9.0 -86.9998 2010-06-23T22:13:30.00Z 229.0 12.6278 34.8599 20.1 4.6831 0.008 692.5 1.0E-12
1 1 9.0 -86.9998 2010-06-23T22:13:30.00Z 230.0 12.6231 34.8589 20.5 4.6827 0.008 694.0 1.0E-12
1 1 9.0 -86.9998 2010-06-23T22:13:30.00Z 231.0 12.614 34.8575 20.7 4.6833 0.008 695.8 1.0E-12
1 1 9.0 -86.9998 2010-06-23T22:13:30.00Z 232.0 12.6069 34.8567 20.6 4.6835 0.008 697.4 1.0E-12
1 1 9.0 -86.9998 2010-06-23T22:13:30.00Z 233.0 12.597 34.8558 20.5 4.6831 0.008 698.8 1.0E-12
1 1 9.0 -86.9998 2010-06-23T22:13:30.00Z 234.0 12.5806 34.8543 20.3 4.6825 0.008 699.9 1.0E-12
1 1 9.0 -86.9998 2010-06-23T22:13:30.00Z 235.0 12.5694 34.853 20.1 4.6826 0.008 700.9 1.0E-12
1 1 9.0 -86.9998 2010-06-23T22:13:30.00Z 236.0 12.5556 34.8514 19.9 4.6822 0.008 702.1 1.0E-12
1 1 9.0 -86.9998 2010-06-23T22:13:30.00Z 237.0 12.5443 34.85 19.6 4.6824 0.008 703.9 1.0E-12
1 1 9.0 -86.9998 2010-06-23T22:13:30.00Z 238.0 12.5278 34.8482 19.4 4.6836 0.008 705.5 1.0E-12
1 1 9.0 -86.9998 2010-06-23T22:13:30.00Z 239.0 12.5109 34.8466 19.6 4.683 0.008 706.6 1.0E-12
1 1 9.0 -86.9998 2010-06-23T22:13:30.00Z 240.0 12.5049 34.8454 19.7 4.6831 0.008 707.8 1.0E-12
1 1 9.0 -86.9998 2010-06-23T22:13:30.00Z 241.0 12.4947 34.844 19.3 4.6828 0.008 709.4 1.0E-12
1 1 9.0 -86.9998 2010-06-23T22:13:30.00Z 242.0 12.4792 34.8428 18.4 4.6825 0.009 711.0 1.0E-12
1 1 9.0 -86.9998 2010-06-23T22:13:30.00Z 243.0 12.4441 34.8404 17.4 4.6816 0.008 712.2 1.0E-12
1 1 9.0 -86.9998 2010-06-23T22:13:30.00Z 244.0 12.4182 34.8388 16.6 4.6824 0.008 713.5 1.0E-12
1 1 9.0 -86.9998 2010-06-23T22:13:30.00Z 245.0 12.4141 34.8385 15.9 4.6821 0.009 714.6 1.0E-12
1 1 9.0 -86.9998 2010-06-23T22:13:30.00Z 246.0 12.4087 34.8382 15.3 4.6827 0.008 715.8 1.0E-12
1 1 9.0 -86.9998 2010-06-23T22:13:30.00Z 247.0 12.3992 34.8378 14.9 4.6825 0.009 717.0 1.0E-12
1 1 9.0 -86.9998 2010-06-23T22:13:30.00Z 248.0 12.3873 34.8365 14.5 4.6825 0.008 718.2 1.0E-12
1 1 9.0 -86.9998 2010-06-23T22:13:30.00Z 249.0 12.3767 34.8355 14.1 4.6821 0.008 720.2 1.0E-12
1 1 9.0 -86.9998 2010-06-23T22:13:30.00Z 250.0 12.3576 34.8336 14.2 4.6823 0.009 722.2 1.0E-12
1 1 9.0 -86.9998 2010-06-23T22:13:30.00Z 251.0 12.3451 34.8328 14.3 4.682 0.008 723.1 1.0E-12
1 1 9.0 -86.9998 2010-06-23T22:13:30.00Z 252.0 12.338 34.8323 14.4 4.6825 0.009 723.8 1.0E-12
1 1 9.0 -86.9998 2010-06-23T22:13:30.00Z 253.0 12.3337 34.8321 14.7 4.6824 0.009 724.5 1.0E-12
1 1 9.0 -86.9998 2010-06-23T22:13:30.00Z 254.0 12.3258 34.8316 15.0 4.6816 0.009 726.7 1.0E-12
1 1 9.0 -86.9998 2010-06-23T22:13:30.00Z 255.0 12.2898 34.83 15.1 4.6823 0.008 729.2 1.0E-12
1 1 9.0 -86.9998 2010-06-23T22:13:30.00Z 256.0 12.2765 34.8293 15.2 4.6825 0.009 730.0 1.0E-12
1 1 9.0 -86.9998 2010-06-23T22:13:30.00Z 257.0 12.2687 34.8285 15.2 4.6825 0.009 730.6 1.0E-12
1 1 9.0 -86.9998 2010-06-23T22:13:30.00Z 258.0 12.2573 34.8277 14.9 4.6825 0.008 731.4 1.0E-12
1 1 9.0 -86.9998 2010-06-23T22:13:30.00Z 259.0 12.2571 34.8275 14.2 4.6816 0.008 733.5 1.0E-12
1 1 9.0 -86.9998 2010-06-23T22:13:30.00Z 260.0 12.2271 34.8254 13.6 4.6821 0.009 735.6 1.0E-12
1 1 9.0 -86.9998 2010-06-23T22:13:30.00Z 261.0 12.2195 34.8248 13.4 4.6816 0.008 736.6 1.0E-12
1 1 9.0 -86.9998 2010-06-23T22:13:30.00Z 262.0 12.2072 34.8237 13.1 4.6828 0.008 737.9 1.0E-12
1 1 9.0 -86.9998 2010-06-23T22:13:30.00Z 263.0 12.193 34.8225 13.0 4.6822 0.009 739.4 1.0E-12
1 1 9.0 -86.9998 2010-06-23T22:13:30.00Z 264.0 12.1717 34.8211 13.0 4.6818 0.008 740.8 1.0E-12
1 1 9.0 -86.9998 2010-06-23T22:13:30.00Z 265.0 12.1643 34.8205 13.1 4.6823 0.008 742.1 1.0E-12
1 1 9.0 -86.9998 2010-06-23T22:13:30.00Z 266.0 12.1528 34.8192 12.8 4.6831 0.009 743.6 1.0E-12
1 1 9.0 -86.9998 2010-06-23T22:13:30.00Z 267.0 12.1336 34.8184 12.7 4.6827 0.008 744.9 1.0E-12
1 1 9.0 -86.9998 2010-06-23T22:13:30.00Z 268.0 12.1057 34.8168 12.7 4.6827 0.009 745.9 1.0E-12
1 1 9.0 -86.9998 2010-06-23T22:13:30.00Z 269.0 12.0884 34.8162 12.5 4.6812 0.009 747.0 1.0E-12
1 1 9.0 -86.9998 2010-06-23T22:13:30.00Z 270.0 12.088 34.8162 12.5 4.682 0.008 748.6 1.0E-12
1 1 9.0 -86.9998 2010-06-23T22:13:30.00Z 271.0 12.0867 34.8166 12.9 4.6817 0.008 750.5 1.0E-12
1 1 9.0 -86.9998 2010-06-23T22:13:30.00Z 272.0 12.0705 34.8159 13.2 4.682 0.009 752.0 1.0E-12
1 1 9.0 -86.9998 2010-06-23T22:13:30.00Z 273.0 12.047 34.8144 13.4 4.6822 0.008 753.2 1.0E-12
1 1 9.0 -86.9998 2010-06-23T22:13:30.00Z 274.0 12.0344 34.8134 13.5 4.682 0.009 754.5 1.0E-12
1 1 9.0 -86.9998 2010-06-23T22:13:30.00Z 275.0 12.0242 34.8126 13.4 4.6809 0.008 755.6 1.0E-12
1 1 9.0 -86.9998 2010-06-23T22:13:30.00Z 276.0 12.0161 34.8121 13.2 4.6821 0.009 756.6 1.0E-12
1 1 9.0 -86.9998 2010-06-23T22:13:30.00Z 277.0 12.007 34.8118 13.1 4.6811 0.009 757.8 1.0E-12
1 1 9.0 -86.9998 2010-06-23T22:13:30.00Z 278.0 11.9981 34.8109 12.9 4.6824 0.009 759.5 1.0E-12
1 1 9.0 -86.9998 2010-06-23T22:13:30.00Z 279.0 11.9878 34.8099 12.7 4.6826 0.009 761.2 1.0E-12
1 1 9.0 -86.9998 2010-06-23T22:13:30.00Z 280.0 11.9764 34.8085 12.6 4.6829 0.008 762.5 1.0E-12
1 1 9.0 -86.9998 2010-06-23T22:13:30.00Z 281.0 11.9407 34.8055 12.5 4.6836 0.009 763.8 1.0E-12
1 1 9.0 -86.9998 2010-06-23T22:13:30.00Z 282.0 11.9329 34.8043 12.5 4.6831 0.009 765.1 1.0E-12
1 1 9.0 -86.9998 2010-06-23T22:13:30.00Z 283.0 11.9145 34.8025 12.5 4.6838 0.009 766.6 1.0E-12
1 1 9.0 -86.9998 2010-06-23T22:13:30.00Z 284.0 11.894 34.8013 12.5 4.6839 0.008 768.0 1.0E-12
1 1 9.0 -86.9998 2010-06-23T22:13:30.00Z 285.0 11.8732 34.8001 12.4 4.6837 0.008 769.4 1.0E-12
1 1 9.0 -86.9998 2010-06-23T22:13:30.00Z 286.0 11.8689 34.801 12.3 4.6834 0.009 770.8 1.0E-12
1 1 9.0 -86.9998 2010-06-23T22:13:30.00Z 287.0 11.8693 34.8031 12.1 4.683 0.009 771.9 1.0E-12
1 1 9.0 -86.9998 2010-06-23T22:13:30.00Z 288.0 11.8575 34.803 11.9 4.6834 0.008 772.9 1.0E-12
1 1 9.0 -86.9998 2010-06-23T22:13:30.00Z 289.0 11.8422 34.8025 11.7 4.683 0.009 774.0 1.0E-12
1 1 9.0 -86.9998 2010-06-23T22:13:30.00Z 290.0 11.8243 34.801 11.1 4.6824 0.009 775.9 1.0E-12
1 1 9.0 -86.9998 2010-06-23T22:13:30.00Z 291.0 11.7922 34.7989 10.8 4.6822 0.008 778.0 1.0E-12
1 1 9.0 -86.9998 2010-06-23T22:13:30.00Z 292.0 11.7727 34.7975 10.8 4.6785 0.008 779.5 1.0E-12
1 1 9.0 -86.9998 2010-06-23T22:13:30.00Z 293.0 11.7593 34.7965 10.6 4.683 0.009 780.6 1.0E-12
1 1 9.0 -86.9998 2010-06-23T22:13:30.00Z 294.0 11.7511 34.7957 10.5 4.6833 0.009 781.5 1.0E-12
1 1 9.0 -86.9998 2010-06-23T22:13:30.00Z 295.0 11.7373 34.7943 10.4 4.6832 0.008 782.5 1.0E-12
1 1 9.0 -86.9998 2010-06-23T22:13:30.00Z 296.0 11.7271 34.7929 10.2 4.6831 0.009 784.0 1.0E-12
1 1 9.0 -86.9998 2010-06-23T22:13:30.00Z 297.0 11.7087 34.7906 10.3 4.6836 0.009 785.5 1.0E-12
1 1 9.0 -86.9998 2010-06-23T22:13:30.00Z 298.0 11.6816 34.7879 10.3 4.6831 0.009 786.9 1.0E-12
1 1 9.0 -86.9998 2010-06-23T22:13:30.00Z 299.0 11.6567 34.7856 10.7 4.6836 0.009 788.4 1.0E-12
1 1 9.0 -86.9998 2010-06-23T22:13:30.00Z 300.0 11.6342 34.7834 11.2 4.6838 0.009 789.9 1.0E-12
1 1 9.0 -86.9998 2010-06-23T22:13:30.00Z 301.0 11.6164 34.7815 11.6 4.6835 0.009 791.4 1.0E-12
1 1 9.0 -86.9998 2010-06-23T22:13:30.00Z 302.0 11.6061 34.7806 12.1 4.6836 0.009 792.8 1.0E-12
1 1 9.0 -86.9998 2010-06-23T22:13:30.00Z 303.0 11.5987 34.7802 12.3 4.6835 0.008 793.9 1.0E-12
1 1 9.0 -86.9998 2010-06-23T22:13:30.00Z 304.0 11.5954 34.78 12.5 4.6839 0.008 794.9 1.0E-12
1 1 9.0 -86.9998 2010-06-23T22:13:30.00Z 305.0 11.591 34.7797 12.6 4.6843 0.009 796.1 1.0E-12
1 1 9.0 -86.9998 2010-06-23T22:13:30.00Z 306.0 11.5812 34.7791 12.7 4.6844 0.009 797.8 1.0E-12
1 1 9.0 -86.9998 2010-06-23T22:13:30.00Z 307.0 11.5687 34.7783 12.8 4.6839 0.009 799.2 1.0E-12
1 1 9.0 -86.9998 2010-06-23T22:13:30.00Z 308.0 11.5421 34.7766 12.8 4.6842 0.009 800.5 1.0E-12
1 1 9.0 -86.9998 2010-06-23T22:13:30.00Z 309.0 11.5206 34.7758 12.8 4.6848 0.009 801.9 1.0E-12
1 1 9.0 -86.9998 2010-06-23T22:13:30.00Z 310.0 11.5159 34.7756 12.8 4.6834 0.009 803.2 1.0E-12
1 1 9.0 -86.9998 2010-06-23T22:13:30.00Z 311.0 11.5109 34.7753 12.8 4.6842 0.009 804.8 1.0E-12
1 1 9.0 -86.9998 2010-06-23T22:13:30.00Z 312.0 11.503 34.7747 12.8 4.6835 0.009 806.2 1.0E-12
1 1 9.0 -86.9998 2010-06-23T22:13:30.00Z 313.0 11.4953 34.7743 12.8 4.6841 0.009 807.2 1.0E-12
1 1 9.0 -86.9998 2010-06-23T22:13:30.00Z 314.0 11.4831 34.7738 12.9 4.684 0.009 808.1 1.0E-12
1 1 9.0 -86.9998 2010-06-23T22:13:30.00Z 315.0 11.4758 34.7734 13.0 4.6845 0.009 810.0 1.0E-12
1 1 9.0 -86.9998 2010-06-23T22:13:30.00Z 316.0 11.4701 34.7736 13.1 4.6845 0.009 812.0 1.0E-12
1 1 9.0 -86.9998 2010-06-23T22:13:30.00Z 317.0 11.4668 34.7757 13.1 4.6842 0.008 813.1 1.0E-12
1 1 9.0 -86.9998 2010-06-23T22:13:30.00Z 318.0 11.4592 34.7762 13.0 4.6842 0.009 814.1 1.0E-12
1 1 9.0 -86.9998 2010-06-23T22:13:30.00Z 319.0 11.4472 34.7758 12.3 4.6838 0.009 815.8 1.0E-12
1 1 9.0 -86.9998 2010-06-23T22:13:30.00Z 320.0 11.4374 34.7751 11.5 4.6837 0.009 817.6 1.0E-12
1 1 9.0 -86.9998 2010-06-23T22:13:30.00Z 321.0 11.4228 34.7741 11.2 4.6842 0.009 819.0 1.0E-12
1 1 9.0 -86.9998 2010-06-23T22:13:30.00Z 322.0 11.412 34.7733 11.0 4.6832 0.009 820.0 1.0E-12
1 1 9.0 -86.9998 2010-06-23T22:13:30.00Z 323.0 11.4042 34.7725 11.0 4.6831 0.009 820.8 1.0E-12
1 1 9.0 -86.9998 2010-06-23T22:13:30.00Z 324.0 11.3872 34.7711 10.9 4.6839 0.009 821.6 1.0E-12
1 1 9.0 -86.9998 2010-06-23T22:13:30.00Z 325.0 11.3647 34.7699 10.7 4.6836 0.009 823.5 1.0E-12
1 1 9.0 -86.9998 2010-06-23T22:13:30.00Z 326.0 11.3498 34.7682 9.9 4.6843 0.009 825.9 1.0E-12
1 1 9.0 -86.9998 2010-06-23T22:13:30.00Z 327.0 11.3248 34.7672 9.6 4.6847 0.009 827.2 1.0E-12
1 1 9.0 -86.9998 2010-06-23T22:13:30.00Z 328.0 11.3124 34.7663 9.4 4.6847 0.009 828.1 1.0E-12
1 1 9.0 -86.9998 2010-06-23T22:13:30.00Z 329.0 11.2981 34.7655 9.2 4.6849 0.009 829.1 1.0E-12
1 1 9.0 -86.9998 2010-06-23T22:13:30.00Z 330.0 11.2929 34.7651 9.0 4.6852 0.009 830.4 1.0E-12
1 1 9.0 -86.9998 2010-06-23T22:13:30.00Z 331.0 11.29 34.7648 8.9 4.685 0.009 832.1 1.0E-12
1 1 9.0 -86.9998 2010-06-23T22:13:30.00Z 332.0 11.2887 34.7649 8.8 4.6848 0.009 833.8 1.0E-12
1 1 9.0 -86.9998 2010-06-23T22:13:30.00Z 333.0 11.2877 34.7649 8.8 4.6847 0.009 834.9 1.0E-12
1 1 9.0 -86.9998 2010-06-23T22:13:30.00Z 334.0 11.2853 34.7647 8.7 4.685 0.009 835.9 1.0E-12
1 1 9.0 -86.9998 2010-06-23T22:13:30.00Z 335.0 11.2785 34.7645 8.7 4.6849 0.009 837.0 1.0E-12
1 1 9.0 -86.9998 2010-06-23T22:13:30.00Z 336.0 11.2753 34.7642 8.6 4.685 0.009 838.4 1.0E-12
1 1 9.0 -86.9998 2010-06-23T22:13:30.00Z 337.0 11.2742 34.7642 8.5 4.6839 0.009 840.2 1.0E-12
1 1 9.0 -86.9998 2010-06-23T22:13:30.00Z 338.0 11.2671 34.7638 8.5 4.6849 0.009 842.0 1.0E-12
1 1 9.0 -86.9998 2010-06-23T22:13:30.00Z 339.0 11.2564 34.7638 8.4 4.684 0.008 843.0 1.0E-12
1 1 9.0 -86.9998 2010-06-23T22:13:30.00Z 340.0 11.2488 34.7638 8.5 4.6837 0.009 843.8 1.0E-12
1 1 9.0 -86.9998 2010-06-23T22:13:30.00Z 341.0 11.2319 34.7637 8.4 4.6853 0.009 845.6 1.0E-12
1 1 9.0 -86.9998 2010-06-23T22:13:30.00Z 342.0 11.212 34.7622 8.2 4.6853 0.009 847.8 1.0E-12
1 1 9.0 -86.9998 2010-06-23T22:13:30.00Z 343.0 11.1797 34.76 8.2 4.6851 0.009 848.9 1.0E-12
1 1 9.0 -86.9998 2010-06-23T22:13:30.00Z 344.0 11.1488 34.7581 8.1 4.6852 0.009 849.9 1.0E-12
1 1 9.0 -86.9998 2010-06-23T22:13:30.00Z 345.0 11.134 34.7572 8.1 4.6852 0.009 851.0 1.0E-12
1 1 9.0 -86.9998 2010-06-23T22:13:30.00Z 346.0 11.1278 34.7565 8.0 4.6844 0.009 852.8 1.0E-12
1 1 9.0 -86.9998 2010-06-23T22:13:30.00Z 347.0 11.121 34.7563 7.9 4.6856 0.009 854.5 1.0E-12
1 1 9.0 -86.9998 2010-06-23T22:13:30.00Z 348.0 11.1122 34.7558 7.9 4.6857 0.009 855.5 1.0E-12
1 1 9.0 -86.9998 2010-06-23T22:13:30.00Z 349.0 11.1022 34.755 7.9 4.6848 0.009 856.4 1.0E-12
1 1 9.0 -86.9998 2010-06-23T22:13:30.00Z 350.0 11.0963 34.7547 7.8 4.686 0.009 858.0 1.0E-12
1 1 9.0 -86.9998 2010-06-23T22:13:30.00Z 351.0 11.0894 34.7543 7.6 4.686 0.009 859.9 1.0E-12
1 1 9.0 -86.9998 2010-06-23T22:13:30.00Z 352.0 11.0777 34.7538 7.6 4.6862 0.009 861.1 1.0E-12
1 1 9.0 -86.9998 2010-06-23T22:13:30.00Z 353.0 11.0678 34.7534 7.6 4.6863 0.009 862.1 1.0E-12
1 1 9.0 -86.9998 2010-06-23T22:13:30.00Z 354.0 11.0581 34.7529 7.5 4.6861 0.009 863.2 1.0E-12
1 1 9.0 -86.9998 2010-06-23T22:13:30.00Z 355.0 11.0459 34.7522 7.4 4.6862 0.009 864.8 1.0E-12
1 1 9.0 -86.9998 2010-06-23T22:13:30.00Z 356.0 11.0346 34.7514 7.3 4.686 0.009 866.4 1.0E-12
1 1 9.0 -86.9998 2010-06-23T22:13:30.00Z 357.0 11.0194 34.7505 7.2 4.6864 0.009 867.8 1.0E-12
1 1 9.0 -86.9998 2010-06-23T22:13:30.00Z 358.0 11.0033 34.7496 7.1 4.6864 0.009 869.1 1.0E-12
1 1 9.0 -86.9998 2010-06-23T22:13:30.00Z 359.0 10.9852 34.7485 7.0 4.6864 0.009 870.5 1.0E-12
1 1 9.0 -86.9998 2010-06-23T22:13:30.00Z 360.0 10.9547 34.7466 7.0 4.6865 0.009 871.8 1.0E-12
1 1 9.0 -86.9998 2010-06-23T22:13:30.00Z 361.0 10.9281 34.7453 6.8 4.6868 0.009 873.2 1.0E-12
1 1 9.0 -86.9998 2010-06-23T22:13:30.00Z 362.0 10.9226 34.7447 6.7 4.6868 0.009 875.0 1.0E-12
1 1 9.0 -86.9998 2010-06-23T22:13:30.00Z 363.0 10.905 34.7441 6.7 4.6871 0.009 876.4 1.0E-12
1 1 9.0 -86.9998 2010-06-23T22:13:30.00Z 364.0 10.8967 34.7436 6.7 4.6865 0.009 877.2 1.0E-12
1 1 9.0 -86.9998 2010-06-23T22:13:30.00Z 365.0 10.8613 34.742 6.7 4.6864 0.009 878.1 1.0E-12
1 1 9.0 -86.9998 2010-06-23T22:13:30.00Z 366.0 10.84 34.7406 6.9 4.6845 0.009 880.0 1.0E-12
1 1 9.0 -86.9998 2010-06-23T22:13:30.00Z 367.0 10.8039 34.7381 7.2 4.6863 0.009 882.0 1.0E-12
1 1 9.0 -86.9998 2010-06-23T22:13:30.00Z 368.0 10.765 34.7361 7.2 4.6856 0.009 883.1 1.0E-12
1 1 9.0 -86.9998 2010-06-23T22:13:30.00Z 369.0 10.7501 34.735 7.2 4.6848 0.009 884.2 1.0E-12
1 1 9.0 -86.9998 2010-06-23T22:13:30.00Z 370.0 10.725 34.7336 7.4 4.6841 0.009 885.5 1.0E-12
1 1 9.0 -86.9998 2010-06-23T22:13:30.00Z 371.0 10.7042 34.7321 7.5 4.6833 0.009 886.9 1.0E-12
1 1 9.0 -86.9998 2010-06-23T22:13:30.00Z 372.0 10.693 34.7314 7.6 4.6853 0.009 888.2 1.0E-12
1 1 9.0 -86.9998 2010-06-23T22:13:30.00Z 373.0 10.6847 34.731 7.8 4.6853 0.009 889.6 1.0E-12
1 1 9.0 -86.9998 2010-06-23T22:13:30.00Z 374.0 10.668 34.7302 8.0 4.6847 0.009 891.1 1.0E-12
1 1 9.0 -86.9998 2010-06-23T22:13:30.00Z 375.0 10.6552 34.7296 8.0 4.6847 0.009 892.5 1.0E-12
1 1 9.0 -86.9998 2010-06-23T22:13:30.00Z 376.0 10.641 34.7285 8.0 4.6842 0.009 893.8 1.0E-12
1 1 9.0 -86.9998 2010-06-23T22:13:30.00Z 377.0 10.6065 34.7262 8.1 4.6848 0.009 895.4 1.0E-12
1 1 9.0 -86.9998 2010-06-23T22:13:30.00Z 378.0 10.5806 34.7248 8.2 4.685 0.009 897.1 1.0E-12
1 1 9.0 -86.9998 2010-06-23T22:13:30.00Z 379.0 10.5572 34.7237 8.2 4.6844 0.009 898.4 1.0E-12
1 1 9.0 -86.9998 2010-06-23T22:13:30.00Z 380.0 10.5414 34.7231 8.2 4.6841 0.009 899.4 1.0E-12
1 1 9.0 -86.9998 2010-06-23T22:13:30.00Z 381.0 10.5223 34.7221 8.2 4.6839 0.009 900.4 1.0E-12
1 1 9.0 -86.9998 2010-06-23T22:13:30.00Z 382.0 10.5093 34.7213 8.1 4.6836 0.009 901.4 1.0E-12
1 1 9.0 -86.9998 2010-06-23T22:13:30.00Z 383.0 10.5009 34.7208 7.8 4.6838 0.009 902.6 1.0E-12
1 1 9.0 -86.9998 2010-06-23T22:13:30.00Z 384.0 10.4941 34.7204 7.6 4.6844 0.009 904.5 1.0E-12
1 1 9.0 -86.9998 2010-06-23T22:13:30.00Z 385.0 10.47 34.7193 7.4 4.6842 0.009 906.2 1.0E-12
1 1 9.0 -86.9998 2010-06-23T22:13:30.00Z 386.0 10.4598 34.7192 7.3 4.6851 0.009 907.4 1.0E-12
1 1 9.0 -86.9998 2010-06-23T22:13:30.00Z 387.0 10.4584 34.7191 7.0 4.6855 0.009 909.0 1.0E-12
1 1 9.0 -86.9998 2010-06-23T22:13:30.00Z 388.0 10.448 34.7186 6.7 4.686 0.009 910.8 1.0E-12
1 1 9.0 -86.9998 2010-06-23T22:13:30.00Z 389.0 10.4302 34.7178 6.6 4.6839 0.009 911.9 1.0E-12
1 1 9.0 -86.9998 2010-06-23T22:13:30.00Z 390.0 10.42 34.7172 6.5 4.6859 0.009 912.9 1.0E-12
1 1 9.0 -86.9998 2010-06-23T22:13:30.00Z 391.0 10.4127 34.7165 6.4 4.6859 0.009 914.2 1.0E-12
1 1 9.0 -86.9998 2010-06-23T22:13:30.00Z 392.0 10.3877 34.7145 6.2 4.6854 0.009 915.8 1.0E-12
1 1 9.0 -86.9998 2010-06-23T22:13:30.00Z 393.0 10.3687 34.7131 6.1 4.6848 0.009 917.2 1.0E-12
1 1 9.0 -86.9998 2010-06-23T22:13:30.00Z 394.0 10.3588 34.712 5.8 4.6846 0.009 918.9 1.0E-12
1 1 9.0 -86.9998 2010-06-23T22:13:30.00Z 395.0 10.3405 34.7107 5.7 4.6827 0.009 920.1 1.0E-12
1 1 9.0 -86.9998 2010-06-23T22:13:30.00Z 396.0 10.3302 34.7099 5.6 4.6821 0.009 921.1 1.0E-12
1 1 9.0 -86.9998 2010-06-23T22:13:30.00Z 397.0 10.3214 34.7092 5.5 4.6812 0.01 922.2 1.0E-12
1 1 9.0 -86.9998 2010-06-23T22:13:30.00Z 398.0 10.3175 34.7089 5.4 4.6809 0.009 923.9 1.0E-12
1 1 9.0 -86.9998 2010-06-23T22:13:30.00Z 399.0 10.312 34.7083 5.3 4.6801 0.009 925.5 1.0E-12
1 1 9.0 -86.9998 2010-06-23T22:13:30.00Z 400.0 10.2437 34.7027 5.1 4.6768 0.01 926.8 1.0E-12
1 1 9.0 -86.9998 2010-06-23T22:13:30.00Z 401.0 10.1736 34.6985 5.1 4.6731 0.01 928.2 1.0E-12
1 1 9.0 -86.9998 2010-06-23T22:13:30.00Z 402.0 10.1622 34.6973 5.0 4.673 0.01 930.1 1.0E-12
1 1 9.0 -86.9998 2010-06-23T22:13:30.00Z 403.0 10.1387 34.6964 4.9 4.6726 0.01 931.6 1.0E-12
1 1 9.0 -86.9998 2010-06-23T22:13:30.00Z 404.0 10.1258 34.6955 4.9 4.6711 0.01 932.5 1.0E-12
1 1 9.0 -86.9998 2010-06-23T22:13:30.00Z 405.0 10.1065 34.6945 4.8 4.6711 0.01 933.2 1.0E-12
1 1 9.0 -86.9998 2010-06-23T22:13:30.00Z 406.0 10.0784 34.6936 4.8 4.6702 0.01 934.1 1.0E-12
1 1 9.0 -86.9998 2010-06-23T22:13:30.00Z 407.0 10.0793 34.6937 4.8 4.6713 0.01 936.4 1.0E-12
1 1 9.0 -86.9998 2010-06-23T22:13:30.00Z 408.0 10.078 34.694 4.8 4.6728 0.01 939.5
1 1 9.0 -86.9998 2010-06-23T22:13:30.00Z 409.0 10.0713 34.6942 4.7 4.6727 0.01 942.5
1 1 9.0 -86.9998 2010-06-23T22:13:30.00Z 410.0 10.0685 34.6944 4.7 4.6729 0.01 949.0
1 1 9.0 -86.9998 2010-06-23T22:13:30.00Z 411.0 10.0514 34.6938 4.6 4.6723 0.01 982.5
12 2 8.9805 -87.0106 2010-06-23T22:49:22.20Z 0.0 28.6925 33.3929 213.9 4.6073 0.033 182.1
12 2 8.9805 -87.0106 2010-06-23T22:49:22.20Z 1.0 28.69 33.3924 213.9 4.6072 0.032 193.5
12 2 8.9805 -87.0106 2010-06-23T22:49:22.20Z 2.0 28.6874 33.3918 214.0 4.6072 0.031 205.0
12 2 8.9805 -87.0106 2010-06-23T22:49:22.20Z 3.0 28.6849 33.3913 214.1 4.6071 0.029 216.5
12 2 8.9805 -87.0106 2010-06-23T22:49:22.20Z 4.0 28.6823 33.3907 214.1 4.6071 0.028 227.9
12 2 8.9805 -87.0106 2010-06-23T22:49:22.20Z 5.0 28.6798 33.3902 214.2 4.607 0.027 239.4
12 2 8.9805 -87.0106 2010-06-23T22:49:22.20Z 6.0 28.6773 33.3896 214.2 4.607 0.026 250.9
12 2 8.9805 -87.0106 2010-06-23T22:49:22.20Z 7.0 28.6747 33.3891 214.3 4.6069 0.025 262.3
12 2 8.9805 -87.0106 2010-06-23T22:49:22.20Z 8.0 28.6773 33.3897 214.1 4.6081 0.026 281.0
12 2 8.9805 -87.0106 2010-06-23T22:49:22.20Z 9.0 28.6784 33.3913 214.2 4.6064 0.026 284.5
12 2 8.9805 -87.0106 2010-06-23T22:49:22.20Z 10.0 28.6785 33.3918 214.4 4.6069 0.026 286.8
12 2 8.9805 -87.0106 2010-06-23T22:49:22.20Z 11.0 28.6789 33.3914 214.2 4.6033 0.025 288.6
12 2 8.9805 -87.0106 2010-06-23T22:49:22.20Z 12.0 28.6779 33.3932 214.2 4.6055 0.025 292.9 33.8
12 2 8.9805 -87.0106 2010-06-23T22:49:22.20Z 13.0 28.6746 33.398 214.3 4.5992 0.026 296.0 36.4
12 2 8.9805 -87.0106 2010-06-23T22:49:22.20Z 14.0 28.6742 33.3983 214.5 4.6043 0.027 298.8 35.5
12 2 8.9805 -87.0106 2010-06-23T22:49:22.20Z 15.0 28.6716 33.4018 214.5 4.6015 0.028 301.9 32.0
12 2 8.9805 -87.0106 2010-06-23T22:49:22.20Z 16.0 28.6658 33.407 214.6 4.6012 0.03 305.2 30.7
12 2 8.9805 -87.0106 2010-06-23T22:49:22.20Z 17.0 28.6543 33.4157 214.9 4.5991 0.032 308.1 27.0
12 2 8.9805 -87.0106 2010-06-23T22:49:22.20Z 18.0 28.6481 33.4198 214.9 4.595 0.032 309.6 27.4
12 2 8.9805 -87.0106 2010-06-23T22:49:22.20Z 19.0 28.6436 33.4237 214.9 4.5938 0.033 312.4 25.7
12 2 8.9805 -87.0106 2010-06-23T22:49:22.20Z 20.0 28.6399 33.4303 215.0 4.5945 0.032 315.1 23.8
12 2 8.9805 -87.0106 2010-06-23T22:49:22.20Z 21.0 28.6407 33.4357 214.7 4.5959 0.034 317.3 22.3
12 2 8.9805 -87.0106 2010-06-23T22:49:22.20Z 22.0 28.6425 33.4443 215.0 4.5954 0.034 320.6 21.9
12 2 8.9805 -87.0106 2010-06-23T22:49:22.20Z 23.0 28.6422 33.4608 214.6 4.5963 0.033 321.9 20.2
12 2 8.9805 -87.0106 2010-06-23T22:49:22.20Z 24.0 28.6128 33.5796 214.2 4.5908 0.039 323.0 19.3
12 2 8.9805 -87.0106 2010-06-23T22:49:22.20Z 25.0 28.6111 33.631 216.1 4.5865 0.044 325.5 18.1
12 2 8.9805 -87.0106 2010-06-23T22:49:22.20Z 26.0 28.4612 33.752 217.0 4.5804 0.046 328.2 16.8
12 2 8.9805 -87.0106 2010-06-23T22:49:22.20Z 27.0 28.1584 33.8496 207.1 4.5814 0.049 330.5 15.2
12 2 8.9805 -87.0106 2010-06-23T22:49:22.20Z 28.0 27.8434 33.9409 200.6 4.5755 0.051 332.6 13.9
12 2 8.9805 -87.0106 2010-06-23T22:49:22.20Z 29.0 26.7203 34.0723 197.4 4.5604 0.055 334.0 12.7
12 2 8.9805 -87.0106 2010-06-23T22:49:22.20Z 30.0 25.5435 34.1847 180.2 4.5578 0.065 335.5 11.3
12 2 8.9805 -87.0106 2010-06-23T22:49:22.20Z 31.0 24.5882 34.2935 149.0 4.5489 0.073 338.2 10.6
12 2 8.9805 -87.0106 2010-06-23T22:49:22.20Z 32.0 23.892 34.4043 138.0 4.5441 0.073 341.1 9.71
12 2 8.9805 -87.0106 2010-06-23T22:49:22.20Z 33.0 23.623 34.4409 136.5 4.5498 0.069 342.8 8.68
12 2 8.9805 -87.0106 2010-06-23T22:49:22.20Z 34.0 23.3648 34.423 135.4 4.5566 0.067 344.2 7.58
12 2 8.9805 -87.0106 2010-06-23T22:49:22.20Z 35.0 22.604 34.4586 132.1 4.5572 0.067 346.4 7.06
12 2 8.9805 -87.0106 2010-06-23T22:49:22.20Z 36.0 22.1925 34.4938 124.1 4.5544 0.067 348.4 6.34
12 2 8.9805 -87.0106 2010-06-23T22:49:22.20Z 37.0 21.827 34.5232 120.8 4.5474 0.067 349.8 5.69
12 2 8.9805 -87.0106 2010-06-23T22:49:22.20Z 38.0 21.3303 34.5615 115.1 4.5534 0.069 352.0 5.11
12 2 8.9805 -87.0106 2010-06-23T22:49:22.20Z 39.0 20.8099 34.6032 111.2 4.5566 0.067 355.1 4.51
12 2 8.9805 -87.0106 2010-06-23T22:49:22.20Z 40.0 20.0207 34.6506 110.1 4.5633 0.066 356.2 4.03
12 2 8.9805 -87.0106 2010-06-23T22:49:22.20Z 41.0 19.4852 34.6559 103.3 4.5646 0.07 357.6 3.67
12 2 8.9805 -87.0106 2010-06-23T22:49:22.20Z 42.0 18.9814 34.7019 94.3 4.5673 0.07 359.5 3.28
12 2 8.9805 -87.0106 2010-06-23T22:49:22.20Z 43.0 18.6704 34.7287 82.2 4.5752 0.07 361.8 2.9
12 2 8.9805 -87.0106 2010-06-23T22:49:22.20Z 44.0 18.4103 34.7169 75.2 4.5782 0.071 364.9 2.63
12 2 8.9805 -87.0106 2010-06-23T22:49:22.20Z 45.0 18.1492 34.694 74.8 4.5869 0.06 367.4 2.35
12 2 8.9805 -87.0106 2010-06-23T22:49:22.20Z 46.0 17.9518 34.6915 75.4 4.5914 0.058 368.2 2.09
12 2 8.9805 -87.0106 2010-06-23T22:49:22.20Z 47.0 17.8827 34.7004 77.0 4.5952 0.059 369.2 1.88
12 2 8.9805 -87.0106 2010-06-23T22:49:22.20Z 48.0 17.8969 34.7078 77.9 4.5962 0.064 372.3 1.71
12 2 8.9805 -87.0106 2010-06-23T22:49:22.20Z 49.0 17.5666 34.7647 78.6 4.5987 0.056 375.0 1.54
12 2 8.9805 -87.0106 2010-06-23T22:49:22.20Z 50.0 17.3296 34.7738 72.6 4.5986 0.057 376.6 1.38
12 2 8.9805 -87.0106 2010-06-23T22:49:22.20Z 51.0 17.2405 34.7748 63.0 4.5995 0.057 379.0 1.24
12 2 8.9805 -87.0106 2010-06-23T22:49:22.20Z 52.0 16.9984 34.7633 59.9 4.5984 0.055 381.1 1.12
12 2 8.9805 -87.0106 2010-06-23T22:49:22.20Z 53.0 16.6618 34.747 58.6 4.5981 0.054 382.8 1.03
12 2 8.9805 -87.0106 2010-06-23T22:49:22.20Z 54.0 16.4918 34.7407 58.0 4.5984 0.052 384.6 0.932
12 2 8.9805 -87.0106 2010-06-23T22:49:22.20Z 55.0 16.3176 34.7377 58.4 4.6019 0.049 386.5 0.84
12 2 8.9805 -87.0106 2010-06-23T22:49:22.20Z 56.0 16.0618 34.7397 58.7 4.6113 0.049 389.0 0.775
12 2 8.9805 -87.0106 2010-06-23T22:49:22.20Z 57.0 15.8899 34.7459 59.0 4.6168 0.041 391.4 0.701
12 2 8.9805 -87.0106 2010-06-23T22:49:22.20Z 58.0 15.7956 34.7507 58.6 4.6219 0.039 392.6 0.639
12 2 8.9805 -87.0106 2010-06-23T22:49:22.20Z 59.0 15.6661 34.7613 58.1 4.6265 0.044 394.5 0.597
12 2 8.9805 -87.0106 2010-06-23T22:49:22.20Z 60.0 15.4686 34.7846 58.2 4.6307 0.033 396.5 0.556
12 2 8.9805 -87.0106 2010-06-23T22:49:22.20Z 61.0 15.3549 34.8048 57.7 4.6356 0.033 398.2 0.513
12 2 8.9805 -87.0106 2010-06-23T22:49:22.20Z 62.0 15.3436 34.8088 57.4 4.6382 0.036 401.0 0.467
12 2 8.9805 -87.0106 2010-06-23T22:49:22.20Z 63.0 15.2991 34.8182 57.5 4.6399 0.03 403.2 0.429
12 2 8.9805 -87.0106 2010-06-23T22:49:22.20Z 64.0 15.2141 34.8255 57.6 4.6429 0.029 404.4 0.387
12 2 8.9805 -87.0106 2010-06-23T22:49:22.20Z 65.0 15.1284 34.8373 57.7 4.6441 0.03 405.6 0.371
12 2 8.9805 -87.0106 2010-06-23T22:49:22.20Z 66.0 15.0582 34.8525 55.7 4.6448 0.036 408.0 0.347
12 2 8.9805 -87.0106 2010-06-23T22:49:22.20Z 67.0 15.0082 34.8658 53.0 4.6482 0.029 410.4 0.321
12 2 8.9805 -87.0106 2010-06-23T22:49:22.20Z 68.0 14.9787 34.873 50.9 4.6507 0.032 413.0 0.295
12 2 8.9805 -87.0106 2010-06-23T22:49:22.20Z 69.0 14.944 34.8806 49.7 4.6537 0.025 415.4 0.272
12 2 8.9805 -87.0106 2010-06-23T22:49:22.20Z 70.0 14.9144 34.8815 49.4 4.6562 0.024 416.2 0.253
12 2 8.9805 -87.0106 2010-06-23T22:49:22.20Z 71.0 14.8678 34.8827 48.9 4.6568 0.025 417.2 0.238
12 2 8.9805 -87.0106 2010-06-23T22:49:22.20Z 72.0 14.8307 34.8828 49.5 4.6589 0.031 419.5 0.224
12 2 8.9805 -87.0106 2010-06-23T22:49:22.20Z 73.0 14.8077 34.8878 49.0 4.6598 0.026 422.4 0.209
12 2 8.9805 -87.0106 2010-06-23T22:49:22.20Z 74.0 14.7758 34.8946 47.8 4.6621 0.024 424.4 0.196
12 2 8.9805 -87.0106 2010-06-23T22:49:22.20Z 75.0 14.7333 34.8976 46.4 4.6644 0.023 426.0 0.183
12 2 8.9805 -87.0106 2010-06-23T22:49:22.20Z 76.0 14.7138 34.9023 44.2 4.6647 0.023 428.0 0.171
12 2 8.9805 -87.0106 2010-06-23T22:49:22.20Z 77.0 14.6732 34.9234 41.8 4.6693 0.021 430.1 0.161
12 2 8.9805 -87.0106 2010-06-23T22:49:22.20Z 78.0 14.642 34.9258 35.7 4.6722 0.02 432.1 0.151
12 2 8.9805 -87.0106 2010-06-23T22:49:22.20Z 79.0 14.6003 34.9281 31.7 4.6737 0.018 434.0 0.144
12 2 8.9805 -87.0106 2010-06-23T22:49:22.20Z 80.0 14.5683 34.9275 29.0 4.6736 0.019 436.1 0.136
12 2 8.9805 -87.0106 2010-06-23T22:49:22.20Z 81.0 14.5265 34.9272 27.4 4.6757 0.017 438.4 0.128
12 2 8.9805 -87.0106 2010-06-23T22:49:22.20Z 82.0 14.4951 34.927 26.4 4.6766 0.017 440.6 0.119
12 2 8.9805 -87.0106 2010-06-23T22:49:22.20Z 83.0 14.4784 34.926 26.4 4.6727 0.016 442.8 0.114
12 2 8.9805 -87.0106 2010-06-23T22:49:22.20Z 84.0 14.446 34.929 26.5 4.6761 0.015 444.2 0.107
12 2 8.9805 -87.0106 2010-06-23T22:49:22.20Z 85.0 14.4156 34.93 26.2 4.6787 0.015 445.4 0.102
12 2 8.9805 -87.0106 2010-06-23T22:49:22.20Z 86.0 14.3963 34.9279 25.9 4.6781 0.018 448.0 0.0958
12 2 8.9805 -87.0106 2010-06-23T22:49:22.20Z 87.0 14.3724 34.9266 25.9 4.6797 0.015 451.1 0.0903
12 2 8.9805 -87.0106 2010-06-23T22:49:22.20Z 88.0 14.3219 34.9285 25.8 4.6781 0.014 452.5 0.086
12 2 8.9805 -87.0106 2010-06-23T22:49:22.20Z 89.0 14.2976 34.9273 25.5 4.6735 0.013 453.8 0.0813
12 2 8.9805 -87.0106 2010-06-23T22:49:22.20Z 90.0 14.2689 34.9251 24.2 4.6797 0.015 455.6 0.0773
12 2 8.9805 -87.0106 2010-06-23T22:49:22.20Z 91.0 14.2364 34.9225 22.7 4.6784 0.014 458.2 0.0734
12 2 8.9805 -87.0106 2010-06-23T22:49:22.20Z 92.0 14.193 34.9204 22.1 4.6819 0.011 460.4 0.0696
12 2 8.9805 -87.0106 2010-06-23T22:49:22.20Z 93.0 14.191 34.9269 22.7 4.6839 0.035 461.9 0.0659
12 2 8.9805 -87.0106 2010-06-23T22:49:22.20Z 94.0 14.1862 34.931 22.8 4.6871 0.011 463.6 0.0627
12 2 8.9805 -87.0106 2010-06-23T22:49:22.20Z 95.0 14.1786 34.9319 22.1 4.6879 0.011 465.8 0.0593
12 2 8.9805 -87.0106 2010-06-23T22:49:22.20Z 96.0 14.1688 34.9313 21.8 4.6884 0.011 467.8 0.0571
12 2 8.9805 -87.0106 2010-06-23T22:49:22.20Z 97.0 14.1431 34.9302 21.7 4.689 0.01 469.4 0.0538
12 2 8.9805 -87.0106 2010-06-23T22:49:22.20Z 98.0 14.1237 34.9302 21.7 4.6892 0.011 471.9 0.0508
12 2 8.9805 -87.0106 2010-06-23T22:49:22.20Z 99.0 14.1072 34.9289 21.5 4.6818 0.01 474.5 0.0486
12 2 8.9805 -87.0106 2010-06-23T22:49:22.20Z 100.0 14.0633 34.9277 21.4 4.6889 0.01 475.9 0.0465
12 2 8.9805 -87.0106 2010-06-23T22:49:22.20Z 101.0 14.0433 34.9301 21.4 4.6898 0.01 477.0 0.0446
12 2 8.9805 -87.0106 2010-06-23T22:49:22.20Z 102.0 14.0389 34.9305 21.5 4.6903 0.01 479.8 0.0427
12 2 8.9805 -87.0106 2010-06-23T22:49:22.20Z 103.0 14.0094 34.9305 21.6 4.6904 0.01 482.2 0.0401
12 2 8.9805 -87.0106 2010-06-23T22:49:22.20Z 104.0 13.9866 34.9303 21.7 4.6903 0.009 483.1 0.038
12 2 8.9805 -87.0106 2010-06-23T22:49:22.20Z 105.0 13.9809 34.9304 21.4 4.6917 0.01 485.2 0.0361
12 2 8.9805 -87.0106 2010-06-23T22:49:22.20Z 106.0 13.9686 34.9302 21.1 4.6915 0.01 487.9 0.0343
12 2 8.9805 -87.0106 2010-06-23T22:49:22.20Z 107.0 13.9446 34.9303 20.8 4.6916 0.009 489.6 0.0329
12 2 8.9805 -87.0106 2010-06-23T22:49:22.20Z 108.0 13.9287 34.9298 20.3 4.6926 0.009 491.5 0.0312
12 2 8.9805 -87.0106 2010-06-23T22:49:22.20Z 109.0 13.9101 34.929 19.7 4.6926 0.009 493.9 0.0298
12 2 8.9805 -87.0106 2010-06-23T22:49:22.20Z 110.0 13.8964 34.9281 19.4 4.6928 0.009 496.2 0.0285
12 2 8.9805 -87.0106 2010-06-23T22:49:22.20Z 111.0 13.8811 34.9275 19.2 4.693 0.008 497.9 0.0271
12 2 8.9805 -87.0106 2010-06-23T22:49:22.20Z 112.0 13.8662 34.9266 18.9 4.6928 0.009 498.9 0.0258
12 2 8.9805 -87.0106 2010-06-23T22:49:22.20Z 113.0 13.8425 34.9255 18.0 4.6937 0.009 500.5 0.0243
12 2 8.9805 -87.0106 2010-06-23T22:49:22.20Z 114.0 13.8512 34.9257 16.8 4.6931 0.008 504.9 0.0232
12 2 8.9805 -87.0106 2010-06-23T22:49:22.20Z 115.0 13.8032 34.9235 16.7 4.6935 0.008 505.9 0.0217
12 2 8.9805 -87.0106 2010-06-23T22:49:22.20Z 116.0 13.7871 34.9239 16.6 4.6933 0.008 506.9 0.0203
12 2 8.9805 -87.0106 2010-06-23T22:49:22.20Z 117.0 13.7919 34.9236 16.7 4.6936 0.009 509.5 0.02
12 2 8.9805 -87.0106 2010-06-23T22:49:22.20Z 118.0 13.7762 34.9227 16.7 4.6937 0.009 512.0 0.0189
12 2 8.9805 -87.0106 2010-06-23T22:49:22.20Z 119.0 13.752 34.9216 16.6 4.6936 0.008 513.2 0.0179
12 2 8.9805 -87.0106 2010-06-23T22:49:22.20Z 120.0 13.7517 34.9213 16.1 4.6941 0.008 515.8 0.0173
12 2 8.9805 -87.0106 2010-06-23T22:49:22.20Z 121.0 13.7366 34.9206 15.9 4.6943 0.008 518.0 0.0163
12 2 8.9805 -87.0106 2010-06-23T22:49:22.20Z 122.0 13.7294 34.9204 15.8 4.694 0.008 518.9 0.0156
12 2 8.9805 -87.0106 2010-06-23T22:49:22.20Z 123.0 13.7206 34.9196 15.7 4.6939 0.008 520.0 0.0145
12 2 8.9805 -87.0106 2010-06-23T22:49:22.20Z 124.0 13.7069 34.9192 15.4 4.6936 0.008 521.9 0.0142
12 2 8.9805 -87.0106 2010-06-23T22:49:22.20Z 125.0 13.6802 34.9174 15.2 4.6939 0.008 523.8 0.0134
12 2 8.9805 -87.0106 2010-06-23T22:49:22.20Z 126.0 13.6629 34.916 15.1 4.6934 0.008 525.0 0.0126
12 2 8.9805 -87.0106 2010-06-23T22:49:22.20Z 127.0 13.6409 34.915 14.5 4.694 0.008 527.2 0.0122
12 2 8.9805 -87.0106 2010-06-23T22:49:22.20Z 128.0 13.6137 34.9127 14.0 4.6935 0.009 529.5 0.0113
12 2 8.9805 -87.0106 2010-06-23T22:49:22.20Z 129.0 13.5766 34.9102 13.8 4.6936 0.008 530.6 0.0111
12 2 8.9805 -87.0106 2010-06-23T22:49:22.20Z 130.0 13.5688 34.9102 13.7 4.6947 0.008 531.5 0.0108
12 2 8.9805 -87.0106 2010-06-23T22:49:22.20Z 131.0 13.5596 34.9096 13.5 4.6941 0.008 532.5 0.00946
12 2 8.9805 -87.0106 2010-06-23T22:49:22.20Z 132.0 13.5628 34.9097 13.2 4.694 0.008 535.0 0.00948
12 2 8.9805 -87.0106 2010-06-23T22:49:22.20Z 133.0 13.5545 34.911 13.0 4.6936 0.008 537.1 0.00942
12 2 8.9805 -87.0106 2010-06-23T22:49:22.20Z 134.0 13.5381 34.911 12.9 4.6939 0.008 538.1 0.00816
12 2 8.9805 -87.0106 2010-06-23T22:49:22.20Z 135.0 13.5334 34.9102 12.8 4.6934 0.008 540.1 0.00794
12 2 8.9805 -87.0106 2010-06-23T22:49:22.20Z 136.0 13.517 34.9089 12.6 4.6945 0.008 542.2 0.0076
12 2 8.9805 -87.0106 2010-06-23T22:49:22.20Z 137.0 13.504 34.908 12.6 4.6943 0.008 543.2 0.00702
12 2 8.9805 -87.0106 2010-06-23T22:49:22.20Z 138.0 13.4982 34.9073 12.5 4.6937 0.008 544.2 0.00637
12 2 8.9805 -87.0106 2010-06-23T22:49:22.20Z 139.0 13.4893 34.9065 12.4 4.6942 0.008 545.5 0.00637
12 2 8.9805 -87.0106 2010-06-23T22:49:22.20Z 140.0 13.4829 34.9061 12.2 4.6947 0.008 547.5 0.00612
12 2 8.9805 -87.0106 2010-06-23T22:49:22.20Z 141.0 13.4759 34.9057 12.1 4.6947 0.008 549.6 0.0055
12 2 8.9805 -87.0106 2010-06-23T22:49:22.20Z 142.0 13.469 34.9054 12.0 4.6944 0.008 550.9 0.00526
12 2 8.9805 -87.0106 2010-06-23T22:49:22.20Z 143.0 13.4508 34.9042 12.0 4.6934 0.008 551.9 0.00484
12 2 8.9805 -87.0106 2010-06-23T22:49:22.20Z 144.0 13.4361 34.9035 12.0 4.6944 0.008 553.6 0.00483
12 2 8.9805 -87.0106 2010-06-23T22:49:22.20Z 145.0 13.4265 34.9028 11.9 4.6929 0.008 555.5 0.00479
12 2 8.9805 -87.0106 2010-06-23T22:49:22.20Z 146.0 13.4142 34.9024 11.9 4.6922 0.008 556.6 0.00448
12 2 8.9805 -87.0106 2010-06-23T22:49:22.20Z 147.0 13.4059 34.9021 11.9 4.6942 0.008 557.6 0.00431
12 2 8.9805 -87.0106 2010-06-23T22:49:22.20Z 148.0 13.3896 34.9012 11.9 4.6945 0.008 559.2 0.00395
12 2 8.9805 -87.0106 2010-06-23T22:49:22.20Z 149.0 13.3761 34.9002 11.9 4.694 0.008 561.5 0.00345
12 2 8.9805 -87.0106 2010-06-23T22:49:22.20Z 150.0 13.3536 34.8982 11.8 4.6936 0.008 563.1 0.00328
12 2 8.9805 -87.0106 2010-06-23T22:49:22.20Z 151.0 13.3408 34.8968 11.8 4.6935 0.008 564.1 0.00328
12 2 8.9805 -87.0106 2010-06-23T22:49:22.20Z 152.0 13.326 34.8955 11.8 4.6933 0.008 565.1 0.00321
12 2 8.9805 -87.0106 2010-06-23T22:49:22.20Z 153.0 13.3052 34.8936 11.9 4.6932 0.008 566.2 0.00285
12 2 8.9805 -87.0106 2010-06-23T22:49:22.20Z 154.0 13.3086 34.8942 12.5 4.6933 0.008 568.8 0.0029
12 2 8.9805 -87.0106 2010-06-23T22:49:22.20Z 155.0 13.2788 34.8905 12.7 4.6935 0.008 570.9 0.00253
12 2 8.9805 -87.0106 2010-06-23T22:49:22.20Z 156.0 13.2454 34.8894 12.8 4.6941 0.008 571.8 0.0019
12 2 8.9805 -87.0106 2010-06-23T22:49:22.20Z 157.0 13.2371 34.8921 12.9 4.6942 0.008 572.6 0.00169
12 2 8.9805 -87.0106 2010-06-23T22:49:22.20Z 158.0 13.2293 34.8918 13.1 4.694 0.008 573.9 0.00174
12 2 8.9805 -87.0106 2010-06-23T22:49:22.20Z 159.0 13.2183 34.8914 13.2 4.6935 0.008 575.2 0.00174
12 2 8.9805 -87.0106 2010-06-23T22:49:22.20Z 160.0 13.2069 34.8907 13.8 4.6934 0.008 576.9 0.00142
12 2 8.9805 -87.0106 2010-06-23T22:49:22.20Z 161.0 13.2033 34.8925 14.6 4.6932 0.008 579.2 0.0015
12 2 8.9805 -87.0106 2010-06-23T22:49:22.20Z 162.0 13.1834 34.8917 15.9 4.6924 0.008 581.1 0.00137
12 2 8.9805 -87.0106 2010-06-23T22:49:22.20Z 163.0 13.1692 34.8901 17.5 4.692 0.008 582.0 9.36E-4
12 2 8.9805 -87.0106 2010-06-23T22:49:22.20Z 164.0 13.1451 34.8881 19.7 4.6919 0.008 583.0 4.88E-4
12 2 8.9805 -87.0106 2010-06-23T22:49:22.20Z 165.0 13.1207 34.8869 22.1 4.6921 0.008 584.5 4.76E-4
12 2 8.9805 -87.0106 2010-06-23T22:49:22.20Z 166.0 13.1122 34.888 23.6 4.6923 0.008 585.9 2.79E-4
12 2 8.9805 -87.0106 2010-06-23T22:49:22.20Z 167.0 13.1095 34.8889 24.2 4.6921 0.008 586.9 2.49E-4
12 2 8.9805 -87.0106 2010-06-23T22:49:22.20Z 168.0 13.1043 34.8892 24.0 4.6924 0.008 587.9 1.93E-4
12 2 8.9805 -87.0106 2010-06-23T22:49:22.20Z 169.0 13.1013 34.8902 22.7 4.6922 0.009 589.2 1.93E-4
12 2 8.9805 -87.0106 2010-06-23T22:49:22.20Z 170.0 13.096 34.8905 20.2 4.6924 0.008 591.0 1.53E-4
12 2 8.9805 -87.0106 2010-06-23T22:49:22.20Z 171.0 13.0776 34.8887 18.4 4.6925 0.008 592.6 1.12E-4
12 2 8.9805 -87.0106 2010-06-23T22:49:22.20Z 172.0 13.0361 34.8836 20.5 4.6913 0.009 594.2 3.84E-5
12 2 8.9805 -87.0106 2010-06-23T22:49:22.20Z 173.0 13.0227 34.8834 24.8 4.6922 0.008 596.0 8.52E-5
12 2 8.9805 -87.0106 2010-06-23T22:49:22.20Z 174.0 13.015 34.8833 27.8 4.6924 0.008 597.6 3.98E-5
12 2 8.9805 -87.0106 2010-06-23T22:49:22.20Z 175.0 13.0146 34.8846 29.2 4.6924 0.008 598.9 2.26E-5
12 2 8.9805 -87.0106 2010-06-23T22:49:22.20Z 176.0 13.016 34.8871 29.9 4.6925 0.008 599.9 3.36E-5
12 2 8.9805 -87.0106 2010-06-23T22:49:22.20Z 177.0 13.0005 34.8862 30.0 4.6924 0.008 600.9 1.85E-5
12 2 8.9805 -87.0106 2010-06-23T22:49:22.20Z 178.0 12.9936 34.8878 29.1 4.6923 0.008 602.5 3.36E-6
12 2 8.9805 -87.0106 2010-06-23T22:49:22.20Z 179.0 12.9851 34.8875 28.4 4.692 0.008 604.2 -1.5E-8
12 2 8.9805 -87.0106 2010-06-23T22:49:22.20Z 180.0 12.9623 34.8858 28.1 4.6923 0.008 605.4 1.0E-12
12 2 8.9805 -87.0106 2010-06-23T22:49:22.20Z 181.0 12.9423 34.8839 28.0 4.6919 0.009 606.5 1.0E-12
12 2 8.9805 -87.0106 2010-06-23T22:49:22.20Z 182.0 12.932 34.8827 28.2 4.6921 0.008 608.4 1.0E-12
12 2 8.9805 -87.0106 2010-06-23T22:49:22.20Z 183.0 12.9132 34.8813 28.1 4.6918 0.009 610.2 1.0E-12
12 2 8.9805 -87.0106 2010-06-23T22:49:22.20Z 184.0 12.8855 34.8791 27.7 4.6921 0.008 611.4 1.0E-12
12 2 8.9805 -87.0106 2010-06-23T22:49:22.20Z 185.0 12.8757 34.8783 27.0 4.6922 0.008 612.4 1.0E-12
12 2 8.9805 -87.0106 2010-06-23T22:49:22.20Z 186.0 12.8737 34.8779 26.2 4.6915 0.008 613.5 1.0E-12
12 2 8.9805 -87.0106 2010-06-23T22:49:22.20Z 187.0 12.8679 34.8771 25.9 4.692 0.008 615.0 1.0E-12
12 2 8.9805 -87.0106 2010-06-23T22:49:22.20Z 188.0 12.8562 34.8757 25.9 4.692 0.008 616.8 1.0E-12
12 2 8.9805 -87.0106 2010-06-23T22:49:22.20Z 189.0 12.8443 34.8746 25.7 4.6921 0.008 618.5 1.0E-12
12 2 8.9805 -87.0106 2010-06-23T22:49:22.20Z 190.0 12.8339 34.8736 25.0 4.6924 0.009 620.0 1.0E-12
12 2 8.9805 -87.0106 2010-06-23T22:49:22.20Z 191.0 12.827 34.873 24.2 4.6924 0.008 621.0 1.0E-12
12 2 8.9805 -87.0106 2010-06-23T22:49:22.20Z 192.0 12.8132 34.8716 24.3 4.6924 0.008 621.9 1.0E-12
12 2 8.9805 -87.0106 2010-06-23T22:49:22.20Z 193.0 12.797 34.8702 24.9 4.6922 0.008 623.0 1.0E-12
12 2 8.9805 -87.0106 2010-06-23T22:49:22.20Z 194.0 12.7899 34.8693 25.3 4.692 0.008 625.0 1.0E-12
12 2 8.9805 -87.0106 2010-06-23T22:49:22.20Z 195.0 12.7707 34.868 25.3 4.6923 0.008 627.0 1.0E-12
12 2 8.9805 -87.0106 2010-06-23T22:49:22.20Z 196.0 12.7624 34.8688 25.1 4.6912 0.008 628.1 1.0E-12
12 2 8.9805 -87.0106 2010-06-23T22:49:22.20Z 197.0 12.7543 34.8694 24.3 4.6917 0.008 629.1 1.0E-12
12 2 8.9805 -87.0106 2010-06-23T22:49:22.20Z 198.0 12.7413 34.8685 22.1 4.6913 0.008 630.8 1.0E-12
12 2 8.9805 -87.0106 2010-06-23T22:49:22.20Z 199.0 12.735 34.868 20.3 4.6917 0.009 632.6 1.0E-12
12 2 8.9805 -87.0106 2010-06-23T22:49:22.20Z 200.0 12.7295 34.8679 19.7 4.691 0.009 633.8 1.0E-12
12 2 8.9805 -87.0106 2010-06-23T22:49:22.20Z 201.0 12.723 34.8675 19.4 4.6913 0.008 634.5 1.0E-12
12 2 8.9805 -87.0106 2010-06-23T22:49:22.20Z 202.0 12.7133 34.8667 19.3 4.691 0.008 635.2 1.0E-12
12 2 8.9805 -87.0106 2010-06-23T22:49:22.20Z 203.0 12.704 34.8657 19.2 4.6914 0.009 636.1 1.0E-12
12 2 8.9805 -87.0106 2010-06-23T22:49:22.20Z 204.0 12.7017 34.8653 19.8 4.6911 0.008 638.2 1.0E-12
12 2 8.9805 -87.0106 2010-06-23T22:49:22.20Z 205.0 12.6934 34.8641 20.3 4.6911 0.008 640.4 1.0E-12
12 2 8.9805 -87.0106 2010-06-23T22:49:22.20Z 206.0 12.6756 34.862 20.3 4.6911 0.008 641.4 1.0E-12
12 2 8.9805 -87.0106 2010-06-23T22:49:22.20Z 207.0 12.6506 34.8596 20.4 4.6912 0.008 642.4 1.0E-12
12 2 8.9805 -87.0106 2010-06-23T22:49:22.20Z 208.0 12.6418 34.8582 20.4 4.6904 0.009 643.8 1.0E-12
12 2 8.9805 -87.0106 2010-06-23T22:49:22.20Z 209.0 12.6343 34.857 20.3 4.6914 0.008 645.4 1.0E-12
12 2 8.9805 -87.0106 2010-06-23T22:49:22.20Z 210.0 12.6253 34.8563 20.2 4.6911 0.008 646.6 1.0E-12
12 2 8.9805 -87.0106 2010-06-23T22:49:22.20Z 211.0 12.6158 34.8552 20.0 4.691 0.008 647.6 1.0E-12
12 2 8.9805 -87.0106 2010-06-23T22:49:22.20Z 212.0 12.6028 34.8538 19.9 4.6912 0.008 648.6 1.0E-12
12 2 8.9805 -87.0106 2010-06-23T22:49:22.20Z 213.0 12.5934 34.8528 19.7 4.6913 0.008 649.9 1.0E-12
12 2 8.9805 -87.0106 2010-06-23T22:49:22.20Z 214.0 12.5747 34.8507 19.3 4.6908 0.008 651.6 1.0E-12
12 2 8.9805 -87.0106 2010-06-23T22:49:22.20Z 215.0 12.5572 34.8487 19.0 4.6915 0.009 653.6 1.0E-12
12 2 8.9805 -87.0106 2010-06-23T22:49:22.20Z 216.0 12.5441 34.8476 18.7 4.6908 0.009 655.2 1.0E-12
12 2 8.9805 -87.0106 2010-06-23T22:49:22.20Z 217.0 12.5353 34.8467 18.6 4.6905 0.008 656.2 1.0E-12
12 2 8.9805 -87.0106 2010-06-23T22:49:22.20Z 218.0 12.5253 34.8454 18.4 4.6907 0.009 657.0 1.0E-12
12 2 8.9805 -87.0106 2010-06-23T22:49:22.20Z 219.0 12.5113 34.8438 18.3 4.6911 0.008 657.9 1.0E-12
12 2 8.9805 -87.0106 2010-06-23T22:49:22.20Z 220.0 12.4922 34.8431 17.9 4.6908 0.008 659.1 1.0E-12
12 2 8.9805 -87.0106 2010-06-23T22:49:22.20Z 221.0 12.4847 34.8439 18.0 4.6913 0.009 661.0 1.0E-12
12 2 8.9805 -87.0106 2010-06-23T22:49:22.20Z 222.0 12.4793 34.8437 19.0 4.6917 0.008 662.8 1.0E-12
12 2 8.9805 -87.0106 2010-06-23T22:49:22.20Z 223.0 12.4687 34.8429 19.7 4.6916 0.008 664.1 1.0E-12
12 2 8.9805 -87.0106 2010-06-23T22:49:22.20Z 224.0 12.4515 34.8413 20.1 4.6911 0.009 665.5 1.0E-12
12 2 8.9805 -87.0106 2010-06-23T22:49:22.20Z 225.0 12.4373 34.8397 20.4 4.6913 0.008 666.8 1.0E-12
12 2 8.9805 -87.0106 2010-06-23T22:49:22.20Z 226.0 12.4149 34.8377 20.3 4.6912 0.009 668.0 1.0E-12
12 2 8.9805 -87.0106 2010-06-23T22:49:22.20Z 227.0 12.4047 34.8368 20.1 4.6912 0.008 669.4 1.0E-12
12 2 8.9805 -87.0106 2010-06-23T22:49:22.20Z 228.0 12.3953 34.8357 19.9 4.6912 0.008 670.8 1.0E-12
12 2 8.9805 -87.0106 2010-06-23T22:49:22.20Z 229.0 12.3886 34.8352 20.0 4.6897 0.008 671.8 1.0E-12
12 2 8.9805 -87.0106 2010-06-23T22:49:22.20Z 230.0 12.3807 34.8342 20.0 4.6909 0.008 672.6 1.0E-12
12 2 8.9805 -87.0106 2010-06-23T22:49:22.20Z 231.0 12.3601 34.8326 20.0 4.6915 0.009 673.8 1.0E-12
12 2 8.9805 -87.0106 2010-06-23T22:49:22.20Z 232.0 12.3411 34.831 20.0 4.691 0.009 675.5 1.0E-12
12 2 8.9805 -87.0106 2010-06-23T22:49:22.20Z 233.0 12.3226 34.8294 19.8 4.6915 0.008 677.4 1.0E-12
12 2 8.9805 -87.0106 2010-06-23T22:49:22.20Z 234.0 12.3187 34.8291 19.6 4.6915 0.009 678.8 1.0E-12
12 2 8.9805 -87.0106 2010-06-23T22:49:22.20Z 235.0 12.3115 34.8285 19.6 4.6913 0.008 679.8 1.0E-12
12 2 8.9805 -87.0106 2010-06-23T22:49:22.20Z 236.0 12.3026 34.8277 19.6 4.6914 0.009 680.8 1.0E-12
12 2 8.9805 -87.0106 2010-06-23T22:49:22.20Z 237.0 12.2927 34.827 19.4 4.691 0.008 682.1 1.0E-12
12 2 8.9805 -87.0106 2010-06-23T22:49:22.20Z 238.0 12.2814 34.8264 19.2 4.6914 0.009 683.5 1.0E-12
12 2 8.9805 -87.0106 2010-06-23T22:49:22.20Z 239.0 12.253 34.8246 18.9 4.6916 0.009 684.8 1.0E-12
12 2 8.9805 -87.0106 2010-06-23T22:49:22.20Z 240.0 12.2357 34.823 18.3 4.6908 0.009 686.0 1.0E-12
12 2 8.9805 -87.0106 2010-06-23T22:49:22.20Z 241.0 12.2336 34.8227 17.3 4.6885 0.008 687.2 1.0E-12
12 2 8.9805 -87.0106 2010-06-23T22:49:22.20Z 242.0 12.2257 34.8225 16.6 4.6911 0.008 688.5 1.0E-12
12 2 8.9805 -87.0106 2010-06-23T22:49:22.20Z 243.0 12.2209 34.8223 16.2 4.6913 0.009 689.8 1.0E-12
12 2 8.9805 -87.0106 2010-06-23T22:49:22.20Z 244.0 12.2153 34.8226 15.9 4.6911 0.009 691.0 1.0E-12
12 2 8.9805 -87.0106 2010-06-23T22:49:22.20Z 245.0 12.2143 34.8229 15.4 4.691 0.009 692.8 1.0E-12
12 2 8.9805 -87.0106 2010-06-23T22:49:22.20Z 246.0 12.2024 34.8223 15.0 4.6904 0.009 694.6 1.0E-12
12 2 8.9805 -87.0106 2010-06-23T22:49:22.20Z 247.0 12.1822 34.821 15.0 4.6908 0.009 695.9 1.0E-12
12 2 8.9805 -87.0106 2010-06-23T22:49:22.20Z 248.0 12.1574 34.8191 14.8 4.691 0.008 696.9 1.0E-12
12 2 8.9805 -87.0106 2010-06-23T22:49:22.20Z 249.0 12.1353 34.8176 14.6 4.6903 0.008 697.9 1.0E-12
12 2 8.9805 -87.0106 2010-06-23T22:49:22.20Z 250.0 12.1183 34.8165 14.3 4.6917 0.009 699.0 1.0E-12
12 2 8.9805 -87.0106 2010-06-23T22:49:22.20Z 251.0 12.1076 34.8158 13.9 4.6921 0.009 700.6 1.0E-12
12 2 8.9805 -87.0106 2010-06-23T22:49:22.20Z 252.0 12.0987 34.8156 13.6 4.6915 0.008 702.2 1.0E-12
12 2 8.9805 -87.0106 2010-06-23T22:49:22.20Z 253.0 12.0932 34.8157 13.5 4.6911 0.009 703.4 1.0E-12
12 2 8.9805 -87.0106 2010-06-23T22:49:22.20Z 254.0 12.0755 34.8144 13.2 4.6908 0.009 704.2 1.0E-12
12 2 8.9805 -87.0106 2010-06-23T22:49:22.20Z 255.0 12.0523 34.8136 12.9 4.6909 0.009 705.1 1.0E-12
12 2 8.9805 -87.0106 2010-06-23T22:49:22.20Z 256.0 12.0469 34.8131 12.6 4.6908 0.009 706.8 1.0E-12
12 2 8.9805 -87.0106 2010-06-23T22:49:22.20Z 257.0 12.0423 34.813 12.4 4.6904 0.009 708.4 1.0E-12
12 2 8.9805 -87.0106 2010-06-23T22:49:22.20Z 258.0 12.0354 34.8126 12.4 4.691 0.009 709.4 1.0E-12
12 2 8.9805 -87.0106 2010-06-23T22:49:22.20Z 259.0 12.0312 34.8125 12.4 4.691 0.009 710.5 1.0E-12
12 2 8.9805 -87.0106 2010-06-23T22:49:22.20Z 260.0 12.0274 34.8121 12.4 4.6907 0.009 712.1 1.0E-12
12 2 8.9805 -87.0106 2010-06-23T22:49:22.20Z 261.0 12.023 34.812 12.4 4.6908 0.009 713.9 1.0E-12
12 2 8.9805 -87.0106 2010-06-23T22:49:22.20Z 262.0 12.0202 34.812 12.4 4.6907 0.009 715.2 1.0E-12
12 2 8.9805 -87.0106 2010-06-23T22:49:22.20Z 263.0 12.014 34.8121 12.4 4.6906 0.008 716.4 1.0E-12
12 2 8.9805 -87.0106 2010-06-23T22:49:22.20Z 264.0 12.0068 34.8122 12.4 4.691 0.008 717.2 1.0E-12
12 2 8.9805 -87.0106 2010-06-23T22:49:22.20Z 265.0 11.9983 34.8118 12.6 4.6903 0.009 718.0 1.0E-12
12 2 8.9805 -87.0106 2010-06-23T22:49:22.20Z 266.0 11.9875 34.811 12.6 4.6907 0.009 719.1 1.0E-12
12 2 8.9805 -87.0106 2010-06-23T22:49:22.20Z 267.0 11.9774 34.8104 12.4 4.691 0.009 721.0 1.0E-12
12 2 8.9805 -87.0106 2010-06-23T22:49:22.20Z 268.0 11.9666 34.8096 12.3 4.6911 0.009 723.1 1.0E-12
12 2 8.9805 -87.0106 2010-06-23T22:49:22.20Z 269.0 11.9511 34.8082 12.3 4.691 0.009 724.9 1.0E-12
12 2 8.9805 -87.0106 2010-06-23T22:49:22.20Z 270.0 11.9221 34.8059 12.2 4.6914 0.008 726.0 1.0E-12
12 2 8.9805 -87.0106 2010-06-23T22:49:22.20Z 271.0 11.9013 34.8038 12.2 4.6906 0.009 726.9 1.0E-12
12 2 8.9805 -87.0106 2010-06-23T22:49:22.20Z 272.0 11.8744 34.8025 12.1 4.6918 0.009 727.8 1.0E-12
12 2 8.9805 -87.0106 2010-06-23T22:49:22.20Z 273.0 11.8634 34.8018 12.1 4.691 0.009 728.6 1.0E-12
12 2 8.9805 -87.0106 2010-06-23T22:49:22.20Z 274.0 11.8395 34.8014 12.0 4.6914 0.009 729.9 1.0E-12
12 2 8.9805 -87.0106 2010-06-23T22:49:22.20Z 275.0 11.8224 34.8005 11.5 4.6914 0.009 731.8 1.0E-12
12 2 8.9805 -87.0106 2010-06-23T22:49:22.20Z 276.0 11.8099 34.7999 11.1 4.691 0.009 733.4 1.0E-12
12 2 8.9805 -87.0106 2010-06-23T22:49:22.20Z 277.0 11.7947 34.7987 10.8 4.6911 0.009 734.4 1.0E-12
12 2 8.9805 -87.0106 2010-06-23T22:49:22.20Z 278.0 11.7542 34.796 10.7 4.6906 0.009 735.5 1.0E-12
12 2 8.9805 -87.0106 2010-06-23T22:49:22.20Z 279.0 11.7315 34.7951 10.5 4.6915 0.009 737.4 1.0E-12
12 2 8.9805 -87.0106 2010-06-23T22:49:22.20Z 280.0 11.7184 34.7931 10.3 4.6918 0.009 739.0 1.0E-12
12 2 8.9805 -87.0106 2010-06-23T22:49:22.20Z 281.0 11.7071 34.7918 10.2 4.6921 0.009 739.8 1.0E-12
12 2 8.9805 -87.0106 2010-06-23T22:49:22.20Z 282.0 11.6803 34.7896 10.1 4.6919 0.009 740.5 1.0E-12
12 2 8.9805 -87.0106 2010-06-23T22:49:22.20Z 283.0 11.6678 34.7877 10.0 4.6918 0.009 741.9 1.0E-12
12 2 8.9805 -87.0106 2010-06-23T22:49:22.20Z 284.0 11.6527 34.7852 10.2 4.6916 0.009 743.4 1.0E-12
12 2 8.9805 -87.0106 2010-06-23T22:49:22.20Z 285.0 11.6177 34.7815 10.5 4.6922 0.009 744.4 1.0E-12
12 2 8.9805 -87.0106 2010-06-23T22:49:22.20Z 286.0 11.6019 34.7802 10.9 4.6923 0.009 745.5 1.0E-12
12 2 8.9805 -87.0106 2010-06-23T22:49:22.20Z 287.0 11.5888 34.7789 12.0 4.6925 0.009 747.9 1.0E-12
12 2 8.9805 -87.0106 2010-06-23T22:49:22.20Z 288.0 11.5566 34.7769 12.5 4.6924 0.009 750.1 1.0E-12
12 2 8.9805 -87.0106 2010-06-23T22:49:22.20Z 289.0 11.5399 34.7757 12.6 4.6921 0.008 751.0 1.0E-12
12 2 8.9805 -87.0106 2010-06-23T22:49:22.20Z 290.0 11.5365 34.7756 12.6 4.6923 0.009 751.6 1.0E-12
12 2 8.9805 -87.0106 2010-06-23T22:49:22.20Z 291.0 11.527 34.7746 12.6 4.692 0.009 752.2 1.0E-12
12 2 8.9805 -87.0106 2010-06-23T22:49:22.20Z 292.0 11.5152 34.7735 12.5 4.6922 0.009 753.8 1.0E-12
12 2 8.9805 -87.0106 2010-06-23T22:49:22.20Z 293.0 11.5017 34.7724 12.1 4.6923 0.009 755.6 1.0E-12
12 2 8.9805 -87.0106 2010-06-23T22:49:22.20Z 294.0 11.4903 34.7717 12.0 4.6917 0.009 756.9 1.0E-12
12 2 8.9805 -87.0106 2010-06-23T22:49:22.20Z 295.0 11.4788 34.7708 11.8 4.689 0.009 757.9 1.0E-12
12 2 8.9805 -87.0106 2010-06-23T22:49:22.20Z 296.0 11.4662 34.7706 11.4 4.6928 0.009 759.8 1.0E-12
12 2 8.9805 -87.0106 2010-06-23T22:49:22.20Z 297.0 11.4509 34.7702 11.3 4.6926 0.009 761.8 1.0E-12
12 2 8.9805 -87.0106 2010-06-23T22:49:22.20Z 298.0 11.4414 34.7705 11.3 4.6924 0.009 762.8 1.0E-12
12 2 8.9805 -87.0106 2010-06-23T22:49:22.20Z 299.0 11.4366 34.7704 11.4 4.6702 0.009 763.6 1.0E-12
12 2 8.9805 -87.0106 2010-06-23T22:49:22.20Z 300.0 11.4357 34.7717 11.7 4.6905 0.009 764.5 1.0E-12
12 2 8.9805 -87.0106 2010-06-23T22:49:22.20Z 301.0 11.431 34.7721 12.1 4.6923 0.009 765.6 1.0E-12
12 2 8.9805 -87.0106 2010-06-23T22:49:22.20Z 302.0 11.4226 34.7722 12.3 4.6909 0.008 766.9 1.0E-12
12 2 8.9805 -87.0106 2010-06-23T22:49:22.20Z 303.0 11.4131 34.7727 12.3 4.6918 0.009 767.9 1.0E-12
12 2 8.9805 -87.0106 2010-06-23T22:49:22.20Z 304.0 11.3969 34.7716 11.8 4.6925 0.009 769.8 1.0E-12
12 2 8.9805 -87.0106 2010-06-23T22:49:22.20Z 305.0 11.3858 34.7703 10.6 4.6921 0.009 772.1 1.0E-12
12 2 8.9805 -87.0106 2010-06-23T22:49:22.20Z 306.0 11.3718 34.7696 10.3 4.6922 0.009 773.2 1.0E-12
12 2 8.9805 -87.0106 2010-06-23T22:49:22.20Z 307.0 11.3681 34.7697 10.0 4.6931 0.009 774.0 1.0E-12
12 2 8.9805 -87.0106 2010-06-23T22:49:22.20Z 308.0 11.3664 34.7696 9.8 4.6931 0.009 774.8 1.0E-12
12 2 8.9805 -87.0106 2010-06-23T22:49:22.20Z 309.0 11.3658 34.7694 9.4 4.6931 0.009 776.2 1.0E-12
12 2 8.9805 -87.0106 2010-06-23T22:49:22.20Z 310.0 11.3596 34.7689 9.2 4.6932 0.009 778.1 1.0E-12
12 2 8.9805 -87.0106 2010-06-23T22:49:22.20Z 311.0 11.3468 34.7684 9.1 4.6931 0.009 779.2 1.0E-12
12 2 8.9805 -87.0106 2010-06-23T22:49:22.20Z 312.0 11.3373 34.7679 9.1 4.6934 0.009 780.0 1.0E-12
12 2 8.9805 -87.0106 2010-06-23T22:49:22.20Z 313.0 11.3283 34.7675 8.9 4.6933 0.008 780.9 1.0E-12
12 2 8.9805 -87.0106 2010-06-23T22:49:22.20Z 314.0 11.3171 34.7668 9.0 4.6931 0.009 782.6 1.0E-12
12 2 8.9805 -87.0106 2010-06-23T22:49:22.20Z 315.0 11.3056 34.7657 8.9 4.6935 0.009 784.8 1.0E-12
12 2 8.9805 -87.0106 2010-06-23T22:49:22.20Z 316.0 11.2914 34.7652 8.8 4.6934 0.009 786.1 1.0E-12
12 2 8.9805 -87.0106 2010-06-23T22:49:22.20Z 317.0 11.2838 34.7648 8.8 4.6926 0.009 787.0 1.0E-12
12 2 8.9805 -87.0106 2010-06-23T22:49:22.20Z 318.0 11.2794 34.7644 8.8 4.6935 0.009 787.8 1.0E-12
12 2 8.9805 -87.0106 2010-06-23T22:49:22.20Z 319.0 11.2735 34.7643 8.8 4.6935 0.009 788.6 1.0E-12
12 2 8.9805 -87.0106 2010-06-23T22:49:22.20Z 320.0 11.2653 34.7643 8.7 4.6936 0.009 789.6 1.0E-12
12 2 8.9805 -87.0106 2010-06-23T22:49:22.20Z 321.0 11.2606 34.7646 8.6 4.6934 0.009 791.2 1.0E-12
12 2 8.9805 -87.0106 2010-06-23T22:49:22.20Z 322.0 11.2577 34.7648 8.5 4.6936 0.009 793.0 1.0E-12
12 2 8.9805 -87.0106 2010-06-23T22:49:22.20Z 323.0 11.2463 34.7644 8.5 4.6935 0.009 794.1 1.0E-12
12 2 8.9805 -87.0106 2010-06-23T22:49:22.20Z 324.0 11.2161 34.7625 8.4 4.6937 0.009 795.0 1.0E-12
12 2 8.9805 -87.0106 2010-06-23T22:49:22.20Z 325.0 11.1974 34.7612 8.4 4.6934 0.009 795.9 1.0E-12
12 2 8.9805 -87.0106 2010-06-23T22:49:22.20Z 326.0 11.1797 34.7597 8.2 4.6936 0.009 797.4 1.0E-12
12 2 8.9805 -87.0106 2010-06-23T22:49:22.20Z 327.0 11.1691 34.7591 8.2 4.6937 0.009 799.0 1.0E-12
12 2 8.9805 -87.0106 2010-06-23T22:49:22.20Z 328.0 11.1595 34.7586 8.2 4.6937 0.009 800.1 1.0E-12
12 2 8.9805 -87.0106 2010-06-23T22:49:22.20Z 329.0 11.1384 34.7573 8.1 4.6937 0.009 801.0 1.0E-12
12 2 8.9805 -87.0106 2010-06-23T22:49:22.20Z 330.0 11.1225 34.7562 8.0 4.6937 0.009 801.9 1.0E-12
12 2 8.9805 -87.0106 2010-06-23T22:49:22.20Z 331.0 11.1041 34.7552 8.1 4.6942 0.009 803.0 1.0E-12
12 2 8.9805 -87.0106 2010-06-23T22:49:22.20Z 332.0 11.0879 34.7542 7.9 4.6938 0.009 804.5 1.0E-12
12 2 8.9805 -87.0106 2010-06-23T22:49:22.20Z 333.0 11.081 34.754 7.8 4.6943 0.009 806.0 1.0E-12
12 2 8.9805 -87.0106 2010-06-23T22:49:22.20Z 334.0 11.0772 34.7538 7.7 4.6944 0.009 807.1 1.0E-12
12 2 8.9805 -87.0106 2010-06-23T22:49:22.20Z 335.0 11.07 34.7535 7.7 4.6942 0.009 808.1 1.0E-12
12 2 8.9805 -87.0106 2010-06-23T22:49:22.20Z 336.0 11.0628 34.753 7.6 4.6933 0.009 809.4 1.0E-12
12 2 8.9805 -87.0106 2010-06-23T22:49:22.20Z 337.0 11.0577 34.7526 7.5 4.6941 0.009 811.0 1.0E-12
12 2 8.9805 -87.0106 2010-06-23T22:49:22.20Z 338.0 11.0524 34.7525 7.5 4.6942 0.009 812.5 1.0E-12
12 2 8.9805 -87.0106 2010-06-23T22:49:22.20Z 339.0 11.0479 34.7523 7.4 4.6941 0.009 813.5 1.0E-12
12 2 8.9805 -87.0106 2010-06-23T22:49:22.20Z 340.0 11.0421 34.7519 7.4 4.6943 0.009 814.4 1.0E-12
12 2 8.9805 -87.0106 2010-06-23T22:49:22.20Z 341.0 11.0325 34.7514 7.3 4.6945 0.009 815.4 1.0E-12
12 2 8.9805 -87.0106 2010-06-23T22:49:22.20Z 342.0 11.0151 34.7504 7.3 4.6947 0.009 816.5 1.0E-12
12 2 8.9805 -87.0106 2010-06-23T22:49:22.20Z 343.0 10.9956 34.7493 7.2 4.6945 0.009 817.6 1.0E-12
12 2 8.9805 -87.0106 2010-06-23T22:49:22.20Z 344.0 10.9793 34.7482 7.1 4.6943 0.009 819.0 1.0E-12
12 2 8.9805 -87.0106 2010-06-23T22:49:22.20Z 345.0 10.9626 34.7469 7.0 4.6943 0.009 820.8 1.0E-12
12 2 8.9805 -87.0106 2010-06-23T22:49:22.20Z 346.0 10.9406 34.7455 6.9 4.6947 0.009 822.1 1.0E-12
12 2 8.9805 -87.0106 2010-06-23T22:49:22.20Z 347.0 10.9295 34.7448 6.8 4.6951 0.009 823.1 1.0E-12
12 2 8.9805 -87.0106 2010-06-23T22:49:22.20Z 348.0 10.9177 34.7439 6.8 4.6956 0.009 824.0 1.0E-12
12 2 8.9805 -87.0106 2010-06-23T22:49:22.20Z 349.0 10.9059 34.7433 6.7 4.6929 0.009 824.9 1.0E-12
12 2 8.9805 -87.0106 2010-06-23T22:49:22.20Z 350.0 10.8852 34.7427 6.6 4.6956 0.009 826.2 1.0E-12
12 2 8.9805 -87.0106 2010-06-23T22:49:22.20Z 351.0 10.8589 34.7415 6.7 4.6955 0.009 828.0 1.0E-12
12 2 8.9805 -87.0106 2010-06-23T22:49:22.20Z 352.0 10.835 34.7401 6.7 4.6951 0.009 829.4 1.0E-12
12 2 8.9805 -87.0106 2010-06-23T22:49:22.20Z 353.0 10.8164 34.7392 6.7 4.6952 0.009 830.2 1.0E-12
12 2 8.9805 -87.0106 2010-06-23T22:49:22.20Z 354.0 10.805 34.7382 6.8 4.6944 0.009 831.0 1.0E-12
12 2 8.9805 -87.0106 2010-06-23T22:49:22.20Z 355.0 10.7829 34.7372 6.8 4.6947 0.009 832.0 1.0E-12
12 2 8.9805 -87.0106 2010-06-23T22:49:22.20Z 356.0 10.7691 34.7363 7.0 4.6947 0.009 833.4 1.0E-12
12 2 8.9805 -87.0106 2010-06-23T22:49:22.20Z 357.0 10.7622 34.7359 7.1 4.694 0.009 834.8 1.0E-12
12 2 8.9805 -87.0106 2010-06-23T22:49:22.20Z 358.0 10.7562 34.7357 7.2 4.6938 0.009 835.9 1.0E-12
12 2 8.9805 -87.0106 2010-06-23T22:49:22.20Z 359.0 10.7467 34.7351 7.3 4.6934 0.009 836.9 1.0E-12
12 2 8.9805 -87.0106 2010-06-23T22:49:22.20Z 360.0 10.7369 34.7345 7.3 4.6945 0.009 838.1 1.0E-12
12 2 8.9805 -87.0106 2010-06-23T22:49:22.20Z 361.0 10.7134 34.733 7.5 4.6943 0.009 839.8 1.0E-12
12 2 8.9805 -87.0106 2010-06-23T22:49:22.20Z 362.0 10.6927 34.7319 7.5 4.6929 0.009 841.2 1.0E-12
12 2 8.9805 -87.0106 2010-06-23T22:49:22.20Z 363.0 10.6825 34.7313 7.7 4.6938 0.009 842.5 1.0E-12
12 2 8.9805 -87.0106 2010-06-23T22:49:22.20Z 364.0 10.6639 34.7302 7.7 4.6934 0.009 843.6 1.0E-12
12 2 8.9805 -87.0106 2010-06-23T22:49:22.20Z 365.0 10.6485 34.7292 7.8 4.6929 0.009 844.6 1.0E-12
12 2 8.9805 -87.0106 2010-06-23T22:49:22.20Z 366.0 10.6214 34.7277 7.9 4.6933 0.009 845.6 1.0E-12
12 2 8.9805 -87.0106 2010-06-23T22:49:22.20Z 367.0 10.593 34.7261 8.1 4.6926 0.009 846.8 1.0E-12
12 2 8.9805 -87.0106 2010-06-23T22:49:22.20Z 368.0 10.5747 34.7249 8.2 4.6933 0.009 848.1 1.0E-12
12 2 8.9805 -87.0106 2010-06-23T22:49:22.20Z 369.0 10.5472 34.7232 8.0 4.6935 0.009 849.4 1.0E-12
12 2 8.9805 -87.0106 2010-06-23T22:49:22.20Z 370.0 10.5273 34.7223 8.0 4.6937 0.009 850.4 1.0E-12
12 2 8.9805 -87.0106 2010-06-23T22:49:22.20Z 371.0 10.5159 34.7215 7.8 4.6933 0.009 851.5 1.0E-12
12 2 8.9805 -87.0106 2010-06-23T22:49:22.20Z 372.0 10.4857 34.7196 7.6 4.6935 0.009 853.1 1.0E-12
12 2 8.9805 -87.0106 2010-06-23T22:49:22.20Z 373.0 10.4584 34.718 7.3 4.6933 0.009 854.9 1.0E-12
12 2 8.9805 -87.0106 2010-06-23T22:49:22.20Z 374.0 10.4372 34.717 7.2 4.6934 0.009 856.1 1.0E-12
12 2 8.9805 -87.0106 2010-06-23T22:49:22.20Z 375.0 10.4214 34.7163 7.0 4.6939 0.01 857.2 1.0E-12
12 2 8.9805 -87.0106 2010-06-23T22:49:22.20Z 376.0 10.4064 34.7155 6.9 4.6937 0.009 858.2 1.0E-12
12 2 8.9805 -87.0106 2010-06-23T22:49:22.20Z 377.0 10.3963 34.7151 6.7 4.6942 0.01 859.1 1.0E-12
12 2 8.9805 -87.0106 2010-06-23T22:49:22.20Z 378.0 10.3934 34.7149 6.6 4.6943 0.009 860.0 1.0E-12
12 2 8.9805 -87.0106 2010-06-23T22:49:22.20Z 379.0 10.3888 34.7148 6.4 4.6946 0.009 860.9 1.0E-12
12 2 8.9805 -87.0106 2010-06-23T22:49:22.20Z 380.0 10.3834 34.7147 6.3 4.6947 0.009 862.0 1.0E-12
12 2 8.9805 -87.0106 2010-06-23T22:49:22.20Z 381.0 10.3756 34.714 6.1 4.6941 0.009 863.2 1.0E-12
12 2 8.9805 -87.0106 2010-06-23T22:49:22.20Z 382.0 10.3644 34.713 5.9 4.6937 0.009 865.0 1.0E-12
12 2 8.9805 -87.0106 2010-06-23T22:49:22.20Z 383.0 10.3537 34.712 5.7 4.6936 0.009 866.9 1.0E-12
12 2 8.9805 -87.0106 2010-06-23T22:49:22.20Z 384.0 10.3414 34.7111 5.6 4.6906 0.009 868.1 1.0E-12
12 2 8.9805 -87.0106 2010-06-23T22:49:22.20Z 385.0 10.327 34.7098 5.6 4.6897 0.009 869.1 1.0E-12
12 2 8.9805 -87.0106 2010-06-23T22:49:22.20Z 386.0 10.3138 34.7086 5.5 4.6895 0.01 870.0 1.0E-12
12 2 8.9805 -87.0106 2010-06-23T22:49:22.20Z 387.0 10.2962 34.7072 5.4 4.6872 0.01 870.8 1.0E-12
12 2 8.9805 -87.0106 2010-06-23T22:49:22.20Z 388.0 10.2792 34.7055 5.4 4.6832 0.009 871.8 1.0E-12
12 2 8.9805 -87.0106 2010-06-23T22:49:22.20Z 389.0 10.2384 34.7023 5.3 4.6836 0.009 873.1 1.0E-12
12 2 8.9805 -87.0106 2010-06-23T22:49:22.20Z 390.0 10.2038 34.7002 5.2 4.6818 0.01 874.6 1.0E-12
12 2 8.9805 -87.0106 2010-06-23T22:49:22.20Z 391.0 10.1879 34.6993 5.1 4.6827 0.01 876.0 1.0E-12
12 2 8.9805 -87.0106 2010-06-23T22:49:22.20Z 392.0 10.1599 34.6974 5.1 4.6827 0.01 877.1 1.0E-12
12 2 8.9805 -87.0106 2010-06-23T22:49:22.20Z 393.0 10.1212 34.6951 5.0 4.6813 0.01 878.2 1.0E-12
12 2 8.9805 -87.0106 2010-06-23T22:49:22.20Z 394.0 10.1028 34.6943 5.0 4.6808 0.01 879.4 1.0E-12
12 2 8.9805 -87.0106 2010-06-23T22:49:22.20Z 395.0 10.0939 34.6941 5.0 4.6814 0.01 880.6 1.0E-12
12 2 8.9805 -87.0106 2010-06-23T22:49:22.20Z 396.0 10.0915 34.6941 4.9 4.6811 0.009 882.1 1.0E-12
12 2 8.9805 -87.0106 2010-06-23T22:49:22.20Z 397.0 10.0907 34.6944 4.9 4.681 0.01 883.5 1.0E-12
12 2 8.9805 -87.0106 2010-06-23T22:49:22.20Z 398.0 10.088 34.6946 4.8 4.6815 0.01 884.5 1.0E-12
12 2 8.9805 -87.0106 2010-06-23T22:49:22.20Z 399.0 10.0783 34.6937 4.8 4.6813 0.01 885.2 1.0E-12
12 2 8.9805 -87.0106 2010-06-23T22:49:22.20Z 400.0 10.0258 34.6922 4.8 4.6807 0.01 886.4 1.0E-12
12 2 8.9805 -87.0106 2010-06-23T22:49:22.20Z 401.0 10.0019 34.6903 4.8 4.6807 0.01 888.2 1.0E-12
12 2 8.9805 -87.0106 2010-06-23T22:49:22.20Z 402.0 9.9812 34.6891 4.8 4.68 0.01 889.9 1.0E-12
12 2 8.9805 -87.0106 2010-06-23T22:49:22.20Z 403.0 9.9642 34.6883 4.8 4.6816 0.009 890.8 1.0E-12
12 2 8.9805 -87.0106 2010-06-23T22:49:22.20Z 404.0 9.9568 34.6881 4.8 4.6823 0.01 891.6 1.0E-12
12 2 8.9805 -87.0106 2010-06-23T22:49:22.20Z 405.0 9.9537 34.6879 4.8 4.6828 0.01 892.6 1.0E-12
12 2 8.9805 -87.0106 2010-06-23T22:49:22.20Z 406.0 9.9504 34.6876 4.8 4.6823 0.009 893.9 1.0E-12
12 2 8.9805 -87.0106 2010-06-23T22:49:22.20Z 407.0 9.9428 34.6874 4.8 4.6838 0.01 895.1 1.0E-12
12 2 8.9805 -87.0106 2010-06-23T22:49:22.20Z 408.0 9.9123 34.6855 4.8 4.684 0.009 896.1 1.0E-12
12 2 8.9805 -87.0106 2010-06-23T22:49:22.20Z 409.0 9.8714 34.6835 4.8 4.6833 0.01 897.1 1.0E-12
12 2 8.9805 -87.0106 2010-06-23T22:49:22.20Z 410.0 9.8456 34.6819 4.8 4.6836 0.01 898.2 1.0E-12
12 2 8.9805 -87.0106 2010-06-23T22:49:22.20Z 411.0 9.8253 34.6807 4.8 4.6833 0.01 899.6 1.0E-12
12 2 8.9805 -87.0106 2010-06-23T22:49:22.20Z 412.0 9.8159 34.6803 4.8 4.6833 0.01 900.9 1.0E-12
12 2 8.9805 -87.0106 2010-06-23T22:49:22.20Z 413.0 9.8094 34.6799 4.7 4.6829 0.01 901.9 1.0E-12
12 2 8.9805 -87.0106 2010-06-23T22:49:22.20Z 414.0 9.7852 34.6784 4.7 4.6826 0.01 902.9 1.0E-12
12 2 8.9805 -87.0106 2010-06-23T22:49:22.20Z 415.0 9.7385 34.676 4.8 4.6823 0.01 903.9 1.0E-12
12 2 8.9805 -87.0106 2010-06-23T22:49:22.20Z 416.0 9.7151 34.675 4.7 4.6818 0.01 905.0 1.0E-12
12 2 8.9805 -87.0106 2010-06-23T22:49:22.20Z 417.0 9.7034 34.6743 4.7 4.6813 0.01 906.2 1.0E-12
12 2 8.9805 -87.0106 2010-06-23T22:49:22.20Z 418.0 9.683 34.6735 4.7 4.6814 0.01 907.5 1.0E-12
12 2 8.9805 -87.0106 2010-06-23T22:49:22.20Z 419.0 9.6612 34.6727 4.7 4.6804 0.01 908.6 1.0E-12
12 2 8.9805 -87.0106 2010-06-23T22:49:22.20Z 420.0 9.6497 34.6723 4.7 4.6798 0.01 909.8 1.0E-12
12 2 8.9805 -87.0106 2010-06-23T22:49:22.20Z 421.0 9.6441 34.6721 4.7 4.6801 0.01 911.0 1.0E-12
12 2 8.9805 -87.0106 2010-06-23T22:49:22.20Z 422.0 9.6371 34.6718 4.7 4.6802 0.01 912.2 1.0E-12
12 2 8.9805 -87.0106 2010-06-23T22:49:22.20Z 423.0 9.6309 34.6717 4.7 4.6798 0.01 913.4 1.0E-12
12 2 8.9805 -87.0106 2010-06-23T22:49:22.20Z 424.0 9.6256 34.6716 4.7 4.6798 0.01 914.4 1.0E-12
12 2 8.9805 -87.0106 2010-06-23T22:49:22.20Z 425.0 9.6148 34.6712 4.7 4.68 0.01 915.5 1.0E-12
12 2 8.9805 -87.0106 2010-06-23T22:49:22.20Z 426.0 9.6023 34.6707 4.7 4.6783 0.01 917.0 1.0E-12
12 2 8.9805 -87.0106 2010-06-23T22:49:22.20Z 427.0 9.5834 34.6699 4.7 4.6794 0.01 918.5 1.0E-12
12 2 8.9805 -87.0106 2010-06-23T22:49:22.20Z 428.0 9.5398 34.6677 4.7 4.6788 0.01 919.6 1.0E-12
12 2 8.9805 -87.0106 2010-06-23T22:49:22.20Z 429.0 9.4949 34.6659 4.7 4.6781 0.01 920.5 1.0E-12
12 2 8.9805 -87.0106 2010-06-23T22:49:22.20Z 430.0 9.4734 34.665 4.7 4.6778 0.01 921.4 1.0E-12
12 2 8.9805 -87.0106 2010-06-23T22:49:22.20Z 431.0 9.4584 34.6642 4.7 4.6777 0.009 922.2 1.0E-12
12 2 8.9805 -87.0106 2010-06-23T22:49:22.20Z 432.0 9.4461 34.6635 4.7 4.6768 0.01 923.4 1.0E-12
12 2 8.9805 -87.0106 2010-06-23T22:49:22.20Z 433.0 9.4335 34.6628 4.7 4.6773 0.01 925.2 1.0E-12
12 2 8.9805 -87.0106 2010-06-23T22:49:22.20Z 434.0 9.4259 34.663 4.7 4.6775 0.01 926.9 1.0E-12
12 2 8.9805 -87.0106 2010-06-23T22:49:22.20Z 435.0 9.4258 34.6632 4.7 4.6768 0.01 927.8 1.0E-12
12 2 8.9805 -87.0106 2010-06-23T22:49:22.20Z 436.0 9.4215 34.663 4.7 4.6772 0.01 928.5 1.0E-12
12 2 8.9805 -87.0106 2010-06-23T22:49:22.20Z 437.0 9.4033 34.6617 4.7 4.6768 0.01 929.2 1.0E-12
12 2 8.9805 -87.0106 2010-06-23T22:49:22.20Z 438.0 9.3732 34.6602 4.7 4.6767 0.01 930.1 1.0E-12
12 2 8.9805 -87.0106 2010-06-23T22:49:22.20Z 439.0 9.3534 34.6597 4.7 4.6765 0.01 931.5 1.0E-12
12 2 8.9805 -87.0106 2010-06-23T22:49:22.20Z 440.0 9.3311 34.6586 4.8 4.6778 0.01 933.0 1.0E-12
12 2 8.9805 -87.0106 2010-06-23T22:49:22.20Z 441.0 9.3199 34.6583 4.7 4.6779 0.01 934.2 1.0E-12
12 2 8.9805 -87.0106 2010-06-23T22:49:22.20Z 442.0 9.3034 34.6573 4.7 4.6782 0.01 935.4 1.0E-12
12 2 8.9805 -87.0106 2010-06-23T22:49:22.20Z 443.0 9.2754 34.6561 4.7 4.6778 0.01 936.4 1.0E-12
12 2 8.9805 -87.0106 2010-06-23T22:49:22.20Z 444.0 9.2676 34.6556 4.7 4.6773 0.01 937.5 1.0E-12
12 2 8.9805 -87.0106 2010-06-23T22:49:22.20Z 445.0 9.2568 34.6547 4.7 4.6778 0.01 938.8 1.0E-12
12 2 8.9805 -87.0106 2010-06-23T22:49:22.20Z 446.0 9.2344 34.6535 4.7 4.6777 0.01 940.1 1.0E-12
12 2 8.9805 -87.0106 2010-06-23T22:49:22.20Z 447.0 9.2091 34.6518 4.6 4.6775 0.01 941.4 1.0E-12
12 2 8.9805 -87.0106 2010-06-23T22:49:22.20Z 448.0 9.197 34.6514 4.6 4.6773 0.01 942.4 1.0E-12
12 2 8.9805 -87.0106 2010-06-23T22:49:22.20Z 449.0 9.177 34.6499 4.6 4.6777 0.01 943.4 1.0E-12
12 2 8.9805 -87.0106 2010-06-23T22:49:22.20Z 450.0 9.1269 34.6477 4.6 4.6777 0.01 944.4 1.0E-12
12 2 8.9805 -87.0106 2010-06-23T22:49:22.20Z 451.0 9.1012 34.6464 4.7 4.6778 0.01 945.2 1.0E-12
12 2 8.9805 -87.0106 2010-06-23T22:49:22.20Z 452.0 9.0853 34.6456 4.6 4.6776 0.01 946.0 1.0E-12
12 2 8.9805 -87.0106 2010-06-23T22:49:22.20Z 453.0 9.0682 34.6452 4.6 4.6772 0.01 947.6 1.0E-12
12 2 8.9805 -87.0106 2010-06-23T22:49:22.20Z 454.0 9.0535 34.6439 4.6 4.6767 0.01 949.8 1.0E-12
12 2 8.9805 -87.0106 2010-06-23T22:49:22.20Z 455.0 9.0395 34.6438 4.6 4.6775 0.01 951.1 1.0E-12
12 2 8.9805 -87.0106 2010-06-23T22:49:22.20Z 456.0 9.0374 34.6439 4.6 4.6772 0.01 952.0 1.0E-12
12 2 8.9805 -87.0106 2010-06-23T22:49:22.20Z 457.0 9.0366 34.644 4.6 4.6776 0.01 952.9 1.0E-12
12 2 8.9805 -87.0106 2010-06-23T22:49:22.20Z 458.0 9.0368 34.644 4.6 4.6776 0.01 953.9 1.0E-12
12 2 8.9805 -87.0106 2010-06-23T22:49:22.20Z 459.0 9.0336 34.6441 4.6 4.6772 0.01 955.1 1.0E-12
12 2 8.9805 -87.0106 2010-06-23T22:49:22.20Z 460.0 9.0317 34.6441 4.6 4.6777 0.01 956.6 1.0E-12
12 2 8.9805 -87.0106 2010-06-23T22:49:22.20Z 461.0 9.0293 34.6442 4.6 4.6773 0.01 957.9 1.0E-12
12 2 8.9805 -87.0106 2010-06-23T22:49:22.20Z 462.0 9.023 34.6442 4.6 4.6775 0.01 958.8 1.0E-12
12 2 8.9805 -87.0106 2010-06-23T22:49:22.20Z 463.0 9.0204 34.6443 4.6 4.6779 0.01 959.4 1.0E-12
12 2 8.9805 -87.0106 2010-06-23T22:49:22.20Z 464.0 9.0192 34.6443 4.6 4.6779 0.01 960.0 1.0E-12
12 2 8.9805 -87.0106 2010-06-23T22:49:22.20Z 465.0 9.0158 34.6444 4.6 4.6778 0.01 960.9 1.0E-12
12 2 8.9805 -87.0106 2010-06-23T22:49:22.20Z 466.0 9.0094 34.6438 4.6 4.6777 0.01 963.1 1.0E-12
12 2 8.9805 -87.0106 2010-06-23T22:49:22.20Z 467.0 8.9703 34.6424 4.6 4.6779 0.01 965.1 1.0E-12
12 2 8.9805 -87.0106 2010-06-23T22:49:22.20Z 468.0 8.9639 34.642 4.6 4.678 0.01 965.9 1.0E-12
12 2 8.9805 -87.0106 2010-06-23T22:49:22.20Z 469.0 8.9611 34.6417 4.6 4.6778 0.01 966.5 1.0E-12
12 2 8.9805 -87.0106 2010-06-23T22:49:22.20Z 470.0 8.9557 34.6413 4.6 4.6777 0.01 967.2 1.0E-12
12 2 8.9805 -87.0106 2010-06-23T22:49:22.20Z 471.0 8.9481 34.6406 4.6 4.6779 0.01 968.1 1.0E-12
12 2 8.9805 -87.0106 2010-06-23T22:49:22.20Z 472.0 8.9362 34.6395 4.6 4.6779 0.01 969.8 1.0E-12
12 2 8.9805 -87.0106 2010-06-23T22:49:22.20Z 473.0 8.8873 34.6359 4.7 4.677 0.01 971.5 1.0E-12
12 2 8.9805 -87.0106 2010-06-23T22:49:22.20Z 474.0 8.8197 34.633 4.7 4.6766 0.01 972.6 1.0E-12
12 2 8.9805 -87.0106 2010-06-23T22:49:22.20Z 475.0 8.8028 34.6322 4.7 4.6765 0.01 973.5 1.0E-12
12 2 8.9805 -87.0106 2010-06-23T22:49:22.20Z 476.0 8.798 34.6318 4.7 4.6762 0.01 974.4 1.0E-12
12 2 8.9805 -87.0106 2010-06-23T22:49:22.20Z 477.0 8.7908 34.6316 4.7 4.6764 0.01 975.4 1.0E-12
12 2 8.9805 -87.0106 2010-06-23T22:49:22.20Z 478.0 8.7847 34.6313 4.7 4.6761 0.01 976.4 1.0E-12
12 2 8.9805 -87.0106 2010-06-23T22:49:22.20Z 479.0 8.7713 34.6306 4.7 4.676 0.01 977.8 1.0E-12
12 2 8.9805 -87.0106 2010-06-23T22:49:22.20Z 480.0 8.7268 34.6289 4.7 4.6767 0.01 979.4 1.0E-12
12 2 8.9805 -87.0106 2010-06-23T22:49:22.20Z 481.0 8.7004 34.6279 4.7 4.6775 0.01 980.8 1.0E-12
12 2 8.9805 -87.0106 2010-06-23T22:49:22.20Z 482.0 8.6686 34.6265 4.7 4.6771 0.01 981.9 1.0E-12
12 2 8.9805 -87.0106 2010-06-23T22:49:22.20Z 483.0 8.6306 34.6251 4.7 4.6771 0.01 982.8 1.0E-12
12 2 8.9805 -87.0106 2010-06-23T22:49:22.20Z 484.0 8.5981 34.624 4.7 4.6777 0.01 983.5 1.0E-12
12 2 8.9805 -87.0106 2010-06-23T22:49:22.20Z 485.0 8.562 34.6226 4.7 4.678 0.01 984.2 1.0E-12
12 2 8.9805 -87.0106 2010-06-23T22:49:22.20Z 486.0 8.5525 34.6224 4.7 4.6777 0.01 986.1 1.0E-12
12 2 8.9805 -87.0106 2010-06-23T22:49:22.20Z 487.0 8.5134 34.6204 4.7 4.678 0.01 988.1 1.0E-12
12 2 8.9805 -87.0106 2010-06-23T22:49:22.20Z 488.0 8.4919 34.6198 4.7 4.6789 0.01 989.0 1.0E-12
12 2 8.9805 -87.0106 2010-06-23T22:49:22.20Z 489.0 8.475 34.6188 4.7 4.6787 0.01 989.8 1.0E-12
12 2 8.9805 -87.0106 2010-06-23T22:49:22.20Z 490.0 8.44 34.6171 4.7 4.6789 0.01 990.6 1.0E-12
12 2 8.9805 -87.0106 2010-06-23T22:49:22.20Z 491.0 8.4017 34.6158 4.6 4.6792 0.01 991.9 1.0E-12
12 2 8.9805 -87.0106 2010-06-23T22:49:22.20Z 492.0 8.357 34.6141 4.6 4.6799 0.01 993.2 1.0E-12
12 2 8.9805 -87.0106 2010-06-23T22:49:22.20Z 493.0 8.3294 34.613 4.6 4.6801 0.009 994.4 1.0E-12
12 2 8.9805 -87.0106 2010-06-23T22:49:22.20Z 494.0 8.2876 34.6122 4.6 4.68 0.01 995.2 1.0E-12
12 2 8.9805 -87.0106 2010-06-23T22:49:22.20Z 495.0 8.2613 34.6107 4.6 4.6804 0.01 996.0 1.0E-12
12 2 8.9805 -87.0106 2010-06-23T22:49:22.20Z 496.0 8.239 34.6097 4.6 4.681 0.01 997.6 1.0E-12
12 2 8.9805 -87.0106 2010-06-23T22:49:22.20Z 497.0 8.2348 34.6094 4.6 4.6811 0.01 999.5 1.0E-12
12 2 8.9805 -87.0106 2010-06-23T22:49:22.20Z 498.0 8.2328 34.6097 4.6 4.6797 0.01 1000.6 1.0E-12
12 2 8.9805 -87.0106 2010-06-23T22:49:22.20Z 499.0 8.2273 34.6097 4.6 4.6814 0.01 1001.5 1.0E-12
12 2 8.9805 -87.0106 2010-06-23T22:49:22.20Z 500.0 8.2181 34.6097 4.6 4.6816 0.01 1002.2 1.0E-12
12 2 8.9805 -87.0106 2010-06-23T22:49:22.20Z 501.0 8.2126 34.6095 4.6 4.6816 0.01 1003.1 1.0E-12
12 2 8.9805 -87.0106 2010-06-23T22:49:22.20Z 502.0 8.208 34.6093 4.6 4.6815 0.01 1004.4 1.0E-12
12 2 8.9805 -87.0106 2010-06-23T22:49:22.20Z 503.0 8.2001 34.6096 4.6 4.6818 0.01 1005.6 1.0E-12
12 2 8.9805 -87.0106 2010-06-23T22:49:22.20Z 504.0 8.1988 34.6096 4.6 4.6814 0.009 1006.5 1.0E-12
12 2 8.9805 -87.0106 2010-06-23T22:49:22.20Z 505.0 8.1936 34.6096 4.6 4.6815 0.01 1007.2 1.0E-12
12 2 8.9805 -87.0106 2010-06-23T22:49:22.20Z 506.0 8.1853 34.6095 4.6 4.6818 0.01 1008.1 1.0E-12
12 2 8.9805 -87.0106 2010-06-23T22:49:22.20Z 507.0 8.1734 34.6094 4.6 4.682 0.01 1009.6 1.0E-12
12 2 8.9805 -87.0106 2010-06-23T22:49:22.20Z 508.0 8.152 34.6092 4.6 4.6821 0.01 1011.1 1.0E-12
12 2 8.9805 -87.0106 2010-06-23T22:49:22.20Z 509.0 8.131 34.6097 4.6 4.6825 0.01 1012.1 1.0E-12
12 2 8.9805 -87.0106 2010-06-23T22:49:22.20Z 510.0 8.0959 34.6106 4.6 4.6833 0.01 1013.4 1.0E-12
12 2 8.9805 -87.0106 2010-06-23T22:49:22.20Z 511.0 8.0745 34.6092 4.6 4.6833 0.01 1014.6 1.0E-12
12 2 8.9805 -87.0106 2010-06-23T22:49:22.20Z 512.0 8.059 34.608 4.6 4.6834 0.01 1015.6 1.0E-12
12 2 8.9805 -87.0106 2010-06-23T22:49:22.20Z 513.0 8.0461 34.6071 4.6 4.6834 0.01 1016.5 1.0E-12
12 2 8.9805 -87.0106 2010-06-23T22:49:22.20Z 514.0 8.0303 34.6062 4.6 4.6826 0.01 1017.1 1.0E-12
12 2 8.9805 -87.0106 2010-06-23T22:49:22.20Z 515.0 8.001 34.607 4.6 4.6836 0.01 1017.9 1.0E-12
12 2 8.9805 -87.0106 2010-06-23T22:49:22.20Z 516.0 7.9601 34.6057 4.6 4.6847 0.01 1019.0 1.0E-12
12 2 8.9805 -87.0106 2010-06-23T22:49:22.20Z 517.0 7.9502 34.6048 4.6 4.6845 0.01 1020.4 1.0E-12
12 2 8.9805 -87.0106 2010-06-23T22:49:22.20Z 518.0 7.9337 34.6042 4.6 4.6839 0.01 1021.8 1.0E-12
12 2 8.9805 -87.0106 2010-06-23T22:49:22.20Z 519.0 7.9248 34.6042 4.6 4.6848 0.01 1022.9 1.0E-12
12 2 8.9805 -87.0106 2010-06-23T22:49:22.20Z 520.0 7.9093 34.6048 4.6 4.6853 0.01 1024.0 1.0E-12
12 2 8.9805 -87.0106 2010-06-23T22:49:22.20Z 521.0 7.8819 34.6055 4.6 4.6862 0.01 1025.1 1.0E-12
12 2 8.9805 -87.0106 2010-06-23T22:49:22.20Z 522.0 7.874 34.6052 4.6 4.6859 0.01 1026.0 1.0E-12
12 2 8.9805 -87.0106 2010-06-23T22:49:22.20Z 523.0 7.8719 34.6051 4.6 4.6855 0.01 1026.9 1.0E-12
12 2 8.9805 -87.0106 2010-06-23T22:49:22.20Z 524.0 7.8564 34.6042 4.6 4.686 0.01 1028.0 1.0E-12
12 2 8.9805 -87.0106 2010-06-23T22:49:22.20Z 525.0 7.8388 34.6037 4.6 4.6862 0.01 1029.2 1.0E-12
12 2 8.9805 -87.0106 2010-06-23T22:49:22.20Z 526.0 7.824 34.6037 4.6 4.6863 0.01 1030.4 1.0E-12
12 2 8.9805 -87.0106 2010-06-23T22:49:22.20Z 527.0 7.8205 34.6039 4.6 4.6861 0.01 1031.4 1.0E-12
12 2 8.9805 -87.0106 2010-06-23T22:49:22.20Z 528.0 7.8109 34.604 4.6 4.686 0.01 1032.4 1.0E-12
12 2 8.9805 -87.0106 2010-06-23T22:49:22.20Z 529.0 7.803 34.6038 4.6 4.6867 0.01 1033.5 1.0E-12
12 2 8.9805 -87.0106 2010-06-23T22:49:22.20Z 530.0 7.7863 34.6051 4.6 4.6869 0.01 1034.6 1.0E-12
12 2 8.9805 -87.0106 2010-06-23T22:49:22.20Z 531.0 7.7729 34.6057 4.6 4.6877 0.01 1035.6 1.0E-12
12 2 8.9805 -87.0106 2010-06-23T22:49:22.20Z 532.0 7.7624 34.6056 4.6 4.6877 0.01 1036.5 1.0E-12
12 2 8.9805 -87.0106 2010-06-23T22:49:22.20Z 533.0 7.7555 34.605 4.6 4.6877 0.01 1037.2 1.0E-12
12 2 8.9805 -87.0106 2010-06-23T22:49:22.20Z 534.0 7.7454 34.6042 4.6 4.6873 0.01 1038.2 1.0E-12
12 2 8.9805 -87.0106 2010-06-23T22:49:22.20Z 535.0 7.7396 34.6039 4.6 4.687 0.01 1039.8 1.0E-12
12 2 8.9805 -87.0106 2010-06-23T22:49:22.20Z 536.0 7.7296 34.6039 4.6 4.6879 0.009 1041.2 1.0E-12
12 2 8.9805 -87.0106 2010-06-23T22:49:22.20Z 537.0 7.7097 34.6044 4.6 4.6887 0.01 1042.4 1.0E-12
12 2 8.9805 -87.0106 2010-06-23T22:49:22.20Z 538.0 7.6988 34.6043 4.6 4.6893 0.01 1043.2 1.0E-12
12 2 8.9805 -87.0106 2010-06-23T22:49:22.20Z 539.0 7.6875 34.6045 4.6 4.6895 0.01 1044.0 1.0E-12
12 2 8.9805 -87.0106 2010-06-23T22:49:22.20Z 540.0 7.6816 34.6053 4.6 4.6906 0.009 1045.0 1.0E-12
12 2 8.9805 -87.0106 2010-06-23T22:49:22.20Z 541.0 7.6552 34.6046 4.7 4.6916 0.01 1046.4 1.0E-12
12 2 8.9805 -87.0106 2010-06-23T22:49:22.20Z 542.0 7.617 34.6026 4.7 4.6921 0.01 1047.8 1.0E-12
12 2 8.9805 -87.0106 2010-06-23T22:49:22.20Z 543.0 7.607 34.6018 4.7 4.6914 0.009 1049.0 1.0E-12
12 2 8.9805 -87.0106 2010-06-23T22:49:22.20Z 544.0 7.6011 34.6013 4.7 4.6913 0.01 1050.1 1.0E-12
12 2 8.9805 -87.0106 2010-06-23T22:49:22.20Z 545.0 7.59 34.6002 4.7 4.6912 0.009 1051.0 1.0E-12
12 2 8.9805 -87.0106 2010-06-23T22:49:22.20Z 546.0 7.5667 34.5985 4.7 4.6905 0.01 1051.9 1.0E-12
12 2 8.9805 -87.0106 2010-06-23T22:49:22.20Z 547.0 7.5485 34.5975 4.7 4.6899 0.009 1052.8 1.0E-12
12 2 8.9805 -87.0106 2010-06-23T22:49:22.20Z 548.0 7.5446 34.5969 4.7 4.6902 0.01 1053.6 1.0E-12
12 2 8.9805 -87.0106 2010-06-23T22:49:22.20Z 549.0 7.5411 34.5965 4.7 4.6899 0.009 1054.6 1.0E-12
12 2 8.9805 -87.0106 2010-06-23T22:49:22.20Z 550.0 7.5378 34.5961 4.7 4.6897 0.01 1055.8 1.0E-12
12 2 8.9805 -87.0106 2010-06-23T22:49:22.20Z 551.0 7.5311 34.5956 4.7 4.6898 0.01 1057.2 1.0E-12
12 2 8.9805 -87.0106 2010-06-23T22:49:22.20Z 552.0 7.5226 34.5953 4.7 4.6891 0.009 1058.9 1.0E-12
12 2 8.9805 -87.0106 2010-06-23T22:49:22.20Z 553.0 7.5106 34.596 4.7 4.6902 0.01 1060.1 1.0E-12
12 2 8.9805 -87.0106 2010-06-23T22:49:22.20Z 554.0 7.4821 34.5939 4.6 4.6899 0.01 1061.0 1.0E-12
12 2 8.9805 -87.0106 2010-06-23T22:49:22.20Z 555.0 7.4548 34.5926 4.7 4.6892 0.01 1061.8 1.0E-12
12 2 8.9805 -87.0106 2010-06-23T22:49:22.20Z 556.0 7.4335 34.5916 4.7 4.6886 0.01 1062.5 1.0E-12
12 2 8.9805 -87.0106 2010-06-23T22:49:22.20Z 557.0 7.4188 34.5917 4.7 4.6886 0.01 1063.2 1.0E-12
12 2 8.9805 -87.0106 2010-06-23T22:49:22.20Z 558.0 7.4086 34.592 4.6 4.6896 0.009 1064.1 1.0E-12
12 2 8.9805 -87.0106 2010-06-23T22:49:22.20Z 559.0 7.4036 34.5914 4.6 4.6895 0.01 1065.2 1.0E-12
12 2 8.9805 -87.0106 2010-06-23T22:49:22.20Z 560.0 7.3947 34.5911 4.6 4.6891 0.01 1066.4 1.0E-12
12 2 8.9805 -87.0106 2010-06-23T22:49:22.20Z 561.0 7.3874 34.591 4.6 4.6897 0.01 1067.4 1.0E-12
12 2 8.9805 -87.0106 2010-06-23T22:49:22.20Z 562.0 7.3811 34.5908 4.6 4.6894 0.01 1068.9 1.0E-12
12 2 8.9805 -87.0106 2010-06-23T22:49:22.20Z 563.0 7.374 34.5903 4.6 4.6891 0.01 1070.5 1.0E-12
12 2 8.9805 -87.0106 2010-06-23T22:49:22.20Z 564.0 7.3672 34.5902 4.6 4.6893 0.01 1071.6 1.0E-12
12 2 8.9805 -87.0106 2010-06-23T22:49:22.20Z 565.0 7.3528 34.5899 4.6 4.6893 0.009 1072.5 1.0E-12
12 2 8.9805 -87.0106 2010-06-23T22:49:22.20Z 566.0 7.3356 34.59 4.6 4.6897 0.009 1073.2 1.0E-12
12 2 8.9805 -87.0106 2010-06-23T22:49:22.20Z 567.0 7.3318 34.5898 4.6 4.6897 0.009 1074.1 1.0E-12
12 2 8.9805 -87.0106 2010-06-23T22:49:22.20Z 568.0 7.3306 34.5896 4.5 4.6895 0.01 1075.5 1.0E-12
12 2 8.9805 -87.0106 2010-06-23T22:49:22.20Z 569.0 7.3297 34.5899 4.5 4.6897 0.009 1076.8 1.0E-12
12 2 8.9805 -87.0106 2010-06-23T22:49:22.20Z 570.0 7.3268 34.5899 4.5 4.6893 0.009 1077.5 1.0E-12
12 2 8.9805 -87.0106 2010-06-23T22:49:22.20Z 571.0 7.3223 34.59 4.5 4.6896 0.01 1078.2 1.0E-12
12 2 8.9805 -87.0106 2010-06-23T22:49:22.20Z 572.0 7.3145 34.5903 4.6 4.6899 0.01 1079.0 1.0E-12
12 2 8.9805 -87.0106 2010-06-23T22:49:22.20Z 573.0 7.3094 34.5902 4.5 4.6903 0.01 1080.2 1.0E-12
12 2 8.9805 -87.0106 2010-06-23T22:49:22.20Z 574.0 7.3061 34.59 4.5 4.6903 0.01 1082.1 1.0E-12
12 2 8.9805 -87.0106 2010-06-23T22:49:22.20Z 575.0 7.3023 34.5901 4.5 4.69 0.01 1083.6 1.0E-12
12 2 8.9805 -87.0106 2010-06-23T22:49:22.20Z 576.0 7.3006 34.5903 4.5 4.6899 0.01 1084.6 1.0E-12
12 2 8.9805 -87.0106 2010-06-23T22:49:22.20Z 577.0 7.291 34.5899 4.5 4.6901 0.009 1085.5 1.0E-12
12 2 8.9805 -87.0106 2010-06-23T22:49:22.20Z 578.0 7.2764 34.589 4.5 4.69 0.009 1086.1 1.0E-12
12 2 8.9805 -87.0106 2010-06-23T22:49:22.20Z 579.0 7.2556 34.5884 4.5 4.6901 0.01 1086.9 1.0E-12
12 2 8.9805 -87.0106 2010-06-23T22:49:22.20Z 580.0 7.2376 34.5876 4.5 4.6904 0.01 1088.1 1.0E-12
12 2 8.9805 -87.0106 2010-06-23T22:49:22.20Z 581.0 7.2231 34.587 4.5 4.6904 0.01 1089.4 1.0E-12
12 2 8.9805 -87.0106 2010-06-23T22:49:22.20Z 582.0 7.2075 34.5867 4.5 4.6906 0.01 1090.2 1.0E-12
12 2 8.9805 -87.0106 2010-06-23T22:49:22.20Z 583.0 7.195 34.5866 4.6 4.6907 0.01 1091.0 1.0E-12
12 2 8.9805 -87.0106 2010-06-23T22:49:22.20Z 584.0 7.1831 34.5863 4.6 4.6907 0.009 1091.8 1.0E-12
12 2 8.9805 -87.0106 2010-06-23T22:49:22.20Z 585.0 7.1723 34.5863 4.6 4.6911 0.009 1093.4 1.0E-12
12 2 8.9805 -87.0106 2010-06-23T22:49:22.20Z 586.0 7.167 34.586 4.6 4.6912 0.01 1095.1 1.0E-12
12 2 8.9805 -87.0106 2010-06-23T22:49:22.20Z 587.0 7.1579 34.5861 4.6 4.691 0.01 1096.1 1.0E-12
12 2 8.9805 -87.0106 2010-06-23T22:49:22.20Z 588.0 7.1524 34.5862 4.6 4.6911 0.009 1097.0 1.0E-12
12 2 8.9805 -87.0106 2010-06-23T22:49:22.20Z 589.0 7.1472 34.5859 4.6 4.6912 0.009 1097.8 1.0E-12
12 2 8.9805 -87.0106 2010-06-23T22:49:22.20Z 590.0 7.1362 34.5855 4.6 4.6915 0.01 1098.6 1.0E-12
12 2 8.9805 -87.0106 2010-06-23T22:49:22.20Z 591.0 7.1209 34.5852 4.6 4.6913 0.009 1099.9 1.0E-12
12 2 8.9805 -87.0106 2010-06-23T22:49:22.20Z 592.0 7.113 34.5851 4.6 4.6913 0.009 1101.1 1.0E-12
12 2 8.9805 -87.0106 2010-06-23T22:49:22.20Z 593.0 7.1025 34.5861 4.6 4.6921 0.009 1102.2 1.0E-12
12 2 8.9805 -87.0106 2010-06-23T22:49:22.20Z 594.0 7.0865 34.5863 4.6 4.6923 0.01 1103.2 1.0E-12
12 2 8.9805 -87.0106 2010-06-23T22:49:22.20Z 595.0 7.0812 34.5862 4.6 4.6926 0.01 1104.1 1.0E-12
12 2 8.9805 -87.0106 2010-06-23T22:49:22.20Z 596.0 7.0783 34.586 4.6 4.6924 0.009 1105.0 1.0E-12
12 2 8.9805 -87.0106 2010-06-23T22:49:22.20Z 597.0 7.0742 34.586 4.6 4.6922 0.01 1105.9 1.0E-12
12 2 8.9805 -87.0106 2010-06-23T22:49:22.20Z 598.0 7.0632 34.5859 4.6 4.6926 0.009 1106.8 1.0E-12
12 2 8.9805 -87.0106 2010-06-23T22:49:22.20Z 599.0 7.0461 34.5853 4.6 4.693 0.01 1107.8 1.0E-12
12 2 8.9805 -87.0106 2010-06-23T22:49:22.20Z 600.0 7.036 34.5849 4.6 4.6938 0.009 1109.6 1.0E-12
12 2 8.9805 -87.0106 2010-06-23T22:49:22.20Z 601.0 7.0271 34.5841 4.6 4.693 0.01 1111.5 1.0E-12
12 2 8.9805 -87.0106 2010-06-23T22:49:22.20Z 602.0 7.0146 34.5838 4.6 4.6935 0.009 1112.6 1.0E-12
12 2 8.9805 -87.0106 2010-06-23T22:49:22.20Z 603.0 7.0044 34.5837 4.6 4.6937 0.009 1113.5 1.0E-12
12 2 8.9805 -87.0106 2010-06-23T22:49:22.20Z 604.0 6.9986 34.5836 4.6 4.6934 0.009 1114.1 1.0E-12
12 2 8.9805 -87.0106 2010-06-23T22:49:22.20Z 605.0 6.9971 34.5842 4.6 4.6939 0.009 1114.8 1.0E-12
12 2 8.9805 -87.0106 2010-06-23T22:49:22.20Z 606.0 6.9905 34.584 4.6 4.6944 0.009 1115.6 1.0E-12
12 2 8.9805 -87.0106 2010-06-23T22:49:22.20Z 607.0 6.9804 34.5837 4.6 4.6943 0.01 1116.8 1.0E-12
12 2 8.9805 -87.0106 2010-06-23T22:49:22.20Z 608.0 6.9725 34.5832 4.6 4.6941 0.01 1118.2 1.0E-12
12 2 8.9805 -87.0106 2010-06-23T22:49:22.20Z 609.0 6.9639 34.583 4.6 4.694 0.009 1119.5 1.0E-12
12 2 8.9805 -87.0106 2010-06-23T22:49:22.20Z 610.0 6.9575 34.5832 4.6 4.6937 0.009 1120.4 1.0E-12
12 2 8.9805 -87.0106 2010-06-23T22:49:22.20Z 611.0 6.945 34.583 4.6 4.6946 0.009 1121.1 1.0E-12
12 2 8.9805 -87.0106 2010-06-23T22:49:22.20Z 612.0 6.9214 34.5829 4.6 4.6945 0.009 1121.8 1.0E-12
12 2 8.9805 -87.0106 2010-06-23T22:49:22.20Z 613.0 6.8986 34.5818 4.6 4.6945 0.01 1122.8 1.0E-12
12 2 8.9805 -87.0106 2010-06-23T22:49:22.20Z 614.0 6.8824 34.5807 4.6 4.6946 0.01 1124.2 1.0E-12
12 2 8.9805 -87.0106 2010-06-23T22:49:22.20Z 615.0 6.8742 34.5803 4.6 4.6945 0.01 1125.6 1.0E-12
12 2 8.9805 -87.0106 2010-06-23T22:49:22.20Z 616.0 6.8632 34.5803 4.6 4.6947 0.009 1126.6 1.0E-12
12 2 8.9805 -87.0106 2010-06-23T22:49:22.20Z 617.0 6.8465 34.5809 4.6 4.695 0.01 1127.5 1.0E-12
12 2 8.9805 -87.0106 2010-06-23T22:49:22.20Z 618.0 6.8353 34.5807 4.6 4.6948 0.01 1128.2 1.0E-12
12 2 8.9805 -87.0106 2010-06-23T22:49:22.20Z 619.0 6.8242 34.5801 4.6 4.6947 0.009 1129.0 1.0E-12
12 2 8.9805 -87.0106 2010-06-23T22:49:22.20Z 620.0 6.8145 34.58 4.6 4.6947 0.01 1129.8 1.0E-12
12 2 8.9805 -87.0106 2010-06-23T22:49:22.20Z 621.0 6.8087 34.5801 4.6 4.6953 0.01 1130.6 1.0E-12
12 2 8.9805 -87.0106 2010-06-23T22:49:22.20Z 622.0 6.8035 34.5799 4.6 4.6955 0.009 1131.6 1.0E-12
12 2 8.9805 -87.0106 2010-06-23T22:49:22.20Z 623.0 6.8008 34.5799 4.6 4.6957 0.01 1133.1 1.0E-12
12 2 8.9805 -87.0106 2010-06-23T22:49:22.20Z 624.0 6.7952 34.5799 4.6 4.6956 0.009 1134.6 1.0E-12
12 2 8.9805 -87.0106 2010-06-23T22:49:22.20Z 625.0 6.7838 34.58 4.6 4.6955 0.009 1135.5 1.0E-12
12 2 8.9805 -87.0106 2010-06-23T22:49:22.20Z 626.0 6.7709 34.5807 4.6 4.696 0.01 1136.1 1.0E-12
12 2 8.9805 -87.0106 2010-06-23T22:49:22.20Z 627.0 6.7637 34.581 4.6 4.6961 0.009 1136.8 1.0E-12
12 2 8.9805 -87.0106 2010-06-23T22:49:22.20Z 628.0 6.7528 34.5808 4.7 4.6959 0.009 1137.5 1.0E-12
12 2 8.9805 -87.0106 2010-06-23T22:49:22.20Z 629.0 6.7487 34.5804 4.7 4.6962 0.009 1138.6 1.0E-12
12 2 8.9805 -87.0106 2010-06-23T22:49:22.20Z 630.0 6.7413 34.5797 4.8 4.6966 0.009 1140.1 1.0E-12
12 2 8.9805 -87.0106 2010-06-23T22:49:22.20Z 631.0 6.7245 34.5794 4.8 4.6958 0.01 1141.4 1.0E-12
12 2 8.9805 -87.0106 2010-06-23T22:49:22.20Z 632.0 6.718 34.5797 4.8 4.6964 0.009 1142.4 1.0E-12
12 2 8.9805 -87.0106 2010-06-23T22:49:22.20Z 633.0 6.7087 34.5795 5.0 4.6962 0.009 1143.4 1.0E-12
12 2 8.9805 -87.0106 2010-06-23T22:49:22.20Z 634.0 6.6913 34.5787 5.0 4.6965 0.009 1144.2 1.0E-12
12 2 8.9805 -87.0106 2010-06-23T22:49:22.20Z 635.0 6.6818 34.5787 5.0 4.6963 0.009 1145.0 1.0E-12
12 2 8.9805 -87.0106 2010-06-23T22:49:22.20Z 636.0 6.6752 34.5783 5.0 4.6962 0.009 1145.8 1.0E-12
12 2 8.9805 -87.0106 2010-06-23T22:49:22.20Z 637.0 6.6662 34.578 5.0 4.6971 0.009 1147.1 1.0E-12
12 2 8.9805 -87.0106 2010-06-23T22:49:22.20Z 638.0 6.6631 34.578 5.0 4.6961 0.009 1148.8 1.0E-12
12 2 8.9805 -87.0106 2010-06-23T22:49:22.20Z 639.0 6.6609 34.5788 5.0 4.696 0.009 1149.8 1.0E-12
12 2 8.9805 -87.0106 2010-06-23T22:49:22.20Z 640.0 6.6579 34.5796 5.0 4.696 0.009 1150.4 1.0E-12
12 2 8.9805 -87.0106 2010-06-23T22:49:22.20Z 641.0 6.6514 34.5797 5.0 4.6952 0.009 1151.0 1.0E-12
12 2 8.9805 -87.0106 2010-06-23T22:49:22.20Z 642.0 6.6386 34.5796 5.1 4.6957 0.009 1151.9 1.0E-12
12 2 8.9805 -87.0106 2010-06-23T22:49:22.20Z 643.0 6.6337 34.5798 5.2 4.6953 0.009 1153.0 1.0E-12
12 2 8.9805 -87.0106 2010-06-23T22:49:22.20Z 644.0 6.6317 34.581 5.3 4.6951 0.009 1154.1 1.0E-12
12 2 8.9805 -87.0106 2010-06-23T22:49:22.20Z 645.0 6.621 34.5809 5.4 4.6948 0.01 1155.0 1.0E-12
12 2 8.9805 -87.0106 2010-06-23T22:49:22.20Z 646.0 6.6101 34.5806 5.4 4.6945 0.009 1155.8 1.0E-12
12 2 8.9805 -87.0106 2010-06-23T22:49:22.20Z 647.0 6.5965 34.58 5.6 4.6949 0.009 1157.0 1.0E-12
12 2 8.9805 -87.0106 2010-06-23T22:49:22.20Z 648.0 6.5819 34.5791 5.8 4.6952 0.009 1158.5 1.0E-12
12 2 8.9805 -87.0106 2010-06-23T22:49:22.20Z 649.0 6.5748 34.5795 5.8 4.6953 0.009 1159.8 1.0E-12
12 2 8.9805 -87.0106 2010-06-23T22:49:22.20Z 650.0 6.5696 34.58 5.9 4.6951 0.009 1160.8 1.0E-12
12 2 8.9805 -87.0106 2010-06-23T22:49:22.20Z 651.0 6.5648 34.5802 5.9 4.695 0.009 1161.6 1.0E-12
12 2 8.9805 -87.0106 2010-06-23T22:49:22.20Z 652.0 6.5595 34.5802 6.0 4.6947 0.01 1162.4 1.0E-12
12 2 8.9805 -87.0106 2010-06-23T22:49:22.20Z 653.0 6.5496 34.5805 6.0 4.6949 0.009 1163.0 1.0E-12
12 2 8.9805 -87.0106 2010-06-23T22:49:22.20Z 654.0 6.546 34.5805 6.0 4.695 0.009 1163.6 1.0E-12
12 2 8.9805 -87.0106 2010-06-23T22:49:22.20Z 655.0 6.541 34.5804 6.1 4.6947 0.009 1164.2 1.0E-12
12 2 8.9805 -87.0106 2010-06-23T22:49:22.20Z 656.0 6.5357 34.5801 6.2 4.695 0.009 1165.1 1.0E-12
12 2 8.9805 -87.0106 2010-06-23T22:49:22.20Z 657.0 6.5352 34.58 6.3 4.6952 0.009 1166.6 1.0E-12
12 2 8.9805 -87.0106 2010-06-23T22:49:22.20Z 658.0 6.5323 34.5804 6.4 4.6945 0.009 1168.1 1.0E-12
12 2 8.9805 -87.0106 2010-06-23T22:49:22.20Z 659.0 6.5064 34.5799 6.4 4.6944 0.01 1169.1 1.0E-12
12 2 8.9805 -87.0106 2010-06-23T22:49:22.20Z 660.0 6.4899 34.5796 6.5 4.6878 0.009 1170.0 1.0E-12
12 2 8.9805 -87.0106 2010-06-23T22:49:22.20Z 661.0 6.4793 34.579 6.6 4.6949 0.009 1171.0 1.0E-12
12 2 8.9805 -87.0106 2010-06-23T22:49:22.20Z 662.0 6.4603 34.5786 6.6 4.6947 0.009 1172.1 1.0E-12
12 2 8.9805 -87.0106 2010-06-23T22:49:22.20Z 663.0 6.4499 34.5782 6.6 4.6949 0.009 1173.1 1.0E-12
12 2 8.9805 -87.0106 2010-06-23T22:49:22.20Z 664.0 6.4454 34.5781 6.7 4.6946 0.009 1174.1 1.0E-12
12 2 8.9805 -87.0106 2010-06-23T22:49:22.20Z 665.0 6.433 34.5781 6.8 4.6948 0.009 1175.0 1.0E-12
12 2 8.9805 -87.0106 2010-06-23T22:49:22.20Z 666.0 6.424 34.5781 6.8 4.6949 0.009 1175.9 1.0E-12
12 2 8.9805 -87.0106 2010-06-23T22:49:22.20Z 667.0 6.417 34.5781 6.8 4.6946 0.009 1176.9 1.0E-12
12 2 8.9805 -87.0106 2010-06-23T22:49:22.20Z 668.0 6.413 34.578 6.8 4.6949 0.009 1178.0 1.0E-12
12 2 8.9805 -87.0106 2010-06-23T22:49:22.20Z 669.0 6.4063 34.5781 6.9 4.6945 0.009 1179.1 1.0E-12
12 2 8.9805 -87.0106 2010-06-23T22:49:22.20Z 670.0 6.399 34.5784 7.0 4.6949 0.009 1180.0 1.0E-12
12 2 8.9805 -87.0106 2010-06-23T22:49:22.20Z 671.0 6.393 34.5779 7.0 4.6947 0.009 1180.8 1.0E-12
12 2 8.9805 -87.0106 2010-06-23T22:49:22.20Z 672.0 6.3738 34.5765 7.1 4.6946 0.009 1181.6 1.0E-12
12 2 8.9805 -87.0106 2010-06-23T22:49:22.20Z 673.0 6.3659 34.576 7.2 4.695 0.009 1183.0 1.0E-12
12 2 8.9805 -87.0106 2010-06-23T22:49:22.20Z 674.0 6.3635 34.5758 7.0 4.6952 0.009 1184.5 1.0E-12
12 2 8.9805 -87.0106 2010-06-23T22:49:22.20Z 675.0 6.3549 34.5755 6.9 4.6951 0.01 1185.6 1.0E-12
12 2 8.9805 -87.0106 2010-06-23T22:49:22.20Z 676.0 6.3489 34.5755 6.8 4.6953 0.009 1186.5 1.0E-12
12 2 8.9805 -87.0106 2010-06-23T22:49:22.20Z 677.0 6.3377 34.5749 6.8 4.6954 0.01 1187.2 1.0E-12
12 2 8.9805 -87.0106 2010-06-23T22:49:22.20Z 678.0 6.3339 34.5748 6.8 4.6957 0.009 1188.0 1.0E-12
12 2 8.9805 -87.0106 2010-06-23T22:49:22.20Z 679.0 6.3286 34.5742 6.6 4.6952 0.009 1188.8 1.0E-12
12 2 8.9805 -87.0106 2010-06-23T22:49:22.20Z 680.0 6.3213 34.574 6.6 4.6953 0.009 1189.6 1.0E-12
12 2 8.9805 -87.0106 2010-06-23T22:49:22.20Z 681.0 6.303 34.5738 6.5 4.6956 0.009 1190.6 1.0E-12
12 2 8.9805 -87.0106 2010-06-23T22:49:22.20Z 682.0 6.2849 34.575 6.4 4.6957 0.009 1191.6 1.0E-12
12 2 8.9805 -87.0106 2010-06-23T22:49:22.20Z 683.0 6.2677 34.575 6.3 4.6948 0.01 1192.8 1.0E-12
12 2 8.9805 -87.0106 2010-06-23T22:49:22.20Z 684.0 6.2501 34.5744 6.5 4.695 0.009 1194.0 1.0E-12
12 2 8.9805 -87.0106 2010-06-23T22:49:22.20Z 685.0 6.2441 34.5743 6.7 4.6954 0.01 1195.1 1.0E-12
12 2 8.9805 -87.0106 2010-06-23T22:49:22.20Z 686.0 6.2386 34.5743 6.9 4.6954 0.009 1196.1 1.0E-12
12 2 8.9805 -87.0106 2010-06-23T22:49:22.20Z 687.0 6.2296 34.574 7.0 4.6952 0.009 1197.0 1.0E-12
12 2 8.9805 -87.0106 2010-06-23T22:49:22.20Z 688.0 6.2164 34.5736 7.0 4.6955 0.009 1197.8 1.0E-12
12 2 8.9805 -87.0106 2010-06-23T22:49:22.20Z 689.0 6.2059 34.5735 7.0 4.6956 0.009 1198.6 1.0E-12
12 2 8.9805 -87.0106 2010-06-23T22:49:22.20Z 690.0 6.1843 34.5729 7.0 4.6956 0.01 1199.6 1.0E-12
12 2 8.9805 -87.0106 2010-06-23T22:49:22.20Z 691.0 6.1731 34.572 7.2 4.6956 0.01 1200.6 1.0E-12
12 2 8.9805 -87.0106 2010-06-23T22:49:22.20Z 692.0 6.1668 34.5716 7.2 4.6956 0.009 1201.6 1.0E-12
12 2 8.9805 -87.0106 2010-06-23T22:49:22.20Z 693.0 6.164 34.5715 7.1 4.6958 0.009 1202.6 1.0E-12
12 2 8.9805 -87.0106 2010-06-23T22:49:22.20Z 694.0 6.1604 34.5713 7.0 4.6954 0.01 1203.6 1.0E-12
12 2 8.9805 -87.0106 2010-06-23T22:49:22.20Z 695.0 6.1575 34.5711 7.0 4.6954 0.01 1204.8 1.0E-12
12 2 8.9805 -87.0106 2010-06-23T22:49:22.20Z 696.0 6.1539 34.571 6.8 4.6957 0.009 1206.1 1.0E-12
12 2 8.9805 -87.0106 2010-06-23T22:49:22.20Z 697.0 6.1491 34.5709 6.8 4.6952 0.009 1207.4 1.0E-12
12 2 8.9805 -87.0106 2010-06-23T22:49:22.20Z 698.0 6.1421 34.5707 6.7 4.6952 0.009 1208.2 1.0E-12
12 2 8.9805 -87.0106 2010-06-23T22:49:22.20Z 699.0 6.1321 34.5702 6.6 4.6956 0.009 1209.0 1.0E-12
12 2 8.9805 -87.0106 2010-06-23T22:49:22.20Z 700.0 6.1248 34.5704 6.6 4.6956 0.009 1209.8 1.0E-12
12 2 8.9805 -87.0106 2010-06-23T22:49:22.20Z 701.0 6.1178 34.5704 6.6 4.695 0.009 1210.5 1.0E-12
12 2 8.9805 -87.0106 2010-06-23T22:49:22.20Z 702.0 6.112 34.5705 6.5 4.6954 0.009 1211.5 1.0E-12
12 2 8.9805 -87.0106 2010-06-23T22:49:22.20Z 703.0 6.1089 34.5702 6.5 4.6957 0.009 1213.0 1.0E-12
12 2 8.9805 -87.0106 2010-06-23T22:49:22.20Z 704.0 6.1053 34.5706 6.5 4.696 0.009 1214.4 1.0E-12
12 2 8.9805 -87.0106 2010-06-23T22:49:22.20Z 705.0 6.0949 34.5718 6.5 4.696 0.009 1215.1 1.0E-12
12 2 8.9805 -87.0106 2010-06-23T22:49:22.20Z 706.0 6.0904 34.5718 6.5 4.6958 0.009 1215.8 1.0E-12
12 2 8.9805 -87.0106 2010-06-23T22:49:22.20Z 707.0 6.085 34.5714 6.5 4.6959 0.009 1216.4 1.0E-12
12 2 8.9805 -87.0106 2010-06-23T22:49:22.20Z 708.0 6.0716 34.5711 6.6 4.6957 0.009 1217.9 1.0E-12
12 2 8.9805 -87.0106 2010-06-23T22:49:22.20Z 709.0 6.0634 34.5708 6.7 4.696 0.009 1219.6 1.0E-12
12 2 8.9805 -87.0106 2010-06-23T22:49:22.20Z 710.0 6.0462 34.5704 6.9 4.6959 0.01 1220.6 1.0E-12
12 2 8.9805 -87.0106 2010-06-23T22:49:22.20Z 711.0 6.0401 34.5705 6.9 4.6954 0.009 1221.4 1.0E-12
12 2 8.9805 -87.0106 2010-06-23T22:49:22.20Z 712.0 6.0312 34.5701 6.9 4.6952 0.009 1222.0 1.0E-12
12 2 8.9805 -87.0106 2010-06-23T22:49:22.20Z 713.0 6.0256 34.57 6.9 4.696 0.009 1222.8 1.0E-12
12 2 8.9805 -87.0106 2010-06-23T22:49:22.20Z 714.0 6.0218 34.57 6.9 4.696 0.009 1223.6 1.0E-12
12 2 8.9805 -87.0106 2010-06-23T22:49:22.20Z 715.0 6.013 34.5705 6.9 4.696 0.009 1224.8 1.0E-12
12 2 8.9805 -87.0106 2010-06-23T22:49:22.20Z 716.0 6.0116 34.5717 6.9 4.6958 0.009 1225.9 1.0E-12
12 2 8.9805 -87.0106 2010-06-23T22:49:22.20Z 717.0 6.0118 34.5717 6.9 4.6957 0.009 1226.8 1.0E-12
12 2 8.9805 -87.0106 2010-06-23T22:49:22.20Z 718.0 6.0123 34.5718 7.0 4.696 0.009 1227.5 1.0E-12
12 2 8.9805 -87.0106 2010-06-23T22:49:22.20Z 719.0 6.0122 34.5718 7.3 4.6958 0.009 1228.2 1.0E-12
12 2 8.9805 -87.0106 2010-06-23T22:49:22.20Z 720.0 6.0114 34.5718 7.5 4.6956 0.009 1229.2 1.0E-12
12 2 8.9805 -87.0106 2010-06-23T22:49:22.20Z 721.0 6.0028 34.5719 7.8 4.6958 0.009 1230.6 1.0E-12
12 2 8.9805 -87.0106 2010-06-23T22:49:22.20Z 722.0 5.9957 34.5718 8.0 4.6955 0.009 1232.0 1.0E-12
12 2 8.9805 -87.0106 2010-06-23T22:49:22.20Z 723.0 5.9868 34.5717 8.2 4.6958 0.009 1233.1 1.0E-12
12 2 8.9805 -87.0106 2010-06-23T22:49:22.20Z 724.0 5.9761 34.5715 8.4 4.6958 0.009 1234.0 1.0E-12
12 2 8.9805 -87.0106 2010-06-23T22:49:22.20Z 725.0 5.969 34.5713 8.4 4.6956 0.009 1234.8 1.0E-12
12 2 8.9805 -87.0106 2010-06-23T22:49:22.20Z 726.0 5.9537 34.5712 8.4 4.6952 0.009 1235.5 1.0E-12
12 2 8.9805 -87.0106 2010-06-23T22:49:22.20Z 727.0 5.942 34.5711 8.6 4.6959 0.009 1236.4 1.0E-12
12 2 8.9805 -87.0106 2010-06-23T22:49:22.20Z 728.0 5.9345 34.571 8.7 4.696 0.009 1237.5 1.0E-12
12 2 8.9805 -87.0106 2010-06-23T22:49:22.20Z 729.0 5.9294 34.5709 8.8 4.6961 0.009 1238.6 1.0E-12
12 2 8.9805 -87.0106 2010-06-23T22:49:22.20Z 730.0 5.9251 34.5709 9.0 4.6955 0.009 1239.6 1.0E-12
12 2 8.9805 -87.0106 2010-06-23T22:49:22.20Z 731.0 5.9147 34.5708 9.1 4.6959 0.009 1240.6 1.0E-12
12 2 8.9805 -87.0106 2010-06-23T22:49:22.20Z 732.0 5.8996 34.5708 9.2 4.696 0.009 1241.9 1.0E-12
12 2 8.9805 -87.0106 2010-06-23T22:49:22.20Z 733.0 5.8886 34.5704 9.4 4.6961 0.009 1243.1 1.0E-12
12 2 8.9805 -87.0106 2010-06-23T22:49:22.20Z 734.0 5.8795 34.5706 9.4 4.6958 0.009 1244.0 1.0E-12
12 2 8.9805 -87.0106 2010-06-23T22:49:22.20Z 735.0 5.8773 34.5704 9.4 4.696 0.009 1244.8 1.0E-12
12 2 8.9805 -87.0106 2010-06-23T22:49:22.20Z 736.0 5.8723 34.5704 9.4 4.6962 0.009 1245.6 1.0E-12
12 2 8.9805 -87.0106 2010-06-23T22:49:22.20Z 737.0 5.865 34.5705 9.5 4.6964 0.009 1246.6 1.0E-12
12 2 8.9805 -87.0106 2010-06-23T22:49:22.20Z 738.0 5.859 34.5703 9.6 4.6958 0.009 1247.8 1.0E-12
12 2 8.9805 -87.0106 2010-06-23T22:49:22.20Z 739.0 5.8508 34.5703 9.6 4.6962 0.009 1248.9 1.0E-12
12 2 8.9805 -87.0106 2010-06-23T22:49:22.20Z 740.0 5.839 34.5702 9.8 4.696 0.009 1250.0 1.0E-12
12 2 8.9805 -87.0106 2010-06-23T22:49:22.20Z 741.0 5.8271 34.5701 9.8 4.6961 0.009 1251.1 1.0E-12
12 2 8.9805 -87.0106 2010-06-23T22:49:22.20Z 742.0 5.8222 34.5699 9.8 4.696 0.009 1252.0 1.0E-12
12 2 8.9805 -87.0106 2010-06-23T22:49:22.20Z 743.0 5.8186 34.5699 9.8 4.696 0.009 1252.8 1.0E-12
12 2 8.9805 -87.0106 2010-06-23T22:49:22.20Z 744.0 5.8152 34.5699 9.8 4.6965 0.009 1253.5 1.0E-12
12 2 8.9805 -87.0106 2010-06-23T22:49:22.20Z 745.0 5.8119 34.5698 9.9 4.697 0.009 1254.4 1.0E-12
12 2 8.9805 -87.0106 2010-06-23T22:49:22.20Z 746.0 5.8038 34.5697 10.0 4.6964 0.009 1255.4 1.0E-12
12 2 8.9805 -87.0106 2010-06-23T22:49:22.20Z 747.0 5.799 34.5697 10.0 4.6963 0.009 1256.4 1.0E-12
12 2 8.9805 -87.0106 2010-06-23T22:49:22.20Z 748.0 5.7963 34.5696 10.0 4.6958 0.009 1257.5 1.0E-12
12 2 8.9805 -87.0106 2010-06-23T22:49:22.20Z 749.0 5.792 34.5696 10.0 4.6964 0.009 1258.9 1.0E-12
12 2 8.9805 -87.0106 2010-06-23T22:49:22.20Z 750.0 5.7888 34.5697 10.0 4.6966 0.009 1260.1 1.0E-12
12 2 8.9805 -87.0106 2010-06-23T22:49:22.20Z 751.0 5.7843 34.5697 10.0 4.6969 0.009 1261.0 1.0E-12
12 2 8.9805 -87.0106 2010-06-23T22:49:22.20Z 752.0 5.7809 34.5698 10.1 4.6969 0.009 1261.8 1.0E-12
12 2 8.9805 -87.0106 2010-06-23T22:49:22.20Z 753.0 5.7768 34.5698 10.1 4.6964 0.009 1262.5 1.0E-12
12 2 8.9805 -87.0106 2010-06-23T22:49:22.20Z 754.0 5.7756 34.57 10.1 4.6967 0.009 1263.1 1.0E-12
12 2 8.9805 -87.0106 2010-06-23T22:49:22.20Z 755.0 5.7725 34.5697 10.1 4.6961 0.009 1263.9 1.0E-12
12 2 8.9805 -87.0106 2010-06-23T22:49:22.20Z 756.0 5.7573 34.5697 10.2 4.6966 0.009 1265.4 1.0E-12
12 2 8.9805 -87.0106 2010-06-23T22:49:22.20Z 757.0 5.7473 34.5694 10.2 4.6969 0.009 1266.9 1.0E-12
12 2 8.9805 -87.0106 2010-06-23T22:49:22.20Z 758.0 5.7401 34.5694 10.2 4.6967 0.009 1267.8 1.0E-12
12 2 8.9805 -87.0106 2010-06-23T22:49:22.20Z 759.0 5.7308 34.5692 10.2 4.6964 0.009 1268.5 1.0E-12
12 2 8.9805 -87.0106 2010-06-23T22:49:22.20Z 760.0 5.7196 34.5692 10.2 4.6966 0.009 1269.2 1.0E-12
12 2 8.9805 -87.0106 2010-06-23T22:49:22.20Z 761.0 5.7188 34.5691 10.3 4.6966 0.009 1270.4 1.0E-12
12 2 8.9805 -87.0106 2010-06-23T22:49:22.20Z 762.0 5.7184 34.569 10.4 4.697 0.009 1271.8 1.0E-12
12 2 8.9805 -87.0106 2010-06-23T22:49:22.20Z 763.0 5.7158 34.569 10.5 4.6963 0.009 1272.9 1.0E-12
12 2 8.9805 -87.0106 2010-06-23T22:49:22.20Z 764.0 5.7071 34.5691 10.5 4.6971 0.009 1273.8 1.0E-12
12 2 8.9805 -87.0106 2010-06-23T22:49:22.20Z 765.0 5.6811 34.5699 10.5 4.6968 0.009 1274.5 1.0E-12
12 2 8.9805 -87.0106 2010-06-23T22:49:22.20Z 766.0 5.6763 34.5713 10.5 4.6969 0.01 1275.2 1.0E-12
12 2 8.9805 -87.0106 2010-06-23T22:49:22.20Z 767.0 5.6567 34.5709 10.7 4.6972 0.009 1276.4 1.0E-12
12 2 8.9805 -87.0106 2010-06-23T22:49:22.20Z 768.0 5.641 34.5706 11.2 4.697 0.009 1277.6 1.0E-12
12 2 8.9805 -87.0106 2010-06-23T22:49:22.20Z 769.0 5.6311 34.5705 11.8 4.697 0.009 1278.6 1.0E-12
12 2 8.9805 -87.0106 2010-06-23T22:49:22.20Z 770.0 5.6234 34.5705 12.4 4.6969 0.009 1279.6 1.0E-12
12 2 8.9805 -87.0106 2010-06-23T22:49:22.20Z 771.0 5.6091 34.5706 12.8 4.697 0.009 1280.5 1.0E-12
12 2 8.9805 -87.0106 2010-06-23T22:49:22.20Z 772.0 5.603 34.5706 13.1 4.6967 0.009 1281.4 1.0E-12
12 2 8.9805 -87.0106 2010-06-23T22:49:22.20Z 773.0 5.5989 34.5705 13.5 4.6972 0.009 1282.6 1.0E-12
12 2 8.9805 -87.0106 2010-06-23T22:49:22.20Z 774.0 5.5904 34.5704 13.9 4.6972 0.009 1284.0 1.0E-12
12 2 8.9805 -87.0106 2010-06-23T22:49:22.20Z 775.0 5.5845 34.5705 14.1 4.6971 0.009 1285.1 1.0E-12
12 2 8.9805 -87.0106 2010-06-23T22:49:22.20Z 776.0 5.5746 34.5702 14.3 4.6972 0.009 1286.0 1.0E-12
12 2 8.9805 -87.0106 2010-06-23T22:49:22.20Z 777.0 5.5611 34.5704 14.4 4.697 0.009 1286.8 1.0E-12
12 2 8.9805 -87.0106 2010-06-23T22:49:22.20Z 778.0 5.5591 34.5702 14.5 4.697 0.009 1287.5 1.0E-12
12 2 8.9805 -87.0106 2010-06-23T22:49:22.20Z 779.0 5.5573 34.5701 14.6 4.6969 0.009 1288.2 1.0E-12
12 2 8.9805 -87.0106 2010-06-23T22:49:22.20Z 780.0 5.5507 34.5699 14.6 4.6966 0.009 1289.0 1.0E-12
12 2 8.9805 -87.0106 2010-06-23T22:49:22.20Z 781.0 5.5424 34.5699 14.8 4.696 0.009 1289.9 1.0E-12
12 2 8.9805 -87.0106 2010-06-23T22:49:22.20Z 782.0 5.5375 34.5699 14.9 4.6972 0.009 1291.2 1.0E-12
12 2 8.9805 -87.0106 2010-06-23T22:49:22.20Z 783.0 5.536 34.57 15.2 4.6972 0.009 1292.8 1.0E-12
12 2 8.9805 -87.0106 2010-06-23T22:49:22.20Z 784.0 5.5316 34.5701 15.4 4.6966 0.009 1293.8 1.0E-12
12 2 8.9805 -87.0106 2010-06-23T22:49:22.20Z 785.0 5.5303 34.5701 15.4 4.6972 0.009 1294.5 1.0E-12
12 2 8.9805 -87.0106 2010-06-23T22:49:22.20Z 786.0 5.5295 34.5701 15.4 4.6969 0.009 1295.2 1.0E-12
12 2 8.9805 -87.0106 2010-06-23T22:49:22.20Z 787.0 5.5283 34.5701 15.5 4.6972 0.009 1296.0 1.0E-12
12 2 8.9805 -87.0106 2010-06-23T22:49:22.20Z 788.0 5.5274 34.5701 15.6 4.6971 0.009 1297.0 1.0E-12
12 2 8.9805 -87.0106 2010-06-23T22:49:22.20Z 789.0 5.527 34.5702 15.6 4.6959 0.009 1298.4 1.0E-12
12 2 8.9805 -87.0106 2010-06-23T22:49:22.20Z 790.0 5.5266 34.5702 15.8 4.6971 0.01 1299.8 1.0E-12
12 2 8.9805 -87.0106 2010-06-23T22:49:22.20Z 791.0 5.526 34.5703 15.8 4.6969 0.009 1300.8 1.0E-12
12 2 8.9805 -87.0106 2010-06-23T22:49:22.20Z 792.0 5.5255 34.5703 15.8 4.6967 0.009 1301.5 1.0E-12
12 2 8.9805 -87.0106 2010-06-23T22:49:22.20Z 793.0 5.5245 34.5704 15.8 4.6973 0.009 1302.2 1.0E-12
12 2 8.9805 -87.0106 2010-06-23T22:49:22.20Z 794.0 5.5242 34.5705 15.8 4.6967 0.009 1303.0 1.0E-12
12 2 8.9805 -87.0106 2010-06-23T22:49:22.20Z 795.0 5.5237 34.5704 15.8 4.6972 0.009 1303.8 1.0E-12
12 2 8.9805 -87.0106 2010-06-23T22:49:22.20Z 796.0 5.5231 34.5704 15.8 4.697 0.009 1305.0 1.0E-12
12 2 8.9805 -87.0106 2010-06-23T22:49:22.20Z 797.0 5.5231 34.5704 16.0 4.6972 0.009 1306.8 1.0E-12
12 2 8.9805 -87.0106 2010-06-23T22:49:22.20Z 798.0 5.5229 34.5705 16.0 4.6967 0.009 1308.1 1.0E-12
12 2 8.9805 -87.0106 2010-06-23T22:49:22.20Z 799.0 5.5196 34.5704 16.0 4.6969 0.009 1309.0 1.0E-12
12 2 8.9805 -87.0106 2010-06-23T22:49:22.20Z 800.0 5.5074 34.5705 16.0 4.6971 0.009 1309.8 1.0E-12
12 2 8.9805 -87.0106 2010-06-23T22:49:22.20Z 801.0 5.5028 34.5706 16.0 4.6972 0.009 1310.5 1.0E-12
12 2 8.9805 -87.0106 2010-06-23T22:49:22.20Z 802.0 5.5013 34.5704 16.0 4.6971 0.009 1311.2 1.0E-12
12 2 8.9805 -87.0106 2010-06-23T22:49:22.20Z 803.0 5.4988 34.5703 16.0 4.6971 0.009 1312.2 1.0E-12
12 2 8.9805 -87.0106 2010-06-23T22:49:22.20Z 804.0 5.4956 34.5703 16.1 4.6972 0.009 1313.4 1.0E-12
12 2 8.9805 -87.0106 2010-06-23T22:49:22.20Z 805.0 5.49 34.5703 16.1 4.697 0.009 1314.4 1.0E-12
12 2 8.9805 -87.0106 2010-06-23T22:49:22.20Z 806.0 5.4697 34.5701 16.1 4.6969 0.009 1315.2 1.0E-12
12 2 8.9805 -87.0106 2010-06-23T22:49:22.20Z 807.0 5.4622 34.5701 16.2 4.697 0.009 1316.1 1.0E-12
12 2 8.9805 -87.0106 2010-06-23T22:49:22.20Z 808.0 5.4595 34.57 16.2 4.6971 0.009 1317.2 1.0E-12
12 2 8.9805 -87.0106 2010-06-23T22:49:22.20Z 809.0 5.4551 34.5699 16.3 4.6974 0.009 1318.5 1.0E-12
12 2 8.9805 -87.0106 2010-06-23T22:49:22.20Z 810.0 5.4476 34.5701 16.3 4.6972 0.009 1319.5 1.0E-12
12 2 8.9805 -87.0106 2010-06-23T22:49:22.20Z 811.0 5.4449 34.5699 16.3 4.6972 0.009 1320.4 1.0E-12
12 2 8.9805 -87.0106 2010-06-23T22:49:22.20Z 812.0 5.443 34.5699 16.4 4.6973 0.009 1321.4 1.0E-12
12 2 8.9805 -87.0106 2010-06-23T22:49:22.20Z 813.0 5.4423 34.5699 16.5 4.6974 0.009 1322.2 1.0E-12
12 2 8.9805 -87.0106 2010-06-23T22:49:22.20Z 814.0 5.4414 34.57 16.5 4.6973 0.009 1323.1 1.0E-12
12 2 8.9805 -87.0106 2010-06-23T22:49:22.20Z 815.0 5.4403 34.5699 16.5 4.6972 0.009 1324.0 1.0E-12
12 2 8.9805 -87.0106 2010-06-23T22:49:22.20Z 816.0 5.4384 34.57 16.6 4.697 0.009 1324.9 1.0E-12
12 2 8.9805 -87.0106 2010-06-23T22:49:22.20Z 817.0 5.435 34.57 16.6 4.6971 0.009 1325.9 1.0E-12
12 2 8.9805 -87.0106 2010-06-23T22:49:22.20Z 818.0 5.4292 34.5701 16.7 4.697 0.009 1326.9 1.0E-12
12 2 8.9805 -87.0106 2010-06-23T22:49:22.20Z 819.0 5.4257 34.57 16.7 4.6972 0.009 1328.0 1.0E-12
12 2 8.9805 -87.0106 2010-06-23T22:49:22.20Z 820.0 5.4221 34.5699 16.7 4.6972 0.009 1329.4 1.0E-12
12 2 8.9805 -87.0106 2010-06-23T22:49:22.20Z 821.0 5.4158 34.57 16.7 4.6972 0.009 1330.6 1.0E-12
12 2 8.9805 -87.0106 2010-06-23T22:49:22.20Z 822.0 5.4093 34.57 16.8 4.6972 0.009 1331.6 1.0E-12
12 2 8.9805 -87.0106 2010-06-23T22:49:22.20Z 823.0 5.4025 34.5701 16.8 4.6972 0.009 1332.4 1.0E-12
12 2 8.9805 -87.0106 2010-06-23T22:49:22.20Z 824.0 5.3991 34.5701 16.9 4.6973 0.009 1333.0 1.0E-12
12 2 8.9805 -87.0106 2010-06-23T22:49:22.20Z 825.0 5.396 34.5702 16.9 4.6977 0.009 1333.8 1.0E-12
12 2 8.9805 -87.0106 2010-06-23T22:49:22.20Z 826.0 5.3906 34.5706 17.1 4.6973 0.009 1334.8 1.0E-12
12 2 8.9805 -87.0106 2010-06-23T22:49:22.20Z 827.0 5.3871 34.5711 17.3 4.6966 0.009 1336.2 1.0E-12
12 2 8.9805 -87.0106 2010-06-23T22:49:22.20Z 828.0 5.3847 34.5712 17.6 4.697 0.009 1337.6 1.0E-12
12 2 8.9805 -87.0106 2010-06-23T22:49:22.20Z 829.0 5.3804 34.5713 18.0 4.6973 0.009 1338.6 1.0E-12
12 2 8.9805 -87.0106 2010-06-23T22:49:22.20Z 830.0 5.3753 34.5714 18.4 4.6972 0.009 1339.5 1.0E-12
12 2 8.9805 -87.0106 2010-06-23T22:49:22.20Z 831.0 5.3725 34.5713 18.6 4.6973 0.009 1340.2 1.0E-12
12 2 8.9805 -87.0106 2010-06-23T22:49:22.20Z 832.0 5.3628 34.5709 18.8 4.6975 0.009 1341.1 1.0E-12
12 2 8.9805 -87.0106 2010-06-23T22:49:22.20Z 833.0 5.3512 34.5707 19.0 4.6974 0.009 1342.1 1.0E-12
12 2 8.9805 -87.0106 2010-06-23T22:49:22.20Z 834.0 5.3439 34.5705 19.2 4.6974 0.009 1343.1 1.0E-12
12 2 8.9805 -87.0106 2010-06-23T22:49:22.20Z 835.0 5.3383 34.5702 19.3 4.6976 0.009 1344.0 1.0E-12
12 2 8.9805 -87.0106 2010-06-23T22:49:22.20Z 836.0 5.3367 34.5701 19.3 4.6974 0.009 1344.9 1.0E-12
12 2 8.9805 -87.0106 2010-06-23T22:49:22.20Z 837.0 5.3346 34.57 19.3 4.6974 0.009 1345.9 1.0E-12
12 2 8.9805 -87.0106 2010-06-23T22:49:22.20Z 838.0 5.3283 34.5704 19.2 4.6976 0.009 1347.1 1.0E-12
12 2 8.9805 -87.0106 2010-06-23T22:49:22.20Z 839.0 5.3235 34.5703 19.1 4.6977 0.009 1348.5 1.0E-12
12 2 8.9805 -87.0106 2010-06-23T22:49:22.20Z 840.0 5.3193 34.5701 19.1 4.6973 0.009 1349.5 1.0E-12
12 2 8.9805 -87.0106 2010-06-23T22:49:22.20Z 841.0 5.315 34.57 19.2 4.6971 0.009 1350.4 1.0E-12
12 2 8.9805 -87.0106 2010-06-23T22:49:22.20Z 842.0 5.3105 34.5699 19.3 4.6975 0.009 1351.2 1.0E-12
12 2 8.9805 -87.0106 2010-06-23T22:49:22.20Z 843.0 5.307 34.5699 19.2 4.6976 0.01 1352.0 1.0E-12
12 2 8.9805 -87.0106 2010-06-23T22:49:22.20Z 844.0 5.3052 34.5701 19.2 4.6975 0.009 1352.8 1.0E-12
12 2 8.9805 -87.0106 2010-06-23T22:49:22.20Z 845.0 5.3035 34.5704 19.2 4.6974 0.009 1353.8 1.0E-12
12 2 8.9805 -87.0106 2010-06-23T22:49:22.20Z 846.0 5.3004 34.5707 19.1 4.6973 0.009 1355.0 1.0E-12
12 2 8.9805 -87.0106 2010-06-23T22:49:22.20Z 847.0 5.2951 34.5708 19.2 4.6976 0.009 1356.1 1.0E-12
12 2 8.9805 -87.0106 2010-06-23T22:49:22.20Z 848.0 5.2921 34.5707 19.4 4.6973 0.009 1357.0 1.0E-12
12 2 8.9805 -87.0106 2010-06-23T22:49:22.20Z 849.0 5.2894 34.5707 19.5 4.6975 0.009 1357.8 1.0E-12
12 2 8.9805 -87.0106 2010-06-23T22:49:22.20Z 850.0 5.2855 34.5708 19.7 4.6975 0.009 1358.8 1.0E-12
12 2 8.9805 -87.0106 2010-06-23T22:49:22.20Z 851.0 5.2807 34.5707 19.9 4.6977 0.009 1360.0 1.0E-12
12 2 8.9805 -87.0106 2010-06-23T22:49:22.20Z 852.0 5.2773 34.5708 20.0 4.6974 0.009 1361.1 1.0E-12
12 2 8.9805 -87.0106 2010-06-23T22:49:22.20Z 853.0 5.2715 34.5709 20.1 4.698 0.009 1362.0 1.0E-12
12 2 8.9805 -87.0106 2010-06-23T22:49:22.20Z 854.0 5.2638 34.571 20.1 4.6973 0.009 1362.8 1.0E-12
12 2 8.9805 -87.0106 2010-06-23T22:49:22.20Z 855.0 5.257 34.571 20.2 4.698 0.009 1363.8 1.0E-12
12 2 8.9805 -87.0106 2010-06-23T22:49:22.20Z 856.0 5.2515 34.5707 20.4 4.6981 0.009 1365.1 1.0E-12
12 2 8.9805 -87.0106 2010-06-23T22:49:22.20Z 857.0 5.2485 34.5707 20.4 4.6978 0.009 1366.4 1.0E-12
12 2 8.9805 -87.0106 2010-06-23T22:49:22.20Z 858.0 5.2474 34.5707 20.6 4.6975 0.009 1367.2 1.0E-12
12 2 8.9805 -87.0106 2010-06-23T22:49:22.20Z 859.0 5.2458 34.5707 20.6 4.698 0.009 1367.9 1.0E-12
12 2 8.9805 -87.0106 2010-06-23T22:49:22.20Z 860.0 5.2438 34.5707 20.6 4.6976 0.009 1368.5 1.0E-12
12 2 8.9805 -87.0106 2010-06-23T22:49:22.20Z 861.0 5.2395 34.5706 20.6 4.698 0.009 1369.4 1.0E-12
12 2 8.9805 -87.0106 2010-06-23T22:49:22.20Z 862.0 5.2303 34.5706 20.5 4.6979 0.009 1370.8 1.0E-12
12 2 8.9805 -87.0106 2010-06-23T22:49:22.20Z 863.0 5.2252 34.5707 20.6 4.6981 0.009 1372.4 1.0E-12
12 2 8.9805 -87.0106 2010-06-23T22:49:22.20Z 864.0 5.2211 34.5709 20.6 4.6979 0.009 1373.6 1.0E-12
12 2 8.9805 -87.0106 2010-06-23T22:49:22.20Z 865.0 5.2168 34.571 20.6 4.6975 0.009 1374.5 1.0E-12
12 2 8.9805 -87.0106 2010-06-23T22:49:22.20Z 866.0 5.2153 34.571 20.7 4.6975 0.009 1375.4 1.0E-12
12 2 8.9805 -87.0106 2010-06-23T22:49:22.20Z 867.0 5.2129 34.5711 20.9 4.6975 0.009 1376.4 1.0E-12
12 2 8.9805 -87.0106 2010-06-23T22:49:22.20Z 868.0 5.2105 34.5711 21.0 4.6979 0.009 1377.2 1.0E-12
12 2 8.9805 -87.0106 2010-06-23T22:49:22.20Z 869.0 5.207 34.571 21.1 4.6975 0.009 1378.1 1.0E-12
12 2 8.9805 -87.0106 2010-06-23T22:49:22.20Z 870.0 5.2003 34.5711 21.3 4.6982 0.009 1379.1 1.0E-12
12 2 8.9805 -87.0106 2010-06-23T22:49:22.20Z 871.0 5.1971 34.571 21.3 4.6977 0.009 1380.0 1.0E-12
12 2 8.9805 -87.0106 2010-06-23T22:49:22.20Z 872.0 5.1965 34.571 21.4 4.6982 0.009 1381.0 1.0E-12
12 2 8.9805 -87.0106 2010-06-23T22:49:22.20Z 873.0 5.1962 34.571 21.5 4.6981 0.009 1382.1 1.0E-12
12 2 8.9805 -87.0106 2010-06-23T22:49:22.20Z 874.0 5.1957 34.571 21.5 4.6976 0.009 1383.1 1.0E-12
12 2 8.9805 -87.0106 2010-06-23T22:49:22.20Z 875.0 5.194 34.5712 21.6 4.6981 0.009 1384.4 1.0E-12
12 2 8.9805 -87.0106 2010-06-23T22:49:22.20Z 876.0 5.1921 34.5713 21.7 4.6978 0.009 1385.6 1.0E-12
12 2 8.9805 -87.0106 2010-06-23T22:49:22.20Z 877.0 5.1877 34.5713 21.7 4.6981 0.009 1386.6 1.0E-12
12 2 8.9805 -87.0106 2010-06-23T22:49:22.20Z 878.0 5.1798 34.5712 21.8 4.6981 0.009 1387.5 1.0E-12
12 2 8.9805 -87.0106 2010-06-23T22:49:22.20Z 879.0 5.1739 34.5713 21.9 4.6979 0.009 1388.2 1.0E-12
12 2 8.9805 -87.0106 2010-06-23T22:49:22.20Z 880.0 5.1702 34.5713 21.9 4.6975 0.009 1389.0 1.0E-12
12 2 8.9805 -87.0106 2010-06-23T22:49:22.20Z 881.0 5.1662 34.5712 22.0 4.6983 0.009 1389.8 1.0E-12
12 2 8.9805 -87.0106 2010-06-23T22:49:22.20Z 882.0 5.1624 34.5711 22.0 4.698 0.009 1390.8 1.0E-12
12 2 8.9805 -87.0106 2010-06-23T22:49:22.20Z 883.0 5.1542 34.571 22.1 4.6981 0.009 1391.9 1.0E-12
12 2 8.9805 -87.0106 2010-06-23T22:49:22.20Z 884.0 5.1388 34.5711 22.1 4.6981 0.009 1393.0 1.0E-12
12 2 8.9805 -87.0106 2010-06-23T22:49:22.20Z 885.0 5.1296 34.571 22.1 4.698 0.009 1394.2 1.0E-12
12 2 8.9805 -87.0106 2010-06-23T22:49:22.20Z 886.0 5.1247 34.5708 22.2 4.698 0.009 1395.5 1.0E-12
12 2 8.9805 -87.0106 2010-06-23T22:49:22.20Z 887.0 5.1204 34.5707 22.4 4.6984 0.009 1396.5 1.0E-12
12 2 8.9805 -87.0106 2010-06-23T22:49:22.20Z 888.0 5.1157 34.5705 22.4 4.6983 0.009 1397.2 1.0E-12
12 2 8.9805 -87.0106 2010-06-23T22:49:22.20Z 889.0 5.1072 34.5706 22.4 4.6981 0.009 1398.1 1.0E-12
12 2 8.9805 -87.0106 2010-06-23T22:49:22.20Z 890.0 5.0995 34.5706 22.4 4.6975 0.009 1399.0 1.0E-12
12 2 8.9805 -87.0106 2010-06-23T22:49:22.20Z 891.0 5.0948 34.5706 22.4 4.698 0.009 1400.0 1.0E-12
12 2 8.9805 -87.0106 2010-06-23T22:49:22.20Z 892.0 5.0918 34.5705 22.4 4.6983 0.009 1401.2 1.0E-12
12 2 8.9805 -87.0106 2010-06-23T22:49:22.20Z 893.0 5.0866 34.5705 22.4 4.6982 0.009 1402.4 1.0E-12
12 2 8.9805 -87.0106 2010-06-23T22:49:22.20Z 894.0 5.0788 34.5708 22.4 4.6979 0.009 1403.5 1.0E-12
12 2 8.9805 -87.0106 2010-06-23T22:49:22.20Z 895.0 5.0716 34.571 22.4 4.6976 0.009 1404.6 1.0E-12
12 2 8.9805 -87.0106 2010-06-23T22:49:22.20Z 896.0 5.0693 34.5712 22.4 4.6981 0.009 1405.5 1.0E-12
12 2 8.9805 -87.0106 2010-06-23T22:49:22.20Z 897.0 5.068 34.5714 22.6 4.6983 0.009 1406.2 1.0E-12
12 2 8.9805 -87.0106 2010-06-23T22:49:22.20Z 898.0 5.0677 34.5713 22.6 4.6982 0.009 1407.0 1.0E-12
12 2 8.9805 -87.0106 2010-06-23T22:49:22.20Z 899.0 5.0675 34.5713 22.8 4.6983 0.009 1407.8 1.0E-12
12 2 8.9805 -87.0106 2010-06-23T22:49:22.20Z 900.0 5.067 34.5713 23.0 4.698 0.009 1408.9 1.0E-12
12 2 8.9805 -87.0106 2010-06-23T22:49:22.20Z 901.0 5.0663 34.5714 23.2 4.698 0.009 1410.8 1.0E-12
12 2 8.9805 -87.0106 2010-06-23T22:49:22.20Z 902.0 5.0654 34.5718 23.4 4.6944 0.009 1412.4 1.0E-12
12 2 8.9805 -87.0106 2010-06-23T22:49:22.20Z 903.0 5.0639 34.572 23.4 4.6937 0.009 1413.1 1.0E-12
12 2 8.9805 -87.0106 2010-06-23T22:49:22.20Z 904.0 5.0621 34.5724 23.6 4.6981 0.009 1413.8 1.0E-12
12 2 8.9805 -87.0106 2010-06-23T22:49:22.20Z 905.0 5.06 34.5725 23.7 4.6984 0.009 1414.4 1.0E-12
12 2 8.9805 -87.0106 2010-06-23T22:49:22.20Z 906.0 5.0566 34.5726 23.8 4.6982 0.009 1414.9 1.0E-12
12 2 8.9805 -87.0106 2010-06-23T22:49:22.20Z 907.0 5.0544 34.5725 23.8 4.6978 0.009 1415.5 1.0E-12
12 2 8.9805 -87.0106 2010-06-23T22:49:22.20Z 908.0 5.0545 34.5724 24.3 4.6983 0.009 1417.0 1.0E-12
12 2 8.9805 -87.0106 2010-06-23T22:49:22.20Z 909.0 5.0537 34.5724 24.7 4.6983 0.009 1418.8 1.0E-12
12 2 8.9805 -87.0106 2010-06-23T22:49:22.20Z 910.0 5.0481 34.5726 24.9 4.6984 0.009 1419.9 1.0E-12
12 2 8.9805 -87.0106 2010-06-23T22:49:22.20Z 911.0 5.0425 34.5727 25.1 4.6981 0.009 1420.8 1.0E-12
12 2 8.9805 -87.0106 2010-06-23T22:49:22.20Z 912.0 5.0368 34.5727 25.1 4.6981 0.009 1421.5 1.0E-12
12 2 8.9805 -87.0106 2010-06-23T22:49:22.20Z 913.0 5.0295 34.5726 25.2 4.6983 0.009 1422.1 1.0E-12
12 2 8.9805 -87.0106 2010-06-23T22:49:22.20Z 914.0 5.0192 34.5721 25.3 4.6979 0.009 1422.8 1.0E-12
12 2 8.9805 -87.0106 2010-06-23T22:49:22.20Z 915.0 5.0099 34.5717 25.4 4.6982 0.009 1423.6 1.0E-12
12 2 8.9805 -87.0106 2010-06-23T22:49:22.20Z 916.0 5.0073 34.5717 25.5 4.6985 0.009 1424.9 1.0E-12
12 2 8.9805 -87.0106 2010-06-23T22:49:22.20Z 917.0 5.0059 34.5716 25.4 4.6983 0.009 1426.2 1.0E-12
12 2 8.9805 -87.0106 2010-06-23T22:49:22.20Z 918.0 5.0036 34.5717 25.3 4.6984 0.01 1427.2 1.0E-12
12 2 8.9805 -87.0106 2010-06-23T22:49:22.20Z 919.0 5.0004 34.5714 25.1 4.6984 0.009 1428.0 1.0E-12
12 2 8.9805 -87.0106 2010-06-23T22:49:22.20Z 920.0 4.9947 34.5716 25.1 4.6984 0.009 1429.0 1.0E-12
12 2 8.9805 -87.0106 2010-06-23T22:49:22.20Z 921.0 4.9919 34.5714 25.1 4.6984 0.009 1430.4 1.0E-12
12 2 8.9805 -87.0106 2010-06-23T22:49:22.20Z 922.0 4.9898 34.5715 25.1 4.6983 0.009 1431.6 1.0E-12
12 2 8.9805 -87.0106 2010-06-23T22:49:22.20Z 923.0 4.9883 34.5717 25.1 4.6982 0.009 1432.6 1.0E-12
12 2 8.9805 -87.0106 2010-06-23T22:49:22.20Z 924.0 4.9868 34.5717 25.0 4.6976 0.009 1433.5 1.0E-12
12 2 8.9805 -87.0106 2010-06-23T22:49:22.20Z 925.0 4.9838 34.5718 24.9 4.6983 0.009 1434.2 1.0E-12
12 2 8.9805 -87.0106 2010-06-23T22:49:22.20Z 926.0 4.9792 34.5717 25.0 4.6985 0.009 1435.1 1.0E-12
12 2 8.9805 -87.0106 2010-06-23T22:49:22.20Z 927.0 4.9724 34.572 25.0 4.6985 0.009 1436.2 1.0E-12
12 2 8.9805 -87.0106 2010-06-23T22:49:22.20Z 928.0 4.9572 34.5719 25.2 4.6983 0.009 1437.5 1.0E-12
12 2 8.9805 -87.0106 2010-06-23T22:49:22.20Z 929.0 4.942 34.5717 25.2 4.6984 0.009 1438.5 1.0E-12
12 2 8.9805 -87.0106 2010-06-23T22:49:22.20Z 930.0 4.9383 34.5717 25.3 4.6984 0.009 1439.2 1.0E-12
12 2 8.9805 -87.0106 2010-06-23T22:49:22.20Z 931.0 4.9325 34.5714 25.4 4.6984 0.009 1440.0 1.0E-12
12 2 8.9805 -87.0106 2010-06-23T22:49:22.20Z 932.0 4.9292 34.5715 25.4 4.6984 0.009 1440.9 1.0E-12
12 2 8.9805 -87.0106 2010-06-23T22:49:22.20Z 933.0 4.9276 34.5715 25.4 4.6982 0.009 1442.0 1.0E-12
12 2 8.9805 -87.0106 2010-06-23T22:49:22.20Z 934.0 4.9247 34.5715 25.4 4.6985 0.009 1443.2 1.0E-12
12 2 8.9805 -87.0106 2010-06-23T22:49:22.20Z 935.0 4.9198 34.5719 25.4 4.6984 0.009 1444.5 1.0E-12
12 2 8.9805 -87.0106 2010-06-23T22:49:22.20Z 936.0 4.9142 34.5721 25.4 4.6985 0.009 1445.6 1.0E-12
12 2 8.9805 -87.0106 2010-06-23T22:49:22.20Z 937.0 4.9099 34.5725 25.6 4.6979 0.009 1446.6 1.0E-12
12 2 8.9805 -87.0106 2010-06-23T22:49:22.20Z 938.0 4.9028 34.5731 25.7 4.6983 0.009 1447.5 1.0E-12
12 2 8.9805 -87.0106 2010-06-23T22:49:22.20Z 939.0 4.8988 34.5738 25.9 4.6985 0.009 1448.4 1.0E-12
12 2 8.9805 -87.0106 2010-06-23T22:49:22.20Z 940.0 4.8953 34.5736 26.2 4.6984 0.009 1449.2 1.0E-12
12 2 8.9805 -87.0106 2010-06-23T22:49:22.20Z 941.0 4.8913 34.5737 26.8 4.6985 0.009 1450.2 1.0E-12
12 2 8.9805 -87.0106 2010-06-23T22:49:22.20Z 942.0 4.8861 34.5737 27.5 4.699 0.009 1451.4 1.0E-12
12 2 8.9805 -87.0106 2010-06-23T22:49:22.20Z 943.0 4.883 34.5745 28.0 4.6982 0.009 1452.4 1.0E-12
12 2 8.9805 -87.0106 2010-06-23T22:49:22.20Z 944.0 4.8799 34.5748 28.3 4.6981 0.009 1453.2 1.0E-12
12 2 8.9805 -87.0106 2010-06-23T22:49:22.20Z 945.0 4.875 34.5746 28.6 4.6988 0.009 1453.9 1.0E-12
12 2 8.9805 -87.0106 2010-06-23T22:49:22.20Z 946.0 4.87 34.5746 28.8 4.6988 0.009 1454.5 1.0E-12
12 2 8.9805 -87.0106 2010-06-23T22:49:22.20Z 947.0 4.8615 34.5747 29.1 4.6988 0.009 1455.2 1.0E-12
12 2 8.9805 -87.0106 2010-06-23T22:49:22.20Z 948.0 4.8621 34.5744 29.6 4.698 0.009 1457.0 1.0E-12
12 2 8.9805 -87.0106 2010-06-23T22:49:22.20Z 949.0 4.8536 34.5743 30.1 4.6985 0.009 1458.8 1.0E-12
12 2 8.9805 -87.0106 2010-06-23T22:49:22.20Z 950.0 4.8505 34.5742 30.1 4.6987 0.009 1459.5 1.0E-12
12 2 8.9805 -87.0106 2010-06-23T22:49:22.20Z 951.0 4.8492 34.5745 30.3 4.6987 0.009 1460.2 1.0E-12
12 2 8.9805 -87.0106 2010-06-23T22:49:22.20Z 952.0 4.8485 34.5744 30.3 4.6985 0.009 1461.0 1.0E-12
12 2 8.9805 -87.0106 2010-06-23T22:49:22.20Z 953.0 4.8477 34.5744 30.3 4.699 0.009 1462.0 1.0E-12
12 2 8.9805 -87.0106 2010-06-23T22:49:22.20Z 954.0 4.8459 34.5741 30.4 4.6988 0.009 1463.2 1.0E-12
12 2 8.9805 -87.0106 2010-06-23T22:49:22.20Z 955.0 4.8397 34.5742 30.4 4.6989 0.009 1464.4 1.0E-12
12 2 8.9805 -87.0106 2010-06-23T22:49:22.20Z 956.0 4.8301 34.5745 30.5 4.6983 0.009 1465.2 1.0E-12
12 2 8.9805 -87.0106 2010-06-23T22:49:22.20Z 957.0 4.8217 34.5745 30.5 4.6987 0.009 1466.0 1.0E-12
12 2 8.9805 -87.0106 2010-06-23T22:49:22.20Z 958.0 4.8159 34.5746 30.5 4.699 0.009 1466.8 1.0E-12
12 2 8.9805 -87.0106 2010-06-23T22:49:22.20Z 959.0 4.8144 34.5746 30.6 4.6988 0.009 1467.8 1.0E-12
12 2 8.9805 -87.0106 2010-06-23T22:49:22.20Z 960.0 4.8132 34.5746 30.7 4.6984 0.009 1468.9 1.0E-12
12 2 8.9805 -87.0106 2010-06-23T22:49:22.20Z 961.0 4.8107 34.5749 30.7 4.6988 0.009 1469.9 1.0E-12
12 2 8.9805 -87.0106 2010-06-23T22:49:22.20Z 962.0 4.8074 34.5749 30.9 4.699 0.009 1470.9 1.0E-12
12 2 8.9805 -87.0106 2010-06-23T22:49:22.20Z 963.0 4.8038 34.5751 31.0 4.6991 0.009 1472.1 1.0E-12
12 2 8.9805 -87.0106 2010-06-23T22:49:22.20Z 964.0 4.7949 34.5752 31.2 4.6992 0.009 1473.6 1.0E-12
12 2 8.9805 -87.0106 2010-06-23T22:49:22.20Z 965.0 4.7873 34.5756 31.3 4.6988 0.009 1474.9 1.0E-12
12 2 8.9805 -87.0106 2010-06-23T22:49:22.20Z 966.0 4.7854 34.5758 31.5 4.6994 0.009 1475.6 1.0E-12
12 2 8.9805 -87.0106 2010-06-23T22:49:22.20Z 967.0 4.7836 34.5756 31.5 4.6992 0.009 1476.2 1.0E-12
12 2 8.9805 -87.0106 2010-06-23T22:49:22.20Z 968.0 4.782 34.5756 31.6 4.6988 0.009 1476.9 1.0E-12
12 2 8.9805 -87.0106 2010-06-23T22:49:22.20Z 969.0 4.7798 34.5758 31.7 4.6953 0.009 1477.6 1.0E-12
12 2 8.9805 -87.0106 2010-06-23T22:49:22.20Z 970.0 4.7795 34.5758 31.9 4.6993 0.009 1479.1 1.0E-12
12 2 8.9805 -87.0106 2010-06-23T22:49:22.20Z 971.0 4.7794 34.5759 32.1 4.6992 0.009 1480.6 1.0E-12
12 2 8.9805 -87.0106 2010-06-23T22:49:22.20Z 972.0 4.7777 34.5761 32.3 4.6996 0.009 1481.5 1.0E-12
12 2 8.9805 -87.0106 2010-06-23T22:49:22.20Z 973.0 4.7754 34.576 32.4 4.6984 0.009 1482.2 1.0E-12
12 2 8.9805 -87.0106 2010-06-23T22:49:22.20Z 974.0 4.7656 34.5761 32.4 4.6993 0.009 1483.1 1.0E-12
12 2 8.9805 -87.0106 2010-06-23T22:49:22.20Z 975.0 4.7535 34.5763 32.6 4.6993 0.009 1484.0 1.0E-12
12 2 8.9805 -87.0106 2010-06-23T22:49:22.20Z 976.0 4.7472 34.5762 32.7 4.6993 0.009 1485.0 1.0E-12
12 2 8.9805 -87.0106 2010-06-23T22:49:22.20Z 977.0 4.743 34.5761 32.9 4.6995 0.009 1486.1 1.0E-12
12 2 8.9805 -87.0106 2010-06-23T22:49:22.20Z 978.0 4.7413 34.5761 33.0 4.6992 0.009 1487.1 1.0E-12
12 2 8.9805 -87.0106 2010-06-23T22:49:22.20Z 979.0 4.7407 34.5762 33.1 4.6992 0.009 1488.0 1.0E-12
12 2 8.9805 -87.0106 2010-06-23T22:49:22.20Z 980.0 4.7403 34.5761 33.1 4.6994 0.009 1488.8 1.0E-12
12 2 8.9805 -87.0106 2010-06-23T22:49:22.20Z 981.0 4.7391 34.5761 33.1 4.6995 0.009 1489.9 1.0E-12
12 2 8.9805 -87.0106 2010-06-23T22:49:22.20Z 982.0 4.7364 34.5762 33.1 4.6991 0.009 1491.2 1.0E-12
12 2 8.9805 -87.0106 2010-06-23T22:49:22.20Z 983.0 4.7357 34.5764 33.1 4.6991 0.009 1492.4 1.0E-12
12 2 8.9805 -87.0106 2010-06-23T22:49:22.20Z 984.0 4.7342 34.5764 33.1 4.699 0.009 1493.2 1.0E-12
12 2 8.9805 -87.0106 2010-06-23T22:49:22.20Z 985.0 4.7333 34.5763 33.2 4.6993 0.009 1494.1 1.0E-12
12 2 8.9805 -87.0106 2010-06-23T22:49:22.20Z 986.0 4.7294 34.5763 33.3 4.6994 0.009 1495.1 1.0E-12
12 2 8.9805 -87.0106 2010-06-23T22:49:22.20Z 987.0 4.7241 34.5764 33.3 4.6994 0.009 1496.1 1.0E-12
12 2 8.9805 -87.0106 2010-06-23T22:49:22.20Z 988.0 4.7199 34.5763 33.3 4.6995 0.009 1497.1 1.0E-12
12 2 8.9805 -87.0106 2010-06-23T22:49:22.20Z 989.0 4.7175 34.5763 33.3 4.6995 0.009 1498.2 1.0E-12
12 2 8.9805 -87.0106 2010-06-23T22:49:22.20Z 990.0 4.7156 34.5763 33.3 4.6989 0.009 1499.4 1.0E-12
12 2 8.9805 -87.0106 2010-06-23T22:49:22.20Z 991.0 4.7153 34.5763 33.3 4.6996 0.009 1500.2 1.0E-12
12 2 8.9805 -87.0106 2010-06-23T22:49:22.20Z 992.0 4.7142 34.5763 33.3 4.6992 0.009 1501.0 1.0E-12
12 2 8.9805 -87.0106 2010-06-23T22:49:22.20Z 993.0 4.7112 34.5763 33.3 4.6994 0.009 1501.9 1.0E-12
12 2 8.9805 -87.0106 2010-06-23T22:49:22.20Z 994.0 4.7105 34.5764 33.3 4.6993 0.009 1502.9 1.0E-12
12 2 8.9805 -87.0106 2010-06-23T22:49:22.20Z 995.0 4.7094 34.5764 33.3 4.6995 0.009 1503.9 1.0E-12
12 2 8.9805 -87.0106 2010-06-23T22:49:22.20Z 996.0 4.7087 34.5764 33.3 4.6992 0.009 1504.9 1.0E-12
12 2 8.9805 -87.0106 2010-06-23T22:49:22.20Z 997.0 4.7068 34.5765 33.3 4.6996 0.009 1506.0 1.0E-12
12 2 8.9805 -87.0106 2010-06-23T22:49:22.20Z 998.0 4.7029 34.5767 33.4 4.6996 0.009 1507.5 1.0E-12
12 2 8.9805 -87.0106 2010-06-23T22:49:22.20Z 999.0 4.7009 34.5768 33.4 4.6993 0.009 1509.0 1.0E-12
12 2 8.9805 -87.0106 2010-06-23T22:49:22.20Z 1000.0 4.6996 34.5768 33.4 4.6993 0.009 1510.1 1.0E-12
12 2 8.9805 -87.0106 2010-06-23T22:49:22.20Z 1001.0 4.697 34.5769 33.4 4.6994 0.009 1511.1 1.0E-12
12 2 8.9805 -87.0106 2010-06-23T22:49:22.20Z 1002.0 4.692 34.577 33.4 4.6996 0.009 1512.0 1.0E-12
12 2 8.9805 -87.0106 2010-06-23T22:49:22.20Z 1003.0 4.6845 34.5772 33.4 4.6994 0.009 1512.8 1.0E-12
12 2 8.9805 -87.0106 2010-06-23T22:49:22.20Z 1004.0 4.6806 34.5773 33.4 4.6995 0.009 1513.6 1.0E-12
12 2 8.9805 -87.0106 2010-06-23T22:49:22.20Z 1005.0 4.6768 34.5774 33.5 4.6995 0.009 1514.8 1.0E-12
12 2 8.9805 -87.0106 2010-06-23T22:49:22.20Z 1006.0 4.6744 34.5775 33.6 4.6992 0.009 1515.9 1.0E-12
12 2 8.9805 -87.0106 2010-06-23T22:49:22.20Z 1007.0 4.6692 34.5774 33.8 4.6993 0.009 1517.1 1.0E-12
12 2 8.9805 -87.0106 2010-06-23T22:49:22.20Z 1008.0 4.6642 34.5774 33.9 4.6996 0.009 1518.5 1.0E-12
12 2 8.9805 -87.0106 2010-06-23T22:49:22.20Z 1009.0 4.6544 34.577 34.0 4.6995 0.009 1519.6 1.0E-12
12 2 8.9805 -87.0106 2010-06-23T22:49:22.20Z 1010.0 4.6412 34.5768 34.1 4.6994 0.009 1520.6 1.0E-12
12 2 8.9805 -87.0106 2010-06-23T22:49:22.20Z 1011.0 4.6369 34.5768 34.1 4.6993 0.009 1521.9 1.0E-12
12 2 8.9805 -87.0106 2010-06-23T22:49:22.20Z 1012.0 4.6344 34.5767 34.1 4.6995 0.009 1523.6 1.0E-12
12 2 8.9805 -87.0106 2010-06-23T22:49:22.20Z 1013.0 4.6342 34.5769 34.0 4.6995 0.009 1525.1 1.0E-12
12 2 8.9805 -87.0106 2010-06-23T22:49:22.20Z 1014.0 4.631 34.5769 34.0 4.6997 0.009 1526.1 1.0E-12
12 2 8.9805 -87.0106 2010-06-23T22:49:22.20Z 1015.0 4.621 34.5768 34.0 4.6996 0.009 1527.1 1.0E-12
12 2 8.9805 -87.0106 2010-06-23T22:49:22.20Z 1016.0 4.6166 34.5769 34.1 4.6996 0.009 1528.2 1.0E-12
12 2 8.9805 -87.0106 2010-06-23T22:49:22.20Z 1017.0 4.609 34.577 34.1 4.6995 0.009 1529.8 1.0E-12
12 2 8.9805 -87.0106 2010-06-23T22:49:22.20Z 1018.0 4.6046 34.5771 34.2 4.6996 0.009 1531.8 1.0E-12
12 2 8.9805 -87.0106 2010-06-23T22:49:22.20Z 1019.0 4.5997 34.5773 34.2 4.6995 0.009 1533.4 1.0E-12
12 2 8.9805 -87.0106 2010-06-23T22:49:22.20Z 1020.0 4.5948 34.5774 34.2 4.6996 0.009 1534.4
12 2 8.9805 -87.0106 2010-06-23T22:49:22.20Z 1021.0 4.5923 34.5776 34.3 4.6996 0.009 1536.1
12 2 8.9805 -87.0106 2010-06-23T22:49:22.20Z 1022.0 4.594 34.5776 34.4 4.6991 0.009 1539.8
12 2 8.9805 -87.0106 2010-06-23T22:49:22.20Z 1023.0 4.584 34.5781 34.5 4.6992 0.009 1542.0
12 2 8.9805 -87.0106 2010-06-23T22:49:22.20Z 1024.0 4.589 34.5784 34.6 4.6995 0.009 1548.1
17 3 9.7211 -86.9982 2010-06-24T08:08:10.80Z 0.0 28.5861 33.6349 215.9 4.5551 0.021 37.4
17 3 9.7211 -86.9982 2010-06-24T08:08:10.80Z 1.0 28.5886 33.6346 216.1 4.5553 0.021 42.2
17 3 9.7211 -86.9982 2010-06-24T08:08:10.80Z 2.0 28.5911 33.6342 216.3 4.5555 0.02 47.1
17 3 9.7211 -86.9982 2010-06-24T08:08:10.80Z 3.0 28.5935 33.6339 216.5 4.5558 0.02 52.0
17 3 9.7211 -86.9982 2010-06-24T08:08:10.80Z 4.0 28.596 33.6336 216.7 4.556 0.02 56.8
17 3 9.7211 -86.9982 2010-06-24T08:08:10.80Z 5.0 28.5985 33.6333 216.8 4.5563 0.02 61.7
17 3 9.7211 -86.9982 2010-06-24T08:08:10.80Z 6.0 28.601 33.633 217.0 4.5565 0.02 66.6
17 3 9.7211 -86.9982 2010-06-24T08:08:10.80Z 7.0 28.6034 33.6326 217.2 4.5567 0.019 71.4
17 3 9.7211 -86.9982 2010-06-24T08:08:10.80Z 8.0 28.6051 33.6318 217.1 4.5552 0.019 82.4
17 3 9.7211 -86.9982 2010-06-24T08:08:10.80Z 9.0 28.6082 33.6308 216.8 4.5577 0.019 90.0
17 3 9.7211 -86.9982 2010-06-24T08:08:10.80Z 10.0 28.604 33.6294 217.1 4.5576 0.019 93.2
17 3 9.7211 -86.9982 2010-06-24T08:08:10.80Z 11.0 28.6034 33.6309 217.2 4.5598 0.022 98.8
17 3 9.7211 -86.9982 2010-06-24T08:08:10.80Z 12.0 28.6006 33.6304 217.2 4.5603 0.019 102.8 0.00115
17 3 9.7211 -86.9982 2010-06-24T08:08:10.80Z 13.0 28.6012 33.63 217.5 4.5574 0.02 106.0 0.0025
17 3 9.7211 -86.9982 2010-06-24T08:08:10.80Z 14.0 28.6011 33.6308 217.5 4.5574 0.02 110.6 0.00206
17 3 9.7211 -86.9982 2010-06-24T08:08:10.80Z 15.0 28.6026 33.6301 217.8 4.5597 0.019 113.2 0.00208
17 3 9.7211 -86.9982 2010-06-24T08:08:10.80Z 16.0 28.6055 33.629 217.9 4.5589 0.018 115.4 0.00282
17 3 9.7211 -86.9982 2010-06-24T08:08:10.80Z 17.0 28.6057 33.629 217.8 4.5585 0.021 118.2 0.00201
17 3 9.7211 -86.9982 2010-06-24T08:08:10.80Z 18.0 28.6065 33.6289 218.0 4.5576 0.02 121.8 0.00169
17 3 9.7211 -86.9982 2010-06-24T08:08:10.80Z 19.0 28.6066 33.6302 217.9 4.558 0.019 124.4 0.00174
17 3 9.7211 -86.9982 2010-06-24T08:08:10.80Z 20.0 28.4173 33.7765 218.1 4.5506 0.023 126.2 0.00189
17 3 9.7211 -86.9982 2010-06-24T08:08:10.80Z 21.0 28.2681 33.8692 205.1 4.5362 0.031 129.0 0.00219
17 3 9.7211 -86.9982 2010-06-24T08:08:10.80Z 22.0 28.1197 33.9355 200.7 4.5273 0.03 132.2 0.00273
17 3 9.7211 -86.9982 2010-06-24T08:08:10.80Z 23.0 26.8096 34.1978 192.5 4.48 0.051 134.5 0.00305
17 3 9.7211 -86.9982 2010-06-24T08:08:10.80Z 24.0 25.3282 34.3776 157.2 4.4851 0.062 136.2 0.00323
17 3 9.7211 -86.9982 2010-06-24T08:08:10.80Z 25.0 25.2322 34.3848 119.8 4.5002 0.057 138.2 0.00325
17 3 9.7211 -86.9982 2010-06-24T08:08:10.80Z 26.0 25.2123 34.3949 109.0 4.5052 0.061 141.5 0.00338
17 3 9.7211 -86.9982 2010-06-24T08:08:10.80Z 27.0 25.2021 34.401 108.6 4.5045 0.051 144.2 0.00384
17 3 9.7211 -86.9982 2010-06-24T08:08:10.80Z 28.0 25.1987 34.4035 109.0 4.5025 0.05 145.5 0.00337
17 3 9.7211 -86.9982 2010-06-24T08:08:10.80Z 29.0 25.1663 34.4118 110.1 4.5051 0.06 147.9 0.00332
17 3 9.7211 -86.9982 2010-06-24T08:08:10.80Z 30.0 25.148 34.4158 111.3 4.5072 0.054 150.5 0.00362
17 3 9.7211 -86.9982 2010-06-24T08:08:10.80Z 31.0 25.0603 34.4272 112.0 4.5057 0.05 152.0 0.00348
17 3 9.7211 -86.9982 2010-06-24T08:08:10.80Z 32.0 24.917 34.4459 111.8 4.5091 0.062 154.4 0.00328
17 3 9.7211 -86.9982 2010-06-24T08:08:10.80Z 33.0 24.9642 34.4372 112.5 4.5115 0.055 157.0 0.00339
17 3 9.7211 -86.9982 2010-06-24T08:08:10.80Z 34.0 23.8703 34.5273 114.7 4.507 0.067 158.5 0.00347
17 3 9.7211 -86.9982 2010-06-24T08:08:10.80Z 35.0 23.5262 34.5492 114.7 4.5156 0.082 160.8 0.0036
17 3 9.7211 -86.9982 2010-06-24T08:08:10.80Z 36.0 23.2705 34.5599 117.8 4.5166 0.07 163.1 0.00407
17 3 9.7211 -86.9982 2010-06-24T08:08:10.80Z 37.0 22.7484 34.5566 118.2 4.5342 0.062 164.4 0.00389
17 3 9.7211 -86.9982 2010-06-24T08:08:10.80Z 38.0 22.569 34.5567 108.7 4.5434 0.074 166.6 0.00403
17 3 9.7211 -86.9982 2010-06-24T08:08:10.80Z 39.0 22.2819 34.567 105.3 4.5463 0.069 169.4 0.00423
17 3 9.7211 -86.9982 2010-06-24T08:08:10.80Z 40.0 21.6314 34.5918 104.0 4.5614 0.054 171.4 0.0045
17 3 9.7211 -86.9982 2010-06-24T08:08:10.80Z 41.0 21.1177 34.5891 97.9 4.5782 0.049 173.5 0.00462
17 3 9.7211 -86.9982 2010-06-24T08:08:10.80Z 42.0 20.8249 34.603 87.3 4.575 0.049 175.2 0.00462
17 3 9.7211 -86.9982 2010-06-24T08:08:10.80Z 43.0 20.4019 34.6275 83.9 4.5803 0.046 176.5 0.00474
17 3 9.7211 -86.9982 2010-06-24T08:08:10.80Z 44.0 20.1442 34.6539 79.1 4.5889 0.058 179.2 0.00471
17 3 9.7211 -86.9982 2010-06-24T08:08:10.80Z 45.0 19.8457 34.6483 79.7 4.5919 0.048 182.1 0.0047
17 3 9.7211 -86.9982 2010-06-24T08:08:10.80Z 46.0 19.0706 34.6917 77.8 4.6056 0.036 183.6 0.00473
17 3 9.7211 -86.9982 2010-06-24T08:08:10.80Z 47.0 18.8736 34.7053 74.7 4.6087 0.046 185.9 0.00482
17 3 9.7211 -86.9982 2010-06-24T08:08:10.80Z 48.0 18.7614 34.7092 74.9 4.5911 0.037 188.2 0.00483
17 3 9.7211 -86.9982 2010-06-24T08:08:10.80Z 49.0 18.712 34.7127 74.3 4.6103 0.039 190.1 0.00483
17 3 9.7211 -86.9982 2010-06-24T08:08:10.80Z 50.0 18.5335 34.7166 73.6 4.6087 0.041 192.2 0.00483
17 3 9.7211 -86.9982 2010-06-24T08:08:10.80Z 51.0 17.9901 34.7432 71.4 4.6088 0.035 194.2 0.00483
17 3 9.7211 -86.9982 2010-06-24T08:08:10.80Z 52.0 17.6538 34.7594 64.3 4.6059 0.039 196.2 0.00483
17 3 9.7211 -86.9982 2010-06-24T08:08:10.80Z 53.0 17.5741 34.7621 57.0 4.6062 0.041 198.9 0.00483
17 3 9.7211 -86.9982 2010-06-24T08:08:10.80Z 54.0 17.2898 34.7732 54.3 4.6058 0.036 201.5 0.00483
17 3 9.7211 -86.9982 2010-06-24T08:08:10.80Z 55.0 16.92 34.7814 51.2 4.6109 0.031 203.5 0.00483
17 3 9.7211 -86.9982 2010-06-24T08:08:10.80Z 56.0 16.5381 34.808 48.6 4.619 0.026 205.0 0.00483
17 3 9.7211 -86.9982 2010-06-24T08:08:10.80Z 57.0 16.3951 34.8118 44.6 4.6281 0.024 206.4 0.00483
17 3 9.7211 -86.9982 2010-06-24T08:08:10.80Z 58.0 16.422 34.8082 38.5 4.6301 0.027 209.1 0.00483
17 3 9.7211 -86.9982 2010-06-24T08:08:10.80Z 59.0 16.3365 34.8156 37.3 4.6364 0.023 212.0 0.00479
17 3 9.7211 -86.9982 2010-06-24T08:08:10.80Z 60.0 16.2087 34.8167 36.5 4.6316 0.022 213.8 0.00477
17 3 9.7211 -86.9982 2010-06-24T08:08:10.80Z 61.0 16.1083 34.8165 35.8 4.6412 0.024 215.9 0.00464
17 3 9.7211 -86.9982 2010-06-24T08:08:10.80Z 62.0 16.0602 34.8161 35.7 4.6426 0.022 218.0 0.00416
17 3 9.7211 -86.9982 2010-06-24T08:08:10.80Z 63.0 15.9887 34.8177 35.7 4.6454 0.022 219.6 0.00398
17 3 9.7211 -86.9982 2010-06-24T08:08:10.80Z 64.0 15.8592 34.8188 35.5 4.6468 0.022 221.4 0.00389
17 3 9.7211 -86.9982 2010-06-24T08:08:10.80Z 65.0 15.7887 34.8262 34.4 4.6463 0.023 224.0 0.00365
17 3 9.7211 -86.9982 2010-06-24T08:08:10.80Z 66.0 15.7422 34.8339 33.1 4.6488 0.021 226.6 0.00367
17 3 9.7211 -86.9982 2010-06-24T08:08:10.80Z 67.0 15.7294 34.8419 31.9 4.6472 0.022 229.0 0.00349
17 3 9.7211 -86.9982 2010-06-24T08:08:10.80Z 68.0 15.6775 34.8472 30.9 4.6508 0.019 231.1 0.00339
17 3 9.7211 -86.9982 2010-06-24T08:08:10.80Z 69.0 15.643 34.8492 30.4 4.6462 0.019 232.4 0.00328
17 3 9.7211 -86.9982 2010-06-24T08:08:10.80Z 70.0 15.6015 34.8508 30.2 4.6483 0.021 233.6 0.00328
17 3 9.7211 -86.9982 2010-06-24T08:08:10.80Z 71.0 15.584 34.8483 29.7 4.6496 0.027 236.4 0.00324
17 3 9.7211 -86.9982 2010-06-24T08:08:10.80Z 72.0 15.5265 34.8491 29.5 4.6472 0.024 239.5 0.00328
17 3 9.7211 -86.9982 2010-06-24T08:08:10.80Z 73.0 15.392 34.8529 29.2 4.6506 0.022 241.4 0.00328
17 3 9.7211 -86.9982 2010-06-24T08:08:10.80Z 74.0 15.3216 34.8559 28.3 4.6511 0.023 243.4 0.00304
17 3 9.7211 -86.9982 2010-06-24T08:08:10.80Z 75.0 15.2746 34.8545 27.4 4.6535 0.021 245.6 0.003
17 3 9.7211 -86.9982 2010-06-24T08:08:10.80Z 76.0 15.2139 34.8558 27.0 4.6555 0.019 247.2 0.00265
17 3 9.7211 -86.9982 2010-06-24T08:08:10.80Z 77.0 15.1593 34.858 26.7 4.6567 0.018 248.5 0.00247
17 3 9.7211 -86.9982 2010-06-24T08:08:10.80Z 78.0 15.1334 34.8574 26.1 4.6589 0.02 251.2 0.0024
17 3 9.7211 -86.9982 2010-06-24T08:08:10.80Z 79.0 15.0613 34.8584 25.8 4.6591 0.017 254.2 0.00193
17 3 9.7211 -86.9982 2010-06-24T08:08:10.80Z 80.0 14.9226 34.8578 25.6 4.658 0.018 255.5 0.00176
17 3 9.7211 -86.9982 2010-06-24T08:08:10.80Z 81.0 14.8485 34.8638 24.7 4.655 0.021 257.5 0.00184
17 3 9.7211 -86.9982 2010-06-24T08:08:10.80Z 82.0 14.8017 34.8667 24.3 4.6506 0.023 259.8 0.00175
17 3 9.7211 -86.9982 2010-06-24T08:08:10.80Z 83.0 14.7443 34.865 24.0 4.6397 0.018 261.9 0.00176
17 3 9.7211 -86.9982 2010-06-24T08:08:10.80Z 84.0 14.7149 34.8667 22.5 4.6482 0.018 264.2 0.00174
17 3 9.7211 -86.9982 2010-06-24T08:08:10.80Z 85.0 14.6682 34.8705 20.9 4.6498 0.021 266.1 0.00174
17 3 9.7211 -86.9982 2010-06-24T08:08:10.80Z 86.0 14.5746 34.8735 19.9 4.6451 0.018 267.6 0.00172
17 3 9.7211 -86.9982 2010-06-24T08:08:10.80Z 87.0 14.5415 34.8795 20.4 4.6496 0.019 270.2 0.00167
17 3 9.7211 -86.9982 2010-06-24T08:08:10.80Z 88.0 14.5126 34.8817 20.1 4.6457 0.041 272.9 0.00162
17 3 9.7211 -86.9982 2010-06-24T08:08:10.80Z 89.0 14.426 34.8835 20.0 4.6449 0.029 274.1 0.00148
17 3 9.7211 -86.9982 2010-06-24T08:08:10.80Z 90.0 14.3945 34.8841 19.9 4.6447 0.031 275.8 0.00135
17 3 9.7211 -86.9982 2010-06-24T08:08:10.80Z 91.0 14.3585 34.8838 19.5 4.6295 0.023 277.9 0.00169
17 3 9.7211 -86.9982 2010-06-24T08:08:10.80Z 92.0 14.3207 34.884 18.8 4.6266 0.074 280.1 0.00152
17 3 9.7211 -86.9982 2010-06-24T08:08:10.80Z 93.0 14.2865 34.8884 18.0 4.6263 0.046 282.5 0.00123
17 3 9.7211 -86.9982 2010-06-24T08:08:10.80Z 94.0 14.2389 34.8924 17.0 4.6388 0.04 284.5 0.00121
17 3 9.7211 -86.9982 2010-06-24T08:08:10.80Z 95.0 14.225 34.9032 16.5 4.6464 0.02 286.1 0.00105
17 3 9.7211 -86.9982 2010-06-24T08:08:10.80Z 96.0 14.2111 34.9045 17.6 4.647 0.019 287.6 0.00111
17 3 9.7211 -86.9982 2010-06-24T08:08:10.80Z 97.0 14.1612 34.9073 18.4 4.6266 0.041 289.9 0.00127
17 3 9.7211 -86.9982 2010-06-24T08:08:10.80Z 98.0 14.1178 34.9087 19.5 4.6459 0.015 292.2 8.24E-4
17 3 9.7211 -86.9982 2010-06-24T08:08:10.80Z 99.0 14.094 34.9086 20.4 4.6716 0.013 294.1 4.35E-4
17 3 9.7211 -86.9982 2010-06-24T08:08:10.80Z 100.0 14.0709 34.9105 21.2 4.6753 0.037 296.2 2.44E-4
17 3 9.7211 -86.9982 2010-06-24T08:08:10.80Z 101.0 14.037 34.9098 21.1 4.6772 0.011 298.1 5.02E-4
17 3 9.7211 -86.9982 2010-06-24T08:08:10.80Z 102.0 13.9702 34.911 21.2 4.6788 0.01 299.8 3.07E-4
17 3 9.7211 -86.9982 2010-06-24T08:08:10.80Z 103.0 13.9494 34.9109 22.3 4.6778 0.011 302.2 3.0E-4
17 3 9.7211 -86.9982 2010-06-24T08:08:10.80Z 104.0 13.9402 34.9105 22.7 4.6779 0.011 304.8 1.98E-4
17 3 9.7211 -86.9982 2010-06-24T08:08:10.80Z 105.0 13.9093 34.9108 22.8 4.679 0.01 306.1 1.98E-4
17 3 9.7211 -86.9982 2010-06-24T08:08:10.80Z 106.0 13.8806 34.911 23.0 4.6802 0.01 307.5 2.03E-4
17 3 9.7211 -86.9982 2010-06-24T08:08:10.80Z 107.0 13.8684 34.915 23.0 4.6809 0.01 309.8 1.91E-4
17 3 9.7211 -86.9982 2010-06-24T08:08:10.80Z 108.0 13.8607 34.9152 22.8 4.6814 0.01 312.4 1.82E-4
17 3 9.7211 -86.9982 2010-06-24T08:08:10.80Z 109.0 13.8371 34.913 22.7 4.6758 0.01 314.5 1.67E-4
17 3 9.7211 -86.9982 2010-06-24T08:08:10.80Z 110.0 13.8061 34.9106 22.1 4.6811 0.009 316.2 7.85E-5
17 3 9.7211 -86.9982 2010-06-24T08:08:10.80Z 111.0 13.7764 34.9096 21.0 4.6807 0.009 317.9 3.56E-5
17 3 9.7211 -86.9982 2010-06-24T08:08:10.80Z 112.0 13.7435 34.9075 19.9 4.6822 0.009 319.5 4.15E-6
17 3 9.7211 -86.9982 2010-06-24T08:08:10.80Z 113.0 13.7324 34.9078 18.6 4.6822 0.009 321.8 -3.09E-7
17 3 9.7211 -86.9982 2010-06-24T08:08:10.80Z 114.0 13.7264 34.908 18.0 4.682 0.009 324.4 1.0E-12
17 3 9.7211 -86.9982 2010-06-24T08:08:10.80Z 115.0 13.7029 34.9069 18.3 4.6819 0.008 326.4 1.05E-5
17 3 9.7211 -86.9982 2010-06-24T08:08:10.80Z 116.0 13.6872 34.9058 17.7 4.6814 0.009 328.5 -1.72E-6
17 3 9.7211 -86.9982 2010-06-24T08:08:10.80Z 117.0 13.6755 34.9051 16.9 4.6819 0.009 330.6 1.0E-12
17 3 9.7211 -86.9982 2010-06-24T08:08:10.80Z 118.0 13.6584 34.9047 16.6 4.6805 0.008 331.9 1.0E-12
17 3 9.7211 -86.9982 2010-06-24T08:08:10.80Z 119.0 13.6394 34.904 16.4 4.6812 0.008 333.0 1.0E-12
17 3 9.7211 -86.9982 2010-06-24T08:08:10.80Z 120.0 13.6225 34.9038 16.0 4.681 0.008 335.8 1.0E-12
17 3 9.7211 -86.9982 2010-06-24T08:08:10.80Z 121.0 13.6021 34.9019 15.4 4.6809 0.008 339.8 1.0E-12
17 3 9.7211 -86.9982 2010-06-24T08:08:10.80Z 122.0 13.5684 34.9001 15.3 4.682 0.008 340.9 1.0E-12
17 3 9.7211 -86.9982 2010-06-24T08:08:10.80Z 123.0 13.5564 34.8997 14.9 4.6826 0.008 342.0 1.0E-12
17 3 9.7211 -86.9982 2010-06-24T08:08:10.80Z 124.0 13.5303 34.8966 14.1 4.6824 0.008 343.5 1.0E-12
17 3 9.7211 -86.9982 2010-06-24T08:08:10.80Z 125.0 13.5153 34.8947 13.2 4.6812 0.008 345.5 1.0E-12
17 3 9.7211 -86.9982 2010-06-24T08:08:10.80Z 126.0 13.4968 34.8923 12.2 4.6826 0.008 347.9 1.0E-12
17 3 9.7211 -86.9982 2010-06-24T08:08:10.80Z 127.0 13.4614 34.8885 11.4 4.6825 0.008 350.2 1.0E-12
17 3 9.7211 -86.9982 2010-06-24T08:08:10.80Z 128.0 13.4308 34.885 10.7 4.6823 0.008 352.6 1.0E-12
17 3 9.7211 -86.9982 2010-06-24T08:08:10.80Z 129.0 13.4013 34.883 10.2 4.682 0.008 354.6 1.0E-12
17 3 9.7211 -86.9982 2010-06-24T08:08:10.80Z 130.0 13.3785 34.881 9.9 4.6821 0.008 356.4 1.0E-12
17 3 9.7211 -86.9982 2010-06-24T08:08:10.80Z 131.0 13.3582 34.8797 9.7 4.6836 0.008 358.1 1.0E-12
17 3 9.7211 -86.9982 2010-06-24T08:08:10.80Z 132.0 13.3357 34.8782 9.4 4.6835 0.008 359.6 1.0E-12
17 3 9.7211 -86.9982 2010-06-24T08:08:10.80Z 133.0 13.2989 34.8768 9.1 4.684 0.008 362.4 1.0E-12
17 3 9.7211 -86.9982 2010-06-24T08:08:10.80Z 134.0 13.2849 34.8759 8.8 4.6836 0.008 365.0 1.0E-12
17 3 9.7211 -86.9982 2010-06-24T08:08:10.80Z 135.0 13.2661 34.8749 8.7 4.6838 0.008 366.2 1.0E-12
17 3 9.7211 -86.9982 2010-06-24T08:08:10.80Z 136.0 13.2472 34.8751 8.7 4.6838 0.008 368.4 1.0E-12
17 3 9.7211 -86.9982 2010-06-24T08:08:10.80Z 137.0 13.2345 34.8762 8.8 4.6837 0.008 370.8 1.0E-12
17 3 9.7211 -86.9982 2010-06-24T08:08:10.80Z 138.0 13.2067 34.8746 8.8 4.6838 0.008 372.2 1.0E-12
17 3 9.7211 -86.9982 2010-06-24T08:08:10.80Z 139.0 13.1884 34.8732 8.7 4.6828 0.008 373.6 1.0E-12
17 3 9.7211 -86.9982 2010-06-24T08:08:10.80Z 140.0 13.1744 34.8717 8.5 4.6833 0.008 376.1 1.0E-12
17 3 9.7211 -86.9982 2010-06-24T08:08:10.80Z 141.0 13.1521 34.8697 8.5 4.6838 0.008 378.6 1.0E-12
17 3 9.7211 -86.9982 2010-06-24T08:08:10.80Z 142.0 13.1298 34.8672 8.5 4.6834 0.008 380.2 1.0E-12
17 3 9.7211 -86.9982 2010-06-24T08:08:10.80Z 143.0 13.1103 34.8652 8.4 4.6832 0.008 382.2 1.0E-12
17 3 9.7211 -86.9982 2010-06-24T08:08:10.80Z 144.0 13.1092 34.8711 8.3 4.6842 0.008 384.4 1.0E-12
17 3 9.7211 -86.9982 2010-06-24T08:08:10.80Z 145.0 13.1007 34.8724 8.3 4.6833 0.008 386.2 1.0E-12
17 3 9.7211 -86.9982 2010-06-24T08:08:10.80Z 146.0 13.0894 34.8727 8.3 4.6835 0.008 388.0 1.0E-12
17 3 9.7211 -86.9982 2010-06-24T08:08:10.80Z 147.0 13.0764 34.8722 8.3 4.6837 0.008 389.9 1.0E-12
17 3 9.7211 -86.9982 2010-06-24T08:08:10.80Z 148.0 13.0593 34.8721 8.3 4.6843 0.008 392.6 1.0E-12
17 3 9.7211 -86.9982 2010-06-24T08:08:10.80Z 149.0 13.0511 34.8724 8.5 4.6834 0.008 395.0 1.0E-12
17 3 9.7211 -86.9982 2010-06-24T08:08:10.80Z 150.0 13.0381 34.8714 8.7 4.684 0.008 396.2 1.0E-12
17 3 9.7211 -86.9982 2010-06-24T08:08:10.80Z 151.0 13.026 34.8701 8.7 4.684 0.008 398.6 1.0E-12
17 3 9.7211 -86.9982 2010-06-24T08:08:10.80Z 152.0 13.0004 34.8657 8.7 4.6842 0.008 401.0 1.0E-12
17 3 9.7211 -86.9982 2010-06-24T08:08:10.80Z 153.0 12.9569 34.8583 8.6 4.6842 0.008 402.1 1.0E-12
17 3 9.7211 -86.9982 2010-06-24T08:08:10.80Z 154.0 12.9319 34.8549 8.2 4.6844 0.008 404.4 1.0E-12
17 3 9.7211 -86.9982 2010-06-24T08:08:10.80Z 155.0 12.9219 34.8532 7.8 4.6847 0.008 407.5 1.0E-12
17 3 9.7211 -86.9982 2010-06-24T08:08:10.80Z 156.0 12.8881 34.8489 7.8 4.6848 0.008 409.0 1.0E-12
17 3 9.7211 -86.9982 2010-06-24T08:08:10.80Z 157.0 12.8776 34.8476 7.6 4.6851 0.008 410.2 1.0E-12
17 3 9.7211 -86.9982 2010-06-24T08:08:10.80Z 158.0 12.8632 34.847 7.4 4.6829 0.008 411.9 1.0E-12
17 3 9.7211 -86.9982 2010-06-24T08:08:10.80Z 159.0 12.8505 34.8464 7.3 4.6854 0.008 414.4 1.0E-12
17 3 9.7211 -86.9982 2010-06-24T08:08:10.80Z 160.0 12.8367 34.8454 7.2 4.6809 0.008 416.9 1.0E-12
17 3 9.7211 -86.9982 2010-06-24T08:08:10.80Z 161.0 12.8199 34.8445 7.2 4.6843 0.008 418.9 1.0E-12
17 3 9.7211 -86.9982 2010-06-24T08:08:10.80Z 162.0 12.7876 34.8416 7.1 4.6845 0.008 420.8 1.0E-12
17 3 9.7211 -86.9982 2010-06-24T08:08:10.80Z 163.0 12.7549 34.8396 7.0 4.686 0.008 422.6 1.0E-12
17 3 9.7211 -86.9982 2010-06-24T08:08:10.80Z 164.0 12.7351 34.8387 6.9 4.6862 0.008 424.5 1.0E-12
17 3 9.7211 -86.9982 2010-06-24T08:08:10.80Z 165.0 12.7229 34.8398 6.8 4.6851 0.008 426.4 1.0E-12
17 3 9.7211 -86.9982 2010-06-24T08:08:10.80Z 166.0 12.7209 34.8404 6.9 4.6851 0.008 428.4 1.0E-12
17 3 9.7211 -86.9982 2010-06-24T08:08:10.80Z 167.0 12.7156 34.8398 6.9 4.6831 0.008 430.6 1.0E-12
17 3 9.7211 -86.9982 2010-06-24T08:08:10.80Z 168.0 12.6948 34.8379 6.9 4.6852 0.008 433.0 1.0E-12
17 3 9.7211 -86.9982 2010-06-24T08:08:10.80Z 169.0 12.6553 34.835 6.9 4.6849 0.008 435.0 1.0E-12
17 3 9.7211 -86.9982 2010-06-24T08:08:10.80Z 170.0 12.6219 34.8327 6.9 4.6859 0.008 436.6 1.0E-12
17 3 9.7211 -86.9982 2010-06-24T08:08:10.80Z 171.0 12.6101 34.8322 6.8 4.6839 0.008 438.1 1.0E-12
17 3 9.7211 -86.9982 2010-06-24T08:08:10.80Z 172.0 12.6021 34.8319 6.7 4.6861 0.008 440.5 1.0E-12
17 3 9.7211 -86.9982 2010-06-24T08:08:10.80Z 173.0 12.594 34.8315 6.6 4.6855 0.008 442.8 1.0E-12
17 3 9.7211 -86.9982 2010-06-24T08:08:10.80Z 174.0 12.5826 34.8305 6.6 4.6857 0.008 444.1 1.0E-12
17 3 9.7211 -86.9982 2010-06-24T08:08:10.80Z 175.0 12.5788 34.8301 6.5 4.6849 0.008 446.5 1.0E-12
17 3 9.7211 -86.9982 2010-06-24T08:08:10.80Z 176.0 12.5704 34.8293 6.4 4.6859 0.009 448.9 1.0E-12
17 3 9.7211 -86.9982 2010-06-24T08:08:10.80Z 177.0 12.5392 34.8271 6.4 4.6867 0.008 450.1 1.0E-12
17 3 9.7211 -86.9982 2010-06-24T08:08:10.80Z 178.0 12.4999 34.8258 6.3 4.6843 0.008 451.8 1.0E-12
17 3 9.7211 -86.9982 2010-06-24T08:08:10.80Z 179.0 12.5048 34.8261 6.4 4.6845 0.008 456.0 1.0E-12
17 3 9.7211 -86.9982 2010-06-24T08:08:10.80Z 180.0 12.4847 34.8259 6.3 4.682 0.008 457.2 1.0E-12
17 3 9.7211 -86.9982 2010-06-24T08:08:10.80Z 181.0 12.4652 34.8242 6.4 4.6823 0.008 458.4 1.0E-12
17 3 9.7211 -86.9982 2010-06-24T08:08:10.80Z 182.0 12.4378 34.8221 6.5 4.683 0.008 459.8 1.0E-12
17 3 9.7211 -86.9982 2010-06-24T08:08:10.80Z 183.0 12.4203 34.8199 6.4 4.6835 0.008 461.9 1.0E-12
17 3 9.7211 -86.9982 2010-06-24T08:08:10.80Z 184.0 12.3946 34.8176 6.2 4.6851 0.008 464.5 1.0E-12
17 3 9.7211 -86.9982 2010-06-24T08:08:10.80Z 185.0 12.3732 34.8162 6.1 4.686 0.008 467.0 1.0E-12
17 3 9.7211 -86.9982 2010-06-24T08:08:10.80Z 186.0 12.3379 34.8143 6.0 4.6869 0.009 468.9 1.0E-12
17 3 9.7211 -86.9982 2010-06-24T08:08:10.80Z 187.0 12.3144 34.814 6.0 4.6852 0.008 470.1 1.0E-12
17 3 9.7211 -86.9982 2010-06-24T08:08:10.80Z 188.0 12.3013 34.815 6.0 4.6859 0.008 472.4 1.0E-12
17 3 9.7211 -86.9982 2010-06-24T08:08:10.80Z 189.0 12.2981 34.815 6.1 4.6872 0.008 475.1 1.0E-12
17 3 9.7211 -86.9982 2010-06-24T08:08:10.80Z 190.0 12.2942 34.8153 6.2 4.6871 0.008 476.9 1.0E-12
17 3 9.7211 -86.9982 2010-06-24T08:08:10.80Z 191.0 12.292 34.8153 6.3 4.6872 0.008 478.5 1.0E-12
17 3 9.7211 -86.9982 2010-06-24T08:08:10.80Z 192.0 12.2909 34.8154 6.3 4.6868 0.008 480.5 1.0E-12
17 3 9.7211 -86.9982 2010-06-24T08:08:10.80Z 193.0 12.2892 34.8155 6.3 4.6869 0.009 482.5 1.0E-12
17 3 9.7211 -86.9982 2010-06-24T08:08:10.80Z 194.0 12.2846 34.8154 6.3 4.6868 0.008 484.8 1.0E-12
17 3 9.7211 -86.9982 2010-06-24T08:08:10.80Z 195.0 12.2807 34.8151 6.5 4.6856 0.008 487.4 1.0E-12
17 3 9.7211 -86.9982 2010-06-24T08:08:10.80Z 196.0 12.27 34.8148 6.5 4.6864 0.009 489.2 1.0E-12
17 3 9.7211 -86.9982 2010-06-24T08:08:10.80Z 197.0 12.259 34.8143 6.5 4.6852 0.009 490.6 1.0E-12
17 3 9.7211 -86.9982 2010-06-24T08:08:10.80Z 198.0 12.2488 34.8136 6.8 4.6835 0.008 492.2 1.0E-12
17 3 9.7211 -86.9982 2010-06-24T08:08:10.80Z 199.0 12.2357 34.8127 7.8 4.6825 0.009 494.2 1.0E-12
17 3 9.7211 -86.9982 2010-06-24T08:08:10.80Z 200.0 12.2228 34.8117 9.5 4.6833 0.008 496.6 1.0E-12
17 3 9.7211 -86.9982 2010-06-24T08:08:10.80Z 201.0 12.2115 34.8107 10.4 4.6826 0.008 499.0 1.0E-12
17 3 9.7211 -86.9982 2010-06-24T08:08:10.80Z 202.0 12.2002 34.8094 10.5 4.6822 0.008 501.1 1.0E-12
17 3 9.7211 -86.9982 2010-06-24T08:08:10.80Z 203.0 12.1805 34.8077 10.2 4.6834 0.009 502.8 1.0E-12
17 3 9.7211 -86.9982 2010-06-24T08:08:10.80Z 204.0 12.1639 34.8064 9.4 4.6833 0.008 504.4 1.0E-12
17 3 9.7211 -86.9982 2010-06-24T08:08:10.80Z 205.0 12.147 34.8049 8.6 4.6843 0.008 506.2 1.0E-12
17 3 9.7211 -86.9982 2010-06-24T08:08:10.80Z 206.0 12.1351 34.8048 8.2 4.6839 0.008 507.9 1.0E-12
17 3 9.7211 -86.9982 2010-06-24T08:08:10.80Z 207.0 12.1248 34.8047 7.9 4.6829 0.009 509.9 1.0E-12
17 3 9.7211 -86.9982 2010-06-24T08:08:10.80Z 208.0 12.1143 34.8043 8.1 4.6837 0.008 512.5 1.0E-12
17 3 9.7211 -86.9982 2010-06-24T08:08:10.80Z 209.0 12.1049 34.8043 8.3 4.6826 0.008 515.0 1.0E-12
17 3 9.7211 -86.9982 2010-06-24T08:08:10.80Z 210.0 12.0926 34.8038 8.7 4.6829 0.008 517.1 1.0E-12
17 3 9.7211 -86.9982 2010-06-24T08:08:10.80Z 211.0 12.0845 34.8041 9.3 4.6817 0.008 518.9 1.0E-12
17 3 9.7211 -86.9982 2010-06-24T08:08:10.80Z 212.0 12.0814 34.8049 10.0 4.6818 0.008 520.2 1.0E-12
17 3 9.7211 -86.9982 2010-06-24T08:08:10.80Z 213.0 12.075 34.805 11.5 4.6811 0.008 521.6 1.0E-12
17 3 9.7211 -86.9982 2010-06-24T08:08:10.80Z 214.0 12.0673 34.8048 14.1 4.681 0.008 524.2 1.0E-12
17 3 9.7211 -86.9982 2010-06-24T08:08:10.80Z 215.0 12.0624 34.8042 15.6 4.6815 0.008 527.1 1.0E-12
17 3 9.7211 -86.9982 2010-06-24T08:08:10.80Z 216.0 12.0363 34.8029 15.8 4.6807 0.008 528.9 1.0E-12
17 3 9.7211 -86.9982 2010-06-24T08:08:10.80Z 217.0 12.0206 34.802 15.9 4.6808 0.008 530.4 1.0E-12
17 3 9.7211 -86.9982 2010-06-24T08:08:10.80Z 218.0 12.0055 34.8009 15.9 4.68 0.008 532.0 1.0E-12
17 3 9.7211 -86.9982 2010-06-24T08:08:10.80Z 219.0 11.9923 34.7993 15.8 4.6811 0.008 533.9 1.0E-12
17 3 9.7211 -86.9982 2010-06-24T08:08:10.80Z 220.0 11.9769 34.7979 16.4 4.6808 0.008 536.5 1.0E-12
17 3 9.7211 -86.9982 2010-06-24T08:08:10.80Z 221.0 11.9642 34.7968 17.1 4.6813 0.008 539.0 1.0E-12
17 3 9.7211 -86.9982 2010-06-24T08:08:10.80Z 222.0 11.9524 34.7962 17.5 4.6808 0.008 540.8 1.0E-12
17 3 9.7211 -86.9982 2010-06-24T08:08:10.80Z 223.0 11.9372 34.7958 17.8 4.6816 0.008 542.5 1.0E-12
17 3 9.7211 -86.9982 2010-06-24T08:08:10.80Z 224.0 11.9119 34.7949 18.1 4.6807 0.008 544.4 1.0E-12
17 3 9.7211 -86.9982 2010-06-24T08:08:10.80Z 225.0 11.9068 34.7945 18.2 4.681 0.008 546.1 1.0E-12
17 3 9.7211 -86.9982 2010-06-24T08:08:10.80Z 226.0 11.9028 34.7943 18.0 4.6805 0.008 548.2 1.0E-12
17 3 9.7211 -86.9982 2010-06-24T08:08:10.80Z 227.0 11.8959 34.7939 17.6 4.681 0.008 551.0 1.0E-12
17 3 9.7211 -86.9982 2010-06-24T08:08:10.80Z 228.0 11.8876 34.7937 17.5 4.6816 0.009 553.1 1.0E-12
17 3 9.7211 -86.9982 2010-06-24T08:08:10.80Z 229.0 11.8779 34.7934 17.4 4.6816 0.008 554.5 1.0E-12
17 3 9.7211 -86.9982 2010-06-24T08:08:10.80Z 230.0 11.8631 34.7928 17.4 4.6813 0.008 556.0 1.0E-12
17 3 9.7211 -86.9982 2010-06-24T08:08:10.80Z 231.0 11.8532 34.7922 17.0 4.6822 0.009 558.2 1.0E-12
17 3 9.7211 -86.9982 2010-06-24T08:08:10.80Z 232.0 11.8434 34.7916 16.3 4.6821 0.008 560.4 1.0E-12
17 3 9.7211 -86.9982 2010-06-24T08:08:10.80Z 233.0 11.8206 34.7908 15.7 4.683 0.008 562.4 1.0E-12
17 3 9.7211 -86.9982 2010-06-24T08:08:10.80Z 234.0 11.8104 34.7903 14.7 4.682 0.009 564.8 1.0E-12
17 3 9.7211 -86.9982 2010-06-24T08:08:10.80Z 235.0 11.798 34.7897 14.3 4.6825 0.008 566.4 1.0E-12
17 3 9.7211 -86.9982 2010-06-24T08:08:10.80Z 236.0 11.7899 34.7893 14.1 4.6827 0.009 567.5 1.0E-12
17 3 9.7211 -86.9982 2010-06-24T08:08:10.80Z 237.0 11.7864 34.7892 13.7 4.6829 0.008 570.5 1.0E-12
17 3 9.7211 -86.9982 2010-06-24T08:08:10.80Z 238.0 11.7794 34.7888 13.5 4.6825 0.008 573.1 1.0E-12
17 3 9.7211 -86.9982 2010-06-24T08:08:10.80Z 239.0 11.7684 34.7884 13.3 4.6823 0.008 574.2 1.0E-12
17 3 9.7211 -86.9982 2010-06-24T08:08:10.80Z 240.0 11.7548 34.7878 13.4 4.6825 0.009 575.8 1.0E-12
17 3 9.7211 -86.9982 2010-06-24T08:08:10.80Z 241.0 11.7463 34.7871 13.4 4.6827 0.008 577.6 1.0E-12
17 3 9.7211 -86.9982 2010-06-24T08:08:10.80Z 242.0 11.7344 34.7874 13.7 4.6823 0.009 579.2 1.0E-12
17 3 9.7211 -86.9982 2010-06-24T08:08:10.80Z 243.0 11.7175 34.7869 13.9 4.6825 0.008 580.6 1.0E-12
17 3 9.7211 -86.9982 2010-06-24T08:08:10.80Z 244.0 11.7092 34.7863 15.0 4.6824 0.009 583.2 1.0E-12
17 3 9.7211 -86.9982 2010-06-24T08:08:10.80Z 245.0 11.6797 34.7841 15.5 4.6827 0.009 585.8 1.0E-12
17 3 9.7211 -86.9982 2010-06-24T08:08:10.80Z 246.0 11.6661 34.7828 15.4 4.6826 0.008 587.0 1.0E-12
17 3 9.7211 -86.9982 2010-06-24T08:08:10.80Z 247.0 11.6551 34.7821 15.0 4.6824 0.008 588.5 1.0E-12
17 3 9.7211 -86.9982 2010-06-24T08:08:10.80Z 248.0 11.6442 34.7815 14.6 4.6827 0.008 590.1 1.0E-12
17 3 9.7211 -86.9982 2010-06-24T08:08:10.80Z 249.0 11.643 34.7815 14.4 4.6826 0.009 591.8 1.0E-12
17 3 9.7211 -86.9982 2010-06-24T08:08:10.80Z 250.0 11.6411 34.7814 14.2 4.6833 0.009 593.8 1.0E-12
17 3 9.7211 -86.9982 2010-06-24T08:08:10.80Z 251.0 11.6362 34.7813 14.2 4.6829 0.009 595.8 1.0E-12
17 3 9.7211 -86.9982 2010-06-24T08:08:10.80Z 252.0 11.6244 34.7807 14.2 4.6827 0.008 597.4 1.0E-12
17 3 9.7211 -86.9982 2010-06-24T08:08:10.80Z 253.0 11.6089 34.779 14.2 4.6835 0.009 598.9 1.0E-12
17 3 9.7211 -86.9982 2010-06-24T08:08:10.80Z 254.0 11.5892 34.7765 14.0 4.6847 0.008 600.5 1.0E-12
17 3 9.7211 -86.9982 2010-06-24T08:08:10.80Z 255.0 11.5693 34.774 13.1 4.6852 0.009 602.1 1.0E-12
17 3 9.7211 -86.9982 2010-06-24T08:08:10.80Z 256.0 11.5584 34.7735 11.9 4.6854 0.009 603.5 1.0E-12
17 3 9.7211 -86.9982 2010-06-24T08:08:10.80Z 257.0 11.538 34.7726 10.9 4.6855 0.009 604.8 1.0E-12
17 3 9.7211 -86.9982 2010-06-24T08:08:10.80Z 258.0 11.5302 34.7729 10.5 4.6848 0.009 606.1 1.0E-12
17 3 9.7211 -86.9982 2010-06-24T08:08:10.80Z 259.0 11.5233 34.7728 10.9 4.6841 0.009 607.9 1.0E-12
17 3 9.7211 -86.9982 2010-06-24T08:08:10.80Z 260.0 11.5096 34.7722 11.4 4.6844 0.009 609.4 1.0E-12
17 3 9.7211 -86.9982 2010-06-24T08:08:10.80Z 261.0 11.495 34.7713 11.8 4.6848 0.008 610.4 1.0E-12
17 3 9.7211 -86.9982 2010-06-24T08:08:10.80Z 262.0 11.4714 34.7679 12.1 4.6857 0.009 611.4 1.0E-12
17 3 9.7211 -86.9982 2010-06-24T08:08:10.80Z 263.0 11.4617 34.7664 12.2 4.6862 0.008 612.2 1.0E-12
17 3 9.7211 -86.9982 2010-06-24T08:08:10.80Z 264.0 11.4565 34.7653 11.7 4.6865 0.009 613.2 1.0E-12
17 3 9.7211 -86.9982 2010-06-24T08:08:10.80Z 265.0 11.4518 34.7648 9.8 4.6864 0.009 615.1 1.0E-12
17 3 9.7211 -86.9982 2010-06-24T08:08:10.80Z 266.0 11.4472 34.7645 8.3 4.6866 0.009 617.0 1.0E-12
17 3 9.7211 -86.9982 2010-06-24T08:08:10.80Z 267.0 11.4384 34.7647 7.8 4.6863 0.009 618.1 1.0E-12
17 3 9.7211 -86.9982 2010-06-24T08:08:10.80Z 268.0 11.4345 34.766 7.5 4.6861 0.009 619.1 1.0E-12
17 3 9.7211 -86.9982 2010-06-24T08:08:10.80Z 269.0 11.432 34.7666 7.4 4.6853 0.009 620.0 1.0E-12
17 3 9.7211 -86.9982 2010-06-24T08:08:10.80Z 270.0 11.4286 34.7668 7.9 4.685 0.008 621.0 1.0E-12
17 3 9.7211 -86.9982 2010-06-24T08:08:10.80Z 271.0 11.4275 34.767 8.8 4.6848 0.009 622.2 1.0E-12
17 3 9.7211 -86.9982 2010-06-24T08:08:10.80Z 272.0 11.425 34.7671 9.6 4.6838 0.009 623.5 1.0E-12
17 3 9.7211 -86.9982 2010-06-24T08:08:10.80Z 273.0 11.4173 34.767 10.1 4.6846 0.009 624.6 1.0E-12
17 3 9.7211 -86.9982 2010-06-24T08:08:10.80Z 274.0 11.4069 34.7663 10.4 4.6838 0.009 625.6 1.0E-12
17 3 9.7211 -86.9982 2010-06-24T08:08:10.80Z 275.0 11.3956 34.7654 10.7 4.6848 0.009 626.6 1.0E-12
17 3 9.7211 -86.9982 2010-06-24T08:08:10.80Z 276.0 11.3882 34.7651 11.0 4.6844 0.009 627.8 1.0E-12
17 3 9.7211 -86.9982 2010-06-24T08:08:10.80Z 277.0 11.3801 34.7645 11.0 4.6842 0.009 629.0 1.0E-12
17 3 9.7211 -86.9982 2010-06-24T08:08:10.80Z 278.0 11.3742 34.7641 11.0 4.6829 0.009 630.2 1.0E-12
17 3 9.7211 -86.9982 2010-06-24T08:08:10.80Z 279.0 11.368 34.7646 11.0 4.6838 0.009 631.5 1.0E-12
17 3 9.7211 -86.9982 2010-06-24T08:08:10.80Z 280.0 11.3531 34.7634 11.1 4.6838 0.009 632.5 1.0E-12
17 3 9.7211 -86.9982 2010-06-24T08:08:10.80Z 281.0 11.3445 34.7629 11.4 4.6839 0.009 633.4 1.0E-12
17 3 9.7211 -86.9982 2010-06-24T08:08:10.80Z 282.0 11.3401 34.7623 11.6 4.6837 0.008 634.2 1.0E-12
17 3 9.7211 -86.9982 2010-06-24T08:08:10.80Z 283.0 11.3345 34.7618 11.6 4.6836 0.008 635.0 1.0E-12
17 3 9.7211 -86.9982 2010-06-24T08:08:10.80Z 284.0 11.3236 34.7607 11.5 4.6839 0.009 635.9 1.0E-12
17 3 9.7211 -86.9982 2010-06-24T08:08:10.80Z 285.0 11.2996 34.7594 11.3 4.6838 0.009 636.9 1.0E-12
17 3 9.7211 -86.9982 2010-06-24T08:08:10.80Z 286.0 11.2814 34.7588 10.9 4.6836 0.009 638.0 1.0E-12
17 3 9.7211 -86.9982 2010-06-24T08:08:10.80Z 287.0 11.2599 34.7574 10.2 4.6838 0.009 639.2 1.0E-12
17 3 9.7211 -86.9982 2010-06-24T08:08:10.80Z 288.0 11.2379 34.7553 9.9 4.6834 0.008 640.4 1.0E-12
17 3 9.7211 -86.9982 2010-06-24T08:08:10.80Z 289.0 11.2237 34.7542 9.7 4.6841 0.009 641.4 1.0E-12
17 3 9.7211 -86.9982 2010-06-24T08:08:10.80Z 290.0 11.213 34.753 9.3 4.6839 0.009 642.4 1.0E-12
17 3 9.7211 -86.9982 2010-06-24T08:08:10.80Z 291.0 11.1882 34.7505 9.0 4.6845 0.009 643.2 1.0E-12
17 3 9.7211 -86.9982 2010-06-24T08:08:10.80Z 292.0 11.181 34.7495 8.7 4.6842 0.009 644.1 1.0E-12
17 3 9.7211 -86.9982 2010-06-24T08:08:10.80Z 293.0 11.1682 34.7482 8.1 4.6809 0.009 645.2 1.0E-12
17 3 9.7211 -86.9982 2010-06-24T08:08:10.80Z 294.0 11.1563 34.7476 7.4 4.6807 0.009 646.5 1.0E-12
17 3 9.7211 -86.9982 2010-06-24T08:08:10.80Z 295.0 11.1457 34.7472 6.7 4.6847 0.009 647.8 1.0E-12
17 3 9.7211 -86.9982 2010-06-24T08:08:10.80Z 296.0 11.1343 34.7465 6.2 4.6848 0.009 648.9 1.0E-12
17 3 9.7211 -86.9982 2010-06-24T08:08:10.80Z 297.0 11.1227 34.7458 5.9 4.6842 0.009 649.8 1.0E-12
17 3 9.7211 -86.9982 2010-06-24T08:08:10.80Z 298.0 11.0999 34.7444 5.7 4.6839 0.008 650.5 1.0E-12
17 3 9.7211 -86.9982 2010-06-24T08:08:10.80Z 299.0 11.0911 34.7439 5.6 4.6847 0.008 651.2 1.0E-12
17 3 9.7211 -86.9982 2010-06-24T08:08:10.80Z 300.0 11.0779 34.7432 5.5 4.6849 0.009 652.0 1.0E-12
17 3 9.7211 -86.9982 2010-06-24T08:08:10.80Z 301.0 11.06 34.7428 5.4 4.6845 0.009 653.0 1.0E-12
17 3 9.7211 -86.9982 2010-06-24T08:08:10.80Z 302.0 11.0416 34.7416 5.2 4.6821 0.009 654.5 1.0E-12
17 3 9.7211 -86.9982 2010-06-24T08:08:10.80Z 303.0 11.0275 34.7408 5.1 4.6822 0.009 656.0 1.0E-12
17 3 9.7211 -86.9982 2010-06-24T08:08:10.80Z 304.0 11.0236 34.7412 5.0 4.6827 0.009 657.1 1.0E-12
17 3 9.7211 -86.9982 2010-06-24T08:08:10.80Z 305.0 11.0189 34.7416 5.0 4.6832 0.009 658.0 1.0E-12
17 3 9.7211 -86.9982 2010-06-24T08:08:10.80Z 306.0 10.9964 34.7402 5.0 4.6814 0.009 658.9 1.0E-12
17 3 9.7211 -86.9982 2010-06-24T08:08:10.80Z 307.0 10.974 34.7389 4.9 4.6818 0.009 659.8 1.0E-12
17 3 9.7211 -86.9982 2010-06-24T08:08:10.80Z 308.0 10.9429 34.7372 4.9 4.6812 0.009 660.8 1.0E-12
17 3 9.7211 -86.9982 2010-06-24T08:08:10.80Z 309.0 10.9286 34.7362 4.9 4.6803 0.009 661.9 1.0E-12
17 3 9.7211 -86.9982 2010-06-24T08:08:10.80Z 310.0 10.923 34.7359 4.8 4.6805 0.009 662.9 1.0E-12
17 3 9.7211 -86.9982 2010-06-24T08:08:10.80Z 311.0 10.9156 34.7355 4.8 4.6799 0.009 663.9 1.0E-12
17 3 9.7211 -86.9982 2010-06-24T08:08:10.80Z 312.0 10.8983 34.7344 4.8 4.6799 0.009 664.8 1.0E-12
17 3 9.7211 -86.9982 2010-06-24T08:08:10.80Z 313.0 10.8863 34.734 4.7 4.6801 0.009 665.8 1.0E-12
17 3 9.7211 -86.9982 2010-06-24T08:08:10.80Z 314.0 10.8718 34.7331 4.7 4.68 0.009 667.0 1.0E-12
17 3 9.7211 -86.9982 2010-06-24T08:08:10.80Z 315.0 10.861 34.7325 4.7 4.6789 0.009 668.0 1.0E-12
17 3 9.7211 -86.9982 2010-06-24T08:08:10.80Z 316.0 10.8465 34.7318 4.7 4.6781 0.009 668.9 1.0E-12
17 3 9.7211 -86.9982 2010-06-24T08:08:10.80Z 317.0 10.8356 34.7313 4.7 4.678 0.009 669.8 1.0E-12
17 3 9.7211 -86.9982 2010-06-24T08:08:10.80Z 318.0 10.8173 34.7303 4.7 4.677 0.009 670.6 1.0E-12
17 3 9.7211 -86.9982 2010-06-24T08:08:10.80Z 319.0 10.8037 34.7296 4.7 4.6765 0.009 671.8 1.0E-12
17 3 9.7211 -86.9982 2010-06-24T08:08:10.80Z 320.0 10.7895 34.7285 4.7 4.677 0.009 673.0 1.0E-12
17 3 9.7211 -86.9982 2010-06-24T08:08:10.80Z 321.0 10.7709 34.7276 4.7 4.6761 0.009 674.2 1.0E-12
17 3 9.7211 -86.9982 2010-06-24T08:08:10.80Z 322.0 10.7618 34.7272 4.7 4.6759 0.009 675.2 1.0E-12
17 3 9.7211 -86.9982 2010-06-24T08:08:10.80Z 323.0 10.7534 34.7266 4.6 4.6749 0.009 676.1 1.0E-12
17 3 9.7211 -86.9982 2010-06-24T08:08:10.80Z 324.0 10.7425 34.7262 4.5 4.675 0.009 677.2 1.0E-12
17 3 9.7211 -86.9982 2010-06-24T08:08:10.80Z 325.0 10.7382 34.7258 4.6 4.6748 0.009 678.4 1.0E-12
17 3 9.7211 -86.9982 2010-06-24T08:08:10.80Z 326.0 10.7285 34.7254 4.5 4.6746 0.009 679.5 1.0E-12
17 3 9.7211 -86.9982 2010-06-24T08:08:10.80Z 327.0 10.7157 34.7247 4.5 4.674 0.009 680.5 1.0E-12
17 3 9.7211 -86.9982 2010-06-24T08:08:10.80Z 328.0 10.6997 34.7242 4.5 4.6734 0.009 681.2 1.0E-12
17 3 9.7211 -86.9982 2010-06-24T08:08:10.80Z 329.0 10.68 34.7233 4.5 4.6743 0.009 682.0 1.0E-12
17 3 9.7211 -86.9982 2010-06-24T08:08:10.80Z 330.0 10.6539 34.7226 4.5 4.6722 0.009 682.8 1.0E-12
17 3 9.7211 -86.9982 2010-06-24T08:08:10.80Z 331.0 10.6497 34.7222 4.5 4.6726 0.009 683.5 1.0E-12
17 3 9.7211 -86.9982 2010-06-24T08:08:10.80Z 332.0 10.6042 34.7191 4.5 4.6721 0.009 685.1 1.0E-12
17 3 9.7211 -86.9982 2010-06-24T08:08:10.80Z 333.0 10.5733 34.7171 4.6 4.6723 0.009 687.1 1.0E-12
17 3 9.7211 -86.9982 2010-06-24T08:08:10.80Z 334.0 10.5429 34.7158 4.6 4.6702 0.009 688.2 1.0E-12
17 3 9.7211 -86.9982 2010-06-24T08:08:10.80Z 335.0 10.5134 34.7139 4.6 4.669 0.009 689.0 1.0E-12
17 3 9.7211 -86.9982 2010-06-24T08:08:10.80Z 336.0 10.4829 34.7121 4.6 4.6688 0.009 689.8 1.0E-12
17 3 9.7211 -86.9982 2010-06-24T08:08:10.80Z 337.0 10.464 34.7111 4.6 4.669 0.01 690.5 1.0E-12
17 3 9.7211 -86.9982 2010-06-24T08:08:10.80Z 338.0 10.4451 34.71 4.6 4.6677 0.009 691.5 1.0E-12
17 3 9.7211 -86.9982 2010-06-24T08:08:10.80Z 339.0 10.4238 34.7086 4.6 4.6677 0.009 692.6 1.0E-12
17 3 9.7211 -86.9982 2010-06-24T08:08:10.80Z 340.0 10.4024 34.7078 4.6 4.6658 0.009 693.6 1.0E-12
17 3 9.7211 -86.9982 2010-06-24T08:08:10.80Z 341.0 10.3909 34.7078 4.5 4.6652 0.009 694.5 1.0E-12
17 3 9.7211 -86.9982 2010-06-24T08:08:10.80Z 342.0 10.363 34.7067 4.5 4.6641 0.01 695.2 1.0E-12
17 3 9.7211 -86.9982 2010-06-24T08:08:10.80Z 343.0 10.3504 34.7064 4.5 4.6645 0.01 696.0 1.0E-12
17 3 9.7211 -86.9982 2010-06-24T08:08:10.80Z 344.0 10.3371 34.7053 4.4 4.6643 0.009 697.1 1.0E-12
17 3 9.7211 -86.9982 2010-06-24T08:08:10.80Z 345.0 10.3132 34.704 4.5 4.6631 0.009 698.5 1.0E-12
17 3 9.7211 -86.9982 2010-06-24T08:08:10.80Z 346.0 10.3061 34.7038 4.4 4.6636 0.01 699.6 1.0E-12
17 3 9.7211 -86.9982 2010-06-24T08:08:10.80Z 347.0 10.2977 34.7034 4.4 4.6633 0.01 700.9 1.0E-12
17 3 9.7211 -86.9982 2010-06-24T08:08:10.80Z 348.0 10.2851 34.703 4.4 4.6637 0.009 702.1 1.0E-12
17 3 9.7211 -86.9982 2010-06-24T08:08:10.80Z 349.0 10.2735 34.7028 4.4 4.6626 0.01 703.1 1.0E-12
17 3 9.7211 -86.9982 2010-06-24T08:08:10.80Z 350.0 10.263 34.7024 4.4 4.6629 0.009 704.0 1.0E-12
17 3 9.7211 -86.9982 2010-06-24T08:08:10.80Z 351.0 10.2534 34.7022 4.4 4.6635 0.009 704.8 1.0E-12
17 3 9.7211 -86.9982 2010-06-24T08:08:10.80Z 352.0 10.2362 34.7011 4.5 4.662 0.01 705.6 1.0E-12
17 3 9.7211 -86.9982 2010-06-24T08:08:10.80Z 353.0 10.2006 34.6997 4.4 4.6639 0.01 706.6 1.0E-12
17 3 9.7211 -86.9982 2010-06-24T08:08:10.80Z 354.0 10.1798 34.6986 4.4 4.6632 0.009 707.8 1.0E-12
17 3 9.7211 -86.9982 2010-06-24T08:08:10.80Z 355.0 10.1523 34.6959 4.4 4.662 0.01 708.9 1.0E-12
17 3 9.7211 -86.9982 2010-06-24T08:08:10.80Z 356.0 10.1165 34.6932 4.4 4.6605 0.01 709.9 1.0E-12
17 3 9.7211 -86.9982 2010-06-24T08:08:10.80Z 357.0 10.0957 34.6917 4.4 4.6604 0.009 710.8 1.0E-12
17 3 9.7211 -86.9982 2010-06-24T08:08:10.80Z 358.0 10.0714 34.6906 4.5 4.6598 0.01 711.6 1.0E-12
17 3 9.7211 -86.9982 2010-06-24T08:08:10.80Z 359.0 10.0538 34.6901 4.5 4.6606 0.009 712.6 1.0E-12
17 3 9.7211 -86.9982 2010-06-24T08:08:10.80Z 360.0 10.0454 34.6905 4.5 4.6621 0.01 713.8 1.0E-12
17 3 9.7211 -86.9982 2010-06-24T08:08:10.80Z 361.0 10.0398 34.6905 4.5 4.6608 0.009 715.0 1.0E-12
17 3 9.7211 -86.9982 2010-06-24T08:08:10.80Z 362.0 10.0336 34.6903 4.5 4.662 0.009 716.2 1.0E-12
17 3 9.7211 -86.9982 2010-06-24T08:08:10.80Z 363.0 10.024 34.6904 4.5 4.6613 0.01 717.5 1.0E-12
17 3 9.7211 -86.9982 2010-06-24T08:08:10.80Z 364.0 10.0219 34.6906 4.5 4.6626 0.01 718.6 1.0E-12
17 3 9.7211 -86.9982 2010-06-24T08:08:10.80Z 365.0 10.0094 34.69 4.5 4.6629 0.009 719.5 1.0E-12
17 3 9.7211 -86.9982 2010-06-24T08:08:10.80Z 366.0 9.9985 34.6896 4.5 4.6635 0.01 720.4 1.0E-12
17 3 9.7211 -86.9982 2010-06-24T08:08:10.80Z 367.0 9.988 34.6892 4.5 4.6635 0.009 721.2 1.0E-12
17 3 9.7211 -86.9982 2010-06-24T08:08:10.80Z 368.0 9.9792 34.6888 4.5 4.6652 0.01 722.0 1.0E-12
17 3 9.7211 -86.9982 2010-06-24T08:08:10.80Z 369.0 9.9745 34.6885 4.5 4.6644 0.01 722.8 1.0E-12
17 3 9.7211 -86.9982 2010-06-24T08:08:10.80Z 370.0 9.9709 34.6883 4.5 4.6649 0.01 723.9 1.0E-12
17 3 9.7211 -86.9982 2010-06-24T08:08:10.80Z 371.0 9.9667 34.6878 4.5 4.6641 0.009 725.2 1.0E-12
17 3 9.7211 -86.9982 2010-06-24T08:08:10.80Z 372.0 9.9599 34.6874 4.5 4.6644 0.009 726.4 1.0E-12
17 3 9.7211 -86.9982 2010-06-24T08:08:10.80Z 373.0 9.9536 34.6873 4.5 4.6637 0.01 727.2 1.0E-12
17 3 9.7211 -86.9982 2010-06-24T08:08:10.80Z 374.0 9.9489 34.6868 4.4 4.664 0.01 728.0 1.0E-12
17 3 9.7211 -86.9982 2010-06-24T08:08:10.80Z 375.0 9.9392 34.6862 4.5 4.6629 0.009 728.8 1.0E-12
17 3 9.7211 -86.9982 2010-06-24T08:08:10.80Z 376.0 9.9249 34.6856 4.5 4.6636 0.009 730.0 1.0E-12
17 3 9.7211 -86.9982 2010-06-24T08:08:10.80Z 377.0 9.9139 34.6848 4.4 4.6631 0.01 731.6 1.0E-12
17 3 9.7211 -86.9982 2010-06-24T08:08:10.80Z 378.0 9.8937 34.684 4.4 4.6623 0.01 732.9 1.0E-12
17 3 9.7211 -86.9982 2010-06-24T08:08:10.80Z 379.0 9.8736 34.683 4.5 4.6621 0.009 733.8 1.0E-12
17 3 9.7211 -86.9982 2010-06-24T08:08:10.80Z 380.0 9.8489 34.6817 4.4 4.6619 0.009 734.5 1.0E-12
17 3 9.7211 -86.9982 2010-06-24T08:08:10.80Z 381.0 9.8312 34.6808 4.4 4.6616 0.009 735.2 1.0E-12
17 3 9.7211 -86.9982 2010-06-24T08:08:10.80Z 382.0 9.8187 34.6799 4.4 4.6623 0.01 736.1 1.0E-12
17 3 9.7211 -86.9982 2010-06-24T08:08:10.80Z 383.0 9.8076 34.6791 4.4 4.6624 0.01 737.4 1.0E-12
17 3 9.7211 -86.9982 2010-06-24T08:08:10.80Z 384.0 9.7935 34.678 4.4 4.6635 0.009 738.6 1.0E-12
17 3 9.7211 -86.9982 2010-06-24T08:08:10.80Z 385.0 9.7738 34.6769 4.4 4.6643 0.01 739.6 1.0E-12
17 3 9.7211 -86.9982 2010-06-24T08:08:10.80Z 386.0 9.7678 34.6765 4.4 4.6643 0.01 740.5 1.0E-12
17 3 9.7211 -86.9982 2010-06-24T08:08:10.80Z 387.0 9.7373 34.6747 4.3 4.6644 0.01 741.4 1.0E-12
17 3 9.7211 -86.9982 2010-06-24T08:08:10.80Z 388.0 9.7018 34.6736 4.3 4.6648 0.01 742.5 1.0E-12
17 3 9.7211 -86.9982 2010-06-24T08:08:10.80Z 389.0 9.6827 34.6733 4.3 4.6652 0.01 743.6 1.0E-12
17 3 9.7211 -86.9982 2010-06-24T08:08:10.80Z 390.0 9.6797 34.6733 4.3 4.665 0.01 744.6 1.0E-12
17 3 9.7211 -86.9982 2010-06-24T08:08:10.80Z 391.0 9.6763 34.6734 4.3 4.6626 0.01 745.6 1.0E-12
17 3 9.7211 -86.9982 2010-06-24T08:08:10.80Z 392.0 9.6721 34.6735 4.4 4.6647 0.01 746.6 1.0E-12
17 3 9.7211 -86.9982 2010-06-24T08:08:10.80Z 393.0 9.6686 34.6737 4.3 4.6654 0.01 747.8 1.0E-12
17 3 9.7211 -86.9982 2010-06-24T08:08:10.80Z 394.0 9.6656 34.6739 4.3 4.6662 0.01 749.0 1.0E-12
17 3 9.7211 -86.9982 2010-06-24T08:08:10.80Z 395.0 9.6632 34.6739 4.3 4.6666 0.01 750.1 1.0E-12
17 3 9.7211 -86.9982 2010-06-24T08:08:10.80Z 396.0 9.66 34.6738 4.3 4.6656 0.01 751.1 1.0E-12
17 3 9.7211 -86.9982 2010-06-24T08:08:10.80Z 397.0 9.6565 34.6738 4.3 4.6656 0.009 752.1 1.0E-12
17 3 9.7211 -86.9982 2010-06-24T08:08:10.80Z 398.0 9.65 34.6736 4.4 4.6661 0.01 753.1 1.0E-12
17 3 9.7211 -86.9982 2010-06-24T08:08:10.80Z 399.0 9.646 34.6734 4.4 4.6659 0.01 754.2 1.0E-12
17 3 9.7211 -86.9982 2010-06-24T08:08:10.80Z 400.0 9.6417 34.673 4.4 4.6644 0.009 755.6 1.0E-12
17 3 9.7211 -86.9982 2010-06-24T08:08:10.80Z 401.0 9.6146 34.6709 4.4 4.6661 0.01 757.2 1.0E-12
17 3 9.7211 -86.9982 2010-06-24T08:08:10.80Z 402.0 9.5899 34.6697 4.4 4.6665 0.009 758.8 1.0E-12
17 3 9.7211 -86.9982 2010-06-24T08:08:10.80Z 403.0 9.5756 34.6689 4.4 4.6665 0.01 760.0 1.0E-12
17 3 9.7211 -86.9982 2010-06-24T08:08:10.80Z 404.0 9.5624 34.6685 4.4 4.6663 0.01 762.3 1.0E-12
17 3 9.7211 -86.9982 2010-06-24T08:08:10.80Z 405.0 9.5484 34.6674 4.4 4.6662 0.01 765.9 1.0E-12
17 3 9.7211 -86.9982 2010-06-24T08:08:10.80Z 406.0 9.5008 34.6653 4.4 4.6668 0.01 767.1 1.0E-12
17 3 9.7211 -86.9982 2010-06-24T08:08:10.80Z 407.0 9.4676 34.6641 4.4 4.668 0.01 768.4 1.0E-12
17 3 9.7211 -86.9982 2010-06-24T08:08:10.80Z 408.0 9.4671 34.6637 4.4 4.6679 0.01 771.8 1.0E-12
17 3 9.7211 -86.9982 2010-06-24T08:08:10.80Z 409.0 9.4509 34.6635 4.4 4.6683 0.01 774.1
17 3 9.7211 -86.9982 2010-06-24T08:08:10.80Z 410.0 9.4436 34.6637 4.4 4.6686 0.01 777.0
17 3 9.7211 -86.9982 2010-06-24T08:08:10.80Z 411.0 9.4331 34.6634 4.4 4.669 0.01 781.8
17 3 9.7211 -86.9982 2010-06-24T08:08:10.80Z 412.0 9.4118 34.6627 4.3 4.6686 0.01 795.0
17 3 9.7211 -86.9982 2010-06-24T08:08:10.80Z 413.0 9.3926 34.6601 4.2 4.6704 0.009 856.8
29 4 9.7139 -86.9568 2010-06-24T15:46:18.00Z 0.0 28.5644 33.6015 215.6 4.4795 0.03 291.8
29 4 9.7139 -86.9568 2010-06-24T15:46:18.00Z 1.0 28.5668 33.6045 215.6 4.4873 0.029 320.5 263.0
29 4 9.7139 -86.9568 2010-06-24T15:46:18.00Z 2.0 28.5693 33.6074 215.6 4.4952 0.028 349.3 147.0
29 4 9.7139 -86.9568 2010-06-24T15:46:18.00Z 3.0 28.5717 33.6104 215.6 4.503 0.028 378.0 53.6
29 4 9.7139 -86.9568 2010-06-24T15:46:18.00Z 4.0 28.5741 33.6133 215.6 4.5109 0.027 406.7 58.2
29 4 9.7139 -86.9568 2010-06-24T15:46:18.00Z 5.0 28.5765 33.6162 215.6 4.5187 0.027 435.4 50.2
29 4 9.7139 -86.9568 2010-06-24T15:46:18.00Z 6.0 28.5789 33.6192 215.6 4.5265 0.026 464.2 42.1
29 4 9.7139 -86.9568 2010-06-24T15:46:18.00Z 7.0 28.5813 33.6221 215.6 4.5344 0.025 492.9 37.6
29 4 9.7139 -86.9568 2010-06-24T15:46:18.00Z 8.0 28.5837 33.6251 215.7 4.5422 0.025 521.6 35.1
29 4 9.7139 -86.9568 2010-06-24T15:46:18.00Z 9.0 28.5863 33.6293 215.7 4.5365 0.029 533.2 31.2
29 4 9.7139 -86.9568 2010-06-24T15:46:18.00Z 10.0 28.5866 33.6291 215.9 4.533 0.028 536.6 28.0
29 4 9.7139 -86.9568 2010-06-24T15:46:18.00Z 11.0 28.5869 33.63 215.3 4.5298 0.03 537.9 24.5
29 4 9.7139 -86.9568 2010-06-24T15:46:18.00Z 12.0 28.5874 33.6305 215.3 4.5299 0.032 539.0 21.4
29 4 9.7139 -86.9568 2010-06-24T15:46:18.00Z 13.0 28.5876 33.6307 215.7 4.5219 0.033 542.1 22.5
29 4 9.7139 -86.9568 2010-06-24T15:46:18.00Z 14.0 28.5889 33.6326 215.5 4.5149 0.04 544.8 23.8
29 4 9.7139 -86.9568 2010-06-24T15:46:18.00Z 15.0 28.5902 33.6363 215.6 4.5185 0.035 546.5 21.3
29 4 9.7139 -86.9568 2010-06-24T15:46:18.00Z 16.0 28.5906 33.6374 215.6 4.5196 0.035 548.8 19.1
29 4 9.7139 -86.9568 2010-06-24T15:46:18.00Z 17.0 28.5908 33.6388 215.9 4.5206 0.033 550.8 17.3
29 4 9.7139 -86.9568 2010-06-24T15:46:18.00Z 18.0 28.5917 33.6474 215.4 4.5261 0.034 552.5 15.8
29 4 9.7139 -86.9568 2010-06-24T15:46:18.00Z 19.0 28.5929 33.7609 214.7 4.5304 0.034 554.6 14.3
29 4 9.7139 -86.9568 2010-06-24T15:46:18.00Z 20.0 28.5375 33.8244 212.6 4.5282 0.034 557.0 12.9
29 4 9.7139 -86.9568 2010-06-24T15:46:18.00Z 21.0 28.5124 33.8434 209.9 4.526 0.034 559.0 11.6
29 4 9.7139 -86.9568 2010-06-24T15:46:18.00Z 22.0 28.5001 33.8456 209.2 4.525 0.032 560.5 10.5
29 4 9.7139 -86.9568 2010-06-24T15:46:18.00Z 23.0 28.4228 33.8408 208.8 4.5338 0.03 561.8 9.37
29 4 9.7139 -86.9568 2010-06-24T15:46:18.00Z 24.0 28.2013 33.8821 204.8 4.5418 0.032 563.6 8.58
29 4 9.7139 -86.9568 2010-06-24T15:46:18.00Z 25.0 27.9724 33.9581 197.2 4.531 0.034 566.1 7.76
29 4 9.7139 -86.9568 2010-06-24T15:46:18.00Z 26.0 26.9429 34.2218 186.1 4.5331 0.032 568.1 7.14
29 4 9.7139 -86.9568 2010-06-24T15:46:18.00Z 27.0 26.3944 34.3238 165.6 4.5523 0.029 569.5 6.59
29 4 9.7139 -86.9568 2010-06-24T15:46:18.00Z 28.0 25.693 34.4089 164.1 4.5448 0.035 571.8 6.02
29 4 9.7139 -86.9568 2010-06-24T15:46:18.00Z 29.0 25.3755 34.4168 160.6 4.5389 0.037 574.2 5.32
29 4 9.7139 -86.9568 2010-06-24T15:46:18.00Z 30.0 25.1546 34.4121 151.0 4.5322 0.038 576.0 4.75
29 4 9.7139 -86.9568 2010-06-24T15:46:18.00Z 31.0 25.0433 34.4175 133.9 4.5294 0.037 577.6 4.38
29 4 9.7139 -86.9568 2010-06-24T15:46:18.00Z 32.0 24.9492 34.4247 124.3 4.5335 0.037 579.1 4.08
29 4 9.7139 -86.9568 2010-06-24T15:46:18.00Z 33.0 24.8083 34.4355 116.9 4.5355 0.041 581.0 3.78
29 4 9.7139 -86.9568 2010-06-24T15:46:18.00Z 34.0 24.6766 34.4471 108.8 4.5361 0.042 583.9 3.38
29 4 9.7139 -86.9568 2010-06-24T15:46:18.00Z 35.0 24.248 34.4819 103.8 4.5386 0.037 586.5 2.9
29 4 9.7139 -86.9568 2010-06-24T15:46:18.00Z 36.0 23.9369 34.5057 99.4 4.541 0.04 587.9 2.64
29 4 9.7139 -86.9568 2010-06-24T15:46:18.00Z 37.0 23.7861 34.5285 97.9 4.5067 0.053 589.1 2.43
29 4 9.7139 -86.9568 2010-06-24T15:46:18.00Z 38.0 23.6236 34.5496 102.5 4.4854 0.067 590.9 2.22
29 4 9.7139 -86.9568 2010-06-24T15:46:18.00Z 39.0 23.0894 34.5652 112.4 4.4967 0.071 593.2 1.99
29 4 9.7139 -86.9568 2010-06-24T15:46:18.00Z 40.0 22.9478 34.5724 112.1 4.5096 0.07 595.9 1.77
29 4 9.7139 -86.9568 2010-06-24T15:46:18.00Z 41.0 22.5111 34.5811 112.7 4.5357 0.056 598.0 1.6
29 4 9.7139 -86.9568 2010-06-24T15:46:18.00Z 42.0 22.2188 34.627 112.2 4.5492 0.051 599.5 1.44
29 4 9.7139 -86.9568 2010-06-24T15:46:18.00Z 43.0 21.9741 34.617 115.1 4.5486 0.049 600.9 1.33
29 4 9.7139 -86.9568 2010-06-24T15:46:18.00Z 44.0 21.6279 34.6163 114.2 4.548 0.053 602.6 1.22
29 4 9.7139 -86.9568 2010-06-24T15:46:18.00Z 45.0 21.331 34.6198 106.1 4.5462 0.058 604.8 1.1
29 4 9.7139 -86.9568 2010-06-24T15:46:18.00Z 46.0 20.9633 34.6234 99.8 4.5483 0.056 606.8 0.993
29 4 9.7139 -86.9568 2010-06-24T15:46:18.00Z 47.0 20.8113 34.6506 92.0 4.5598 0.055 609.1 0.899
29 4 9.7139 -86.9568 2010-06-24T15:46:18.00Z 48.0 20.5083 34.6653 94.1 4.5719 0.045 611.5 0.846
29 4 9.7139 -86.9568 2010-06-24T15:46:18.00Z 49.0 20.229 34.682 93.5 4.5752 0.038 613.0 0.78
29 4 9.7139 -86.9568 2010-06-24T15:46:18.00Z 50.0 19.8215 34.6788 93.5 4.581 0.035 614.1 0.715
29 4 9.7139 -86.9568 2010-06-24T15:46:18.00Z 51.0 19.5076 34.693 90.9 4.5857 0.051 615.5 0.654
29 4 9.7139 -86.9568 2010-06-24T15:46:18.00Z 52.0 19.6016 34.6904 86.1 4.5831 0.045 618.2 0.596
29 4 9.7139 -86.9568 2010-06-24T15:46:18.00Z 53.0 19.3712 34.6977 86.1 4.5888 0.034 620.8 0.545
29 4 9.7139 -86.9568 2010-06-24T15:46:18.00Z 54.0 19.2009 34.7014 85.2 4.5919 0.034 622.0 0.499
29 4 9.7139 -86.9568 2010-06-24T15:46:18.00Z 55.0 18.9159 34.7083 82.4 4.5877 0.039 623.6 0.462
29 4 9.7139 -86.9568 2010-06-24T15:46:18.00Z 56.0 18.6122 34.7172 76.1 4.5907 0.041 625.9 0.43
29 4 9.7139 -86.9568 2010-06-24T15:46:18.00Z 57.0 18.4601 34.7227 71.2 4.5897 0.039 628.1 0.4
29 4 9.7139 -86.9568 2010-06-24T15:46:18.00Z 58.0 18.3844 34.7273 68.4 4.5899 0.037 630.1 0.364
29 4 9.7139 -86.9568 2010-06-24T15:46:18.00Z 59.0 18.28 34.7327 66.4 4.591 0.037 632.1 0.332
29 4 9.7139 -86.9568 2010-06-24T15:46:18.00Z 60.0 17.7745 34.7552 64.5 4.5882 0.035 634.0 0.299
29 4 9.7139 -86.9568 2010-06-24T15:46:18.00Z 61.0 17.3803 34.7695 60.2 4.5836 0.035 635.6 0.271
29 4 9.7139 -86.9568 2010-06-24T15:46:18.00Z 62.0 17.0822 34.7718 55.1 4.5874 0.034 637.2 0.255
29 4 9.7139 -86.9568 2010-06-24T15:46:18.00Z 63.0 16.7828 34.7713 51.0 4.5923 0.036 639.5 0.239
29 4 9.7139 -86.9568 2010-06-24T15:46:18.00Z 64.0 16.3475 34.8066 48.4 4.608 0.023 641.6 0.224
29 4 9.7139 -86.9568 2010-06-24T15:46:18.00Z 65.0 16.2153 34.804 42.8 4.6151 0.023 643.5 0.209
29 4 9.7139 -86.9568 2010-06-24T15:46:18.00Z 66.0 16.1366 34.81 39.3 4.616 0.024 645.8 0.195
29 4 9.7139 -86.9568 2010-06-24T15:46:18.00Z 67.0 16.0476 34.8234 37.5 4.6153 0.022 647.8 0.18
29 4 9.7139 -86.9568 2010-06-24T15:46:18.00Z 68.0 15.8986 34.8287 35.5 4.6185 0.021 649.4 0.169
29 4 9.7139 -86.9568 2010-06-24T15:46:18.00Z 69.0 15.718 34.8224 33.1 4.6237 0.021 651.1 0.16
29 4 9.7139 -86.9568 2010-06-24T15:46:18.00Z 70.0 15.6555 34.8347 32.9 4.6229 0.022 652.9 0.152
29 4 9.7139 -86.9568 2010-06-24T15:46:18.00Z 71.0 15.5855 34.8424 32.5 4.6248 0.021 654.5 0.143
29 4 9.7139 -86.9568 2010-06-24T15:46:18.00Z 72.0 15.4868 34.8415 31.4 4.6252 0.026 657.2 0.134
29 4 9.7139 -86.9568 2010-06-24T15:46:18.00Z 73.0 15.3868 34.8462 30.5 4.6276 0.02 660.0 0.125
29 4 9.7139 -86.9568 2010-06-24T15:46:18.00Z 74.0 15.2535 34.8492 30.1 4.629 0.019 661.4 0.117
29 4 9.7139 -86.9568 2010-06-24T15:46:18.00Z 75.0 15.1423 34.857 29.4 4.6277 0.018 662.5 0.111
29 4 9.7139 -86.9568 2010-06-24T15:46:18.00Z 76.0 15.0691 34.8632 26.8 4.6286 0.02 664.0 0.104
29 4 9.7139 -86.9568 2010-06-24T15:46:18.00Z 77.0 15.0405 34.8637 21.4 4.6257 0.021 666.2 0.0989
29 4 9.7139 -86.9568 2010-06-24T15:46:18.00Z 78.0 14.952 34.8646 18.7 4.628 0.021 668.9 0.0942
29 4 9.7139 -86.9568 2010-06-24T15:46:18.00Z 79.0 14.8039 34.8655 18.3 4.6304 0.019 670.9 0.09
29 4 9.7139 -86.9568 2010-06-24T15:46:18.00Z 80.0 14.7772 34.8638 19.2 4.6302 0.03 672.6 0.0853
29 4 9.7139 -86.9568 2010-06-24T15:46:18.00Z 81.0 14.7524 34.8645 20.6 4.631 0.03 674.8 0.0804
29 4 9.7139 -86.9568 2010-06-24T15:46:18.00Z 82.0 14.6554 34.8716 22.2 4.6298 0.018 676.8 0.0742
29 4 9.7139 -86.9568 2010-06-24T15:46:18.00Z 83.0 14.5572 34.8807 23.0 4.6293 0.019 678.4 0.0702
29 4 9.7139 -86.9568 2010-06-24T15:46:18.00Z 84.0 14.5238 34.8911 23.4 4.6331 0.018 679.8 0.0666
29 4 9.7139 -86.9568 2010-06-24T15:46:18.00Z 85.0 14.4949 34.8956 23.0 4.6209 0.019 681.5 0.0632
29 4 9.7139 -86.9568 2010-06-24T15:46:18.00Z 86.0 14.4101 34.8901 21.5 4.6115 0.03 684.1 0.0598
29 4 9.7139 -86.9568 2010-06-24T15:46:18.00Z 87.0 14.3582 34.8862 21.4 4.6233 0.05 686.8 0.0566
29 4 9.7139 -86.9568 2010-06-24T15:46:18.00Z 88.0 14.323 34.884 21.3 4.6028 0.025 688.5 0.0542
29 4 9.7139 -86.9568 2010-06-24T15:46:18.00Z 89.0 14.308 34.8833 21.0 4.5966 0.063 689.9 0.0511
29 4 9.7139 -86.9568 2010-06-24T15:46:18.00Z 90.0 14.2774 34.8842 20.6 4.5955 0.028 691.8 0.0484
29 4 9.7139 -86.9568 2010-06-24T15:46:18.00Z 91.0 14.2467 34.8861 19.9 4.6128 0.021 693.9 0.0444
29 4 9.7139 -86.9568 2010-06-24T15:46:18.00Z 92.0 14.2309 34.8951 19.3 4.6274 0.02 695.8 0.0431
29 4 9.7139 -86.9568 2010-06-24T15:46:18.00Z 93.0 14.2253 34.9026 19.3 4.6297 0.016 697.4 0.0415
29 4 9.7139 -86.9568 2010-06-24T15:46:18.00Z 94.0 14.2115 34.907 18.7 4.6344 0.015 698.8 0.0401
29 4 9.7139 -86.9568 2010-06-24T15:46:18.00Z 95.0 14.201 34.9075 17.5 4.6343 0.018 701.3 0.0383
29 4 9.7139 -86.9568 2010-06-24T15:46:18.00Z 96.0 14.1995 34.909 16.6 4.6329 0.017 704.8 0.0362
29 4 9.7139 -86.9568 2010-06-24T15:46:18.00Z 97.0 14.1692 34.9126 16.5 4.6377 0.02 706.2 0.0342
29 4 9.7139 -86.9568 2010-06-24T15:46:18.00Z 98.0 14.1511 34.912 16.5 4.6322 0.025 707.4 0.0325
29 4 9.7139 -86.9568 2010-06-24T15:46:18.00Z 99.0 14.1423 34.9112 16.5 4.6303 0.035 708.5 0.0314
29 4 9.7139 -86.9568 2010-06-24T15:46:18.00Z 100.0 14.1251 34.9098 16.7 4.6233 0.026 710.5 0.0302
29 4 9.7139 -86.9568 2010-06-24T15:46:18.00Z 101.0 14.0974 34.9076 17.0 4.6269 0.018 713.4 0.0291
29 4 9.7139 -86.9568 2010-06-24T15:46:18.00Z 102.0 14.0812 34.9071 17.2 4.6302 0.031 715.9 0.0278
29 4 9.7139 -86.9568 2010-06-24T15:46:18.00Z 103.0 14.0678 34.907 17.2 4.6349 0.033 717.5 0.0263
29 4 9.7139 -86.9568 2010-06-24T15:46:18.00Z 104.0 14.0572 34.9078 17.2 4.6389 0.013 718.8 0.0251
29 4 9.7139 -86.9568 2010-06-24T15:46:18.00Z 105.0 14.0463 34.9082 17.5 4.6464 0.013 720.6 0.0243
29 4 9.7139 -86.9568 2010-06-24T15:46:18.00Z 106.0 14.0395 34.9084 17.8 4.6417 0.011 722.6 0.0235
29 4 9.7139 -86.9568 2010-06-24T15:46:18.00Z 107.0 14.0296 34.9079 17.9 4.6444 0.011 724.1 0.0229
29 4 9.7139 -86.9568 2010-06-24T15:46:18.00Z 108.0 14.0156 34.9062 17.8 4.6464 0.013 726.6 0.022
29 4 9.7139 -86.9568 2010-06-24T15:46:18.00Z 109.0 13.9825 34.9061 17.1 4.649 0.01 729.0 0.0209
29 4 9.7139 -86.9568 2010-06-24T15:46:18.00Z 110.0 13.9401 34.9093 17.0 4.6509 0.012 730.0 0.0204
29 4 9.7139 -86.9568 2010-06-24T15:46:18.00Z 111.0 13.9269 34.9095 16.9 4.6515 0.01 730.8 0.0193
29 4 9.7139 -86.9568 2010-06-24T15:46:18.00Z 112.0 13.9157 34.912 17.2 4.6526 0.009 731.6 0.0187
29 4 9.7139 -86.9568 2010-06-24T15:46:18.00Z 113.0 13.9024 34.912 17.5 4.6534 0.009 732.5 0.0178
29 4 9.7139 -86.9568 2010-06-24T15:46:18.00Z 114.0 13.8854 34.9118 18.2 4.6537 0.009 733.4 0.0175
29 4 9.7139 -86.9568 2010-06-24T15:46:18.00Z 115.0 13.8628 34.9114 19.2 4.6544 0.009 734.6 0.0173
29 4 9.7139 -86.9568 2010-06-24T15:46:18.00Z 116.0 13.8365 34.9097 19.7 4.6537 0.009 736.0 0.0163
29 4 9.7139 -86.9568 2010-06-24T15:46:18.00Z 117.0 13.8165 34.9096 19.9 4.6542 0.009 737.2 0.0158
29 4 9.7139 -86.9568 2010-06-24T15:46:18.00Z 118.0 13.7877 34.9092 19.5 4.6549 0.008 738.4 0.0156
29 4 9.7139 -86.9568 2010-06-24T15:46:18.00Z 119.0 13.7628 34.9078 19.1 4.6547 0.008 739.5 0.0148
29 4 9.7139 -86.9568 2010-06-24T15:46:18.00Z 120.0 13.7367 34.9053 18.6 4.655 0.008 740.6 0.0145
29 4 9.7139 -86.9568 2010-06-24T15:46:18.00Z 121.0 13.7053 34.9021 17.7 4.6545 0.008 741.5 0.0142
29 4 9.7139 -86.9568 2010-06-24T15:46:18.00Z 122.0 13.6939 34.9023 16.9 4.6561 0.008 742.2 0.0135
29 4 9.7139 -86.9568 2010-06-24T15:46:18.00Z 123.0 13.6867 34.902 15.9 4.6534 0.008 743.0 0.0126
29 4 9.7139 -86.9568 2010-06-24T15:46:18.00Z 124.0 13.6743 34.9005 14.8 4.6551 0.008 743.9 0.0126
29 4 9.7139 -86.9568 2010-06-24T15:46:18.00Z 125.0 13.6593 34.8994 13.9 4.655 0.008 744.9 0.0124
29 4 9.7139 -86.9568 2010-06-24T15:46:18.00Z 126.0 13.6446 34.8983 13.2 4.6554 0.008 745.9 0.0116
29 4 9.7139 -86.9568 2010-06-24T15:46:18.00Z 127.0 13.6382 34.898 12.6 4.6554 0.008 747.0 0.0111
29 4 9.7139 -86.9568 2010-06-24T15:46:18.00Z 128.0 13.6294 34.8971 12.3 4.6551 0.008 748.4 0.0111
29 4 9.7139 -86.9568 2010-06-24T15:46:18.00Z 129.0 13.6165 34.8956 12.1 4.6539 0.008 749.8 0.011
29 4 9.7139 -86.9568 2010-06-24T15:46:18.00Z 130.0 13.6033 34.894 11.9 4.6546 0.008 750.8 0.0107
29 4 9.7139 -86.9568 2010-06-24T15:46:18.00Z 131.0 13.5759 34.8918 11.7 4.6542 0.008 751.5 0.0103
29 4 9.7139 -86.9568 2010-06-24T15:46:18.00Z 132.0 13.5618 34.891 11.5 4.6542 0.008 752.2 0.00954
29 4 9.7139 -86.9568 2010-06-24T15:46:18.00Z 133.0 13.55 34.8897 11.2 4.6547 0.008 753.0 0.00928
29 4 9.7139 -86.9568 2010-06-24T15:46:18.00Z 134.0 13.5346 34.8888 11.0 4.6547 0.008 753.8 0.00894
29 4 9.7139 -86.9568 2010-06-24T15:46:18.00Z 135.0 13.5168 34.8878 10.9 4.6549 0.008 754.5 0.00858
29 4 9.7139 -86.9568 2010-06-24T15:46:18.00Z 136.0 13.5042 34.8863 10.7 4.6543 0.008 755.4 0.00861
29 4 9.7139 -86.9568 2010-06-24T15:46:18.00Z 137.0 13.4811 34.8844 10.7 4.6554 0.008 756.6 0.00819
29 4 9.7139 -86.9568 2010-06-24T15:46:18.00Z 138.0 13.4542 34.8831 10.7 4.6552 0.008 758.1 0.00794
29 4 9.7139 -86.9568 2010-06-24T15:46:18.00Z 139.0 13.4469 34.8933 10.5 4.6538 0.008 759.4 0.00788
29 4 9.7139 -86.9568 2010-06-24T15:46:18.00Z 140.0 13.433 34.8933 10.6 4.6528 0.008 760.2 0.00774
29 4 9.7139 -86.9568 2010-06-24T15:46:18.00Z 141.0 13.4227 34.8936 10.9 4.6531 0.008 760.9 0.00734
29 4 9.7139 -86.9568 2010-06-24T15:46:18.00Z 142.0 13.41 34.8927 11.3 4.6538 0.008 761.5 0.00706
29 4 9.7139 -86.9568 2010-06-24T15:46:18.00Z 143.0 13.386 34.8921 11.9 4.6518 0.008 762.4 0.00653
29 4 9.7139 -86.9568 2010-06-24T15:46:18.00Z 144.0 13.3644 34.8907 12.4 4.6514 0.008 763.5 0.00674
29 4 9.7139 -86.9568 2010-06-24T15:46:18.00Z 145.0 13.3267 34.8864 12.9 4.6503 0.008 764.9 0.00659
29 4 9.7139 -86.9568 2010-06-24T15:46:18.00Z 146.0 13.3119 34.8863 12.9 4.6514 0.008 766.2 0.00638
29 4 9.7139 -86.9568 2010-06-24T15:46:18.00Z 147.0 13.3048 34.8869 12.6 4.652 0.008 767.2 0.00637
29 4 9.7139 -86.9568 2010-06-24T15:46:18.00Z 148.0 13.3 34.8864 12.6 4.6527 0.008 768.0 0.00626
29 4 9.7139 -86.9568 2010-06-24T15:46:18.00Z 149.0 13.2989 34.8865 12.4 4.6526 0.008 768.8 0.00578
29 4 9.7139 -86.9568 2010-06-24T15:46:18.00Z 150.0 13.2887 34.8849 12.5 4.6533 0.008 769.5 0.00517
29 4 9.7139 -86.9568 2010-06-24T15:46:18.00Z 151.0 13.2477 34.8814 12.3 4.6536 0.008 770.2 0.00491
29 4 9.7139 -86.9568 2010-06-24T15:46:18.00Z 152.0 13.2222 34.8806 12.2 4.6522 0.008 771.2 0.0049
29 4 9.7139 -86.9568 2010-06-24T15:46:18.00Z 153.0 13.1961 34.879 12.0 4.6536 0.008 772.8 0.00483
29 4 9.7139 -86.9568 2010-06-24T15:46:18.00Z 154.0 13.1762 34.8787 12.0 4.6537 0.008 774.1 0.00483
29 4 9.7139 -86.9568 2010-06-24T15:46:18.00Z 155.0 13.1703 34.8797 11.9 4.653 0.008 775.1 0.00483
29 4 9.7139 -86.9568 2010-06-24T15:46:18.00Z 156.0 13.1645 34.8796 12.0 4.6526 0.008 776.0 0.00483
29 4 9.7139 -86.9568 2010-06-24T15:46:18.00Z 157.0 13.1463 34.878 12.0 4.6522 0.008 776.9 0.00483
29 4 9.7139 -86.9568 2010-06-24T15:46:18.00Z 158.0 13.1258 34.8746 12.2 4.652 0.008 777.9 0.00483
29 4 9.7139 -86.9568 2010-06-24T15:46:18.00Z 159.0 13.0758 34.8651 12.2 4.6545 0.008 778.9 0.00473
29 4 9.7139 -86.9568 2010-06-24T15:46:18.00Z 160.0 13.0475 34.8595 11.9 4.6548 0.008 780.0 0.00483
29 4 9.7139 -86.9568 2010-06-24T15:46:18.00Z 161.0 13.0341 34.8565 11.2 4.6549 0.008 781.1 0.00463
29 4 9.7139 -86.9568 2010-06-24T15:46:18.00Z 162.0 13.0274 34.8552 10.7 4.6547 0.008 782.0 0.00473
29 4 9.7139 -86.9568 2010-06-24T15:46:18.00Z 163.0 13.02 34.8548 10.2 4.6529 0.008 782.8 0.00417
29 4 9.7139 -86.9568 2010-06-24T15:46:18.00Z 164.0 12.9901 34.8531 9.9 4.6516 0.008 783.5 0.00405
29 4 9.7139 -86.9568 2010-06-24T15:46:18.00Z 165.0 12.9463 34.8488 9.7 4.6543 0.008 784.2 0.00381
29 4 9.7139 -86.9568 2010-06-24T15:46:18.00Z 166.0 12.9299 34.8494 9.6 4.6536 0.008 785.1 0.0036
29 4 9.7139 -86.9568 2010-06-24T15:46:18.00Z 167.0 12.909 34.8484 9.4 4.6526 0.008 786.4 0.00335
29 4 9.7139 -86.9568 2010-06-24T15:46:18.00Z 168.0 12.8928 34.8457 9.1 4.654 0.008 787.6 0.00336
29 4 9.7139 -86.9568 2010-06-24T15:46:18.00Z 169.0 12.8662 34.8436 9.1 4.6543 0.008 788.8 0.00328
29 4 9.7139 -86.9568 2010-06-24T15:46:18.00Z 170.0 12.8311 34.8411 8.9 4.6557 0.008 789.9 0.00328
29 4 9.7139 -86.9568 2010-06-24T15:46:18.00Z 171.0 12.8009 34.839 8.8 4.6556 0.008 790.9 0.00328
29 4 9.7139 -86.9568 2010-06-24T15:46:18.00Z 172.0 12.7707 34.8375 8.6 4.6561 0.008 791.9 0.00328
29 4 9.7139 -86.9568 2010-06-24T15:46:18.00Z 173.0 12.7505 34.8371 8.5 4.6551 0.008 792.8 0.00328
29 4 9.7139 -86.9568 2010-06-24T15:46:18.00Z 174.0 12.7352 34.8364 8.4 4.6546 0.008 793.6 0.00291
29 4 9.7139 -86.9568 2010-06-24T15:46:18.00Z 175.0 12.7291 34.8359 8.3 4.6548 0.008 794.8 0.00294
29 4 9.7139 -86.9568 2010-06-24T15:46:18.00Z 176.0 12.7128 34.8371 8.2 4.6538 0.008 795.9 0.0028
29 4 9.7139 -86.9568 2010-06-24T15:46:18.00Z 177.0 12.7083 34.8414 8.1 4.6503 0.008 796.8 0.00253
29 4 9.7139 -86.9568 2010-06-24T15:46:18.00Z 178.0 12.7032 34.8409 8.1 4.6476 0.008 797.6 0.00227
29 4 9.7139 -86.9568 2010-06-24T15:46:18.00Z 179.0 12.6883 34.8385 8.2 4.6472 0.008 798.5 0.0024
29 4 9.7139 -86.9568 2010-06-24T15:46:18.00Z 180.0 12.6495 34.8338 8.4 4.6498 0.008 799.4 0.00226
29 4 9.7139 -86.9568 2010-06-24T15:46:18.00Z 181.0 12.6259 34.8309 8.5 4.653 0.008 800.5 0.00195
29 4 9.7139 -86.9568 2010-06-24T15:46:18.00Z 182.0 12.6114 34.8291 8.3 4.6528 0.008 801.6 0.0019
29 4 9.7139 -86.9568 2010-06-24T15:46:18.00Z 183.0 12.5845 34.827 8.1 4.6566 0.008 802.6 0.002
29 4 9.7139 -86.9568 2010-06-24T15:46:18.00Z 184.0 12.5669 34.8274 8.0 4.6585 0.008 803.5 0.00173
29 4 9.7139 -86.9568 2010-06-24T15:46:18.00Z 185.0 12.5553 34.829 7.9 4.6559 0.008 804.4 0.00174
29 4 9.7139 -86.9568 2010-06-24T15:46:18.00Z 186.0 12.5382 34.8282 7.8 4.6566 0.008 805.4 0.00174
29 4 9.7139 -86.9568 2010-06-24T15:46:18.00Z 187.0 12.5143 34.8273 8.1 4.6559 0.008 806.5 0.00174
29 4 9.7139 -86.9568 2010-06-24T15:46:18.00Z 188.0 12.4957 34.8271 8.6 4.6547 0.008 807.8 0.00174
29 4 9.7139 -86.9568 2010-06-24T15:46:18.00Z 189.0 12.4869 34.8263 9.4 4.6545 0.008 808.8 0.00174
29 4 9.7139 -86.9568 2010-06-24T15:46:18.00Z 190.0 12.4671 34.8241 10.3 4.6535 0.008 809.5 0.00171
29 4 9.7139 -86.9568 2010-06-24T15:46:18.00Z 191.0 12.4507 34.8229 11.1 4.6535 0.008 810.2 0.0018
29 4 9.7139 -86.9568 2010-06-24T15:46:18.00Z 192.0 12.4325 34.8214 11.6 4.6535 0.008 811.0 0.00174
29 4 9.7139 -86.9568 2010-06-24T15:46:18.00Z 193.0 12.416 34.8201 11.8 4.6534 0.008 811.8 0.00174
29 4 9.7139 -86.9568 2010-06-24T15:46:18.00Z 194.0 12.3999 34.8195 11.7 4.6548 0.008 812.8 0.00165
29 4 9.7139 -86.9568 2010-06-24T15:46:18.00Z 195.0 12.3836 34.8183 11.6 4.6547 0.008 814.4 0.00164
29 4 9.7139 -86.9568 2010-06-24T15:46:18.00Z 196.0 12.376 34.8185 11.7 4.6543 0.008 815.9 0.00168
29 4 9.7139 -86.9568 2010-06-24T15:46:18.00Z 197.0 12.3505 34.8173 11.8 4.6539 0.008 816.8 0.0015
29 4 9.7139 -86.9568 2010-06-24T15:46:18.00Z 198.0 12.3453 34.8195 12.0 4.6534 0.008 817.4 0.00107
29 4 9.7139 -86.9568 2010-06-24T15:46:18.00Z 199.0 12.343 34.8199 12.0 4.653 0.008 818.0 0.00115
29 4 9.7139 -86.9568 2010-06-24T15:46:18.00Z 200.0 12.3368 34.8191 12.3 4.6526 0.008 818.8 0.00114
29 4 9.7139 -86.9568 2010-06-24T15:46:18.00Z 201.0 12.3267 34.8185 13.4 4.6532 0.008 819.8 8.82E-4
29 4 9.7139 -86.9568 2010-06-24T15:46:18.00Z 202.0 12.3082 34.8178 14.6 4.6528 0.008 821.0 5.39E-4
29 4 9.7139 -86.9568 2010-06-24T15:46:18.00Z 203.0 12.2826 34.8163 15.3 4.6521 0.008 822.1 2.58E-4
29 4 9.7139 -86.9568 2010-06-24T15:46:18.00Z 204.0 12.2652 34.8147 15.9 4.6528 0.008 823.0 2.0E-4
29 4 9.7139 -86.9568 2010-06-24T15:46:18.00Z 205.0 12.2598 34.8145 16.2 4.6523 0.008 823.8 2.81E-4
29 4 9.7139 -86.9568 2010-06-24T15:46:18.00Z 206.0 12.2546 34.8142 16.6 4.6528 0.008 824.8 3.54E-4
29 4 9.7139 -86.9568 2010-06-24T15:46:18.00Z 207.0 12.2458 34.8136 17.0 4.6527 0.008 826.0 2.06E-4
29 4 9.7139 -86.9568 2010-06-24T15:46:18.00Z 208.0 12.2396 34.8133 17.3 4.6523 0.008 827.1 2.03E-4
29 4 9.7139 -86.9568 2010-06-24T15:46:18.00Z 209.0 12.2341 34.813 17.4 4.6522 0.008 828.0 2.03E-4
29 4 9.7139 -86.9568 2010-06-24T15:46:18.00Z 210.0 12.2235 34.812 17.5 4.6523 0.008 828.8 1.95E-4
29 4 9.7139 -86.9568 2010-06-24T15:46:18.00Z 211.0 12.2007 34.81 17.7 4.6519 0.008 829.6 1.95E-4
29 4 9.7139 -86.9568 2010-06-24T15:46:18.00Z 212.0 12.1802 34.8079 17.8 4.6525 0.008 830.5 2.03E-4
29 4 9.7139 -86.9568 2010-06-24T15:46:18.00Z 213.0 12.1597 34.8062 17.9 4.6524 0.008 831.5 2.03E-4
29 4 9.7139 -86.9568 2010-06-24T15:46:18.00Z 214.0 12.1434 34.8051 18.0 4.6526 0.008 832.6 1.95E-4
29 4 9.7139 -86.9568 2010-06-24T15:46:18.00Z 215.0 12.1216 34.8035 18.1 4.6532 0.008 833.8 1.58E-4
29 4 9.7139 -86.9568 2010-06-24T15:46:18.00Z 216.0 12.1002 34.8018 17.9 4.6539 0.008 834.9 1.93E-4
29 4 9.7139 -86.9568 2010-06-24T15:46:18.00Z 217.0 12.0796 34.8003 17.5 4.6517 0.008 835.9 1.58E-4
29 4 9.7139 -86.9568 2010-06-24T15:46:18.00Z 218.0 12.0735 34.8003 16.5 4.6519 0.008 836.9 1.8E-4
29 4 9.7139 -86.9568 2010-06-24T15:46:18.00Z 219.0 12.0624 34.7999 15.6 4.6536 0.008 837.9 1.7E-4
29 4 9.7139 -86.9568 2010-06-24T15:46:18.00Z 220.0 12.0429 34.7983 15.2 4.6538 0.008 838.8 1.63E-4
29 4 9.7139 -86.9568 2010-06-24T15:46:18.00Z 221.0 12.0144 34.7949 15.5 4.6544 0.008 839.6 1.39E-4
29 4 9.7139 -86.9568 2010-06-24T15:46:18.00Z 222.0 11.9954 34.7933 15.7 4.6504 0.008 840.5 1.06E-4
29 4 9.7139 -86.9568 2010-06-24T15:46:18.00Z 223.0 11.9865 34.7928 15.3 4.6549 0.008 841.2 1.39E-4
29 4 9.7139 -86.9568 2010-06-24T15:46:18.00Z 224.0 11.9817 34.793 14.1 4.6553 0.008 842.1 1.24E-4
29 4 9.7139 -86.9568 2010-06-24T15:46:18.00Z 225.0 11.974 34.7921 12.6 4.6529 0.008 843.4 8.41E-5
29 4 9.7139 -86.9568 2010-06-24T15:46:18.00Z 226.0 11.9537 34.7911 12.0 4.6552 0.008 844.6 6.42E-5
29 4 9.7139 -86.9568 2010-06-24T15:46:18.00Z 227.0 11.9261 34.7894 11.6 4.6547 0.008 845.5 5.1E-5
29 4 9.7139 -86.9568 2010-06-24T15:46:18.00Z 228.0 11.8919 34.787 11.4 4.6563 0.009 846.2 8.42E-6
29 4 9.7139 -86.9568 2010-06-24T15:46:18.00Z 229.0 11.8771 34.7863 11.2 4.6492 0.008 847.0 8.82E-6
29 4 9.7139 -86.9568 2010-06-24T15:46:18.00Z 230.0 11.868 34.7857 10.8 4.6567 0.008 847.9 -7.33E-8
29 4 9.7139 -86.9568 2010-06-24T15:46:18.00Z 231.0 11.8548 34.7848 10.3 4.6573 0.008 849.0 3.55E-5
29 4 9.7139 -86.9568 2010-06-24T15:46:18.00Z 232.0 11.8343 34.7836 9.8 4.6568 0.008 850.4 3.61E-7
29 4 9.7139 -86.9568 2010-06-24T15:46:18.00Z 233.0 11.8175 34.783 9.3 4.6565 0.008 851.6 1.0E-12
29 4 9.7139 -86.9568 2010-06-24T15:46:18.00Z 234.0 11.8143 34.7828 9.0 4.6565 0.008 852.5 1.29E-5
29 4 9.7139 -86.9568 2010-06-24T15:46:18.00Z 235.0 11.8029 34.7821 8.9 4.6563 0.008 853.2 -1.68E-7
29 4 9.7139 -86.9568 2010-06-24T15:46:18.00Z 236.0 11.7897 34.7813 9.0 4.6572 0.008 854.0 1.0E-12
29 4 9.7139 -86.9568 2010-06-24T15:46:18.00Z 237.0 11.779 34.7808 9.1 4.656 0.008 854.8 1.0E-12
29 4 9.7139 -86.9568 2010-06-24T15:46:18.00Z 238.0 11.7692 34.7803 9.0 4.6575 0.008 855.5 1.0E-12
29 4 9.7139 -86.9568 2010-06-24T15:46:18.00Z 239.0 11.7587 34.7796 8.6 4.6576 0.008 856.6 1.0E-12
29 4 9.7139 -86.9568 2010-06-24T15:46:18.00Z 240.0 11.743 34.7787 8.3 4.6577 0.008 858.1 1.0E-12
29 4 9.7139 -86.9568 2010-06-24T15:46:18.00Z 241.0 11.723 34.7776 8.2 4.6582 0.008 859.4 1.0E-12
29 4 9.7139 -86.9568 2010-06-24T15:46:18.00Z 242.0 11.7028 34.7767 8.1 4.659 0.008 860.4 1.0E-12
29 4 9.7139 -86.9568 2010-06-24T15:46:18.00Z 243.0 11.6841 34.7759 7.9 4.6583 0.008 861.2 1.0E-12
29 4 9.7139 -86.9568 2010-06-24T15:46:18.00Z 244.0 11.6707 34.7754 7.7 4.6587 0.009 862.0 1.0E-12
29 4 9.7139 -86.9568 2010-06-24T15:46:18.00Z 245.0 11.6521 34.7743 7.6 4.6587 0.008 862.8 1.0E-12
29 4 9.7139 -86.9568 2010-06-24T15:46:18.00Z 246.0 11.6295 34.7735 7.5 4.6589 0.008 863.5 1.0E-12
29 4 9.7139 -86.9568 2010-06-24T15:46:18.00Z 247.0 11.6161 34.7729 7.4 4.6591 0.009 864.4 1.0E-12
29 4 9.7139 -86.9568 2010-06-24T15:46:18.00Z 248.0 11.606 34.7724 7.4 4.6582 0.008 865.4 1.0E-12
29 4 9.7139 -86.9568 2010-06-24T15:46:18.00Z 249.0 11.6034 34.7737 7.5 4.6575 0.008 866.4 1.0E-12
29 4 9.7139 -86.9568 2010-06-24T15:46:18.00Z 250.0 11.5987 34.7749 7.9 4.6563 0.008 867.6 1.0E-12
29 4 9.7139 -86.9568 2010-06-24T15:46:18.00Z 251.0 11.5813 34.7744 9.1 4.6561 0.008 869.1 1.0E-12
29 4 9.7139 -86.9568 2010-06-24T15:46:18.00Z 252.0 11.5687 34.774 10.3 4.6562 0.008 870.4 1.0E-12
29 4 9.7139 -86.9568 2010-06-24T15:46:18.00Z 253.0 11.5572 34.775 10.8 4.6553 0.008 871.4 1.0E-12
29 4 9.7139 -86.9568 2010-06-24T15:46:18.00Z 254.0 11.5408 34.7739 11.3 4.6556 0.008 872.2 1.0E-12
29 4 9.7139 -86.9568 2010-06-24T15:46:18.00Z 255.0 11.5313 34.7735 11.7 4.6552 0.009 872.9 1.0E-12
29 4 9.7139 -86.9568 2010-06-24T15:46:18.00Z 256.0 11.5171 34.7715 12.1 4.6545 0.008 873.5 1.0E-12
29 4 9.7139 -86.9568 2010-06-24T15:46:18.00Z 257.0 11.4979 34.7702 12.6 4.6549 0.008 874.2 1.0E-12
29 4 9.7139 -86.9568 2010-06-24T15:46:18.00Z 258.0 11.4929 34.771 13.0 4.6555 0.008 875.0 1.0E-12
29 4 9.7139 -86.9568 2010-06-24T15:46:18.00Z 259.0 11.483 34.7706 13.1 4.6551 0.008 876.1 1.0E-12
29 4 9.7139 -86.9568 2010-06-24T15:46:18.00Z 260.0 11.4752 34.7702 13.7 4.6554 0.008 877.4 1.0E-12
29 4 9.7139 -86.9568 2010-06-24T15:46:18.00Z 261.0 11.4682 34.7699 14.3 4.6556 0.008 878.4 1.0E-12
29 4 9.7139 -86.9568 2010-06-24T15:46:18.00Z 262.0 11.4564 34.7691 14.8 4.6555 0.008 879.4 1.0E-12
29 4 9.7139 -86.9568 2010-06-24T15:46:18.00Z 263.0 11.4422 34.7682 15.3 4.6553 0.008 880.5 1.0E-12
29 4 9.7139 -86.9568 2010-06-24T15:46:18.00Z 264.0 11.4307 34.767 15.5 4.6545 0.008 881.8 1.0E-12
29 4 9.7139 -86.9568 2010-06-24T15:46:18.00Z 265.0 11.4168 34.7659 15.5 4.6551 0.008 882.9 1.0E-12
29 4 9.7139 -86.9568 2010-06-24T15:46:18.00Z 266.0 11.3976 34.7647 15.4 4.6547 0.008 883.8 1.0E-12
29 4 9.7139 -86.9568 2010-06-24T15:46:18.00Z 267.0 11.3905 34.7641 15.2 4.6537 0.009 884.5 1.0E-12
29 4 9.7139 -86.9568 2010-06-24T15:46:18.00Z 268.0 11.3857 34.7636 14.9 4.6555 0.008 885.2 1.0E-12
29 4 9.7139 -86.9568 2010-06-24T15:46:18.00Z 269.0 11.385 34.7634 14.6 4.6538 0.008 886.0 1.0E-12
29 4 9.7139 -86.9568 2010-06-24T15:46:18.00Z 270.0 11.3835 34.7632 14.1 4.6556 0.008 886.9 1.0E-12
29 4 9.7139 -86.9568 2010-06-24T15:46:18.00Z 271.0 11.3814 34.7629 13.6 4.6552 0.008 887.9 1.0E-12
29 4 9.7139 -86.9568 2010-06-24T15:46:18.00Z 272.0 11.3735 34.7623 13.2 4.6549 0.008 889.0 1.0E-12
29 4 9.7139 -86.9568 2010-06-24T15:46:18.00Z 273.0 11.3582 34.7611 12.9 4.6555 0.008 890.1 1.0E-12
29 4 9.7139 -86.9568 2010-06-24T15:46:18.00Z 274.0 11.3405 34.76 12.7 4.655 0.008 891.0 1.0E-12
29 4 9.7139 -86.9568 2010-06-24T15:46:18.00Z 275.0 11.3255 34.7589 12.3 4.6552 0.008 891.9 1.0E-12
29 4 9.7139 -86.9568 2010-06-24T15:46:18.00Z 276.0 11.3069 34.7575 11.7 4.6556 0.008 893.0 1.0E-12
29 4 9.7139 -86.9568 2010-06-24T15:46:18.00Z 277.0 11.299 34.7568 11.0 4.6546 0.008 894.4 1.0E-12
29 4 9.7139 -86.9568 2010-06-24T15:46:18.00Z 278.0 11.2896 34.7562 10.6 4.6559 0.008 895.6 1.0E-12
29 4 9.7139 -86.9568 2010-06-24T15:46:18.00Z 279.0 11.2775 34.7554 10.3 4.6558 0.009 896.5 1.0E-12
29 4 9.7139 -86.9568 2010-06-24T15:46:18.00Z 280.0 11.2699 34.7548 10.1 4.6559 0.009 897.2 1.0E-12
29 4 9.7139 -86.9568 2010-06-24T15:46:18.00Z 281.0 11.2623 34.7541 9.9 4.655 0.008 898.0 1.0E-12
29 4 9.7139 -86.9568 2010-06-24T15:46:18.00Z 282.0 11.2537 34.7535 9.8 4.6562 0.008 898.8 1.0E-12
29 4 9.7139 -86.9568 2010-06-24T15:46:18.00Z 283.0 11.2468 34.7529 9.5 4.656 0.008 899.6 1.0E-12
29 4 9.7139 -86.9568 2010-06-24T15:46:18.00Z 284.0 11.2304 34.7511 9.3 4.6568 0.008 900.6 1.0E-12
29 4 9.7139 -86.9568 2010-06-24T15:46:18.00Z 285.0 11.2058 34.7491 9.1 4.6562 0.009 901.5 1.0E-12
29 4 9.7139 -86.9568 2010-06-24T15:46:18.00Z 286.0 11.1803 34.7468 8.8 4.6541 0.009 902.4 1.0E-12
29 4 9.7139 -86.9568 2010-06-24T15:46:18.00Z 287.0 11.1583 34.7454 8.4 4.653 0.009 903.4 1.0E-12
29 4 9.7139 -86.9568 2010-06-24T15:46:18.00Z 288.0 11.1375 34.7439 7.7 4.6564 0.009 904.6 1.0E-12
29 4 9.7139 -86.9568 2010-06-24T15:46:18.00Z 289.0 11.1174 34.7432 7.1 4.6572 0.009 905.9 1.0E-12
29 4 9.7139 -86.9568 2010-06-24T15:46:18.00Z 290.0 11.1052 34.7437 6.8 4.657 0.009 906.9 1.0E-12
29 4 9.7139 -86.9568 2010-06-24T15:46:18.00Z 291.0 11.0989 34.7444 6.5 4.6524 0.009 907.8 1.0E-12
29 4 9.7139 -86.9568 2010-06-24T15:46:18.00Z 292.0 11.0918 34.744 6.4 4.6544 0.009 908.8 1.0E-12
29 4 9.7139 -86.9568 2010-06-24T15:46:18.00Z 293.0 11.0831 34.7437 6.2 4.6539 0.009 910.0 1.0E-12
29 4 9.7139 -86.9568 2010-06-24T15:46:18.00Z 294.0 11.0733 34.7431 6.2 4.6534 0.009 911.1 1.0E-12
29 4 9.7139 -86.9568 2010-06-24T15:46:18.00Z 295.0 11.0581 34.7422 6.1 4.6533 0.008 912.0 1.0E-12
29 4 9.7139 -86.9568 2010-06-24T15:46:18.00Z 296.0 11.0405 34.7409 6.0 4.653 0.009 912.8 1.0E-12
29 4 9.7139 -86.9568 2010-06-24T15:46:18.00Z 297.0 11.0265 34.7402 5.9 4.6532 0.009 913.5 1.0E-12
29 4 9.7139 -86.9568 2010-06-24T15:46:18.00Z 298.0 11.0223 34.7399 5.9 4.6542 0.009 914.2 1.0E-12
29 4 9.7139 -86.9568 2010-06-24T15:46:18.00Z 299.0 11.0165 34.7393 5.9 4.6534 0.008 915.0 1.0E-12
29 4 9.7139 -86.9568 2010-06-24T15:46:18.00Z 300.0 11.0089 34.7389 5.9 4.6536 0.009 915.8 1.0E-12
29 4 9.7139 -86.9568 2010-06-24T15:46:18.00Z 301.0 11.0021 34.7385 5.8 4.6531 0.009 916.8 1.0E-12
29 4 9.7139 -86.9568 2010-06-24T15:46:18.00Z 302.0 10.9899 34.7378 5.8 4.6527 0.009 918.4 1.0E-12
29 4 9.7139 -86.9568 2010-06-24T15:46:18.00Z 303.0 10.9744 34.737 5.7 4.6528 0.009 920.0 1.0E-12
29 4 9.7139 -86.9568 2010-06-24T15:46:18.00Z 304.0 10.9587 34.7363 5.6 4.6526 0.008 921.0 1.0E-12
29 4 9.7139 -86.9568 2010-06-24T15:46:18.00Z 305.0 10.9443 34.7354 5.6 4.6519 0.008 921.8 1.0E-12
29 4 9.7139 -86.9568 2010-06-24T15:46:18.00Z 306.0 10.9273 34.7346 5.6 4.6515 0.009 922.5 1.0E-12
29 4 9.7139 -86.9568 2010-06-24T15:46:18.00Z 307.0 10.8886 34.7321 5.6 4.65 0.009 923.2 1.0E-12
29 4 9.7139 -86.9568 2010-06-24T15:46:18.00Z 308.0 10.8686 34.7311 5.6 4.6496 0.009 924.0 1.0E-12
29 4 9.7139 -86.9568 2010-06-24T15:46:18.00Z 309.0 10.8515 34.7301 5.6 4.6496 0.009 924.8 1.0E-12
29 4 9.7139 -86.9568 2010-06-24T15:46:18.00Z 310.0 10.8336 34.7289 5.6 4.6466 0.009 925.8 1.0E-12
29 4 9.7139 -86.9568 2010-06-24T15:46:18.00Z 311.0 10.8107 34.7275 5.6 4.6481 0.009 927.2 1.0E-12
29 4 9.7139 -86.9568 2010-06-24T15:46:18.00Z 312.0 10.8011 34.7273 5.5 4.6485 0.009 928.6 1.0E-12
29 4 9.7139 -86.9568 2010-06-24T15:46:18.00Z 313.0 10.7886 34.7266 5.5 4.6481 0.009 929.5 1.0E-12
29 4 9.7139 -86.9568 2010-06-24T15:46:18.00Z 314.0 10.7569 34.725 5.5 4.6471 0.009 930.2 1.0E-12
29 4 9.7139 -86.9568 2010-06-24T15:46:18.00Z 315.0 10.7368 34.7245 5.5 4.6465 0.009 930.9 1.0E-12
29 4 9.7139 -86.9568 2010-06-24T15:46:18.00Z 316.0 10.7228 34.7234 5.5 4.6466 0.009 931.6 1.0E-12
29 4 9.7139 -86.9568 2010-06-24T15:46:18.00Z 317.0 10.7037 34.7223 5.5 4.6463 0.009 933.0 1.0E-12
29 4 9.7139 -86.9568 2010-06-24T15:46:18.00Z 318.0 10.6837 34.721 5.5 4.6459 0.009 934.4 1.0E-12
29 4 9.7139 -86.9568 2010-06-24T15:46:18.00Z 319.0 10.6512 34.7194 5.5 4.6448 0.009 935.4 1.0E-12
29 4 9.7139 -86.9568 2010-06-24T15:46:18.00Z 320.0 10.6347 34.719 5.5 4.6435 0.009 936.2 1.0E-12
29 4 9.7139 -86.9568 2010-06-24T15:46:18.00Z 321.0 10.629 34.7185 5.4 4.6435 0.009 937.0 1.0E-12
29 4 9.7139 -86.9568 2010-06-24T15:46:18.00Z 322.0 10.6199 34.7182 5.3 4.6433 0.009 937.8 1.0E-12
29 4 9.7139 -86.9568 2010-06-24T15:46:18.00Z 323.0 10.6019 34.7171 5.4 4.642 0.009 938.5 1.0E-12
29 4 9.7139 -86.9568 2010-06-24T15:46:18.00Z 324.0 10.5782 34.7158 5.4 4.6422 0.009 939.5 1.0E-12
29 4 9.7139 -86.9568 2010-06-24T15:46:18.00Z 325.0 10.5495 34.714 5.4 4.6414 0.009 940.6 1.0E-12
29 4 9.7139 -86.9568 2010-06-24T15:46:18.00Z 326.0 10.5225 34.713 5.4 4.6397 0.009 941.6 1.0E-12
29 4 9.7139 -86.9568 2010-06-24T15:46:18.00Z 327.0 10.5037 34.7127 5.4 4.6387 0.009 942.6 1.0E-12
29 4 9.7139 -86.9568 2010-06-24T15:46:18.00Z 328.0 10.4702 34.7112 5.4 4.6382 0.009 943.6 1.0E-12
29 4 9.7139 -86.9568 2010-06-24T15:46:18.00Z 329.0 10.457 34.7107 5.4 4.6366 0.009 944.6 1.0E-12
29 4 9.7139 -86.9568 2010-06-24T15:46:18.00Z 330.0 10.4465 34.7101 5.4 4.6375 0.009 945.8 1.0E-12
29 4 9.7139 -86.9568 2010-06-24T15:46:18.00Z 331.0 10.4372 34.7096 5.4 4.6368 0.009 947.0 1.0E-12
29 4 9.7139 -86.9568 2010-06-24T15:46:18.00Z 332.0 10.4313 34.7093 5.4 4.6373 0.009 948.0 1.0E-12
29 4 9.7139 -86.9568 2010-06-24T15:46:18.00Z 333.0 10.4281 34.7094 5.4 4.6375 0.009 948.9 1.0E-12
29 4 9.7139 -86.9568 2010-06-24T15:46:18.00Z 334.0 10.4228 34.7091 5.4 4.6365 0.009 949.8 1.0E-12
29 4 9.7139 -86.9568 2010-06-24T15:46:18.00Z 335.0 10.4112 34.7082 5.4 4.6366 0.009 950.6 1.0E-12
29 4 9.7139 -86.9568 2010-06-24T15:46:18.00Z 336.0 10.3805 34.7066 5.4 4.637 0.009 951.6 1.0E-12
29 4 9.7139 -86.9568 2010-06-24T15:46:18.00Z 337.0 10.358 34.7053 5.3 4.6364 0.009 952.5 1.0E-12
29 4 9.7139 -86.9568 2010-06-24T15:46:18.00Z 338.0 10.3341 34.7044 5.3 4.6349 0.009 953.2 1.0E-12
29 4 9.7139 -86.9568 2010-06-24T15:46:18.00Z 339.0 10.3115 34.7031 5.3 4.633 0.009 953.9 1.0E-12
29 4 9.7139 -86.9568 2010-06-24T15:46:18.00Z 340.0 10.2927 34.7022 5.3 4.6353 0.009 954.6 1.0E-12
29 4 9.7139 -86.9568 2010-06-24T15:46:18.00Z 341.0 10.2801 34.7017 5.3 4.6369 0.009 956.2 1.0E-12
29 4 9.7139 -86.9568 2010-06-24T15:46:18.00Z 342.0 10.267 34.7009 5.2 4.6368 0.009 958.0 1.0E-12
29 4 9.7139 -86.9568 2010-06-24T15:46:18.00Z 343.0 10.2461 34.6994 5.3 4.6355 0.009 959.1 1.0E-12
29 4 9.7139 -86.9568 2010-06-24T15:46:18.00Z 344.0 10.226 34.6989 5.2 4.6361 0.009 960.0 1.0E-12
29 4 9.7139 -86.9568 2010-06-24T15:46:18.00Z 345.0 10.223 34.6987 5.2 4.6356 0.009 960.8 1.0E-12
29 4 9.7139 -86.9568 2010-06-24T15:46:18.00Z 346.0 10.2111 34.6982 5.2 4.635 0.009 961.6 1.0E-12
29 4 9.7139 -86.9568 2010-06-24T15:46:18.00Z 347.0 10.1958 34.6977 5.3 4.6349 0.009 962.5 1.0E-12
29 4 9.7139 -86.9568 2010-06-24T15:46:18.00Z 348.0 10.1916 34.6973 5.3 4.635 0.009 963.4 1.0E-12
29 4 9.7139 -86.9568 2010-06-24T15:46:18.00Z 349.0 10.1862 34.6975 5.3 4.6357 0.009 964.2 1.0E-12
29 4 9.7139 -86.9568 2010-06-24T15:46:18.00Z 350.0 10.1818 34.6971 5.3 4.6358 0.009 965.0 1.0E-12
29 4 9.7139 -86.9568 2010-06-24T15:46:18.00Z 351.0 10.1683 34.6968 5.3 4.6353 0.009 965.8 1.0E-12
29 4 9.7139 -86.9568 2010-06-24T15:46:18.00Z 352.0 10.1567 34.6963 5.3 4.6368 0.009 966.6 1.0E-12
29 4 9.7139 -86.9568 2010-06-24T15:46:18.00Z 353.0 10.1475 34.696 5.3 4.6362 0.009 967.5 1.0E-12
29 4 9.7139 -86.9568 2010-06-24T15:46:18.00Z 354.0 10.1404 34.6957 5.3 4.6372 0.009 968.4 1.0E-12
29 4 9.7139 -86.9568 2010-06-24T15:46:18.00Z 355.0 10.1305 34.6951 5.3 4.6378 0.009 970.1 1.0E-12
29 4 9.7139 -86.9568 2010-06-24T15:46:18.00Z 356.0 10.1149 34.6942 5.3 4.6385 0.009 972.0 1.0E-12
29 4 9.7139 -86.9568 2010-06-24T15:46:18.00Z 357.0 10.1015 34.6936 5.3 4.638 0.009 973.0 1.0E-12
29 4 9.7139 -86.9568 2010-06-24T15:46:18.00Z 358.0 10.0911 34.6932 5.2 4.6376 0.009 973.8 1.0E-12
29 4 9.7139 -86.9568 2010-06-24T15:46:18.00Z 359.0 10.0787 34.6925 5.2 4.6374 0.009 974.4 1.0E-12
29 4 9.7139 -86.9568 2010-06-24T15:46:18.00Z 360.0 10.0596 34.6915 5.3 4.6373 0.009 975.0 1.0E-12
29 4 9.7139 -86.9568 2010-06-24T15:46:18.00Z 361.0 10.0259 34.6897 5.3 4.6376 0.009 975.9 1.0E-12
29 4 9.7139 -86.9568 2010-06-24T15:46:18.00Z 362.0 10.0052 34.6886 5.2 4.6374 0.009 976.9 1.0E-12
29 4 9.7139 -86.9568 2010-06-24T15:46:18.00Z 363.0 9.997 34.6881 5.2 4.637 0.01 977.9 1.0E-12
29 4 9.7139 -86.9568 2010-06-24T15:46:18.00Z 364.0 9.9881 34.6878 5.2 4.6378 0.009 978.9 1.0E-12
29 4 9.7139 -86.9568 2010-06-24T15:46:18.00Z 365.0 9.9798 34.6878 5.1 4.6376 0.009 979.8 1.0E-12
29 4 9.7139 -86.9568 2010-06-24T15:46:18.00Z 366.0 9.968 34.6874 5.2 4.6376 0.009 980.5 1.0E-12
29 4 9.7139 -86.9568 2010-06-24T15:46:18.00Z 367.0 9.9485 34.6865 5.1 4.6374 0.009 981.2 1.0E-12
29 4 9.7139 -86.9568 2010-06-24T15:46:18.00Z 368.0 9.934 34.6858 5.1 4.6368 0.009 982.2 1.0E-12
29 4 9.7139 -86.9568 2010-06-24T15:46:18.00Z 369.0 9.9257 34.6856 5.1 4.6345 0.009 983.9 1.0E-12
29 4 9.7139 -86.9568 2010-06-24T15:46:18.00Z 370.0 9.9188 34.6853 5.1 4.6374 0.009 985.5 1.0E-12
29 4 9.7139 -86.9568 2010-06-24T15:46:18.00Z 371.0 9.892 34.6834 5.1 4.6374 0.009 986.6 1.0E-12
29 4 9.7139 -86.9568 2010-06-24T15:46:18.00Z 372.0 9.8589 34.6824 5.1 4.6374 0.01 987.4 1.0E-12
29 4 9.7139 -86.9568 2010-06-24T15:46:18.00Z 373.0 9.8498 34.6823 5.1 4.638 0.009 988.0 1.0E-12
29 4 9.7139 -86.9568 2010-06-24T15:46:18.00Z 374.0 9.8434 34.6819 5.1 4.6377 0.009 988.6 1.0E-12
29 4 9.7139 -86.9568 2010-06-24T15:46:18.00Z 375.0 9.8283 34.6811 5.1 4.6385 0.009 989.2 1.0E-12
29 4 9.7139 -86.9568 2010-06-24T15:46:18.00Z 376.0 9.8003 34.6799 5.1 4.6394 0.009 990.1 1.0E-12
29 4 9.7139 -86.9568 2010-06-24T15:46:18.00Z 377.0 9.7843 34.679 5.2 4.6398 0.009 991.1 1.0E-12
29 4 9.7139 -86.9568 2010-06-24T15:46:18.00Z 378.0 9.772 34.6781 5.2 4.639 0.009 992.1 1.0E-12
29 4 9.7139 -86.9568 2010-06-24T15:46:18.00Z 379.0 9.7594 34.6775 5.2 4.6396 0.009 993.4 1.0E-12
29 4 9.7139 -86.9568 2010-06-24T15:46:18.00Z 380.0 9.7468 34.6767 5.2 4.6399 0.009 994.9 1.0E-12
29 4 9.7139 -86.9568 2010-06-24T15:46:18.00Z 381.0 9.7368 34.6762 5.2 4.6406 0.009 996.2 1.0E-12
29 4 9.7139 -86.9568 2010-06-24T15:46:18.00Z 382.0 9.7164 34.6749 5.2 4.6403 0.009 997.2 1.0E-12
29 4 9.7139 -86.9568 2010-06-24T15:46:18.00Z 383.0 9.6894 34.6735 5.1 4.642 0.009 998.0 1.0E-12
29 4 9.7139 -86.9568 2010-06-24T15:46:18.00Z 384.0 9.6632 34.6721 5.2 4.6431 0.009 998.6 1.0E-12
29 4 9.7139 -86.9568 2010-06-24T15:46:18.00Z 385.0 9.6409 34.6707 5.2 4.6433 0.009 999.2 1.0E-12
29 4 9.7139 -86.9568 2010-06-24T15:46:18.00Z 386.0 9.618 34.669 5.2 4.6436 0.009 1000.1 1.0E-12
29 4 9.7139 -86.9568 2010-06-24T15:46:18.00Z 387.0 9.5967 34.6672 5.2 4.6434 0.009 1001.2 1.0E-12
29 4 9.7139 -86.9568 2010-06-24T15:46:18.00Z 388.0 9.5896 34.6667 5.2 4.6435 0.009 1002.5 1.0E-12
29 4 9.7139 -86.9568 2010-06-24T15:46:18.00Z 389.0 9.5783 34.6662 5.2 4.6428 0.009 1003.5 1.0E-12
29 4 9.7139 -86.9568 2010-06-24T15:46:18.00Z 390.0 9.5527 34.6653 5.2 4.6431 0.009 1004.2 1.0E-12
29 4 9.7139 -86.9568 2010-06-24T15:46:18.00Z 391.0 9.515 34.6632 5.2 4.6431 0.009 1005.0 1.0E-12
29 4 9.7139 -86.9568 2010-06-24T15:46:18.00Z 392.0 9.4699 34.6614 5.2 4.6414 0.009 1005.9 1.0E-12
29 4 9.7139 -86.9568 2010-06-24T15:46:18.00Z 393.0 9.4473 34.6601 5.1 4.6421 0.009 1007.1 1.0E-12
29 4 9.7139 -86.9568 2010-06-24T15:46:18.00Z 394.0 9.4415 34.6594 5.1 4.6423 0.009 1008.4 1.0E-12
29 4 9.7139 -86.9568 2010-06-24T15:46:18.00Z 395.0 9.4005 34.6574 5.1 4.6422 0.009 1009.4 1.0E-12
29 4 9.7139 -86.9568 2010-06-24T15:46:18.00Z 396.0 9.3682 34.6561 5.2 4.6419 0.009 1010.2 1.0E-12
29 4 9.7139 -86.9568 2010-06-24T15:46:18.00Z 397.0 9.345 34.6549 5.0 4.6414 0.01 1011.0 1.0E-12
29 4 9.7139 -86.9568 2010-06-24T15:46:18.00Z 398.0 9.3263 34.6538 5.1 4.6407 0.009 1011.9 1.0E-12
29 4 9.7139 -86.9568 2010-06-24T15:46:18.00Z 399.0 9.3053 34.6525 5.1 4.6407 0.009 1013.1 1.0E-12
29 4 9.7139 -86.9568 2010-06-24T15:46:18.00Z 400.0 9.2866 34.6514 5.1 4.6403 0.01 1014.5 1.0E-12
29 4 9.7139 -86.9568 2010-06-24T15:46:18.00Z 401.0 9.2542 34.6496 5.1 4.6388 0.009 1015.6 1.0E-12
29 4 9.7139 -86.9568 2010-06-24T15:46:18.00Z 402.0 9.2252 34.6491 5.1 4.6399 0.009 1016.5 1.0E-12
29 4 9.7139 -86.9568 2010-06-24T15:46:18.00Z 403.0 9.2149 34.6485 5.1 4.6392 0.01 1017.1 1.0E-12
29 4 9.7139 -86.9568 2010-06-24T15:46:18.00Z 404.0 9.2012 34.6486 5.1 4.6393 0.01 1017.8 1.0E-12
29 4 9.7139 -86.9568 2010-06-24T15:46:18.00Z 405.0 9.1886 34.6485 5.1 4.6398 0.009 1018.5 1.0E-12
29 4 9.7139 -86.9568 2010-06-24T15:46:18.00Z 406.0 9.1781 34.6482 5.1 4.6398 0.009 1019.2 1.0E-12
29 4 9.7139 -86.9568 2010-06-24T15:46:18.00Z 407.0 9.1543 34.647 5.1 4.6404 0.009 1020.8 1.0E-12
29 4 9.7139 -86.9568 2010-06-24T15:46:18.00Z 408.0 9.1092 34.6452 5.1 4.6402 0.009 1022.5 1.0E-12
29 4 9.7139 -86.9568 2010-06-24T15:46:18.00Z 409.0 9.0909 34.645 5.1 4.6399 0.009 1023.5 1.0E-12
29 4 9.7139 -86.9568 2010-06-24T15:46:18.00Z 410.0 9.0836 34.6451 5.1 4.64 0.01 1024.4 1.0E-12
29 4 9.7139 -86.9568 2010-06-24T15:46:18.00Z 411.0 9.0784 34.645 5.1 4.6399 0.01 1025.2 1.0E-12
29 4 9.7139 -86.9568 2010-06-24T15:46:18.00Z 412.0 9.0765 34.6449 5.1 4.6399 0.01 1026.0 1.0E-12
29 4 9.7139 -86.9568 2010-06-24T15:46:18.00Z 413.0 9.0734 34.645 5.1 4.6398 0.009 1026.9 1.0E-12
29 4 9.7139 -86.9568 2010-06-24T15:46:18.00Z 414.0 9.0692 34.6451 5.1 4.6392 0.009 1027.8 1.0E-12
29 4 9.7139 -86.9568 2010-06-24T15:46:18.00Z 415.0 9.0586 34.6449 5.1 4.6397 0.01 1028.5 1.0E-12
29 4 9.7139 -86.9568 2010-06-24T15:46:18.00Z 416.0 9.0281 34.6438 5.1 4.6397 0.009 1029.2 1.0E-12
29 4 9.7139 -86.9568 2010-06-24T15:46:18.00Z 417.0 8.9962 34.6427 5.1 4.6396 0.01 1030.2 1.0E-12
29 4 9.7139 -86.9568 2010-06-24T15:46:18.00Z 418.0 8.9791 34.6419 5.1 4.6398 0.009 1031.4 1.0E-12
29 4 9.7139 -86.9568 2010-06-24T15:46:18.00Z 419.0 8.9633 34.6412 5.1 4.6397 0.009 1032.5 1.0E-12
29 4 9.7139 -86.9568 2010-06-24T15:46:18.00Z 420.0 8.9531 34.6406 5.1 4.6397 0.009 1033.9 1.0E-12
29 4 9.7139 -86.9568 2010-06-24T15:46:18.00Z 421.0 8.9461 34.6405 5.1 4.6397 0.01 1035.2 1.0E-12
29 4 9.7139 -86.9568 2010-06-24T15:46:18.00Z 422.0 8.9398 34.6405 5.1 4.6397 0.009 1036.2 1.0E-12
29 4 9.7139 -86.9568 2010-06-24T15:46:18.00Z 423.0 8.9368 34.6404 5.0 4.6398 0.01 1037.1 1.0E-12
29 4 9.7139 -86.9568 2010-06-24T15:46:18.00Z 424.0 8.9335 34.6402 4.9 4.639 0.01 1038.0 1.0E-12
29 4 9.7139 -86.9568 2010-06-24T15:46:18.00Z 425.0 8.9173 34.6393 5.1 4.6393 0.009 1038.9 1.0E-12
29 4 9.7139 -86.9568 2010-06-24T15:46:18.00Z 426.0 8.8922 34.6386 5.1 4.6395 0.009 1039.8 1.0E-12
29 4 9.7139 -86.9568 2010-06-24T15:46:18.00Z 427.0 8.8701 34.6374 5.0 4.6397 0.01 1040.5 1.0E-12
29 4 9.7139 -86.9568 2010-06-24T15:46:18.00Z 428.0 8.854 34.6369 5.0 4.6397 0.009 1041.4 1.0E-12
29 4 9.7139 -86.9568 2010-06-24T15:46:18.00Z 429.0 8.8273 34.6354 5.0 4.6395 0.009 1042.5 1.0E-12
29 4 9.7139 -86.9568 2010-06-24T15:46:18.00Z 430.0 8.7741 34.6333 5.0 4.6394 0.009 1043.8 1.0E-12
29 4 9.7139 -86.9568 2010-06-24T15:46:18.00Z 431.0 8.7648 34.6327 5.0 4.64 0.009 1044.8 1.0E-12
29 4 9.7139 -86.9568 2010-06-24T15:46:18.00Z 432.0 8.7532 34.632 5.0 4.6401 0.009 1045.6 1.0E-12
29 4 9.7139 -86.9568 2010-06-24T15:46:18.00Z 433.0 8.7483 34.6319 5.0 4.6397 0.01 1046.5 1.0E-12
29 4 9.7139 -86.9568 2010-06-24T15:46:18.00Z 434.0 8.7416 34.6315 5.0 4.6397 0.009 1047.4 1.0E-12
29 4 9.7139 -86.9568 2010-06-24T15:46:18.00Z 435.0 8.7302 34.6312 5.0 4.6399 0.01 1048.4 1.0E-12
29 4 9.7139 -86.9568 2010-06-24T15:46:18.00Z 436.0 8.723 34.6309 5.0 4.6399 0.009 1049.2 1.0E-12
29 4 9.7139 -86.9568 2010-06-24T15:46:18.00Z 437.0 8.7155 34.6305 5.0 4.6402 0.01 1050.1 1.0E-12
29 4 9.7139 -86.9568 2010-06-24T15:46:18.00Z 438.0 8.6932 34.6292 5.0 4.6404 0.009 1051.2 1.0E-12
29 4 9.7139 -86.9568 2010-06-24T15:46:18.00Z 439.0 8.6808 34.6284 5.0 4.6398 0.009 1052.4 1.0E-12
29 4 9.7139 -86.9568 2010-06-24T15:46:18.00Z 440.0 8.6499 34.627 5.0 4.6408 0.009 1053.5 1.0E-12
29 4 9.7139 -86.9568 2010-06-24T15:46:18.00Z 441.0 8.6047 34.6254 5.0 4.641 0.009 1054.6 1.0E-12
29 4 9.7139 -86.9568 2010-06-24T15:46:18.00Z 442.0 8.5824 34.6243 5.0 4.641 0.009 1055.8 1.0E-12
29 4 9.7139 -86.9568 2010-06-24T15:46:18.00Z 443.0 8.5712 34.6237 5.0 4.6403 0.009 1056.9 1.0E-12
29 4 9.7139 -86.9568 2010-06-24T15:46:18.00Z 444.0 8.5624 34.6237 5.0 4.6408 0.009 1057.9 1.0E-12
29 4 9.7139 -86.9568 2010-06-24T15:46:18.00Z 445.0 8.5563 34.6234 5.0 4.6411 0.009 1058.6 1.0E-12
29 4 9.7139 -86.9568 2010-06-24T15:46:18.00Z 446.0 8.5423 34.6222 5.0 4.6415 0.009 1059.4 1.0E-12
29 4 9.7139 -86.9568 2010-06-24T15:46:18.00Z 447.0 8.5239 34.6216 5.0 4.6422 0.009 1060.4 1.0E-12
29 4 9.7139 -86.9568 2010-06-24T15:46:18.00Z 448.0 8.5149 34.6209 5.0 4.6428 0.009 1061.4 1.0E-12
29 4 9.7139 -86.9568 2010-06-24T15:46:18.00Z 449.0 8.5056 34.6204 5.0 4.6425 0.009 1062.4 1.0E-12
29 4 9.7139 -86.9568 2010-06-24T15:46:18.00Z 450.0 8.4936 34.6202 5.0 4.6427 0.009 1063.4 1.0E-12
29 4 9.7139 -86.9568 2010-06-24T15:46:18.00Z 451.0 8.4815 34.6199 5.0 4.643 0.01 1064.2 1.0E-12
29 4 9.7139 -86.9568 2010-06-24T15:46:18.00Z 452.0 8.4653 34.6193 5.0 4.6428 0.009 1065.1 1.0E-12
29 4 9.7139 -86.9568 2010-06-24T15:46:18.00Z 453.0 8.4373 34.6182 5.0 4.6437 0.009 1066.4 1.0E-12
29 4 9.7139 -86.9568 2010-06-24T15:46:18.00Z 454.0 8.4244 34.6182 5.0 4.6441 0.01 1067.6 1.0E-12
29 4 9.7139 -86.9568 2010-06-24T15:46:18.00Z 455.0 8.4055 34.6177 5.0 4.6437 0.01 1068.5 1.0E-12
29 4 9.7139 -86.9568 2010-06-24T15:46:18.00Z 456.0 8.3729 34.6172 5.0 4.6446 0.009 1069.2 1.0E-12
29 4 9.7139 -86.9568 2010-06-24T15:46:18.00Z 457.0 8.3565 34.617 5.0 4.6437 0.01 1070.1 1.0E-12
29 4 9.7139 -86.9568 2010-06-24T15:46:18.00Z 458.0 8.3368 34.6167 5.0 4.6444 0.009 1071.5 1.0E-12
29 4 9.7139 -86.9568 2010-06-24T15:46:18.00Z 459.0 8.305 34.6158 5.0 4.6437 0.009 1072.9 1.0E-12
29 4 9.7139 -86.9568 2010-06-24T15:46:18.00Z 460.0 8.2854 34.6157 5.0 4.6443 0.009 1073.8 1.0E-12
29 4 9.7139 -86.9568 2010-06-24T15:46:18.00Z 461.0 8.2802 34.6157 5.0 4.6446 0.009 1074.5 1.0E-12
29 4 9.7139 -86.9568 2010-06-24T15:46:18.00Z 462.0 8.2767 34.6157 5.0 4.6451 0.009 1075.2 1.0E-12
29 4 9.7139 -86.9568 2010-06-24T15:46:18.00Z 463.0 8.2661 34.6154 5.0 4.6446 0.01 1076.1 1.0E-12
29 4 9.7139 -86.9568 2010-06-24T15:46:18.00Z 464.0 8.2382 34.6147 5.0 4.6449 0.009 1077.4 1.0E-12
29 4 9.7139 -86.9568 2010-06-24T15:46:18.00Z 465.0 8.215 34.6144 5.0 4.6438 0.009 1078.6 1.0E-12
29 4 9.7139 -86.9568 2010-06-24T15:46:18.00Z 466.0 8.1993 34.6144 5.0 4.6454 0.009 1079.5 1.0E-12
29 4 9.7139 -86.9568 2010-06-24T15:46:18.00Z 467.0 8.1896 34.6141 5.0 4.6449 0.009 1080.2 1.0E-12
29 4 9.7139 -86.9568 2010-06-24T15:46:18.00Z 468.0 8.1735 34.6135 5.0 4.646 0.01 1081.0 1.0E-12
29 4 9.7139 -86.9568 2010-06-24T15:46:18.00Z 469.0 8.1395 34.6128 5.0 4.6464 0.009 1082.0 1.0E-12
29 4 9.7139 -86.9568 2010-06-24T15:46:18.00Z 470.0 8.1245 34.6123 5.0 4.6462 0.009 1083.4 1.0E-12
29 4 9.7139 -86.9568 2010-06-24T15:46:18.00Z 471.0 8.1125 34.612 4.9 4.6467 0.009 1084.6 1.0E-12
29 4 9.7139 -86.9568 2010-06-24T15:46:18.00Z 472.0 8.1045 34.6118 4.9 4.6471 0.009 1085.5 1.0E-12
29 4 9.7139 -86.9568 2010-06-24T15:46:18.00Z 473.0 8.0935 34.611 4.9 4.6474 0.009 1086.2 1.0E-12
29 4 9.7139 -86.9568 2010-06-24T15:46:18.00Z 474.0 8.0831 34.6109 4.9 4.6473 0.009 1087.0 1.0E-12
29 4 9.7139 -86.9568 2010-06-24T15:46:18.00Z 475.0 8.0675 34.6101 4.9 4.6474 0.009 1087.9 1.0E-12
29 4 9.7139 -86.9568 2010-06-24T15:46:18.00Z 476.0 8.0413 34.6096 4.9 4.6478 0.009 1088.9 1.0E-12
29 4 9.7139 -86.9568 2010-06-24T15:46:18.00Z 477.0 8.0235 34.6093 4.9 4.6487 0.009 1089.9 1.0E-12
29 4 9.7139 -86.9568 2010-06-24T15:46:18.00Z 478.0 8.0072 34.6083 4.9 4.6486 0.009 1091.0 1.0E-12
29 4 9.7139 -86.9568 2010-06-24T15:46:18.00Z 479.0 7.9817 34.6076 4.9 4.6492 0.009 1092.2 1.0E-12
29 4 9.7139 -86.9568 2010-06-24T15:46:18.00Z 480.0 7.9629 34.6069 4.9 4.6493 0.009 1093.4 1.0E-12
29 4 9.7139 -86.9568 2010-06-24T15:46:18.00Z 481.0 7.9399 34.6071 4.9 4.6495 0.009 1094.4 1.0E-12
29 4 9.7139 -86.9568 2010-06-24T15:46:18.00Z 482.0 7.9176 34.6063 4.9 4.649 0.009 1095.2 1.0E-12
29 4 9.7139 -86.9568 2010-06-24T15:46:18.00Z 483.0 7.915 34.6059 4.9 4.6492 0.009 1096.0 1.0E-12
29 4 9.7139 -86.9568 2010-06-24T15:46:18.00Z 484.0 7.8921 34.6053 4.9 4.6494 0.009 1096.9 1.0E-12
29 4 9.7139 -86.9568 2010-06-24T15:46:18.00Z 485.0 7.8824 34.6053 4.9 4.6495 0.009 1098.1 1.0E-12
29 4 9.7139 -86.9568 2010-06-24T15:46:18.00Z 486.0 7.8778 34.6053 4.9 4.6499 0.009 1099.5 1.0E-12
29 4 9.7139 -86.9568 2010-06-24T15:46:18.00Z 487.0 7.8743 34.6054 4.9 4.65 0.009 1100.5 1.0E-12
29 4 9.7139 -86.9568 2010-06-24T15:46:18.00Z 488.0 7.8681 34.6055 4.9 4.6495 0.009 1101.2 1.0E-12
29 4 9.7139 -86.9568 2010-06-24T15:46:18.00Z 489.0 7.8603 34.6054 4.9 4.6493 0.009 1102.0 1.0E-12
29 4 9.7139 -86.9568 2010-06-24T15:46:18.00Z 490.0 7.8531 34.6051 4.9 4.6505 0.009 1102.8 1.0E-12
29 4 9.7139 -86.9568 2010-06-24T15:46:18.00Z 491.0 7.8421 34.6048 4.9 4.6506 0.009 1103.6 1.0E-12
29 4 9.7139 -86.9568 2010-06-24T15:46:18.00Z 492.0 7.8376 34.6045 4.9 4.6497 0.009 1104.6 1.0E-12
29 4 9.7139 -86.9568 2010-06-24T15:46:18.00Z 493.0 7.8342 34.6045 4.9 4.6501 0.009 1105.6 1.0E-12
29 4 9.7139 -86.9568 2010-06-24T15:46:18.00Z 494.0 7.8249 34.6042 4.9 4.6503 0.009 1106.8 1.0E-12
29 4 9.7139 -86.9568 2010-06-24T15:46:18.00Z 495.0 7.8184 34.6036 4.9 4.6492 0.009 1108.4 1.0E-12
29 4 9.7139 -86.9568 2010-06-24T15:46:18.00Z 496.0 7.8139 34.6041 4.9 4.6503 0.009 1109.9 1.0E-12
29 4 9.7139 -86.9568 2010-06-24T15:46:18.00Z 497.0 7.8084 34.6045 4.9 4.6508 0.009 1110.8 1.0E-12
29 4 9.7139 -86.9568 2010-06-24T15:46:18.00Z 498.0 7.7974 34.604 4.9 4.6509 0.009 1111.5 1.0E-12
29 4 9.7139 -86.9568 2010-06-24T15:46:18.00Z 499.0 7.7852 34.6033 4.9 4.6508 0.009 1112.1 1.0E-12
29 4 9.7139 -86.9568 2010-06-24T15:46:18.00Z 500.0 7.7774 34.6031 4.9 4.65 0.009 1112.8 1.0E-12
29 4 9.7139 -86.9568 2010-06-24T15:46:18.00Z 501.0 7.7667 34.6029 4.9 4.6507 0.009 1113.6 1.0E-12
29 4 9.7139 -86.9568 2010-06-24T15:46:18.00Z 502.0 7.7448 34.6022 4.9 4.6513 0.009 1114.8 1.0E-12
29 4 9.7139 -86.9568 2010-06-24T15:46:18.00Z 503.0 7.7244 34.6024 5.0 4.6515 0.009 1115.9 1.0E-12
29 4 9.7139 -86.9568 2010-06-24T15:46:18.00Z 504.0 7.7011 34.6017 5.0 4.6519 0.009 1116.9 1.0E-12
29 4 9.7139 -86.9568 2010-06-24T15:46:18.00Z 505.0 7.6706 34.601 5.0 4.6532 0.009 1117.8 1.0E-12
29 4 9.7139 -86.9568 2010-06-24T15:46:18.00Z 506.0 7.6628 34.6005 4.9 4.6513 0.009 1118.5 1.0E-12
29 4 9.7139 -86.9568 2010-06-24T15:46:18.00Z 507.0 7.6361 34.5993 5.0 4.6521 0.009 1119.4 1.0E-12
29 4 9.7139 -86.9568 2010-06-24T15:46:18.00Z 508.0 7.6197 34.5993 5.0 4.6527 0.009 1120.4 1.0E-12
29 4 9.7139 -86.9568 2010-06-24T15:46:18.00Z 509.0 7.6024 34.5985 5.0 4.6525 0.009 1121.5 1.0E-12
29 4 9.7139 -86.9568 2010-06-24T15:46:18.00Z 510.0 7.5809 34.5976 5.0 4.6536 0.009 1122.8 1.0E-12
29 4 9.7139 -86.9568 2010-06-24T15:46:18.00Z 511.0 7.575 34.5974 5.0 4.6534 0.009 1123.9 1.0E-12
29 4 9.7139 -86.9568 2010-06-24T15:46:18.00Z 512.0 7.562 34.597 5.0 4.6521 0.009 1125.0 1.0E-12
29 4 9.7139 -86.9568 2010-06-24T15:46:18.00Z 513.0 7.5453 34.5964 5.0 4.6489 0.009 1126.1 1.0E-12
29 4 9.7139 -86.9568 2010-06-24T15:46:18.00Z 514.0 7.5339 34.5959 4.9 4.6528 0.009 1127.1 1.0E-12
29 4 9.7139 -86.9568 2010-06-24T15:46:18.00Z 515.0 7.522 34.5959 5.0 4.6527 0.009 1128.0 1.0E-12
29 4 9.7139 -86.9568 2010-06-24T15:46:18.00Z 516.0 7.5185 34.5963 4.9 4.6524 0.009 1128.8 1.0E-12
29 4 9.7139 -86.9568 2010-06-24T15:46:18.00Z 517.0 7.5246 34.599 4.9 4.6551 0.009 1129.5 1.0E-12
29 4 9.7139 -86.9568 2010-06-24T15:46:18.00Z 518.0 7.5307 34.6008 4.9 4.6565 0.009 1130.2 1.0E-12
29 4 9.7139 -86.9568 2010-06-24T15:46:18.00Z 519.0 7.5316 34.6016 5.0 4.6569 0.009 1131.1 1.0E-12
29 4 9.7139 -86.9568 2010-06-24T15:46:18.00Z 520.0 7.5301 34.6022 5.0 4.656 0.009 1132.2 1.0E-12
29 4 9.7139 -86.9568 2010-06-24T15:46:18.00Z 521.0 7.5227 34.6017 5.1 4.6558 0.009 1133.2 1.0E-12
29 4 9.7139 -86.9568 2010-06-24T15:46:18.00Z 522.0 7.5044 34.6006 5.2 4.6573 0.009 1134.1 1.0E-12
29 4 9.7139 -86.9568 2010-06-24T15:46:18.00Z 523.0 7.4848 34.5991 5.2 4.6566 0.009 1135.2 1.0E-12
29 4 9.7139 -86.9568 2010-06-24T15:46:18.00Z 524.0 7.454 34.5968 5.2 4.6562 0.009 1136.5 1.0E-12
29 4 9.7139 -86.9568 2010-06-24T15:46:18.00Z 525.0 7.4368 34.5952 5.2 4.6557 0.009 1137.9 1.0E-12
29 4 9.7139 -86.9568 2010-06-24T15:46:18.00Z 526.0 7.4129 34.5937 5.2 4.6553 0.009 1139.2 1.0E-12
29 4 9.7139 -86.9568 2010-06-24T15:46:18.00Z 527.0 7.3812 34.5923 5.1 4.6544 0.009 1140.2 1.0E-12
29 4 9.7139 -86.9568 2010-06-24T15:46:18.00Z 528.0 7.367 34.5921 5.0 4.6543 0.009 1141.0 1.0E-12
29 4 9.7139 -86.9568 2010-06-24T15:46:18.00Z 529.0 7.3605 34.5918 5.0 4.6546 0.009 1141.8 1.0E-12
29 4 9.7139 -86.9568 2010-06-24T15:46:18.00Z 530.0 7.3555 34.5916 5.0 4.6552 0.009 1142.5 1.0E-12
29 4 9.7139 -86.9568 2010-06-24T15:46:18.00Z 531.0 7.3504 34.5916 5.0 4.6548 0.009 1143.4 1.0E-12
29 4 9.7139 -86.9568 2010-06-24T15:46:18.00Z 532.0 7.3431 34.5916 5.0 4.6556 0.009 1144.2 1.0E-12
29 4 9.7139 -86.9568 2010-06-24T15:46:18.00Z 533.0 7.3363 34.5916 5.0 4.6556 0.009 1145.0 1.0E-12
29 4 9.7139 -86.9568 2010-06-24T15:46:18.00Z 534.0 7.3264 34.5915 4.9 4.6563 0.009 1145.8 1.0E-12
29 4 9.7139 -86.9568 2010-06-24T15:46:18.00Z 535.0 7.3183 34.5913 5.0 4.6566 0.009 1147.1 1.0E-12
29 4 9.7139 -86.9568 2010-06-24T15:46:18.00Z 536.0 7.3165 34.5912 5.0 4.6565 0.009 1148.8 1.0E-12
29 4 9.7139 -86.9568 2010-06-24T15:46:18.00Z 537.0 7.3099 34.5911 5.0 4.6562 0.009 1149.9 1.0E-12
29 4 9.7139 -86.9568 2010-06-24T15:46:18.00Z 538.0 7.3066 34.591 5.0 4.6556 0.009 1150.6 1.0E-12
29 4 9.7139 -86.9568 2010-06-24T15:46:18.00Z 539.0 7.307 34.5912 4.9 4.656 0.009 1151.2 1.0E-12
29 4 9.7139 -86.9568 2010-06-24T15:46:18.00Z 540.0 7.3053 34.5911 5.0 4.6563 0.009 1152.0 1.0E-12
29 4 9.7139 -86.9568 2010-06-24T15:46:18.00Z 541.0 7.3024 34.5911 4.9 4.6565 0.009 1153.2 1.0E-12
29 4 9.7139 -86.9568 2010-06-24T15:46:18.00Z 542.0 7.2927 34.5904 5.0 4.6562 0.009 1154.6 1.0E-12
29 4 9.7139 -86.9568 2010-06-24T15:46:18.00Z 543.0 7.2711 34.5899 5.0 4.6558 0.009 1155.6 1.0E-12
29 4 9.7139 -86.9568 2010-06-24T15:46:18.00Z 544.0 7.2501 34.5893 5.0 4.6563 0.009 1156.4 1.0E-12
29 4 9.7139 -86.9568 2010-06-24T15:46:18.00Z 545.0 7.2296 34.5888 5.0 4.6562 0.009 1157.0 1.0E-12
29 4 9.7139 -86.9568 2010-06-24T15:46:18.00Z 546.0 7.2119 34.5882 4.9 4.6562 0.009 1157.8 1.0E-12
29 4 9.7139 -86.9568 2010-06-24T15:46:18.00Z 547.0 7.1837 34.5874 4.9 4.6565 0.009 1158.6 1.0E-12
29 4 9.7139 -86.9568 2010-06-24T15:46:18.00Z 548.0 7.1617 34.5869 4.9 4.6565 0.009 1160.0 1.0E-12
29 4 9.7139 -86.9568 2010-06-24T15:46:18.00Z 549.0 7.1481 34.5882 4.9 4.657 0.009 1161.5 1.0E-12
29 4 9.7139 -86.9568 2010-06-24T15:46:18.00Z 550.0 7.147 34.5889 4.9 4.6578 0.009 1162.5 1.0E-12
29 4 9.7139 -86.9568 2010-06-24T15:46:18.00Z 551.0 7.1451 34.589 4.9 4.6578 0.009 1163.2 1.0E-12
29 4 9.7139 -86.9568 2010-06-24T15:46:18.00Z 552.0 7.1413 34.5892 4.9 4.6582 0.009 1164.0 1.0E-12
29 4 9.7139 -86.9568 2010-06-24T15:46:18.00Z 553.0 7.1395 34.5891 5.1 4.6584 0.009 1164.9 1.0E-12
29 4 9.7139 -86.9568 2010-06-24T15:46:18.00Z 554.0 7.1373 34.589 5.1 4.6585 0.009 1165.9 1.0E-12
29 4 9.7139 -86.9568 2010-06-24T15:46:18.00Z 555.0 7.1335 34.5888 5.1 4.6587 0.009 1166.9 1.0E-12
29 4 9.7139 -86.9568 2010-06-24T15:46:18.00Z 556.0 7.132 34.5887 5.1 4.6578 0.009 1167.9 1.0E-12
29 4 9.7139 -86.9568 2010-06-24T15:46:18.00Z 557.0 7.1303 34.5886 5.0 4.6578 0.009 1168.9 1.0E-12
29 4 9.7139 -86.9568 2010-06-24T15:46:18.00Z 558.0 7.1275 34.5885 5.1 4.658 0.009 1169.9 1.0E-12
29 4 9.7139 -86.9568 2010-06-24T15:46:18.00Z 559.0 7.1266 34.5885 5.1 4.6579 0.009 1170.9 1.0E-12
29 4 9.7139 -86.9568 2010-06-24T15:46:18.00Z 560.0 7.1243 34.5884 5.1 4.6581 0.009 1172.0 1.0E-12
29 4 9.7139 -86.9568 2010-06-24T15:46:18.00Z 561.0 7.1232 34.5885 5.1 4.6581 0.009 1173.1 1.0E-12
29 4 9.7139 -86.9568 2010-06-24T15:46:18.00Z 562.0 7.1225 34.5885 5.0 4.6576 0.009 1174.1 1.0E-12
29 4 9.7139 -86.9568 2010-06-24T15:46:18.00Z 563.0 7.1209 34.5884 5.1 4.658 0.009 1175.1 1.0E-12
29 4 9.7139 -86.9568 2010-06-24T15:46:18.00Z 564.0 7.1177 34.5883 5.0 4.658 0.009 1176.0 1.0E-12
29 4 9.7139 -86.9568 2010-06-24T15:46:18.00Z 565.0 7.1154 34.5882 5.0 4.6578 0.009 1176.9 1.0E-12
29 4 9.7139 -86.9568 2010-06-24T15:46:18.00Z 566.0 7.1141 34.5882 5.0 4.6578 0.009 1177.8 1.0E-12
29 4 9.7139 -86.9568 2010-06-24T15:46:18.00Z 567.0 7.1076 34.5878 5.0 4.6579 0.009 1178.6 1.0E-12
29 4 9.7139 -86.9568 2010-06-24T15:46:18.00Z 568.0 7.0941 34.5876 5.0 4.6576 0.009 1179.6 1.0E-12
29 4 9.7139 -86.9568 2010-06-24T15:46:18.00Z 569.0 7.0836 34.5873 5.0 4.6579 0.009 1180.8 1.0E-12
29 4 9.7139 -86.9568 2010-06-24T15:46:18.00Z 570.0 7.0696 34.5866 5.0 4.6574 0.009 1181.9 1.0E-12
29 4 9.7139 -86.9568 2010-06-24T15:46:18.00Z 571.0 7.054 34.586 4.9 4.6581 0.009 1182.9 1.0E-12
29 4 9.7139 -86.9568 2010-06-24T15:46:18.00Z 572.0 7.0395 34.5858 5.0 4.6578 0.009 1183.8 1.0E-12
29 4 9.7139 -86.9568 2010-06-24T15:46:18.00Z 573.0 7.0323 34.5854 4.9 4.6574 0.009 1184.6 1.0E-12
29 4 9.7139 -86.9568 2010-06-24T15:46:18.00Z 574.0 7.0256 34.5852 4.9 4.6579 0.009 1185.8 1.0E-12
29 4 9.7139 -86.9568 2010-06-24T15:46:18.00Z 575.0 7.0137 34.585 4.9 4.6579 0.009 1186.9 1.0E-12
29 4 9.7139 -86.9568 2010-06-24T15:46:18.00Z 576.0 6.9966 34.5847 4.9 4.6575 0.009 1187.9 1.0E-12
29 4 9.7139 -86.9568 2010-06-24T15:46:18.00Z 577.0 6.9797 34.5845 4.9 4.6582 0.009 1188.9 1.0E-12
29 4 9.7139 -86.9568 2010-06-24T15:46:18.00Z 578.0 6.9763 34.5843 4.9 4.6583 0.009 1189.9 1.0E-12
29 4 9.7139 -86.9568 2010-06-24T15:46:18.00Z 579.0 6.9733 34.5844 4.9 4.6585 0.009 1190.8 1.0E-12
29 4 9.7139 -86.9568 2010-06-24T15:46:18.00Z 580.0 6.9714 34.5844 4.9 4.6585 0.009 1191.5 1.0E-12
29 4 9.7139 -86.9568 2010-06-24T15:46:18.00Z 581.0 6.9706 34.5843 4.9 4.6589 0.009 1192.2 1.0E-12
29 4 9.7139 -86.9568 2010-06-24T15:46:18.00Z 582.0 6.9692 34.5844 4.9 4.6589 0.009 1193.1 1.0E-12
29 4 9.7139 -86.9568 2010-06-24T15:46:18.00Z 583.0 6.9677 34.5844 4.9 4.6582 0.009 1194.5 1.0E-12
29 4 9.7139 -86.9568 2010-06-24T15:46:18.00Z 584.0 6.9665 34.5844 4.9 4.6582 0.009 1196.0 1.0E-12
29 4 9.7139 -86.9568 2010-06-24T15:46:18.00Z 585.0 6.9655 34.5844 4.9 4.6582 0.009 1197.1 1.0E-12
29 4 9.7139 -86.9568 2010-06-24T15:46:18.00Z 586.0 6.9633 34.5846 4.9 4.6584 0.009 1198.0 1.0E-12
29 4 9.7139 -86.9568 2010-06-24T15:46:18.00Z 587.0 6.9615 34.5846 4.9 4.657 0.009 1198.8 1.0E-12
29 4 9.7139 -86.9568 2010-06-24T15:46:18.00Z 588.0 6.961 34.5847 4.9 4.6587 0.009 1199.5 1.0E-12
29 4 9.7139 -86.9568 2010-06-24T15:46:18.00Z 589.0 6.96 34.5846 4.9 4.659 0.009 1200.5 1.0E-12
29 4 9.7139 -86.9568 2010-06-24T15:46:18.00Z 590.0 6.9594 34.5844 4.9 4.6591 0.009 1201.8 1.0E-12
29 4 9.7139 -86.9568 2010-06-24T15:46:18.00Z 591.0 6.9565 34.5844 4.9 4.6589 0.009 1202.9 1.0E-12
29 4 9.7139 -86.9568 2010-06-24T15:46:18.00Z 592.0 6.9432 34.5838 4.9 4.6586 0.009 1203.6 1.0E-12
29 4 9.7139 -86.9568 2010-06-24T15:46:18.00Z 593.0 6.9229 34.5835 4.9 4.6589 0.009 1204.2 1.0E-12
29 4 9.7139 -86.9568 2010-06-24T15:46:18.00Z 594.0 6.9078 34.5836 4.9 4.6588 0.009 1205.0 1.0E-12
29 4 9.7139 -86.9568 2010-06-24T15:46:18.00Z 595.0 6.8946 34.5835 4.9 4.6591 0.01 1205.9 1.0E-12
29 4 9.7139 -86.9568 2010-06-24T15:46:18.00Z 596.0 6.891 34.5834 5.0 4.6591 0.009 1207.4 1.0E-12
29 4 9.7139 -86.9568 2010-06-24T15:46:18.00Z 597.0 6.8869 34.5836 5.1 4.6588 0.009 1208.9 1.0E-12
29 4 9.7139 -86.9568 2010-06-24T15:46:18.00Z 598.0 6.8814 34.5836 5.1 4.6585 0.009 1209.8 1.0E-12
29 4 9.7139 -86.9568 2010-06-24T15:46:18.00Z 599.0 6.8735 34.5835 5.1 4.6589 0.009 1210.4 1.0E-12
29 4 9.7139 -86.9568 2010-06-24T15:46:18.00Z 600.0 6.8644 34.5837 5.2 4.6581 0.009 1211.0 1.0E-12
29 4 9.7139 -86.9568 2010-06-24T15:46:18.00Z 601.0 6.8585 34.5838 5.3 4.6593 0.009 1211.9 1.0E-12
29 4 9.7139 -86.9568 2010-06-24T15:46:18.00Z 602.0 6.8533 34.584 5.3 4.6589 0.009 1213.1 1.0E-12
29 4 9.7139 -86.9568 2010-06-24T15:46:18.00Z 603.0 6.8489 34.584 5.3 4.6588 0.009 1214.4 1.0E-12
29 4 9.7139 -86.9568 2010-06-24T15:46:18.00Z 604.0 6.8429 34.5839 5.3 4.6592 0.009 1215.4 1.0E-12
29 4 9.7139 -86.9568 2010-06-24T15:46:18.00Z 605.0 6.8349 34.5836 5.5 4.6592 0.009 1216.4 1.0E-12
29 4 9.7139 -86.9568 2010-06-24T15:46:18.00Z 606.0 6.8311 34.5839 5.5 4.6585 0.009 1217.4 1.0E-12
29 4 9.7139 -86.9568 2010-06-24T15:46:18.00Z 607.0 6.8271 34.5837 5.5 4.6591 0.009 1218.2 1.0E-12
29 4 9.7139 -86.9568 2010-06-24T15:46:18.00Z 608.0 6.8226 34.5833 5.5 4.6591 0.009 1219.1 1.0E-12
29 4 9.7139 -86.9568 2010-06-24T15:46:18.00Z 609.0 6.8177 34.5825 5.6 4.6582 0.009 1220.1 1.0E-12
29 4 9.7139 -86.9568 2010-06-24T15:46:18.00Z 610.0 6.8125 34.5821 5.6 4.6595 0.009 1221.2 1.0E-12
29 4 9.7139 -86.9568 2010-06-24T15:46:18.00Z 611.0 6.799 34.5818 5.5 4.6595 0.009 1222.4 1.0E-12
29 4 9.7139 -86.9568 2010-06-24T15:46:18.00Z 612.0 6.7916 34.582 5.5 4.6577 0.009 1223.4 1.0E-12
29 4 9.7139 -86.9568 2010-06-24T15:46:18.00Z 613.0 6.7837 34.5822 5.4 4.6577 0.009 1224.4 1.0E-12
29 4 9.7139 -86.9568 2010-06-24T15:46:18.00Z 614.0 6.7788 34.5819 5.5 4.6588 0.009 1225.2 1.0E-12
29 4 9.7139 -86.9568 2010-06-24T15:46:18.00Z 615.0 6.7647 34.5824 5.5 4.653 0.009 1226.0 1.0E-12
29 4 9.7139 -86.9568 2010-06-24T15:46:18.00Z 616.0 6.758 34.5826 5.5 4.6591 0.009 1226.8 1.0E-12
29 4 9.7139 -86.9568 2010-06-24T15:46:18.00Z 617.0 6.7513 34.5823 5.6 4.6593 0.009 1227.6 1.0E-12
29 4 9.7139 -86.9568 2010-06-24T15:46:18.00Z 618.0 6.7477 34.5823 5.7 4.659 0.009 1228.9 1.0E-12
29 4 9.7139 -86.9568 2010-06-24T15:46:18.00Z 619.0 6.7477 34.5828 5.9 4.6593 0.009 1230.2 1.0E-12
29 4 9.7139 -86.9568 2010-06-24T15:46:18.00Z 620.0 6.7435 34.5827 5.9 4.6588 0.009 1231.4 1.0E-12
29 4 9.7139 -86.9568 2010-06-24T15:46:18.00Z 621.0 6.7387 34.5829 6.0 4.6589 0.009 1232.2 1.0E-12
29 4 9.7139 -86.9568 2010-06-24T15:46:18.00Z 622.0 6.7368 34.5828 6.1 4.6593 0.009 1233.0 1.0E-12
29 4 9.7139 -86.9568 2010-06-24T15:46:18.00Z 623.0 6.729 34.5828 6.1 4.6587 0.009 1233.8 1.0E-12
29 4 9.7139 -86.9568 2010-06-24T15:46:18.00Z 624.0 6.7254 34.5826 6.1 4.6583 0.009 1234.5 1.0E-12
29 4 9.7139 -86.9568 2010-06-24T15:46:18.00Z 625.0 6.7193 34.5823 6.1 4.6557 0.009 1235.4 1.0E-12
29 4 9.7139 -86.9568 2010-06-24T15:46:18.00Z 626.0 6.7112 34.5823 6.3 4.6571 0.009 1236.8 1.0E-12
29 4 9.7139 -86.9568 2010-06-24T15:46:18.00Z 627.0 6.7007 34.5824 6.3 4.658 0.009 1238.2 1.0E-12
29 4 9.7139 -86.9568 2010-06-24T15:46:18.00Z 628.0 6.6868 34.5823 6.4 4.6589 0.009 1239.4 1.0E-12
29 4 9.7139 -86.9568 2010-06-24T15:46:18.00Z 629.0 6.6782 34.5821 6.4 4.658 0.009 1240.2 1.0E-12
29 4 9.7139 -86.9568 2010-06-24T15:46:18.00Z 630.0 6.6736 34.582 6.5 4.6584 0.009 1241.1 1.0E-12
29 4 9.7139 -86.9568 2010-06-24T15:46:18.00Z 631.0 6.6653 34.582 6.5 4.659 0.009 1242.1 1.0E-12
29 4 9.7139 -86.9568 2010-06-24T15:46:18.00Z 632.0 6.6599 34.5818 6.6 4.6589 0.009 1243.1 1.0E-12
29 4 9.7139 -86.9568 2010-06-24T15:46:18.00Z 633.0 6.6537 34.5817 6.7 4.658 0.009 1244.1 1.0E-12
29 4 9.7139 -86.9568 2010-06-24T15:46:18.00Z 634.0 6.6406 34.5815 6.7 4.6593 0.009 1245.0 1.0E-12
29 4 9.7139 -86.9568 2010-06-24T15:46:18.00Z 635.0 6.6264 34.5812 6.7 4.6592 0.009 1245.6 1.0E-12
29 4 9.7139 -86.9568 2010-06-24T15:46:18.00Z 636.0 6.6147 34.578 6.8 4.6593 0.009 1246.2 1.0E-12
29 4 9.7139 -86.9568 2010-06-24T15:46:18.00Z 637.0 6.6095 34.5808 6.9 4.6593 0.009 1246.9 1.0E-12
29 4 9.7139 -86.9568 2010-06-24T15:46:18.00Z 638.0 6.605 34.5805 6.9 4.6594 0.009 1247.8 1.0E-12
29 4 9.7139 -86.9568 2010-06-24T15:46:18.00Z 639.0 6.5957 34.5801 6.9 4.6586 0.009 1249.4 1.0E-12
29 4 9.7139 -86.9568 2010-06-24T15:46:18.00Z 640.0 6.5771 34.5785 6.9 4.6591 0.009 1251.0 1.0E-12
29 4 9.7139 -86.9568 2010-06-24T15:46:18.00Z 641.0 6.5656 34.5776 6.9 4.6602 0.009 1252.1 1.0E-12
29 4 9.7139 -86.9568 2010-06-24T15:46:18.00Z 642.0 6.5522 34.5765 6.8 4.6603 0.009 1253.1 1.0E-12
29 4 9.7139 -86.9568 2010-06-24T15:46:18.00Z 643.0 6.5333 34.5753 6.7 4.6599 0.009 1254.0 1.0E-12
29 4 9.7139 -86.9568 2010-06-24T15:46:18.00Z 644.0 6.5186 34.5746 6.5 4.661 0.009 1254.8 1.0E-12
29 4 9.7139 -86.9568 2010-06-24T15:46:18.00Z 645.0 6.503 34.5739 6.4 4.6618 0.009 1255.5 1.0E-12
29 4 9.7139 -86.9568 2010-06-24T15:46:18.00Z 646.0 6.4959 34.5735 6.2 4.6621 0.009 1256.4 1.0E-12
29 4 9.7139 -86.9568 2010-06-24T15:46:18.00Z 647.0 6.4921 34.5733 5.9 4.6624 0.01 1257.4 1.0E-12
29 4 9.7139 -86.9568 2010-06-24T15:46:18.00Z 648.0 6.4859 34.5731 5.7 4.6618 0.009 1258.4 1.0E-12
29 4 9.7139 -86.9568 2010-06-24T15:46:18.00Z 649.0 6.48 34.5731 5.6 4.6619 0.009 1259.2 1.0E-12
29 4 9.7139 -86.9568 2010-06-24T15:46:18.00Z 650.0 6.4763 34.5731 5.5 4.6616 0.009 1260.1 1.0E-12
29 4 9.7139 -86.9568 2010-06-24T15:46:18.00Z 651.0 6.472 34.573 5.4 4.6617 0.009 1261.2 1.0E-12
29 4 9.7139 -86.9568 2010-06-24T15:46:18.00Z 652.0 6.4683 34.5731 5.2 4.662 0.009 1262.5 1.0E-12
29 4 9.7139 -86.9568 2010-06-24T15:46:18.00Z 653.0 6.4631 34.5732 5.2 4.6612 0.01 1263.6 1.0E-12
29 4 9.7139 -86.9568 2010-06-24T15:46:18.00Z 654.0 6.4579 34.573 5.2 4.6613 0.009 1264.5 1.0E-12
29 4 9.7139 -86.9568 2010-06-24T15:46:18.00Z 655.0 6.4492 34.5729 5.2 4.6616 0.009 1265.2 1.0E-12
29 4 9.7139 -86.9568 2010-06-24T15:46:18.00Z 656.0 6.4407 34.5728 5.2 4.6617 0.009 1266.1 1.0E-12
29 4 9.7139 -86.9568 2010-06-24T15:46:18.00Z 657.0 6.4357 34.5727 5.1 4.662 0.009 1267.2 1.0E-12
29 4 9.7139 -86.9568 2010-06-24T15:46:18.00Z 658.0 6.422 34.5722 5.0 4.662 0.009 1268.5 1.0E-12
29 4 9.7139 -86.9568 2010-06-24T15:46:18.00Z 659.0 6.4096 34.5721 5.0 4.6622 0.009 1269.6 1.0E-12
29 4 9.7139 -86.9568 2010-06-24T15:46:18.00Z 660.0 6.406 34.5723 5.0 4.6618 0.009 1270.5 1.0E-12
29 4 9.7139 -86.9568 2010-06-24T15:46:18.00Z 661.0 6.4033 34.5722 5.0 4.6619 0.009 1271.2 1.0E-12
29 4 9.7139 -86.9568 2010-06-24T15:46:18.00Z 662.0 6.3977 34.5722 5.0 4.6614 0.009 1272.0 1.0E-12
29 4 9.7139 -86.9568 2010-06-24T15:46:18.00Z 663.0 6.3908 34.5722 5.0 4.6619 0.009 1272.8 1.0E-12
29 4 9.7139 -86.9568 2010-06-24T15:46:18.00Z 664.0 6.3845 34.5722 5.1 4.6625 0.009 1273.6 1.0E-12
29 4 9.7139 -86.9568 2010-06-24T15:46:18.00Z 665.0 6.3684 34.5717 5.1 4.6615 0.009 1274.9 1.0E-12
29 4 9.7139 -86.9568 2010-06-24T15:46:18.00Z 666.0 6.3563 34.5714 5.1 4.6617 0.009 1276.1 1.0E-12
29 4 9.7139 -86.9568 2010-06-24T15:46:18.00Z 667.0 6.3475 34.5714 5.1 4.6626 0.009 1277.2 1.0E-12
29 4 9.7139 -86.9568 2010-06-24T15:46:18.00Z 668.0 6.3409 34.5714 5.1 4.6626 0.009 1278.4 1.0E-12
29 4 9.7139 -86.9568 2010-06-24T15:46:18.00Z 669.0 6.338 34.5714 5.1 4.6617 0.009 1279.5 1.0E-12
29 4 9.7139 -86.9568 2010-06-24T15:46:18.00Z 670.0 6.3314 34.5714 5.1 4.6618 0.009 1280.5 1.0E-12
29 4 9.7139 -86.9568 2010-06-24T15:46:18.00Z 671.0 6.3267 34.5713 5.1 4.6622 0.009 1281.2 1.0E-12
29 4 9.7139 -86.9568 2010-06-24T15:46:18.00Z 672.0 6.3227 34.5714 5.1 4.6612 0.009 1282.0 1.0E-12
29 4 9.7139 -86.9568 2010-06-24T15:46:18.00Z 673.0 6.319 34.5714 5.1 4.6617 0.009 1282.9 1.0E-12
29 4 9.7139 -86.9568 2010-06-24T15:46:18.00Z 674.0 6.3159 34.5713 5.1 4.662 0.009 1284.1 1.0E-12
29 4 9.7139 -86.9568 2010-06-24T15:46:18.00Z 675.0 6.3134 34.5713 5.1 4.6621 0.009 1285.4 1.0E-12
29 4 9.7139 -86.9568 2010-06-24T15:46:18.00Z 676.0 6.3112 34.5713 5.1 4.6616 0.009 1286.2 1.0E-12
29 4 9.7139 -86.9568 2010-06-24T15:46:18.00Z 677.0 6.3059 34.5713 5.1 4.6621 0.009 1286.9 1.0E-12
29 4 9.7139 -86.9568 2010-06-24T15:46:18.00Z 678.0 6.3006 34.5714 5.1 4.6621 0.009 1287.5 1.0E-12
29 4 9.7139 -86.9568 2010-06-24T15:46:18.00Z 679.0 6.293 34.5713 5.1 4.6621 0.009 1288.2 1.0E-12
29 4 9.7139 -86.9568 2010-06-24T15:46:18.00Z 680.0 6.2878 34.5712 5.1 4.6621 0.009 1289.5 1.0E-12
29 4 9.7139 -86.9568 2010-06-24T15:46:18.00Z 681.0 6.2842 34.5711 5.1 4.662 0.009 1291.2 1.0E-12
29 4 9.7139 -86.9568 2010-06-24T15:46:18.00Z 682.0 6.2745 34.5709 5.3 4.6618 0.009 1292.8 1.0E-12
29 4 9.7139 -86.9568 2010-06-24T15:46:18.00Z 683.0 6.2644 34.5707 5.2 4.6619 0.009 1293.8 1.0E-12
29 4 9.7139 -86.9568 2010-06-24T15:46:18.00Z 684.0 6.2463 34.5706 5.3 4.6615 0.009 1294.5 1.0E-12
29 4 9.7139 -86.9568 2010-06-24T15:46:18.00Z 685.0 6.2355 34.5704 5.3 4.6618 0.009 1295.1 1.0E-12
29 4 9.7139 -86.9568 2010-06-24T15:46:18.00Z 686.0 6.2238 34.5704 5.2 4.6618 0.009 1295.8 1.0E-12
29 4 9.7139 -86.9568 2010-06-24T15:46:18.00Z 687.0 6.215 34.57 5.3 4.6623 0.009 1296.5 1.0E-12
29 4 9.7139 -86.9568 2010-06-24T15:46:18.00Z 688.0 6.2045 34.5697 5.3 4.6606 0.009 1297.4 1.0E-12
29 4 9.7139 -86.9568 2010-06-24T15:46:18.00Z 689.0 6.2009 34.5697 5.3 4.6621 0.009 1298.5 1.0E-12
29 4 9.7139 -86.9568 2010-06-24T15:46:18.00Z 690.0 6.1995 34.5696 5.3 4.6618 0.009 1299.6 1.0E-12
29 4 9.7139 -86.9568 2010-06-24T15:46:18.00Z 691.0 6.198 34.5696 5.3 4.6621 0.009 1300.8 1.0E-12
29 4 9.7139 -86.9568 2010-06-24T15:46:18.00Z 692.0 6.1946 34.5693 5.3 4.6618 0.009 1302.0 1.0E-12
29 4 9.7139 -86.9568 2010-06-24T15:46:18.00Z 693.0 6.1837 34.5689 5.3 4.6615 0.009 1303.2 1.0E-12
29 4 9.7139 -86.9568 2010-06-24T15:46:18.00Z 694.0 6.1752 34.5691 5.3 4.6616 0.009 1304.2 1.0E-12
29 4 9.7139 -86.9568 2010-06-24T15:46:18.00Z 695.0 6.1646 34.5684 5.3 4.6615 0.009 1305.0 1.0E-12
29 4 9.7139 -86.9568 2010-06-24T15:46:18.00Z 696.0 6.155 34.5683 5.3 4.6615 0.009 1305.9 1.0E-12
29 4 9.7139 -86.9568 2010-06-24T15:46:18.00Z 697.0 6.1481 34.5681 5.3 4.661 0.009 1306.8 1.0E-12
29 4 9.7139 -86.9568 2010-06-24T15:46:18.00Z 698.0 6.1427 34.5677 5.4 4.6598 0.009 1307.5 1.0E-12
29 4 9.7139 -86.9568 2010-06-24T15:46:18.00Z 699.0 6.133 34.5674 5.5 4.6608 0.009 1308.4 1.0E-12
29 4 9.7139 -86.9568 2010-06-24T15:46:18.00Z 700.0 6.1267 34.5671 5.5 4.6604 0.009 1309.5 1.0E-12
29 4 9.7139 -86.9568 2010-06-24T15:46:18.00Z 701.0 6.1171 34.5682 5.5 4.6601 0.009 1311.0 1.0E-12
29 4 9.7139 -86.9568 2010-06-24T15:46:18.00Z 702.0 6.1155 34.5695 5.5 4.6604 0.009 1312.2 1.0E-12
29 4 9.7139 -86.9568 2010-06-24T15:46:18.00Z 703.0 6.1159 34.5696 5.8 4.6602 0.009 1313.0 1.0E-12
29 4 9.7139 -86.9568 2010-06-24T15:46:18.00Z 704.0 6.1164 34.5697 5.8 4.6606 0.009 1313.8 1.0E-12
29 4 9.7139 -86.9568 2010-06-24T15:46:18.00Z 705.0 6.1166 34.5698 6.1 4.6605 0.009 1314.5 1.0E-12
29 4 9.7139 -86.9568 2010-06-24T15:46:18.00Z 706.0 6.1106 34.5704 6.3 4.6603 0.009 1315.2 1.0E-12
29 4 9.7139 -86.9568 2010-06-24T15:46:18.00Z 707.0 6.1008 34.5716 6.4 4.6605 0.009 1316.2 1.0E-12
29 4 9.7139 -86.9568 2010-06-24T15:46:18.00Z 708.0 6.0854 34.5717 6.7 4.6598 0.009 1317.6 1.0E-12
29 4 9.7139 -86.9568 2010-06-24T15:46:18.00Z 709.0 6.0656 34.5718 7.0 4.6605 0.009 1318.9 1.0E-12
29 4 9.7139 -86.9568 2010-06-24T15:46:18.00Z 710.0 6.0471 34.5722 7.3 4.6603 0.009 1319.9 1.0E-12
29 4 9.7139 -86.9568 2010-06-24T15:46:18.00Z 711.0 6.0407 34.5722 7.6 4.6603 0.009 1320.9 1.0E-12
29 4 9.7139 -86.9568 2010-06-24T15:46:18.00Z 712.0 6.0376 34.5721 7.8 4.6606 0.009 1321.9 1.0E-12
29 4 9.7139 -86.9568 2010-06-24T15:46:18.00Z 713.0 6.0338 34.5719 8.1 4.6603 0.009 1322.8 1.0E-12
29 4 9.7139 -86.9568 2010-06-24T15:46:18.00Z 714.0 6.0305 34.5719 8.3 4.6606 0.009 1323.5 1.0E-12
29 4 9.7139 -86.9568 2010-06-24T15:46:18.00Z 715.0 6.0277 34.5719 8.4 4.66 0.009 1324.4 1.0E-12
29 4 9.7139 -86.9568 2010-06-24T15:46:18.00Z 716.0 6.0254 34.5718 8.6 4.6602 0.01 1325.4 1.0E-12
29 4 9.7139 -86.9568 2010-06-24T15:46:18.00Z 717.0 6.0235 34.5718 8.8 4.6605 0.009 1326.4 1.0E-12
29 4 9.7139 -86.9568 2010-06-24T15:46:18.00Z 718.0 6.02 34.5717 8.8 4.6601 0.009 1327.4 1.0E-12
29 4 9.7139 -86.9568 2010-06-24T15:46:18.00Z 719.0 5.9862 34.5714 8.9 4.6596 0.009 1328.4 1.0E-12
29 4 9.7139 -86.9568 2010-06-24T15:46:18.00Z 720.0 5.9692 34.5715 9.0 4.6596 0.009 1329.4 1.0E-12
29 4 9.7139 -86.9568 2010-06-24T15:46:18.00Z 721.0 5.9649 34.5714 9.0 4.6604 0.009 1330.4 1.0E-12
29 4 9.7139 -86.9568 2010-06-24T15:46:18.00Z 722.0 5.9618 34.5714 9.1 4.6604 0.009 1331.5 1.0E-12
29 4 9.7139 -86.9568 2010-06-24T15:46:18.00Z 723.0 5.9581 34.5714 9.3 4.6604 0.009 1332.8 1.0E-12
29 4 9.7139 -86.9568 2010-06-24T15:46:18.00Z 724.0 5.9541 34.5714 9.5 4.6598 0.009 1333.9 1.0E-12
29 4 9.7139 -86.9568 2010-06-24T15:46:18.00Z 725.0 5.9472 34.5714 9.6 4.6605 0.009 1334.9 1.0E-12
29 4 9.7139 -86.9568 2010-06-24T15:46:18.00Z 726.0 5.9442 34.5714 9.6 4.6606 0.009 1335.8 1.0E-12
29 4 9.7139 -86.9568 2010-06-24T15:46:18.00Z 727.0 5.9413 34.5714 9.7 4.6605 0.009 1336.6 1.0E-12
29 4 9.7139 -86.9568 2010-06-24T15:46:18.00Z 728.0 5.9388 34.5714 9.7 4.6606 0.009 1337.6 1.0E-12
29 4 9.7139 -86.9568 2010-06-24T15:46:18.00Z 729.0 5.9371 34.5714 9.7 4.6602 0.009 1338.8 1.0E-12
29 4 9.7139 -86.9568 2010-06-24T15:46:18.00Z 730.0 5.9359 34.5715 9.9 4.6602 0.009 1339.8 1.0E-12
29 4 9.7139 -86.9568 2010-06-24T15:46:18.00Z 731.0 5.9327 34.5715 9.9 4.6602 0.009 1340.5 1.0E-12
29 4 9.7139 -86.9568 2010-06-24T15:46:18.00Z 732.0 5.9266 34.5715 9.9 4.6603 0.009 1341.2 1.0E-12
29 4 9.7139 -86.9568 2010-06-24T15:46:18.00Z 733.0 5.9239 34.5715 9.9 4.6604 0.009 1342.0 1.0E-12
29 4 9.7139 -86.9568 2010-06-24T15:46:18.00Z 734.0 5.9232 34.5716 10.0 4.6603 0.009 1342.8 1.0E-12
29 4 9.7139 -86.9568 2010-06-24T15:46:18.00Z 735.0 5.9228 34.5715 10.0 4.6602 0.009 1343.5 1.0E-12
29 4 9.7139 -86.9568 2010-06-24T15:46:18.00Z 736.0 5.9212 34.5715 10.1 4.6606 0.009 1345.0 1.0E-12
29 4 9.7139 -86.9568 2010-06-24T15:46:18.00Z 737.0 5.9194 34.5715 10.1 4.6604 0.009 1346.8 1.0E-12
29 4 9.7139 -86.9568 2010-06-24T15:46:18.00Z 738.0 5.9113 34.5715 10.2 4.6605 0.009 1347.9 1.0E-12
29 4 9.7139 -86.9568 2010-06-24T15:46:18.00Z 739.0 5.9023 34.5715 10.2 4.6603 0.009 1348.8 1.0E-12
29 4 9.7139 -86.9568 2010-06-24T15:46:18.00Z 740.0 5.8955 34.5715 10.3 4.66 0.009 1349.6 1.0E-12
29 4 9.7139 -86.9568 2010-06-24T15:46:18.00Z 741.0 5.8851 34.5713 10.3 4.6602 0.009 1350.6 1.0E-12
29 4 9.7139 -86.9568 2010-06-24T15:46:18.00Z 742.0 5.88 34.5713 10.3 4.6605 0.009 1351.6 1.0E-12
29 4 9.7139 -86.9568 2010-06-24T15:46:18.00Z 743.0 5.876 34.571 10.5 4.66 0.009 1352.5 1.0E-12
29 4 9.7139 -86.9568 2010-06-24T15:46:18.00Z 744.0 5.8565 34.5712 10.5 4.66 0.009 1353.2 1.0E-12
29 4 9.7139 -86.9568 2010-06-24T15:46:18.00Z 745.0 5.8449 34.5714 10.5 4.66 0.009 1354.0 1.0E-12
29 4 9.7139 -86.9568 2010-06-24T15:46:18.00Z 746.0 5.8414 34.5715 10.6 4.66 0.009 1354.8 1.0E-12
29 4 9.7139 -86.9568 2010-06-24T15:46:18.00Z 747.0 5.8388 34.5712 10.6 4.6601 0.009 1355.5 1.0E-12
29 4 9.7139 -86.9568 2010-06-24T15:46:18.00Z 748.0 5.8322 34.571 10.8 4.6601 0.009 1356.6 1.0E-12
29 4 9.7139 -86.9568 2010-06-24T15:46:18.00Z 749.0 5.8154 34.5708 10.9 4.6595 0.009 1358.0 1.0E-12
29 4 9.7139 -86.9568 2010-06-24T15:46:18.00Z 750.0 5.7979 34.5709 11.1 4.66 0.009 1359.0 1.0E-12
29 4 9.7139 -86.9568 2010-06-24T15:46:18.00Z 751.0 5.7848 34.5707 11.2 4.6597 0.009 1359.9 1.0E-12
29 4 9.7139 -86.9568 2010-06-24T15:46:18.00Z 752.0 5.7648 34.5708 11.2 4.6598 0.009 1360.9 1.0E-12
29 4 9.7139 -86.9568 2010-06-24T15:46:18.00Z 753.0 5.7608 34.5706 11.4 4.6596 0.009 1362.0 1.0E-12
29 4 9.7139 -86.9568 2010-06-24T15:46:18.00Z 754.0 5.7584 34.5705 11.6 4.6596 0.009 1363.5 1.0E-12
29 4 9.7139 -86.9568 2010-06-24T15:46:18.00Z 755.0 5.7543 34.5703 11.7 4.6596 0.009 1364.9 1.0E-12
29 4 9.7139 -86.9568 2010-06-24T15:46:18.00Z 756.0 5.7522 34.5703 11.7 4.6597 0.009 1365.8 1.0E-12
29 4 9.7139 -86.9568 2010-06-24T15:46:18.00Z 757.0 5.7497 34.5702 11.8 4.66 0.009 1366.5 1.0E-12
29 4 9.7139 -86.9568 2010-06-24T15:46:18.00Z 758.0 5.7465 34.57 11.9 4.6604 0.009 1367.1 1.0E-12
29 4 9.7139 -86.9568 2010-06-24T15:46:18.00Z 759.0 5.7446 34.5703 11.9 4.6597 0.009 1367.8 1.0E-12
29 4 9.7139 -86.9568 2010-06-24T15:46:18.00Z 760.0 5.742 34.5706 11.9 4.6598 0.009 1368.5 1.0E-12
29 4 9.7139 -86.9568 2010-06-24T15:46:18.00Z 761.0 5.738 34.5707 11.9 4.66 0.009 1369.5 1.0E-12
29 4 9.7139 -86.9568 2010-06-24T15:46:18.00Z 762.0 5.7335 34.5706 11.9 4.6601 0.009 1370.9 1.0E-12
29 4 9.7139 -86.9568 2010-06-24T15:46:18.00Z 763.0 5.726 34.5704 12.0 4.6596 0.009 1372.1 1.0E-12
29 4 9.7139 -86.9568 2010-06-24T15:46:18.00Z 764.0 5.709 34.5703 12.1 4.6595 0.009 1373.1 1.0E-12
29 4 9.7139 -86.9568 2010-06-24T15:46:18.00Z 765.0 5.7001 34.57 12.2 4.6599 0.009 1374.1 1.0E-12
29 4 9.7139 -86.9568 2010-06-24T15:46:18.00Z 766.0 5.6783 34.5698 12.2 4.6596 0.009 1375.0 1.0E-12
29 4 9.7139 -86.9568 2010-06-24T15:46:18.00Z 767.0 5.6675 34.5696 12.3 4.6598 0.009 1375.9 1.0E-12
29 4 9.7139 -86.9568 2010-06-24T15:46:18.00Z 768.0 5.6643 34.5695 12.4 4.6597 0.009 1376.9 1.0E-12
29 4 9.7139 -86.9568 2010-06-24T15:46:18.00Z 769.0 5.6626 34.5695 12.3 4.6596 0.009 1378.0 1.0E-12
29 4 9.7139 -86.9568 2010-06-24T15:46:18.00Z 770.0 5.6598 34.5695 12.4 4.6597 0.009 1379.2 1.0E-12
29 4 9.7139 -86.9568 2010-06-24T15:46:18.00Z 771.0 5.6583 34.5696 12.4 4.66 0.009 1380.2 1.0E-12
29 4 9.7139 -86.9568 2010-06-24T15:46:18.00Z 772.0 5.6557 34.5695 12.4 4.6604 0.009 1381.0 1.0E-12
29 4 9.7139 -86.9568 2010-06-24T15:46:18.00Z 773.0 5.651 34.5695 12.4 4.6602 0.009 1381.8 1.0E-12
29 4 9.7139 -86.9568 2010-06-24T15:46:18.00Z 774.0 5.6435 34.5695 12.4 4.66 0.009 1382.5 1.0E-12
29 4 9.7139 -86.9568 2010-06-24T15:46:18.00Z 775.0 5.6367 34.5696 12.4 4.6598 0.009 1383.5 1.0E-12
29 4 9.7139 -86.9568 2010-06-24T15:46:18.00Z 776.0 5.633 34.5697 12.5 4.66 0.009 1384.8 1.0E-12
29 4 9.7139 -86.9568 2010-06-24T15:46:18.00Z 777.0 5.6299 34.5696 12.5 4.66 0.009 1386.0 1.0E-12
29 4 9.7139 -86.9568 2010-06-24T15:46:18.00Z 778.0 5.626 34.5697 12.6 4.6594 0.009 1387.1 1.0E-12
29 4 9.7139 -86.9568 2010-06-24T15:46:18.00Z 779.0 5.6192 34.5696 12.6 4.6594 0.009 1388.1 1.0E-12
29 4 9.7139 -86.9568 2010-06-24T15:46:18.00Z 780.0 5.6096 34.5693 12.7 4.6604 0.009 1389.1 1.0E-12
29 4 9.7139 -86.9568 2010-06-24T15:46:18.00Z 781.0 5.6015 34.5693 12.8 4.6603 0.009 1390.0 1.0E-12
29 4 9.7139 -86.9568 2010-06-24T15:46:18.00Z 782.0 5.5937 34.5692 12.8 4.6605 0.009 1390.8 1.0E-12
29 4 9.7139 -86.9568 2010-06-24T15:46:18.00Z 783.0 5.5881 34.5692 12.8 4.6605 0.009 1391.6 1.0E-12
29 4 9.7139 -86.9568 2010-06-24T15:46:18.00Z 784.0 5.5853 34.5691 12.8 4.6598 0.009 1392.8 1.0E-12
29 4 9.7139 -86.9568 2010-06-24T15:46:18.00Z 785.0 5.5832 34.5691 12.8 4.6593 0.009 1393.9 1.0E-12
29 4 9.7139 -86.9568 2010-06-24T15:46:18.00Z 786.0 5.5812 34.5691 12.9 4.6603 0.009 1394.8 1.0E-12
29 4 9.7139 -86.9568 2010-06-24T15:46:18.00Z 787.0 5.5792 34.5692 12.9 4.6594 0.009 1395.6 1.0E-12
29 4 9.7139 -86.9568 2010-06-24T15:46:18.00Z 788.0 5.5769 34.5692 12.9 4.6602 0.009 1396.5 1.0E-12
29 4 9.7139 -86.9568 2010-06-24T15:46:18.00Z 789.0 5.5725 34.569 13.0 4.6604 0.009 1397.2 1.0E-12
29 4 9.7139 -86.9568 2010-06-24T15:46:18.00Z 790.0 5.5683 34.5691 13.0 4.6604 0.009 1398.1 1.0E-12
29 4 9.7139 -86.9568 2010-06-24T15:46:18.00Z 791.0 5.5671 34.5691 13.0 4.6602 0.009 1399.2 1.0E-12
29 4 9.7139 -86.9568 2010-06-24T15:46:18.00Z 792.0 5.5608 34.5688 13.0 4.6598 0.009 1400.5 1.0E-12
29 4 9.7139 -86.9568 2010-06-24T15:46:18.00Z 793.0 5.5486 34.5687 13.0 4.6604 0.009 1401.8 1.0E-12
29 4 9.7139 -86.9568 2010-06-24T15:46:18.00Z 794.0 5.5429 34.5687 13.0 4.66 0.009 1402.8 1.0E-12
29 4 9.7139 -86.9568 2010-06-24T15:46:18.00Z 795.0 5.5361 34.5686 13.0 4.6599 0.009 1403.6 1.0E-12
29 4 9.7139 -86.9568 2010-06-24T15:46:18.00Z 796.0 5.5295 34.5686 13.0 4.6602 0.009 1404.6 1.0E-12
29 4 9.7139 -86.9568 2010-06-24T15:46:18.00Z 797.0 5.5238 34.5685 13.0 4.6605 0.009 1405.6 1.0E-12
29 4 9.7139 -86.9568 2010-06-24T15:46:18.00Z 798.0 5.507 34.568 13.0 4.6604 0.009 1406.6 1.0E-12
29 4 9.7139 -86.9568 2010-06-24T15:46:18.00Z 799.0 5.4906 34.5677 13.1 4.6602 0.009 1407.5 1.0E-12
29 4 9.7139 -86.9568 2010-06-24T15:46:18.00Z 800.0 5.4829 34.5679 13.1 4.6606 0.009 1408.2 1.0E-12
29 4 9.7139 -86.9568 2010-06-24T15:46:18.00Z 801.0 5.4754 34.5678 13.1 4.6604 0.009 1409.1 1.0E-12
29 4 9.7139 -86.9568 2010-06-24T15:46:18.00Z 802.0 5.4624 34.5677 13.1 4.6601 0.009 1410.1 1.0E-12
29 4 9.7139 -86.9568 2010-06-24T15:46:18.00Z 803.0 5.4438 34.5669 13.1 4.6606 0.009 1411.4 1.0E-12
29 4 9.7139 -86.9568 2010-06-24T15:46:18.00Z 804.0 5.4334 34.5666 13.2 4.6603 0.009 1412.8 1.0E-12
29 4 9.7139 -86.9568 2010-06-24T15:46:18.00Z 805.0 5.4253 34.5667 13.2 4.6607 0.009 1413.9 1.0E-12
29 4 9.7139 -86.9568 2010-06-24T15:46:18.00Z 806.0 5.4236 34.5667 13.1 4.6604 0.009 1414.8 1.0E-12
29 4 9.7139 -86.9568 2010-06-24T15:46:18.00Z 807.0 5.4222 34.5669 13.1 4.6608 0.009 1415.5 1.0E-12
29 4 9.7139 -86.9568 2010-06-24T15:46:18.00Z 808.0 5.4222 34.5669 13.1 4.6606 0.009 1416.2 1.0E-12
29 4 9.7139 -86.9568 2010-06-24T15:46:18.00Z 809.0 5.4226 34.5672 13.1 4.6609 0.009 1417.0 1.0E-12
29 4 9.7139 -86.9568 2010-06-24T15:46:18.00Z 810.0 5.4228 34.5673 13.1 4.66 0.009 1417.9 1.0E-12
29 4 9.7139 -86.9568 2010-06-24T15:46:18.00Z 811.0 5.4227 34.5674 13.2 4.6603 0.009 1419.4 1.0E-12
29 4 9.7139 -86.9568 2010-06-24T15:46:18.00Z 812.0 5.423 34.5675 13.3 4.6596 0.009 1420.9 1.0E-12
29 4 9.7139 -86.9568 2010-06-24T15:46:18.00Z 813.0 5.423 34.5676 13.3 4.6607 0.009 1421.9 1.0E-12
29 4 9.7139 -86.9568 2010-06-24T15:46:18.00Z 814.0 5.423 34.5678 13.3 4.6604 0.009 1422.8 1.0E-12
29 4 9.7139 -86.9568 2010-06-24T15:46:18.00Z 815.0 5.4225 34.5678 13.3 4.6603 0.009 1423.6 1.0E-12
29 4 9.7139 -86.9568 2010-06-24T15:46:18.00Z 816.0 5.4214 34.568 13.5 4.6605 0.009 1424.6
29 4 9.7139 -86.9568 2010-06-24T15:46:18.00Z 817.0 5.4214 34.568 13.5 4.6607 0.009 1425.9
29 4 9.7139 -86.9568 2010-06-24T15:46:18.00Z 818.0 5.4203 34.5681 13.5 4.6607 0.009 1428.0
29 4 9.7139 -86.9568 2010-06-24T15:46:18.00Z 819.0 5.4185 34.5681 13.7 4.6606 0.009 1432.5
29 4 9.7139 -86.9568 2010-06-24T15:46:18.00Z 820.0 5.4083 34.5678 13.8 4.6605 0.009 1442.0
39 5 9.7015 -86.9135 2010-06-24T22:19:28.20Z 0.0 28.5086 33.3829 219.5 4.4835 0.028 34.9
39 5 9.7015 -86.9135 2010-06-24T22:19:28.20Z 1.0 28.5064 33.3582 219.1 4.4838 0.028 45.8
39 5 9.7015 -86.9135 2010-06-24T22:19:28.20Z 2.0 28.5041 33.3335 218.9 4.4841 0.027 56.7
39 5 9.7015 -86.9135 2010-06-24T22:19:28.20Z 3.0 28.5019 33.3088 218.6 4.4844 0.027 67.6
39 5 9.7015 -86.9135 2010-06-24T22:19:28.20Z 4.0 28.4996 33.284 218.4 4.4846 0.026 78.6
39 5 9.7015 -86.9135 2010-06-24T22:19:28.20Z 5.0 28.4973 33.2593 218.1 4.4849 0.026 89.5
39 5 9.7015 -86.9135 2010-06-24T22:19:28.20Z 6.0 28.4951 33.2346 217.9 4.4852 0.025 100.4
39 5 9.7015 -86.9135 2010-06-24T22:19:28.20Z 7.0 28.4928 33.2099 217.7 4.4855 0.025 111.3
39 5 9.7015 -86.9135 2010-06-24T22:19:28.20Z 8.0 28.4942 33.2143 217.5 4.4826 0.025 120.6
39 5 9.7015 -86.9135 2010-06-24T22:19:28.20Z 9.0 28.4967 33.2424 218.0 4.4819 0.024 126.4
39 5 9.7015 -86.9135 2010-06-24T22:19:28.20Z 10.0 28.5003 33.2811 218.1 4.4836 0.025 129.6
39 5 9.7015 -86.9135 2010-06-24T22:19:28.20Z 11.0 28.5076 33.353 218.2 4.4824 0.026 133.5
39 5 9.7015 -86.9135 2010-06-24T22:19:28.20Z 12.0 28.5082 33.3385 218.1 4.482 0.026 138.1 57.0
39 5 9.7015 -86.9135 2010-06-24T22:19:28.20Z 13.0 28.5144 33.3764 218.1 4.4815 0.028 141.1 51.2
39 5 9.7015 -86.9135 2010-06-24T22:19:28.20Z 14.0 28.5174 33.3954 218.4 4.4808 0.028 145.0 49.4
39 5 9.7015 -86.9135 2010-06-24T22:19:28.20Z 15.0 28.538 33.4932 218.2 4.4783 0.032 149.0 44.8
39 5 9.7015 -86.9135 2010-06-24T22:19:28.20Z 16.0 28.5723 33.5854 218.5 4.4741 0.034 152.4 41.0
39 5 9.7015 -86.9135 2010-06-24T22:19:28.20Z 17.0 28.5864 33.6137 218.9 4.4747 0.035 157.0 36.4
39 5 9.7015 -86.9135 2010-06-24T22:19:28.20Z 18.0 28.598 33.6361 218.8 4.4747 0.034 160.0 35.2
39 5 9.7015 -86.9135 2010-06-24T22:19:28.20Z 19.0 28.5933 33.6374 218.3 4.4713 0.04 162.5 31.2
39 5 9.7015 -86.9135 2010-06-24T22:19:28.20Z 20.0 28.5962 33.6423 217.4 4.475 0.037 167.9 27.4
39 5 9.7015 -86.9135 2010-06-24T22:19:28.20Z 21.0 28.6321 33.6778 217.6 4.484 0.038 170.4 24.5
39 5 9.7015 -86.9135 2010-06-24T22:19:28.20Z 22.0 28.5664 33.7841 218.3 4.4818 0.043 173.6 21.3
39 5 9.7015 -86.9135 2010-06-24T22:19:28.20Z 23.0 28.2817 33.9255 216.3 4.4743 0.049 175.0 19.5
39 5 9.7015 -86.9135 2010-06-24T22:19:28.20Z 24.0 27.7957 34.0433 188.8 4.4906 0.05 178.5 17.5
39 5 9.7015 -86.9135 2010-06-24T22:19:28.20Z 25.0 26.8185 34.2522 178.2 4.5083 0.042 182.0 15.4
39 5 9.7015 -86.9135 2010-06-24T22:19:28.20Z 26.0 26.5554 34.3021 160.6 4.5053 0.05 184.5 13.6
39 5 9.7015 -86.9135 2010-06-24T22:19:28.20Z 27.0 25.958 34.3416 164.8 4.4866 0.053 186.9 12.5
39 5 9.7015 -86.9135 2010-06-24T22:19:28.20Z 28.0 24.9413 34.4048 132.5 4.4898 0.065 189.8 11.2
39 5 9.7015 -86.9135 2010-06-24T22:19:28.20Z 29.0 24.5889 34.4322 113.1 4.4885 0.059 193.4 9.93
39 5 9.7015 -86.9135 2010-06-24T22:19:28.20Z 30.0 23.8488 34.4768 104.1 4.4825 0.063 196.0 8.77
39 5 9.7015 -86.9135 2010-06-24T22:19:28.20Z 31.0 22.7207 34.5705 91.8 4.4962 0.063 198.0 7.86
39 5 9.7015 -86.9135 2010-06-24T22:19:28.20Z 32.0 21.7063 34.6332 104.2 4.5256 0.066 201.1 7.14
39 5 9.7015 -86.9135 2010-06-24T22:19:28.20Z 33.0 21.2396 34.6281 107.4 4.5321 0.055 204.2 6.44
39 5 9.7015 -86.9135 2010-06-24T22:19:28.20Z 34.0 20.8743 34.6686 101.3 4.5473 0.058 207.1 5.87
39 5 9.7015 -86.9135 2010-06-24T22:19:28.20Z 35.0 20.7049 34.6663 100.1 4.5476 0.048 210.5 5.3
39 5 9.7015 -86.9135 2010-06-24T22:19:28.20Z 36.0 20.3966 34.6823 98.8 4.5642 0.045 212.2 4.83
39 5 9.7015 -86.9135 2010-06-24T22:19:28.20Z 37.0 20.2169 34.6847 95.9 4.5704 0.05 214.6 4.35
39 5 9.7015 -86.9135 2010-06-24T22:19:28.20Z 38.0 19.9838 34.6899 93.9 4.5762 0.042 217.2 3.93
39 5 9.7015 -86.9135 2010-06-24T22:19:28.20Z 39.0 19.8162 34.6934 90.6 4.5754 0.052 220.2 3.63
39 5 9.7015 -86.9135 2010-06-24T22:19:28.20Z 40.0 19.5541 34.6969 88.8 4.5786 0.038 223.0 3.33
39 5 9.7015 -86.9135 2010-06-24T22:19:28.20Z 41.0 19.3022 34.6998 86.8 4.5813 0.038 224.6 3.04
39 5 9.7015 -86.9135 2010-06-24T22:19:28.20Z 42.0 19.0947 34.7021 81.2 4.5816 0.047 227.6 2.76
39 5 9.7015 -86.9135 2010-06-24T22:19:28.20Z 43.0 18.8113 34.7143 78.1 4.5829 0.036 230.6 2.49
39 5 9.7015 -86.9135 2010-06-24T22:19:28.20Z 44.0 18.5189 34.7233 75.8 4.5818 0.036 232.0 2.27
39 5 9.7015 -86.9135 2010-06-24T22:19:28.20Z 45.0 18.2941 34.7357 70.6 4.579 0.045 234.6 2.12
39 5 9.7015 -86.9135 2010-06-24T22:19:28.20Z 46.0 18.2999 34.7321 66.8 4.5791 0.037 237.8 1.9
39 5 9.7015 -86.9135 2010-06-24T22:19:28.20Z 47.0 17.5458 34.7751 64.0 4.5771 0.042 240.0 1.73
39 5 9.7015 -86.9135 2010-06-24T22:19:28.20Z 48.0 17.349 34.7638 56.7 4.5803 0.037 242.9 1.61
39 5 9.7015 -86.9135 2010-06-24T22:19:28.20Z 49.0 16.4432 34.7878 54.7 4.6038 0.026 244.9 1.48
39 5 9.7015 -86.9135 2010-06-24T22:19:28.20Z 50.0 16.2665 34.7977 46.1 4.6075 0.025 247.2 1.38
39 5 9.7015 -86.9135 2010-06-24T22:19:28.20Z 51.0 16.1505 34.7989 40.9 4.6127 0.025 250.0 1.29
39 5 9.7015 -86.9135 2010-06-24T22:19:28.20Z 52.0 16.002 34.8028 39.4 4.6143 0.023 252.2 1.2
39 5 9.7015 -86.9135 2010-06-24T22:19:28.20Z 53.0 15.9594 34.8097 37.5 4.615 0.027 255.4 1.1
39 5 9.7015 -86.9135 2010-06-24T22:19:28.20Z 54.0 15.7864 34.8296 36.2 4.6175 0.02 258.4 1.01
39 5 9.7015 -86.9135 2010-06-24T22:19:28.20Z 55.0 15.7608 34.8306 34.2 4.6183 0.019 259.8 0.944
39 5 9.7015 -86.9135 2010-06-24T22:19:28.20Z 56.0 15.7229 34.83 31.8 4.6178 0.023 261.8 0.891
39 5 9.7015 -86.9135 2010-06-24T22:19:28.20Z 57.0 15.6832 34.8323 30.4 4.6186 0.02 266.1 0.828
39 5 9.7015 -86.9135 2010-06-24T22:19:28.20Z 58.0 15.5986 34.8337 30.3 4.6189 0.019 267.5 0.773
39 5 9.7015 -86.9135 2010-06-24T22:19:28.20Z 59.0 15.5603 34.8335 29.8 4.6196 0.023 270.0 0.726
39 5 9.7015 -86.9135 2010-06-24T22:19:28.20Z 60.0 15.4402 34.8375 29.6 4.6213 0.021 272.9 0.661
39 5 9.7015 -86.9135 2010-06-24T22:19:28.20Z 61.0 15.3552 34.8372 29.1 4.6194 0.024 275.1 0.625
39 5 9.7015 -86.9135 2010-06-24T22:19:28.20Z 62.0 15.2689 34.8378 28.2 4.6192 0.022 277.4 0.594
39 5 9.7015 -86.9135 2010-06-24T22:19:28.20Z 63.0 15.1817 34.8416 27.5 4.6202 0.022 279.5 0.561
39 5 9.7015 -86.9135 2010-06-24T22:19:28.20Z 64.0 15.1749 34.8469 26.5 4.6189 0.023 282.9 0.512
39 5 9.7015 -86.9135 2010-06-24T22:19:28.20Z 65.0 15.1321 34.8542 26.0 4.6237 0.018 286.5 0.468
39 5 9.7015 -86.9135 2010-06-24T22:19:28.20Z 66.0 15.0175 34.8668 26.1 4.6243 0.019 287.5 0.439
39 5 9.7015 -86.9135 2010-06-24T22:19:28.20Z 67.0 14.8878 34.8688 26.0 4.6256 0.019 288.5 0.426
39 5 9.7015 -86.9135 2010-06-24T22:19:28.20Z 68.0 14.8046 34.8682 25.4 4.6248 0.023 292.5 0.404
39 5 9.7015 -86.9135 2010-06-24T22:19:28.20Z 69.0 14.7766 34.8688 25.1 4.6274 0.02 296.2 0.369
39 5 9.7015 -86.9135 2010-06-24T22:19:28.20Z 70.0 14.7601 34.8703 25.1 4.6293 0.02 298.6 0.34
39 5 9.7015 -86.9135 2010-06-24T22:19:28.20Z 71.0 14.7409 34.872 25.1 4.6287 0.019 300.9 0.327
39 5 9.7015 -86.9135 2010-06-24T22:19:28.20Z 72.0 14.6843 34.8753 25.0 4.626 0.018 302.2 0.311
39 5 9.7015 -86.9135 2010-06-24T22:19:28.20Z 73.0 14.6447 34.8759 24.8 4.6229 0.024 305.9 0.287
39 5 9.7015 -86.9135 2010-06-24T22:19:28.20Z 74.0 14.6195 34.876 24.8 4.6248 0.027 309.6 0.261
39 5 9.7015 -86.9135 2010-06-24T22:19:28.20Z 75.0 14.6 34.8768 24.8 4.6322 0.032 310.9 0.248
39 5 9.7015 -86.9135 2010-06-24T22:19:28.20Z 76.0 14.5657 34.8772 24.9 4.6308 0.017 312.0 0.238
39 5 9.7015 -86.9135 2010-06-24T22:19:28.20Z 77.0 14.5377 34.8777 25.2 4.6188 0.025 315.2 0.224
39 5 9.7015 -86.9135 2010-06-24T22:19:28.20Z 78.0 14.4963 34.8803 25.3 4.6148 0.039 318.5 0.205
39 5 9.7015 -86.9135 2010-06-24T22:19:28.20Z 79.0 14.4904 34.8815 25.0 4.6065 0.06 320.6 0.189
39 5 9.7015 -86.9135 2010-06-24T22:19:28.20Z 80.0 14.4899 34.8832 24.6 4.5978 0.025 323.1 0.18
39 5 9.7015 -86.9135 2010-06-24T22:19:28.20Z 81.0 14.4737 34.8844 24.2 4.6167 0.021 325.2 0.169
39 5 9.7015 -86.9135 2010-06-24T22:19:28.20Z 82.0 14.4397 34.8839 23.3 4.6159 0.018 327.8 0.157
39 5 9.7015 -86.9135 2010-06-24T22:19:28.20Z 83.0 14.4313 34.8834 23.0 4.6147 0.025 330.9 0.142
39 5 9.7015 -86.9135 2010-06-24T22:19:28.20Z 84.0 14.423 34.8833 23.0 4.6226 0.038 333.4 0.137
39 5 9.7015 -86.9135 2010-06-24T22:19:28.20Z 85.0 14.4072 34.8815 23.1 4.616 0.017 335.5 0.13
39 5 9.7015 -86.9135 2010-06-24T22:19:28.20Z 86.0 14.3548 34.8761 23.7 4.6227 0.023 338.4 0.123
39 5 9.7015 -86.9135 2010-06-24T22:19:28.20Z 87.0 14.3265 34.8733 24.9 4.6216 0.05 341.4 0.115
39 5 9.7015 -86.9135 2010-06-24T22:19:28.20Z 88.0 14.253 34.8688 25.5 4.6231 0.017 343.2 0.108
39 5 9.7015 -86.9135 2010-06-24T22:19:28.20Z 89.0 14.2192 34.8762 26.5 4.6206 0.018 345.7 0.0998
39 5 9.7015 -86.9135 2010-06-24T22:19:28.20Z 90.0 14.2125 34.8825 25.6 4.6204 0.017 348.5 0.0955
39 5 9.7015 -86.9135 2010-06-24T22:19:28.20Z 91.0 14.2086 34.8917 25.2 4.6211 0.014 349.9 0.0902
39 5 9.7015 -86.9135 2010-06-24T22:19:28.20Z 92.0 14.1894 34.8918 22.6 4.6207 0.015 351.9 0.0852
39 5 9.7015 -86.9135 2010-06-24T22:19:28.20Z 93.0 14.1826 34.8922 20.2 4.6197 0.014 357.0 0.0783
39 5 9.7015 -86.9135 2010-06-24T22:19:28.20Z 94.0 14.1457 34.8974 19.8 4.612 0.014 358.2 0.0735
39 5 9.7015 -86.9135 2010-06-24T22:19:28.20Z 95.0 14.1247 34.8981 18.2 4.611 0.016 359.8 0.0695
39 5 9.7015 -86.9135 2010-06-24T22:19:28.20Z 96.0 14.1167 34.898 15.4 4.6102 0.018 362.8 0.0668
39 5 9.7015 -86.9135 2010-06-24T22:19:28.20Z 97.0 14.1014 34.8978 14.5 4.6119 0.015 366.2 0.0634
39 5 9.7015 -86.9135 2010-06-24T22:19:28.20Z 98.0 14.0896 34.8979 14.5 4.6113 0.014 368.6 0.0566
39 5 9.7015 -86.9135 2010-06-24T22:19:28.20Z 99.0 14.0838 34.8977 14.3 4.614 0.015 370.8 0.0535
39 5 9.7015 -86.9135 2010-06-24T22:19:28.20Z 100.0 14.0756 34.8977 14.2 4.6171 0.014 372.9 0.0506
39 5 9.7015 -86.9135 2010-06-24T22:19:28.20Z 101.0 14.0531 34.8953 14.3 4.6227 0.012 374.9 0.0485
39 5 9.7015 -86.9135 2010-06-24T22:19:28.20Z 102.0 14.0217 34.8938 14.6 4.6226 0.012 378.8 0.0443
39 5 9.7015 -86.9135 2010-06-24T22:19:28.20Z 103.0 13.9871 34.8908 14.8 4.624 0.011 381.6 0.0393
39 5 9.7015 -86.9135 2010-06-24T22:19:28.20Z 104.0 13.9617 34.8912 15.2 4.6297 0.011 382.8
39 5 9.7015 -86.9135 2010-06-24T22:19:28.20Z 105.0 13.9461 34.894 16.4 4.6339 0.012 385.4
39 5 9.7015 -86.9135 2010-06-24T22:19:28.20Z 106.0 13.9237 34.8946 17.0 4.6357 0.012 391.7
39 5 9.7015 -86.9135 2010-06-24T22:19:28.20Z 107.0 13.8936 34.8954 16.1 4.6404 0.01 419.0
57 6 9.6558 -86.8697 2010-06-25T08:10:04.80Z 0.0 28.51 33.559 216.3 4.4001 0.008 28.4
57 6 9.6558 -86.8697 2010-06-25T08:10:04.80Z 1.0 28.5097 33.5594 216.3 4.4192 0.01 36.4
57 6 9.6558 -86.8697 2010-06-25T08:10:04.80Z 2.0 28.5094 33.5598 216.3 4.4384 0.012 44.3
57 6 9.6558 -86.8697 2010-06-25T08:10:04.80Z 3.0 28.5091 33.5602 216.3 4.4575 0.013 52.3
57 6 9.6558 -86.8697 2010-06-25T08:10:04.80Z 4.0 28.5088 33.5605 216.3 4.4766 0.015 60.3
57 6 9.6558 -86.8697 2010-06-25T08:10:04.80Z 5.0 28.5085 33.5609 216.3 4.4958 0.017 68.3
57 6 9.6558 -86.8697 2010-06-25T08:10:04.80Z 6.0 28.5082 33.5613 216.3 4.5149 0.019 76.2
57 6 9.6558 -86.8697 2010-06-25T08:10:04.80Z 7.0 28.5079 33.5617 216.3 4.5341 0.021 84.2
57 6 9.6558 -86.8697 2010-06-25T08:10:04.80Z 8.0 28.5158 33.5621 216.5 4.5346 0.018 93.1
57 6 9.6558 -86.8697 2010-06-25T08:10:04.80Z 9.0 28.5154 33.5618 216.0 4.5326 0.019 96.0
57 6 9.6558 -86.8697 2010-06-25T08:10:04.80Z 10.0 28.5194 33.5629 215.9 4.5355 0.018 102.0
57 6 9.6558 -86.8697 2010-06-25T08:10:04.80Z 11.0 28.5276 33.5657 215.9 4.5174 0.018 105.1
57 6 9.6558 -86.8697 2010-06-25T08:10:04.80Z 12.0 28.5303 33.5672 216.2 4.5333 0.019 108.9 0.00366
57 6 9.6558 -86.8697 2010-06-25T08:10:04.80Z 13.0 28.5257 33.5641 216.1 4.5351 0.018 113.0 0.00784
57 6 9.6558 -86.8697 2010-06-25T08:10:04.80Z 14.0 28.5267 33.565 216.2 4.5346 0.021 115.9 0.00787
57 6 9.6558 -86.8697 2010-06-25T08:10:04.80Z 15.0 28.5275 33.5652 216.4 4.5337 0.02 119.1 0.0075
57 6 9.6558 -86.8697 2010-06-25T08:10:04.80Z 16.0 28.5268 33.5645 216.2 4.5333 0.02 122.9 0.00758
57 6 9.6558 -86.8697 2010-06-25T08:10:04.80Z 17.0 28.5272 33.5648 216.1 4.5329 0.019 126.9 0.00723
57 6 9.6558 -86.8697 2010-06-25T08:10:04.80Z 18.0 28.5217 33.5632 216.0 4.5337 0.019 129.5 0.00763
57 6 9.6558 -86.8697 2010-06-25T08:10:04.80Z 19.0 28.5206 33.5629 216.2 4.5343 0.021 133.1 0.00785
57 6 9.6558 -86.8697 2010-06-25T08:10:04.80Z 20.0 28.5383 33.5835 215.9 4.5314 0.019 136.4 0.00788
57 6 9.6558 -86.8697 2010-06-25T08:10:04.80Z 21.0 28.5583 33.6073 216.3 4.5263 0.021 138.0 0.00788
57 6 9.6558 -86.8697 2010-06-25T08:10:04.80Z 22.0 28.5608 33.6874 216.0 4.5114 0.029 140.0 0.00793
57 6 9.6558 -86.8697 2010-06-25T08:10:04.80Z 23.0 28.4134 33.8351 211.2 4.5081 0.044 142.9 0.00799
57 6 9.6558 -86.8697 2010-06-25T08:10:04.80Z 24.0 27.8606 34.0215 203.2 4.5011 0.046 145.5 0.00798
57 6 9.6558 -86.8697 2010-06-25T08:10:04.80Z 25.0 27.1031 34.2 167.9 4.5012 0.053 148.3 0.0081
57 6 9.6558 -86.8697 2010-06-25T08:10:04.80Z 26.0 25.9172 34.3604 145.6 4.5078 0.044 151.2 0.00851
57 6 9.6558 -86.8697 2010-06-25T08:10:04.80Z 27.0 25.0761 34.4047 131.3 4.5072 0.046 152.8 0.00911
57 6 9.6558 -86.8697 2010-06-25T08:10:04.80Z 28.0 24.9659 34.4059 107.0 4.5261 0.052 155.4 0.00923
57 6 9.6558 -86.8697 2010-06-25T08:10:04.80Z 29.0 24.3987 34.4453 101.7 4.5321 0.05 158.8 0.00929
57 6 9.6558 -86.8697 2010-06-25T08:10:04.80Z 30.0 23.6197 34.5047 93.8 4.5308 0.045 161.0 0.00948
57 6 9.6558 -86.8697 2010-06-25T08:10:04.80Z 31.0 22.9161 34.5652 88.6 4.5317 0.051 162.5 0.00946
57 6 9.6558 -86.8697 2010-06-25T08:10:04.80Z 32.0 22.4289 34.6033 107.3 4.5453 0.055 165.6 0.00968
57 6 9.6558 -86.8697 2010-06-25T08:10:04.80Z 33.0 22.0572 34.6434 117.5 4.5524 0.044 168.6 0.00963
57 6 9.6558 -86.8697 2010-06-25T08:10:04.80Z 34.0 21.8455 34.658 119.0 4.5589 0.041 169.9 0.0096
57 6 9.6558 -86.8697 2010-06-25T08:10:04.80Z 35.0 21.6492 34.6614 118.0 4.5627 0.047 171.9 0.00955
57 6 9.6558 -86.8697 2010-06-25T08:10:04.80Z 36.0 21.4606 34.6635 116.1 4.5677 0.042 175.1 0.00961
57 6 9.6558 -86.8697 2010-06-25T08:10:04.80Z 37.0 20.992 34.6751 115.0 4.5692 0.038 176.5 0.00954
57 6 9.6558 -86.8697 2010-06-25T08:10:04.80Z 38.0 20.8105 34.6782 102.6 4.5725 0.051 179.0 0.0095
57 6 9.6558 -86.8697 2010-06-25T08:10:04.80Z 39.0 20.6561 34.6791 98.3 4.5715 0.045 182.0 0.00949
57 6 9.6558 -86.8697 2010-06-25T08:10:04.80Z 40.0 20.4077 34.6869 96.7 4.5737 0.042 184.2 0.0096
57 6 9.6558 -86.8697 2010-06-25T08:10:04.80Z 41.0 20.22 34.6901 96.3 4.5761 0.036 186.1 0.00954
57 6 9.6558 -86.8697 2010-06-25T08:10:04.80Z 42.0 20.0129 34.6934 94.9 4.5806 0.039 187.9 0.00956
57 6 9.6558 -86.8697 2010-06-25T08:10:04.80Z 43.0 20.0294 34.6939 91.0 4.5818 0.034 192.0 0.00952
57 6 9.6558 -86.8697 2010-06-25T08:10:04.80Z 44.0 19.8189 34.6975 91.4 4.5888 0.03 193.1 0.00946
57 6 9.6558 -86.8697 2010-06-25T08:10:04.80Z 45.0 19.769 34.6983 88.1 4.59 0.041 195.2 0.00949
57 6 9.6558 -86.8697 2010-06-25T08:10:04.80Z 46.0 19.5458 34.6992 85.8 4.5901 0.038 197.9 0.00949
57 6 9.6558 -86.8697 2010-06-25T08:10:04.80Z 47.0 19.3703 34.7002 83.6 4.5882 0.034 200.0 0.00942
57 6 9.6558 -86.8697 2010-06-25T08:10:04.80Z 48.0 19.1569 34.704 81.5 4.5865 0.038 202.5 0.00947
57 6 9.6558 -86.8697 2010-06-25T08:10:04.80Z 49.0 18.8247 34.7117 79.5 4.5823 0.035 204.8 0.00935
57 6 9.6558 -86.8697 2010-06-25T08:10:04.80Z 50.0 18.7315 34.7167 76.5 4.579 0.035 206.5 0.00944
57 6 9.6558 -86.8697 2010-06-25T08:10:04.80Z 51.0 18.6584 34.7206 74.4 4.5792 0.036 208.4 0.00933
57 6 9.6558 -86.8697 2010-06-25T08:10:04.80Z 52.0 18.6245 34.7233 72.6 4.5791 0.038 210.9 0.00894
57 6 9.6558 -86.8697 2010-06-25T08:10:04.80Z 53.0 18.4718 34.728 71.8 4.5795 0.035 213.1 0.00944
57 6 9.6558 -86.8697 2010-06-25T08:10:04.80Z 54.0 18.3957 34.7313 70.5 4.5774 0.034 214.6 0.00925
57 6 9.6558 -86.8697 2010-06-25T08:10:04.80Z 55.0 18.2209 34.7378 67.6 4.5764 0.044 217.0 0.00868
57 6 9.6558 -86.8697 2010-06-25T08:10:04.80Z 56.0 18.0642 34.7398 65.1 4.578 0.034 219.4 0.00869
57 6 9.6558 -86.8697 2010-06-25T08:10:04.80Z 57.0 17.8296 34.7475 64.2 4.5804 0.03 220.8 0.00824
57 6 9.6558 -86.8697 2010-06-25T08:10:04.80Z 58.0 17.4704 34.758 62.0 4.5813 0.035 222.0 0.00807
57 6 9.6558 -86.8697 2010-06-25T08:10:04.80Z 59.0 17.4181 34.7606 55.9 4.5824 0.037 224.5 0.00832
57 6 9.6558 -86.8697 2010-06-25T08:10:04.80Z 60.0 16.8543 34.7691 53.4 4.5865 0.025 227.2 0.00816
57 6 9.6558 -86.8697 2010-06-25T08:10:04.80Z 61.0 16.5388 34.7805 48.9 4.5984 0.024 229.4 0.00802
57 6 9.6558 -86.8697 2010-06-25T08:10:04.80Z 62.0 16.5142 34.7815 45.0 4.6014 0.022 231.4 0.00799
57 6 9.6558 -86.8697 2010-06-25T08:10:04.80Z 63.0 16.4185 34.7818 44.1 4.6042 0.02 232.6 0.00799
57 6 9.6558 -86.8697 2010-06-25T08:10:04.80Z 64.0 16.3677 34.7816 43.5 4.6096 0.02 233.6 0.00802
57 6 9.6558 -86.8697 2010-06-25T08:10:04.80Z 65.0 16.3025 34.7857 43.0 4.6091 0.023 235.6 0.00791
57 6 9.6558 -86.8697 2010-06-25T08:10:04.80Z 66.0 16.3284 34.7885 42.3 4.6099 0.021 240.0 0.00793
57 6 9.6558 -86.8697 2010-06-25T08:10:04.80Z 67.0 16.0437 34.8068 42.3 4.6112 0.019 241.1 0.00782
57 6 9.6558 -86.8697 2010-06-25T08:10:04.80Z 68.0 15.9253 34.8177 41.2 4.6126 0.019 242.4 0.00754
57 6 9.6558 -86.8697 2010-06-25T08:10:04.80Z 69.0 15.8401 34.8381 36.4 4.6137 0.021 244.6 0.00717
57 6 9.6558 -86.8697 2010-06-25T08:10:04.80Z 70.0 15.7301 34.8459 33.8 4.6157 0.018 246.8 0.007
57 6 9.6558 -86.8697 2010-06-25T08:10:04.80Z 71.0 15.5549 34.8407 32.8 4.6156 0.017 248.1 0.00648
57 6 9.6558 -86.8697 2010-06-25T08:10:04.80Z 72.0 15.4583 34.8357 31.0 4.618 0.02 250.6 0.00643
57 6 9.6558 -86.8697 2010-06-25T08:10:04.80Z 73.0 15.3871 34.8338 30.0 4.6167 0.018 253.0 0.00638
57 6 9.6558 -86.8697 2010-06-25T08:10:04.80Z 74.0 15.2713 34.8392 29.7 4.6157 0.018 254.1 0.00641
57 6 9.6558 -86.8697 2010-06-25T08:10:04.80Z 75.0 15.1236 34.8554 28.9 4.6196 0.019 256.0 0.00633
57 6 9.6558 -86.8697 2010-06-25T08:10:04.80Z 76.0 15.0439 34.8593 27.1 4.617 0.018 259.4 0.00631
57 6 9.6558 -86.8697 2010-06-25T08:10:04.80Z 77.0 14.9778 34.8707 26.8 4.6187 0.016 260.4 0.00629
57 6 9.6558 -86.8697 2010-06-25T08:10:04.80Z 78.0 14.9121 34.8727 26.3 4.6177 0.014 261.5 0.00607
57 6 9.6558 -86.8697 2010-06-25T08:10:04.80Z 79.0 14.8976 34.8768 24.1 4.621 0.017 264.3 0.00556
57 6 9.6558 -86.8697 2010-06-25T08:10:04.80Z 80.0 14.837 34.8825 23.2 4.6182 0.014 267.0 0.00541
57 6 9.6558 -86.8697 2010-06-25T08:10:04.80Z 81.0 14.7942 34.8846 22.3 4.6185 0.012 268.2 0.00525
57 6 9.6558 -86.8697 2010-06-25T08:10:04.80Z 82.0 14.7571 34.8861 20.3 4.6145 0.018 270.1 0.00524
57 6 9.6558 -86.8697 2010-06-25T08:10:04.80Z 83.0 14.72 34.8895 19.0 4.61 0.016 272.1 0.00496
57 6 9.6558 -86.8697 2010-06-25T08:10:04.80Z 84.0 14.6955 34.8905 18.4 4.6105 0.023 274.0 0.00497
57 6 9.6558 -86.8697 2010-06-25T08:10:04.80Z 85.0 14.6689 34.8914 17.9 4.6126 0.016 276.6 0.00494
57 6 9.6558 -86.8697 2010-06-25T08:10:04.80Z 86.0 14.6042 34.8958 17.3 4.6181 0.014 279.0 0.00482
57 6 9.6558 -86.8697 2010-06-25T08:10:04.80Z 87.0 14.5683 34.8981 16.0 4.6277 0.042 280.6 0.00483
57 6 9.6558 -86.8697 2010-06-25T08:10:04.80Z 88.0 14.5469 34.8987 14.5 4.6279 0.015 282.2 0.00483
57 6 9.6558 -86.8697 2010-06-25T08:10:04.80Z 89.0 14.5187 34.8978 13.5 4.6284 0.017 284.1 0.00483
57 6 9.6558 -86.8697 2010-06-25T08:10:04.80Z 90.0 14.496 34.8984 12.3 4.6288 0.014 286.1 0.00483
57 6 9.6558 -86.8697 2010-06-25T08:10:04.80Z 91.0 14.4757 34.8977 11.9 4.6301 0.013 287.8 0.0047
57 6 9.6558 -86.8697 2010-06-25T08:10:04.80Z 92.0 14.4295 34.8934 11.7 4.6335 0.013 289.4 0.00396
57 6 9.6558 -86.8697 2010-06-25T08:10:04.80Z 93.0 14.4124 34.8916 10.6 4.6333 0.013 293.4 0.0038
57 6 9.6558 -86.8697 2010-06-25T08:10:04.80Z 94.0 14.3826 34.8887 10.6 4.6383 0.011 294.2 0.00354
57 6 9.6558 -86.8697 2010-06-25T08:10:04.80Z 95.0 14.3615 34.8906 10.4 4.6383 0.012 295.2 0.00326
57 6 9.6558 -86.8697 2010-06-25T08:10:04.80Z 96.0 14.3597 34.8919 10.0 4.6361 0.014 298.0 0.00328
57 6 9.6558 -86.8697 2010-06-25T08:10:04.80Z 97.0 14.2987 34.8884 9.9 4.6354 0.013 300.5 0.00328
57 6 9.6558 -86.8697 2010-06-25T08:10:04.80Z 98.0 14.1619 34.8823 9.9 4.6294 0.016 302.4 0.00328
57 6 9.6558 -86.8697 2010-06-25T08:10:04.80Z 99.0 14.1312 34.8821 10.7 4.6301 0.016 304.9 0.00299
57 6 9.6558 -86.8697 2010-06-25T08:10:04.80Z 100.0 14.0892 34.8816 10.9 4.6313 0.014 306.6 0.00316
57 6 9.6558 -86.8697 2010-06-25T08:10:04.80Z 101.0 14.0823 34.8878 10.6 4.6191 0.014 307.8 0.00299
57 6 9.6558 -86.8697 2010-06-25T08:10:04.80Z 102.0 14.0839 34.8911 11.2 4.607 0.018 309.8 0.00282
57 6 9.6558 -86.8697 2010-06-25T08:10:04.80Z 103.0 14.0727 34.8925 12.7 4.6092 0.017 312.4 0.00252
57 6 9.6558 -86.8697 2010-06-25T08:10:04.80Z 104.0 14.0585 34.8938 13.5 4.6115 0.013 314.8 0.00237
57 6 9.6558 -86.8697 2010-06-25T08:10:04.80Z 105.0 14.0511 34.8929 14.2 4.6074 0.013 316.6 0.00186
57 6 9.6558 -86.8697 2010-06-25T08:10:04.80Z 106.0 14.0028 34.8896 14.4 4.614 0.01 318.1 0.00183
57 6 9.6558 -86.8697 2010-06-25T08:10:04.80Z 107.0 13.917 34.8795 14.2 4.6253 0.009 319.8 0.00174
57 6 9.6558 -86.8697 2010-06-25T08:10:04.80Z 108.0 13.8783 34.8824 12.7 4.6356 0.009 321.8 0.0017
57 6 9.6558 -86.8697 2010-06-25T08:10:04.80Z 109.0 13.8596 34.8846 12.3 4.6365 0.009 324.5 0.00174
57 6 9.6558 -86.8697 2010-06-25T08:10:04.80Z 110.0 13.8311 34.885 12.8 4.6358 0.009 326.9 0.00165
57 6 9.6558 -86.8697 2010-06-25T08:10:04.80Z 111.0 13.8105 34.8837 12.9 4.6377 0.009 328.5 0.00166
57 6 9.6558 -86.8697 2010-06-25T08:10:04.80Z 112.0 13.7903 34.8824 12.7 4.6347 0.009 330.2 9.48E-4
57 6 9.6558 -86.8697 2010-06-25T08:10:04.80Z 113.0 13.7771 34.8836 12.5 4.6372 0.009 331.9 3.74E-4
57 6 9.6558 -86.8697 2010-06-25T08:10:04.80Z 114.0 13.7554 34.8836 12.3 4.6366 0.009 334.2 2.61E-4
57 6 9.6558 -86.8697 2010-06-25T08:10:04.80Z 115.0 13.7296 34.8826 12.1 4.6371 0.009 336.6 2.79E-4
57 6 9.6558 -86.8697 2010-06-25T08:10:04.80Z 116.0 13.7366 34.8906 12.0 4.6369 0.009 338.6 3.05E-4
57 6 9.6558 -86.8697 2010-06-25T08:10:04.80Z 117.0 13.7332 34.8904 12.4 4.6382 0.009 341.1 1.92E-4
57 6 9.6558 -86.8697 2010-06-25T08:10:04.80Z 118.0 13.7217 34.8907 12.6 4.6375 0.009 342.9 2.03E-4
57 6 9.6558 -86.8697 2010-06-25T08:10:04.80Z 119.0 13.704 34.8887 12.8 4.6379 0.009 343.8 1.99E-4
57 6 9.6558 -86.8697 2010-06-25T08:10:04.80Z 120.0 13.6696 34.8868 13.2 4.6386 0.009 344.6 1.87E-4
57 6 9.6558 -86.8697 2010-06-25T08:10:04.80Z 121.0 13.6577 34.8851 14.5 4.6396 0.009 347.6 1.69E-4
57 6 9.6558 -86.8697 2010-06-25T08:10:04.80Z 122.0 13.6465 34.8838 15.4 4.6398 0.009 350.5 1.48E-4
57 6 9.6558 -86.8697 2010-06-25T08:10:04.80Z 123.0 13.5865 34.8768 17.0 4.6427 0.009 352.1 1.85E-4
57 6 9.6558 -86.8697 2010-06-25T08:10:04.80Z 124.0 13.5655 34.873 19.9 4.6441 0.009 354.2 1.41E-4
57 6 9.6558 -86.8697 2010-06-25T08:10:04.80Z 125.0 13.5155 34.8667 21.7 4.6427 0.009 356.4 1.54E-4
57 6 9.6558 -86.8697 2010-06-25T08:10:04.80Z 126.0 13.4879 34.8643 21.3 4.6434 0.009 358.2 1.45E-4
57 6 9.6558 -86.8697 2010-06-25T08:10:04.80Z 127.0 13.4828 34.8661 20.8 4.6443 0.008 360.0 9.67E-5
57 6 9.6558 -86.8697 2010-06-25T08:10:04.80Z 128.0 13.4759 34.8681 18.9 4.645 0.008 361.8 8.08E-5
57 6 9.6558 -86.8697 2010-06-25T08:10:04.80Z 129.0 13.4436 34.8665 16.3 4.6434 0.008 363.5 1.51E-5
57 6 9.6558 -86.8697 2010-06-25T08:10:04.80Z 130.0 13.4122 34.8643 13.6 4.645 0.008 366.0 6.01E-6
57 6 9.6558 -86.8697 2010-06-25T08:10:04.80Z 131.0 13.3907 34.8626 12.4 4.6429 0.008 368.5 3.22E-6
57 6 9.6558 -86.8697 2010-06-25T08:10:04.80Z 132.0 13.3732 34.8615 12.2 4.6314 0.008 370.2 -4.05E-7
57 6 9.6558 -86.8697 2010-06-25T08:10:04.80Z 133.0 13.3573 34.861 12.2 4.6447 0.008 372.2 1.0E-12
57 6 9.6558 -86.8697 2010-06-25T08:10:04.80Z 134.0 13.3304 34.8583 12.3 4.6443 0.008 374.1 1.0E-12
57 6 9.6558 -86.8697 2010-06-25T08:10:04.80Z 135.0 13.3019 34.8584 12.4 4.6442 0.008 375.5 2.51E-6
57 6 9.6558 -86.8697 2010-06-25T08:10:04.80Z 136.0 13.2995 34.8584 12.6 4.6438 0.008 378.0 2.24E-5
57 6 9.6558 -86.8697 2010-06-25T08:10:04.80Z 137.0 13.278 34.8583 12.9 4.6432 0.008 380.4 7.43E-6
57 6 9.6558 -86.8697 2010-06-25T08:10:04.80Z 138.0 13.2593 34.8572 12.9 4.6447 0.008 381.5 6.37E-6
57 6 9.6558 -86.8697 2010-06-25T08:10:04.80Z 139.0 13.239 34.8551 12.9 4.6435 0.008 383.6 1.95E-6
57 6 9.6558 -86.8697 2010-06-25T08:10:04.80Z 140.0 13.2252 34.8534 12.6 4.6447 0.008 386.5 -2.23E-8
57 6 9.6558 -86.8697 2010-06-25T08:10:04.80Z 141.0 13.2048 34.8512 12.5 4.6439 0.008 388.5 1.0E-12
57 6 9.6558 -86.8697 2010-06-25T08:10:04.80Z 142.0 13.1984 34.8502 12.3 4.6439 0.008 389.8 1.0E-12
57 6 9.6558 -86.8697 2010-06-25T08:10:04.80Z 143.0 13.1878 34.8491 12.0 4.6436 0.008 392.2 1.0E-12
57 6 9.6558 -86.8697 2010-06-25T08:10:04.80Z 144.0 13.1789 34.8476 11.8 4.6436 0.008 395.0 1.0E-12
57 6 9.6558 -86.8697 2010-06-25T08:10:04.80Z 145.0 13.1322 34.8418 11.7 4.6441 0.008 396.8 1.0E-12
57 6 9.6558 -86.8697 2010-06-25T08:10:04.80Z 146.0 13.1057 34.839 11.4 4.6447 0.008 398.4 1.0E-12
57 6 9.6558 -86.8697 2010-06-25T08:10:04.80Z 147.0 13.0911 34.8382 11.1 4.6439 0.008 399.6 1.0E-12
57 6 9.6558 -86.8697 2010-06-25T08:10:04.80Z 148.0 13.0708 34.8396 11.0 4.6425 0.008 400.8 1.0E-12
57 6 9.6558 -86.8697 2010-06-25T08:10:04.80Z 149.0 13.0689 34.8413 10.7 4.6443 0.008 403.2 1.0E-12
57 6 9.6558 -86.8697 2010-06-25T08:10:04.80Z 150.0 13.0747 34.8409 10.5 4.6443 0.008 406.2 1.0E-12
57 6 9.6558 -86.8697 2010-06-25T08:10:04.80Z 151.0 13.039 34.8425 10.4 4.6445 0.008 408.4 1.0E-12
57 6 9.6558 -86.8697 2010-06-25T08:10:04.80Z 152.0 13.0299 34.8425 10.2 4.6447 0.008 410.2 1.0E-12
57 6 9.6558 -86.8697 2010-06-25T08:10:04.80Z 153.0 13.0264 34.8426 10.0 4.6417 0.008 411.9 1.0E-12
57 6 9.6558 -86.8697 2010-06-25T08:10:04.80Z 154.0 13.0213 34.8435 10.0 4.6446 0.008 413.4 1.0E-12
57 6 9.6558 -86.8697 2010-06-25T08:10:04.80Z 155.0 13.0101 34.844 9.9 4.6451 0.008 415.0 1.0E-12
57 6 9.6558 -86.8697 2010-06-25T08:10:04.80Z 156.0 12.9834 34.8441 9.9 4.6452 0.008 416.8 1.0E-12
57 6 9.6558 -86.8697 2010-06-25T08:10:04.80Z 157.0 12.969 34.8439 9.6 4.6451 0.008 419.9 1.0E-12
57 6 9.6558 -86.8697 2010-06-25T08:10:04.80Z 158.0 12.9289 34.8408 9.6 4.6426 0.008 422.8 1.0E-12
57 6 9.6558 -86.8697 2010-06-25T08:10:04.80Z 159.0 12.9122 34.8395 9.7 4.6432 0.008 424.0 1.0E-12
57 6 9.6558 -86.8697 2010-06-25T08:10:04.80Z 160.0 12.8949 34.8385 9.9 4.6443 0.008 425.5 1.0E-12
57 6 9.6558 -86.8697 2010-06-25T08:10:04.80Z 161.0 12.8805 34.8384 10.2 4.6438 0.008 427.4 1.0E-12
57 6 9.6558 -86.8697 2010-06-25T08:10:04.80Z 162.0 12.8661 34.8383 10.3 4.6443 0.008 429.4 1.0E-12
57 6 9.6558 -86.8697 2010-06-25T08:10:04.80Z 163.0 12.8633 34.8383 10.4 4.6446 0.008 431.6 1.0E-12
57 6 9.6558 -86.8697 2010-06-25T08:10:04.80Z 164.0 12.8621 34.8384 10.4 4.6443 0.008 434.0 1.0E-12
57 6 9.6558 -86.8697 2010-06-25T08:10:04.80Z 165.0 12.8576 34.8384 10.4 4.6442 0.008 436.1 1.0E-12
57 6 9.6558 -86.8697 2010-06-25T08:10:04.80Z 166.0 12.8333 34.8379 10.4 4.6429 0.008 437.8 1.0E-12
57 6 9.6558 -86.8697 2010-06-25T08:10:04.80Z 167.0 12.7962 34.8362 10.4 4.6435 0.008 439.0 1.0E-12
57 6 9.6558 -86.8697 2010-06-25T08:10:04.80Z 168.0 12.772 34.835 10.5 4.6441 0.008 440.5 1.0E-12
57 6 9.6558 -86.8697 2010-06-25T08:10:04.80Z 169.0 12.7616 34.8353 10.5 4.6434 0.008 443.0 1.0E-12
57 6 9.6558 -86.8697 2010-06-25T08:10:04.80Z 170.0 12.7554 34.8356 10.4 4.6443 0.008 445.4 1.0E-12
57 6 9.6558 -86.8697 2010-06-25T08:10:04.80Z 171.0 12.7477 34.8359 10.3 4.6399 0.008 447.8 1.0E-12
57 6 9.6558 -86.8697 2010-06-25T08:10:04.80Z 172.0 12.7433 34.836 10.3 4.6441 0.008 450.8 1.0E-12
57 6 9.6558 -86.8697 2010-06-25T08:10:04.80Z 173.0 12.7284 34.8364 10.3 4.6444 0.008 452.8 1.0E-12
57 6 9.6558 -86.8697 2010-06-25T08:10:04.80Z 174.0 12.7053 34.8363 10.3 4.6447 0.008 453.9 1.0E-12
57 6 9.6558 -86.8697 2010-06-25T08:10:04.80Z 175.0 12.6922 34.8361 10.2 4.643 0.008 454.8 1.0E-12
57 6 9.6558 -86.8697 2010-06-25T08:10:04.80Z 176.0 12.6764 34.8343 10.2 4.644 0.008 455.8 1.0E-12
57 6 9.6558 -86.8697 2010-06-25T08:10:04.80Z 177.0 12.667 34.8334 10.2 4.6438 0.008 458.8 1.0E-12
57 6 9.6558 -86.8697 2010-06-25T08:10:04.80Z 178.0 12.6625 34.833 10.3 4.643 0.008 462.1 1.0E-12
57 6 9.6558 -86.8697 2010-06-25T08:10:04.80Z 179.0 12.5941 34.829 10.1 4.6427 0.008 463.1 1.0E-12
57 6 9.6558 -86.8697 2010-06-25T08:10:04.80Z 180.0 12.5514 34.8276 10.3 4.6429 0.008 465.2 1.0E-12
57 6 9.6558 -86.8697 2010-06-25T08:10:04.80Z 181.0 12.542 34.8269 10.2 4.6438 0.008 467.6 1.0E-12
57 6 9.6558 -86.8697 2010-06-25T08:10:04.80Z 182.0 12.536 34.827 10.2 4.6422 0.008 468.9 1.0E-12
57 6 9.6558 -86.8697 2010-06-25T08:10:04.80Z 183.0 12.53 34.8269 10.0 4.6442 0.008 470.9 1.0E-12
57 6 9.6558 -86.8697 2010-06-25T08:10:04.80Z 184.0 12.5193 34.8258 9.9 4.6443 0.008 473.4 1.0E-12
57 6 9.6558 -86.8697 2010-06-25T08:10:04.80Z 185.0 12.4893 34.8244 10.0 4.6449 0.008 475.1 1.0E-12
57 6 9.6558 -86.8697 2010-06-25T08:10:04.80Z 186.0 12.4696 34.8236 10.0 4.6397 0.008 477.0 1.0E-12
57 6 9.6558 -86.8697 2010-06-25T08:10:04.80Z 187.0 12.4639 34.8234 10.0 4.6447 0.008 478.9 1.0E-12
57 6 9.6558 -86.8697 2010-06-25T08:10:04.80Z 188.0 12.4614 34.8234 9.9 4.643 0.008 480.6 1.0E-12
57 6 9.6558 -86.8697 2010-06-25T08:10:04.80Z 189.0 12.4588 34.8234 9.9 4.644 0.008 482.6 1.0E-12
57 6 9.6558 -86.8697 2010-06-25T08:10:04.80Z 190.0 12.4397 34.8228 9.9 4.6444 0.008 484.6 1.0E-12
57 6 9.6558 -86.8697 2010-06-25T08:10:04.80Z 191.0 12.4108 34.8215 9.6 4.6435 0.008 487.5 1.0E-12
57 6 9.6558 -86.8697 2010-06-25T08:10:04.80Z 192.0 12.3867 34.8228 9.4 4.6445 0.008 489.9 1.0E-12
57 6 9.6558 -86.8697 2010-06-25T08:10:04.80Z 193.0 12.374 34.8228 9.5 4.6441 0.008 490.9 1.0E-12
57 6 9.6558 -86.8697 2010-06-25T08:10:04.80Z 194.0 12.3641 34.8218 9.9 4.6446 0.008 491.9 1.0E-12
57 6 9.6558 -86.8697 2010-06-25T08:10:04.80Z 195.0 12.3577 34.8212 10.6 4.6443 0.008 494.4 1.0E-12
57 6 9.6558 -86.8697 2010-06-25T08:10:04.80Z 196.0 12.3486 34.8208 10.9 4.6443 0.008 497.2 1.0E-12
57 6 9.6558 -86.8697 2010-06-25T08:10:04.80Z 197.0 12.3372 34.8201 11.0 4.6445 0.008 499.0 1.0E-12
57 6 9.6558 -86.8697 2010-06-25T08:10:04.80Z 198.0 12.3238 34.8192 11.0 4.6444 0.008 500.8 1.0E-12
57 6 9.6558 -86.8697 2010-06-25T08:10:04.80Z 199.0 12.3138 34.8182 11.0 4.6442 0.008 502.4 1.0E-12
57 6 9.6558 -86.8697 2010-06-25T08:10:04.80Z 200.0 12.3006 34.817 11.0 4.6444 0.008 503.9 1.0E-12
57 6 9.6558 -86.8697 2010-06-25T08:10:04.80Z 201.0 12.2952 34.8167 11.0 4.6449 0.008 506.7 1.0E-12
57 6 9.6558 -86.8697 2010-06-25T08:10:04.80Z 202.0 12.2895 34.8162 11.1 4.6445 0.008 509.9 1.0E-12
57 6 9.6558 -86.8697 2010-06-25T08:10:04.80Z 203.0 12.2783 34.8153 11.1 4.6444 0.008 510.9 1.0E-12
57 6 9.6558 -86.8697 2010-06-25T08:10:04.80Z 204.0 12.266 34.8143 11.1 4.6445 0.008 512.0 1.0E-12
57 6 9.6558 -86.8697 2010-06-25T08:10:04.80Z 205.0 12.2641 34.8138 11.0 4.6438 0.008 514.1 1.0E-12
57 6 9.6558 -86.8697 2010-06-25T08:10:04.80Z 206.0 12.2588 34.8138 10.8 4.6435 0.008 516.4 1.0E-12
57 6 9.6558 -86.8697 2010-06-25T08:10:04.80Z 207.0 12.2274 34.8121 11.0 4.644 0.008 518.9 1.0E-12
57 6 9.6558 -86.8697 2010-06-25T08:10:04.80Z 208.0 12.2148 34.8105 11.5 4.6437 0.008 522.5 1.0E-12
57 6 9.6558 -86.8697 2010-06-25T08:10:04.80Z 209.0 12.18 34.8078 11.6 4.6439 0.008 523.6 1.0E-12
57 6 9.6558 -86.8697 2010-06-25T08:10:04.80Z 210.0 12.1554 34.8064 11.7 4.6448 0.008 524.5 1.0E-12
57 6 9.6558 -86.8697 2010-06-25T08:10:04.80Z 211.0 12.1409 34.8052 11.5 4.6452 0.009 525.5 1.0E-12
57 6 9.6558 -86.8697 2010-06-25T08:10:04.80Z 212.0 12.1265 34.8043 10.9 4.645 0.008 527.6 1.0E-12
57 6 9.6558 -86.8697 2010-06-25T08:10:04.80Z 213.0 12.1131 34.8033 10.3 4.6441 0.008 530.1 1.0E-12
57 6 9.6558 -86.8697 2010-06-25T08:10:04.80Z 214.0 12.0965 34.8028 9.9 4.6446 0.008 532.1 1.0E-12
57 6 9.6558 -86.8697 2010-06-25T08:10:04.80Z 215.0 12.0841 34.8023 9.2 4.6455 0.008 534.6 1.0E-12
57 6 9.6558 -86.8697 2010-06-25T08:10:04.80Z 216.0 12.0497 34.8003 8.9 4.6457 0.008 536.6 1.0E-12
57 6 9.6558 -86.8697 2010-06-25T08:10:04.80Z 217.0 12.0335 34.7997 8.7 4.6464 0.008 537.6 1.0E-12
57 6 9.6558 -86.8697 2010-06-25T08:10:04.80Z 218.0 12.0199 34.7989 8.7 4.6469 0.008 538.6 1.0E-12
57 6 9.6558 -86.8697 2010-06-25T08:10:04.80Z 219.0 12.0243 34.7994 8.4 4.6467 0.008 542.2 1.0E-12
57 6 9.6558 -86.8697 2010-06-25T08:10:04.80Z 220.0 12.0062 34.7982 8.3 4.6459 0.009 544.9 1.0E-12
57 6 9.6558 -86.8697 2010-06-25T08:10:04.80Z 221.0 11.9834 34.7977 8.3 4.6464 0.009 546.0 1.0E-12
57 6 9.6558 -86.8697 2010-06-25T08:10:04.80Z 222.0 11.9761 34.7976 8.5 4.6468 0.008 547.9 1.0E-12
57 6 9.6558 -86.8697 2010-06-25T08:10:04.80Z 223.0 11.957 34.7976 9.3 4.6462 0.008 549.9 1.0E-12
57 6 9.6558 -86.8697 2010-06-25T08:10:04.80Z 224.0 11.945 34.7975 10.0 4.6422 0.008 551.4 1.0E-12
57 6 9.6558 -86.8697 2010-06-25T08:10:04.80Z 225.0 11.9394 34.7973 11.5 4.6447 0.008 553.1 1.0E-12
57 6 9.6558 -86.8697 2010-06-25T08:10:04.80Z 226.0 11.9336 34.7972 12.6 4.6446 0.008 554.9 1.0E-12
57 6 9.6558 -86.8697 2010-06-25T08:10:04.80Z 227.0 11.908 34.7958 13.2 4.6444 0.008 556.2 1.0E-12
57 6 9.6558 -86.8697 2010-06-25T08:10:04.80Z 228.0 11.883 34.7952 13.9 4.6444 0.008 558.2 1.0E-12
57 6 9.6558 -86.8697 2010-06-25T08:10:04.80Z 229.0 11.8764 34.7944 15.1 4.6435 0.008 560.5 1.0E-12
57 6 9.6558 -86.8697 2010-06-25T08:10:04.80Z 230.0 11.8674 34.7942 15.6 4.6449 0.008 561.9 1.0E-12
57 6 9.6558 -86.8697 2010-06-25T08:10:04.80Z 231.0 11.8617 34.7941 15.8 4.6445 0.008 562.8 1.0E-12
57 6 9.6558 -86.8697 2010-06-25T08:10:04.80Z 232.0 11.854 34.7939 16.0 4.6448 0.009 563.8 1.0E-12
57 6 9.6558 -86.8697 2010-06-25T08:10:04.80Z 233.0 11.8413 34.7932 16.3 4.6442 0.009 565.2 1.0E-12
57 6 9.6558 -86.8697 2010-06-25T08:10:04.80Z 234.0 11.8367 34.7932 16.4 4.6435 0.008 566.8 1.0E-12
57 6 9.6558 -86.8697 2010-06-25T08:10:04.80Z 235.0 11.8323 34.7931 16.4 4.645 0.008 568.1 1.0E-12
57 6 9.6558 -86.8697 2010-06-25T08:10:04.80Z 236.0 11.8286 34.7929 16.3 4.6446 0.008 569.6 1.0E-12
57 6 9.6558 -86.8697 2010-06-25T08:10:04.80Z 237.0 11.8232 34.7927 16.4 4.6446 0.008 571.0 1.0E-12
57 6 9.6558 -86.8697 2010-06-25T08:10:04.80Z 238.0 11.8113 34.7919 16.6 4.6438 0.008 572.2 1.0E-12
57 6 9.6558 -86.8697 2010-06-25T08:10:04.80Z 239.0 11.7945 34.7911 16.9 4.6434 0.008 573.6 1.0E-12
57 6 9.6558 -86.8697 2010-06-25T08:10:04.80Z 240.0 11.7824 34.7908 17.3 4.6451 0.009 575.2 1.0E-12
57 6 9.6558 -86.8697 2010-06-25T08:10:04.80Z 241.0 11.7755 34.7906 17.5 4.6436 0.008 576.6 1.0E-12
57 6 9.6558 -86.8697 2010-06-25T08:10:04.80Z 242.0 11.7582 34.7896 17.3 4.645 0.008 577.6 1.0E-12
57 6 9.6558 -86.8697 2010-06-25T08:10:04.80Z 243.0 11.7367 34.7885 17.1 4.6443 0.008 578.5 1.0E-12
57 6 9.6558 -86.8697 2010-06-25T08:10:04.80Z 244.0 11.7276 34.788 17.0 4.6429 0.009 579.2 1.0E-12
57 6 9.6558 -86.8697 2010-06-25T08:10:04.80Z 245.0 11.7097 34.7869 16.9 4.6449 0.009 580.1 1.0E-12
57 6 9.6558 -86.8697 2010-06-25T08:10:04.80Z 246.0 11.697 34.7864 16.6 4.6444 0.008 581.5 1.0E-12
57 6 9.6558 -86.8697 2010-06-25T08:10:04.80Z 247.0 11.6896 34.7859 16.6 4.6453 0.008 583.4 1.0E-12
57 6 9.6558 -86.8697 2010-06-25T08:10:04.80Z 248.0 11.6799 34.7856 16.6 4.6434 0.008 584.9 1.0E-12
57 6 9.6558 -86.8697 2010-06-25T08:10:04.80Z 249.0 11.6725 34.785 16.6 4.6444 0.008 585.8 1.0E-12
57 6 9.6558 -86.8697 2010-06-25T08:10:04.80Z 250.0 11.6554 34.7835 16.6 4.6447 0.008 586.5 1.0E-12
57 6 9.6558 -86.8697 2010-06-25T08:10:04.80Z 251.0 11.6357 34.782 16.6 4.6447 0.009 587.2 1.0E-12
57 6 9.6558 -86.8697 2010-06-25T08:10:04.80Z 252.0 11.6292 34.7811 16.6 4.6445 0.008 588.2 1.0E-12
57 6 9.6558 -86.8697 2010-06-25T08:10:04.80Z 253.0 11.6247 34.7802 16.0 4.6443 0.008 589.6 1.0E-12
57 6 9.6558 -86.8697 2010-06-25T08:10:04.80Z 254.0 11.612 34.779 15.4 4.6435 0.008 590.9 1.0E-12
57 6 9.6558 -86.8697 2010-06-25T08:10:04.80Z 255.0 11.6085 34.7787 15.1 4.6452 0.008 591.8 1.0E-12
57 6 9.6558 -86.8697 2010-06-25T08:10:04.80Z 256.0 11.6061 34.7787 14.6 4.6433 0.008 592.6 1.0E-12
57 6 9.6558 -86.8697 2010-06-25T08:10:04.80Z 257.0 11.605 34.7787 14.0 4.6445 0.008 594.5 1.0E-12
57 6 9.6558 -86.8697 2010-06-25T08:10:04.80Z 258.0 11.6026 34.7783 13.7 4.6447 0.009 596.4 1.0E-12
57 6 9.6558 -86.8697 2010-06-25T08:10:04.80Z 259.0 11.5492 34.7726 13.7 4.6453 0.008 597.4 1.0E-12
57 6 9.6558 -86.8697 2010-06-25T08:10:04.80Z 260.0 11.5222 34.77 13.5 4.6467 0.009 598.2 1.0E-12
57 6 9.6558 -86.8697 2010-06-25T08:10:04.80Z 261.0 11.5077 34.7687 12.9 4.6475 0.009 599.1 1.0E-12
57 6 9.6558 -86.8697 2010-06-25T08:10:04.80Z 262.0 11.5028 34.7681 11.4 4.6461 0.009 600.4 1.0E-12
57 6 9.6558 -86.8697 2010-06-25T08:10:04.80Z 263.0 11.4993 34.7678 10.0 4.6475 0.009 601.8 1.0E-12
57 6 9.6558 -86.8697 2010-06-25T08:10:04.80Z 264.0 11.4948 34.7686 9.3 4.6468 0.009 602.9 1.0E-12
57 6 9.6558 -86.8697 2010-06-25T08:10:04.80Z 265.0 11.487 34.7685 9.0 4.6429 0.009 603.8 1.0E-12
57 6 9.6558 -86.8697 2010-06-25T08:10:04.80Z 266.0 11.4707 34.7669 8.8 4.6461 0.008 604.5 1.0E-12
57 6 9.6558 -86.8697 2010-06-25T08:10:04.80Z 267.0 11.4297 34.7644 8.8 4.647 0.009 605.5 1.0E-12
57 6 9.6558 -86.8697 2010-06-25T08:10:04.80Z 268.0 11.421 34.7632 8.4 4.6388 0.009 607.2 1.0E-12
57 6 9.6558 -86.8697 2010-06-25T08:10:04.80Z 269.0 11.4047 34.7618 7.6 4.647 0.009 608.9 1.0E-12
57 6 9.6558 -86.8697 2010-06-25T08:10:04.80Z 270.0 11.3808 34.761 7.3 4.6454 0.008 609.8 1.0E-12
57 6 9.6558 -86.8697 2010-06-25T08:10:04.80Z 271.0 11.3697 34.7603 6.9 4.6434 0.009 610.5 1.0E-12
57 6 9.6558 -86.8697 2010-06-25T08:10:04.80Z 272.0 11.3652 34.7601 6.7 4.6467 0.009 611.2 1.0E-12
57 6 9.6558 -86.8697 2010-06-25T08:10:04.80Z 273.0 11.3536 34.7598 6.4 4.6458 0.008 612.1 1.0E-12
57 6 9.6558 -86.8697 2010-06-25T08:10:04.80Z 274.0 11.3371 34.7593 6.0 4.6453 0.009 613.5 1.0E-12
57 6 9.6558 -86.8697 2010-06-25T08:10:04.80Z 275.0 11.3292 34.759 5.8 4.6476 0.009 615.1 1.0E-12
57 6 9.6558 -86.8697 2010-06-25T08:10:04.80Z 276.0 11.3078 34.7579 5.6 4.646 0.009 616.4 1.0E-12
57 6 9.6558 -86.8697 2010-06-25T08:10:04.80Z 277.0 11.2834 34.7568 5.5 4.647 0.009 617.6 1.0E-12
57 6 9.6558 -86.8697 2010-06-25T08:10:04.80Z 278.0 11.2709 34.7564 5.4 4.6451 0.009 619.0 1.0E-12
57 6 9.6558 -86.8697 2010-06-25T08:10:04.80Z 279.0 11.2626 34.756 5.4 4.6463 0.009 620.0 1.0E-12
57 6 9.6558 -86.8697 2010-06-25T08:10:04.80Z 280.0 11.2554 34.7556 5.2 4.646 0.009 620.9 1.0E-12
57 6 9.6558 -86.8697 2010-06-25T08:10:04.80Z 281.0 11.2497 34.7553 5.2 4.645 0.009 621.8 1.0E-12
57 6 9.6558 -86.8697 2010-06-25T08:10:04.80Z 282.0 11.2374 34.7547 5.2 4.6455 0.009 622.5 1.0E-12
57 6 9.6558 -86.8697 2010-06-25T08:10:04.80Z 283.0 11.2194 34.754 5.2 4.6443 0.009 623.2 1.0E-12
57 6 9.6558 -86.8697 2010-06-25T08:10:04.80Z 284.0 11.2099 34.7536 5.2 4.6454 0.009 624.0 1.0E-12
57 6 9.6558 -86.8697 2010-06-25T08:10:04.80Z 285.0 11.2023 34.7529 5.1 4.6451 0.009 624.9 1.0E-12
57 6 9.6558 -86.8697 2010-06-25T08:10:04.80Z 286.0 11.1865 34.7517 5.1 4.6434 0.009 626.1 1.0E-12
57 6 9.6558 -86.8697 2010-06-25T08:10:04.80Z 287.0 11.1703 34.7507 5.1 4.6445 0.009 627.5 1.0E-12
57 6 9.6558 -86.8697 2010-06-25T08:10:04.80Z 288.0 11.1593 34.7499 5.0 4.6426 0.009 628.6 1.0E-12
57 6 9.6558 -86.8697 2010-06-25T08:10:04.80Z 289.0 11.1436 34.7492 5.0 4.6422 0.009 629.8 1.0E-12
57 6 9.6558 -86.8697 2010-06-25T08:10:04.80Z 290.0 11.1281 34.7482 4.9 4.6428 0.009 631.1 1.0E-12
57 6 9.6558 -86.8697 2010-06-25T08:10:04.80Z 291.0 11.1153 34.7472 4.9 4.6426 0.009 632.6 1.0E-12
57 6 9.6558 -86.8697 2010-06-25T08:10:04.80Z 292.0 11.1049 34.7466 5.0 4.6425 0.009 633.9 1.0E-12
57 6 9.6558 -86.8697 2010-06-25T08:10:04.80Z 293.0 11.0987 34.7462 5.0 4.6408 0.009 634.8 1.0E-12
57 6 9.6558 -86.8697 2010-06-25T08:10:04.80Z 294.0 11.0782 34.7448 5.0 4.6425 0.009 635.6 1.0E-12
57 6 9.6558 -86.8697 2010-06-25T08:10:04.80Z 295.0 11.0626 34.7447 5.0 4.6416 0.009 636.5 1.0E-12
57 6 9.6558 -86.8697 2010-06-25T08:10:04.80Z 296.0 11.0569 34.7447 5.0 4.6405 0.009 637.2 1.0E-12
57 6 9.6558 -86.8697 2010-06-25T08:10:04.80Z 297.0 11.0366 34.7439 4.9 4.6387 0.009 638.0 1.0E-12
57 6 9.6558 -86.8697 2010-06-25T08:10:04.80Z 298.0 11.0134 34.7426 4.9 4.6393 0.009 638.8 1.0E-12
57 6 9.6558 -86.8697 2010-06-25T08:10:04.80Z 299.0 10.9878 34.7414 4.8 4.6385 0.009 639.8 1.0E-12
57 6 9.6558 -86.8697 2010-06-25T08:10:04.80Z 300.0 10.9743 34.7403 4.8 4.6382 0.009 641.5 1.0E-12
57 6 9.6558 -86.8697 2010-06-25T08:10:04.80Z 301.0 10.956 34.739 4.8 4.6382 0.009 643.2 1.0E-12
57 6 9.6558 -86.8697 2010-06-25T08:10:04.80Z 302.0 10.928 34.7371 4.8 4.6378 0.009 644.2 1.0E-12
57 6 9.6558 -86.8697 2010-06-25T08:10:04.80Z 303.0 10.9043 34.7359 4.8 4.6365 0.009 645.0 1.0E-12
57 6 9.6558 -86.8697 2010-06-25T08:10:04.80Z 304.0 10.8746 34.7342 4.8 4.6359 0.009 645.8 1.0E-12
57 6 9.6558 -86.8697 2010-06-25T08:10:04.80Z 305.0 10.8614 34.733 4.8 4.6363 0.009 646.5 1.0E-12
57 6 9.6558 -86.8697 2010-06-25T08:10:04.80Z 306.0 10.8549 34.7324 4.8 4.6362 0.009 647.8 1.0E-12
57 6 9.6558 -86.8697 2010-06-25T08:10:04.80Z 307.0 10.8476 34.732 4.8 4.6359 0.009 649.2 1.0E-12
57 6 9.6558 -86.8697 2010-06-25T08:10:04.80Z 308.0 10.8449 34.7321 4.8 4.6361 0.009 650.2 1.0E-12
57 6 9.6558 -86.8697 2010-06-25T08:10:04.80Z 309.0 10.8435 34.7321 4.8 4.6356 0.009 651.0 1.0E-12
57 6 9.6558 -86.8697 2010-06-25T08:10:04.80Z 310.0 10.8388 34.7319 4.8 4.6327 0.009 651.8 1.0E-12
57 6 9.6558 -86.8697 2010-06-25T08:10:04.80Z 311.0 10.8274 34.7314 4.8 4.6352 0.009 652.5 1.0E-12
57 6 9.6558 -86.8697 2010-06-25T08:10:04.80Z 312.0 10.8177 34.7312 4.7 4.6365 0.009 653.5 1.0E-12
57 6 9.6558 -86.8697 2010-06-25T08:10:04.80Z 313.0 10.8123 34.731 4.7 4.6366 0.009 655.1 1.0E-12
57 6 9.6558 -86.8697 2010-06-25T08:10:04.80Z 314.0 10.8068 34.7308 4.7 4.6379 0.009 656.9 1.0E-12
57 6 9.6558 -86.8697 2010-06-25T08:10:04.80Z 315.0 10.7964 34.7304 4.7 4.638 0.009 658.2 1.0E-12
57 6 9.6558 -86.8697 2010-06-25T08:10:04.80Z 316.0 10.7868 34.7307 4.7 4.6381 0.009 659.4 1.0E-12
57 6 9.6558 -86.8697 2010-06-25T08:10:04.80Z 317.0 10.7837 34.7308 4.7 4.641 0.009 660.2 1.0E-12
57 6 9.6558 -86.8697 2010-06-25T08:10:04.80Z 318.0 10.7791 34.7307 4.7 4.6411 0.009 661.0 1.0E-12
57 6 9.6558 -86.8697 2010-06-25T08:10:04.80Z 319.0 10.7755 34.7304 4.7 4.6395 0.009 661.6 1.0E-12
57 6 9.6558 -86.8697 2010-06-25T08:10:04.80Z 320.0 10.7493 34.728 4.7 4.6391 0.009 662.2 1.0E-12
57 6 9.6558 -86.8697 2010-06-25T08:10:04.80Z 321.0 10.7103 34.7263 4.7 4.635 0.009 663.0 1.0E-12
57 6 9.6558 -86.8697 2010-06-25T08:10:04.80Z 322.0 10.6854 34.7253 4.7 4.6349 0.009 664.2 1.0E-12
57 6 9.6558 -86.8697 2010-06-25T08:10:04.80Z 323.0 10.6696 34.7239 4.7 4.6324 0.009 665.9 1.0E-12
57 6 9.6558 -86.8697 2010-06-25T08:10:04.80Z 324.0 10.6484 34.7232 4.7 4.6334 0.009 667.1 1.0E-12
57 6 9.6558 -86.8697 2010-06-25T08:10:04.80Z 325.0 10.6419 34.7233 4.7 4.6325 0.009 668.0 1.0E-12
57 6 9.6558 -86.8697 2010-06-25T08:10:04.80Z 326.0 10.6247 34.7223 4.7 4.6309 0.009 669.0 1.0E-12
57 6 9.6558 -86.8697 2010-06-25T08:10:04.80Z 327.0 10.5957 34.7203 4.7 4.6309 0.009 670.4 1.0E-12
57 6 9.6558 -86.8697 2010-06-25T08:10:04.80Z 328.0 10.5604 34.7189 4.7 4.6307 0.009 671.6 1.0E-12
57 6 9.6558 -86.8697 2010-06-25T08:10:04.80Z 329.0 10.5369 34.7181 4.7 4.6303 0.009 672.6 1.0E-12
57 6 9.6558 -86.8697 2010-06-25T08:10:04.80Z 330.0 10.5299 34.7176 4.7 4.6305 0.009 673.6 1.0E-12
57 6 9.6558 -86.8697 2010-06-25T08:10:04.80Z 331.0 10.5224 34.7173 4.7 4.6319 0.009 674.6 1.0E-12
57 6 9.6558 -86.8697 2010-06-25T08:10:04.80Z 332.0 10.5171 34.7173 4.7 4.63 0.009 675.5 1.0E-12
57 6 9.6558 -86.8697 2010-06-25T08:10:04.80Z 333.0 10.5128 34.717 4.7 4.633 0.009 676.2 1.0E-12
57 6 9.6558 -86.8697 2010-06-25T08:10:04.80Z 334.0 10.5083 34.717 4.7 4.6336 0.009 677.0 1.0E-12
57 6 9.6558 -86.8697 2010-06-25T08:10:04.80Z 335.0 10.5046 34.7167 4.7 4.6329 0.009 677.8 1.0E-12
57 6 9.6558 -86.8697 2010-06-25T08:10:04.80Z 336.0 10.5008 34.7165 4.7 4.6335 0.009 678.6 1.0E-12
57 6 9.6558 -86.8697 2010-06-25T08:10:04.80Z 337.0 10.4969 34.7163 4.7 4.6341 0.009 679.8 1.0E-12
57 6 9.6558 -86.8697 2010-06-25T08:10:04.80Z 338.0 10.4911 34.7162 4.7 4.6341 0.009 681.0 1.0E-12
57 6 9.6558 -86.8697 2010-06-25T08:10:04.80Z 339.0 10.4854 34.7159 4.6 4.6342 0.009 682.1 1.0E-12
57 6 9.6558 -86.8697 2010-06-25T08:10:04.80Z 340.0 10.4666 34.7148 4.6 4.6338 0.009 683.1 1.0E-12
57 6 9.6558 -86.8697 2010-06-25T08:10:04.80Z 341.0 10.4518 34.7142 4.6 4.633 0.009 684.2 1.0E-12
57 6 9.6558 -86.8697 2010-06-25T08:10:04.80Z 342.0 10.4434 34.7137 4.6 4.6333 0.009 685.4 1.0E-12
57 6 9.6558 -86.8697 2010-06-25T08:10:04.80Z 343.0 10.4362 34.7134 4.6 4.6338 0.009 686.2 1.0E-12
57 6 9.6558 -86.8697 2010-06-25T08:10:04.80Z 344.0 10.4232 34.7125 4.6 4.6336 0.009 687.1 1.0E-12
57 6 9.6558 -86.8697 2010-06-25T08:10:04.80Z 345.0 10.3995 34.7112 4.6 4.6324 0.009 688.0 1.0E-12
57 6 9.6558 -86.8697 2010-06-25T08:10:04.80Z 346.0 10.3929 34.7109 4.6 4.633 0.009 689.0 1.0E-12
57 6 9.6558 -86.8697 2010-06-25T08:10:04.80Z 347.0 10.3808 34.7101 4.6 4.634 0.009 690.1 1.0E-12
57 6 9.6558 -86.8697 2010-06-25T08:10:04.80Z 348.0 10.3572 34.7092 4.6 4.6329 0.009 691.1 1.0E-12
57 6 9.6558 -86.8697 2010-06-25T08:10:04.80Z 349.0 10.3405 34.7088 4.6 4.6328 0.009 692.0 1.0E-12
57 6 9.6558 -86.8697 2010-06-25T08:10:04.80Z 350.0 10.3377 34.7085 4.6 4.6332 0.009 692.8 1.0E-12
57 6 9.6558 -86.8697 2010-06-25T08:10:04.80Z 351.0 10.3351 34.7083 4.6 4.6325 0.009 693.5 1.0E-12
57 6 9.6558 -86.8697 2010-06-25T08:10:04.80Z 352.0 10.3288 34.7077 4.6 4.6334 0.009 694.9 1.0E-12
57 6 9.6558 -86.8697 2010-06-25T08:10:04.80Z 353.0 10.3017 34.7066 4.6 4.6344 0.009 696.5 1.0E-12
57 6 9.6558 -86.8697 2010-06-25T08:10:04.80Z 354.0 10.2895 34.7067 4.6 4.6345 0.009 697.5 1.0E-12
57 6 9.6558 -86.8697 2010-06-25T08:10:04.80Z 355.0 10.2851 34.7066 4.6 4.6345 0.009 698.4 1.0E-12
57 6 9.6558 -86.8697 2010-06-25T08:10:04.80Z 356.0 10.2626 34.7054 4.6 4.6348 0.009 699.2 1.0E-12
57 6 9.6558 -86.8697 2010-06-25T08:10:04.80Z 357.0 10.2355 34.7049 4.6 4.6376 0.009 700.0 1.0E-12
57 6 9.6558 -86.8697 2010-06-25T08:10:04.80Z 358.0 10.2316 34.7047 4.6 4.6376 0.009 700.9 1.0E-12
57 6 9.6558 -86.8697 2010-06-25T08:10:04.80Z 359.0 10.2274 34.7046 4.6 4.6394 0.009 701.9 1.0E-12
57 6 9.6558 -86.8697 2010-06-25T08:10:04.80Z 360.0 10.2246 34.7047 4.6 4.6392 0.009 702.9 1.0E-12
57 6 9.6558 -86.8697 2010-06-25T08:10:04.80Z 361.0 10.2206 34.7046 4.6 4.6412 0.009 704.0 1.0E-12
57 6 9.6558 -86.8697 2010-06-25T08:10:04.80Z 362.0 10.2172 34.7046 4.6 4.6423 0.009 705.1 1.0E-12
57 6 9.6558 -86.8697 2010-06-25T08:10:04.80Z 363.0 10.1949 34.7033 4.6 4.6414 0.009 706.1 1.0E-12
57 6 9.6558 -86.8697 2010-06-25T08:10:04.80Z 364.0 10.1648 34.702 4.6 4.6416 0.009 707.0 1.0E-12
57 6 9.6558 -86.8697 2010-06-25T08:10:04.80Z 365.0 10.1447 34.7006 4.6 4.6422 0.009 707.8 1.0E-12
57 6 9.6558 -86.8697 2010-06-25T08:10:04.80Z 366.0 10.1113 34.6986 4.6 4.6421 0.009 708.6 1.0E-12
57 6 9.6558 -86.8697 2010-06-25T08:10:04.80Z 367.0 10.088 34.6971 4.6 4.643 0.009 709.9 1.0E-12
57 6 9.6558 -86.8697 2010-06-25T08:10:04.80Z 368.0 10.0791 34.6965 4.6 4.6433 0.009 711.2 1.0E-12
57 6 9.6558 -86.8697 2010-06-25T08:10:04.80Z 369.0 10.0646 34.6955 4.6 4.6433 0.009 712.2 1.0E-12
57 6 9.6558 -86.8697 2010-06-25T08:10:04.80Z 370.0 10.0372 34.6943 4.6 4.6428 0.009 713.0 1.0E-12
57 6 9.6558 -86.8697 2010-06-25T08:10:04.80Z 371.0 10.0296 34.694 4.6 4.642 0.009 713.8 1.0E-12
57 6 9.6558 -86.8697 2010-06-25T08:10:04.80Z 372.0 10.0203 34.6931 4.6 4.64 0.009 714.5 1.0E-12
57 6 9.6558 -86.8697 2010-06-25T08:10:04.80Z 373.0 10.0095 34.6924 4.6 4.6376 0.009 715.8 1.0E-12
57 6 9.6558 -86.8697 2010-06-25T08:10:04.80Z 374.0 9.9943 34.6915 4.6 4.6389 0.009 717.4 1.0E-12
57 6 9.6558 -86.8697 2010-06-25T08:10:04.80Z 375.0 9.9728 34.6905 4.6 4.6412 0.009 718.6 1.0E-12
57 6 9.6558 -86.8697 2010-06-25T08:10:04.80Z 376.0 9.961 34.6898 4.6 4.6403 0.009 719.6 1.0E-12
57 6 9.6558 -86.8697 2010-06-25T08:10:04.80Z 377.0 9.9502 34.6892 4.5 4.6405 0.009 720.6 1.0E-12
57 6 9.6558 -86.8697 2010-06-25T08:10:04.80Z 378.0 9.929 34.6877 4.6 4.6399 0.009 721.5 1.0E-12
57 6 9.6558 -86.8697 2010-06-25T08:10:04.80Z 379.0 9.9029 34.6864 4.6 4.6393 0.009 722.4 1.0E-12
57 6 9.6558 -86.8697 2010-06-25T08:10:04.80Z 380.0 9.8688 34.6842 4.6 4.6388 0.009 723.4 1.0E-12
57 6 9.6558 -86.8697 2010-06-25T08:10:04.80Z 381.0 9.8219 34.6819 4.5 4.6382 0.01 724.4 1.0E-12
57 6 9.6558 -86.8697 2010-06-25T08:10:04.80Z 382.0 9.8091 34.6813 4.5 4.6387 0.009 725.4 1.0E-12
57 6 9.6558 -86.8697 2010-06-25T08:10:04.80Z 383.0 9.7659 34.6786 4.5 4.6379 0.009 726.5 1.0E-12
57 6 9.6558 -86.8697 2010-06-25T08:10:04.80Z 384.0 9.7248 34.6764 4.5 4.6365 0.009 727.8 1.0E-12
57 6 9.6558 -86.8697 2010-06-25T08:10:04.80Z 385.0 9.7047 34.6749 4.5 4.6358 0.01 729.4 1.0E-12
57 6 9.6558 -86.8697 2010-06-25T08:10:04.80Z 386.0 9.6827 34.674 4.5 4.6346 0.009 731.0 1.0E-12
57 6 9.6558 -86.8697 2010-06-25T08:10:04.80Z 387.0 9.6705 34.6736 4.5 4.6338 0.009 732.1 1.0E-12
57 6 9.6558 -86.8697 2010-06-25T08:10:04.80Z 388.0 9.664 34.6732 4.5 4.6348 0.01 733.0 1.0E-12
57 6 9.6558 -86.8697 2010-06-25T08:10:04.80Z 389.0 9.6607 34.6732 4.5 4.6347 0.01 733.6 1.0E-12
57 6 9.6558 -86.8697 2010-06-25T08:10:04.80Z 390.0 9.6479 34.6725 4.5 4.6346 0.009 734.2 1.0E-12
57 6 9.6558 -86.8697 2010-06-25T08:10:04.80Z 391.0 9.6348 34.672 4.5 4.6349 0.01 735.0 1.0E-12
57 6 9.6558 -86.8697 2010-06-25T08:10:04.80Z 392.0 9.6251 34.6714 4.5 4.6345 0.009 736.0 1.0E-12
57 6 9.6558 -86.8697 2010-06-25T08:10:04.80Z 393.0 9.6143 34.6709 4.5 4.6344 0.01 737.8 1.0E-12
57 6 9.6558 -86.8697 2010-06-25T08:10:04.80Z 394.0 9.6035 34.6706 4.5 4.6341 0.01 739.6 1.0E-12
57 6 9.6558 -86.8697 2010-06-25T08:10:04.80Z 395.0 9.5953 34.6704 4.5 4.6348 0.009 741.1 1.0E-12
57 6 9.6558 -86.8697 2010-06-25T08:10:04.80Z 396.0 9.591 34.6705 4.5 4.6345 0.009 743.0 1.0E-12
57 6 9.6558 -86.8697 2010-06-25T08:10:04.80Z 397.0 9.5874 34.6706 4.5 4.6338 0.009 744.6 1.0E-12
57 6 9.6558 -86.8697 2010-06-25T08:10:04.80Z 398.0 9.5859 34.6707 4.5 4.6338 0.01 745.8 1.0E-12
57 6 9.6558 -86.8697 2010-06-25T08:10:04.80Z 399.0 9.5735 34.6702 4.5 4.6339 0.01 747.2 1.0E-12
57 6 9.6558 -86.8697 2010-06-25T08:10:04.80Z 400.0 9.5547 34.6689 4.5 4.6338 0.009 749.2 1.0E-12
57 6 9.6558 -86.8697 2010-06-25T08:10:04.80Z 401.0 9.5388 34.6684 4.5 4.6338 0.009 751.2 1.0E-12
57 6 9.6558 -86.8697 2010-06-25T08:10:04.80Z 402.0 9.5276 34.6676 4.5 4.6338 0.009 754.2 1.0E-12
57 6 9.6558 -86.8697 2010-06-25T08:10:04.80Z 403.0 9.5148 34.6672 4.5 4.6332 0.009 757.4 1.0E-12
57 6 9.6558 -86.8697 2010-06-25T08:10:04.80Z 404.0 9.5099 34.6671 4.5 4.6328 0.01 759.2 1.0E-12
57 6 9.6558 -86.8697 2010-06-25T08:10:04.80Z 405.0 9.5001 34.6662 4.5 4.6317 0.009 762.8 1.0E-12
57 6 9.6558 -86.8697 2010-06-25T08:10:04.80Z 406.0 9.4752 34.6658 4.5 4.6323 0.01 767.0 1.0E-12
57 6 9.6558 -86.8697 2010-06-25T08:10:04.80Z 407.0 9.4628 34.6655 4.5 4.6315 0.009 769.6 1.0E-12
57 6 9.6558 -86.8697 2010-06-25T08:10:04.80Z 408.0 9.4341 34.6638 4.5 4.6311 0.01 771.6 1.0E-12
57 6 9.6558 -86.8697 2010-06-25T08:10:04.80Z 409.0 9.4189 34.6634 4.5 4.6314 0.01 775.9
57 6 9.6558 -86.8697 2010-06-25T08:10:04.80Z 410.0 9.3905 34.6626 4.4 4.6308 0.01 782.6
57 6 9.6558 -86.8697 2010-06-25T08:10:04.80Z 411.0 9.3659 34.6612 4.4 4.6311 0.01 786.8
57 6 9.6558 -86.8697 2010-06-25T08:10:04.80Z 412.0 9.3612 34.6613 4.4 4.6304 0.01 792.5
62 7 9.6403 -86.8675 2010-06-25T11:03:55.20Z 0.0 28.5061 33.6028 215.6 4.5247 0.03 297.0
62 7 9.6403 -86.8675 2010-06-25T11:03:55.20Z 1.0 28.5066 33.602 215.4 4.5263 0.028 298.2 7.21
62 7 9.6403 -86.8675 2010-06-25T11:03:55.20Z 2.0 28.5071 33.6012 215.2 4.5279 0.026 299.5 0.974
62 7 9.6403 -86.8675 2010-06-25T11:03:55.20Z 3.0 28.5076 33.6004 215.1 4.5295 0.025 300.8 0.714
62 7 9.6403 -86.8675 2010-06-25T11:03:55.20Z 4.0 28.5081 33.5997 214.9 4.5311 0.023 302.0 0.474
62 7 9.6403 -86.8675 2010-06-25T11:03:55.20Z 5.0 28.5086 33.5989 214.8 4.5327 0.021 303.2 0.368
62 7 9.6403 -86.8675 2010-06-25T11:03:55.20Z 6.0 28.5091 33.5981 214.6 4.5342 0.019 304.5 0.228
62 7 9.6403 -86.8675 2010-06-25T11:03:55.20Z 7.0 28.5084 33.5975 214.6 4.538 0.021 308.1 0.163
62 7 9.6403 -86.8675 2010-06-25T11:03:55.20Z 8.0 28.5072 33.5958 215.2 4.537 0.02 316.7 0.125
62 7 9.6403 -86.8675 2010-06-25T11:03:55.20Z 9.0 28.509 33.5977 215.0 4.5406 0.02 322.0 0.105
62 7 9.6403 -86.8675 2010-06-25T11:03:55.20Z 10.0 28.5087 33.5979 215.1 4.5371 0.021 324.8 0.0839
62 7 9.6403 -86.8675 2010-06-25T11:03:55.20Z 11.0 28.5107 33.5985 215.4 4.5385 0.021 327.8 0.07
62 7 9.6403 -86.8675 2010-06-25T11:03:55.20Z 12.0 28.5112 33.5986 215.1 4.5362 0.021 330.6 0.0579
62 7 9.6403 -86.8675 2010-06-25T11:03:55.20Z 13.0 28.5109 33.5986 215.0 4.5392 0.02 333.0 0.0607
62 7 9.6403 -86.8675 2010-06-25T11:03:55.20Z 14.0 28.5122 33.5989 215.1 4.5379 0.021 335.4 0.0674
62 7 9.6403 -86.8675 2010-06-25T11:03:55.20Z 15.0 28.5118 33.5978 214.7 4.5387 0.022 338.5 0.0612
62 7 9.6403 -86.8675 2010-06-25T11:03:55.20Z 16.0 28.5117 33.5981 214.8 4.539 0.02 341.2 0.0525
62 7 9.6403 -86.8675 2010-06-25T11:03:55.20Z 17.0 28.5118 33.5982 215.1 4.5374 0.02 343.6 0.0503
62 7 9.6403 -86.8675 2010-06-25T11:03:55.20Z 18.0 28.521 33.6261 215.1 4.5359 0.022 346.0 0.0462
62 7 9.6403 -86.8675 2010-06-25T11:03:55.20Z 19.0 28.4045 33.8167 213.2 4.5255 0.031 348.4 0.0406
62 7 9.6403 -86.8675 2010-06-25T11:03:55.20Z 20.0 28.3156 33.8329 207.0 4.5287 0.03 352.5 0.0379
62 7 9.6403 -86.8675 2010-06-25T11:03:55.20Z 21.0 27.7441 34.072 206.2 4.5306 0.032 353.6 0.034
62 7 9.6403 -86.8675 2010-06-25T11:03:55.20Z 22.0 27.4822 34.1284 176.8 4.5313 0.042 355.5 0.0325
62 7 9.6403 -86.8675 2010-06-25T11:03:55.20Z 23.0 27.5683 34.1028 164.0 4.5283 0.039 358.2 0.0313
62 7 9.6403 -86.8675 2010-06-25T11:03:55.20Z 24.0 25.8966 34.3725 163.7 4.5244 0.047 360.1 0.0301
62 7 9.6403 -86.8675 2010-06-25T11:03:55.20Z 25.0 25.3076 34.4054 127.8 4.5247 0.048 362.5 0.029
62 7 9.6403 -86.8675 2010-06-25T11:03:55.20Z 26.0 24.4631 34.4455 116.9 4.5349 0.037 364.5 0.0271
62 7 9.6403 -86.8675 2010-06-25T11:03:55.20Z 27.0 24.0794 34.4682 104.5 4.5388 0.041 365.8 0.0254
62 7 9.6403 -86.8675 2010-06-25T11:03:55.20Z 28.0 23.6673 34.5115 91.9 4.5353 0.048 367.4 0.0238
62 7 9.6403 -86.8675 2010-06-25T11:03:55.20Z 29.0 22.9409 34.5715 95.3 4.5373 0.05 369.6 0.0235
62 7 9.6403 -86.8675 2010-06-25T11:03:55.20Z 30.0 22.4345 34.6137 108.4 4.5527 0.05 371.9 0.0224
62 7 9.6403 -86.8675 2010-06-25T11:03:55.20Z 31.0 22.2081 34.6464 116.2 4.5558 0.047 373.9 0.0223
62 7 9.6403 -86.8675 2010-06-25T11:03:55.20Z 32.0 21.9493 34.6588 122.0 4.5604 0.047 376.1 0.0215
62 7 9.6403 -86.8675 2010-06-25T11:03:55.20Z 33.0 21.4437 34.6609 122.4 4.5735 0.038 378.0 0.0206
62 7 9.6403 -86.8675 2010-06-25T11:03:55.20Z 34.0 20.9999 34.6646 116.9 4.5714 0.039 379.4 0.0204
62 7 9.6403 -86.8675 2010-06-25T11:03:55.20Z 35.0 20.6434 34.6731 104.1 4.5734 0.049 381.4 0.0196
62 7 9.6403 -86.8675 2010-06-25T11:03:55.20Z 36.0 20.5905 34.6767 99.5 4.5767 0.041 383.6 0.0193
62 7 9.6403 -86.8675 2010-06-25T11:03:55.20Z 37.0 20.4598 34.6814 98.6 4.5779 0.042 386.0 0.0188
62 7 9.6403 -86.8675 2010-06-25T11:03:55.20Z 38.0 20.3335 34.6848 97.2 4.5777 0.037 388.1 0.0185
62 7 9.6403 -86.8675 2010-06-25T11:03:55.20Z 39.0 20.1614 34.6867 96.4 4.5815 0.034 389.5 0.0177
62 7 9.6403 -86.8675 2010-06-25T11:03:55.20Z 40.0 19.8976 34.69 94.2 4.5902 0.035 391.1 0.0174
62 7 9.6403 -86.8675 2010-06-25T11:03:55.20Z 41.0 19.7209 34.6924 89.4 4.5907 0.036 393.2 0.0173
62 7 9.6403 -86.8675 2010-06-25T11:03:55.20Z 42.0 19.4922 34.6945 86.1 4.5876 0.035 395.4 0.0173
62 7 9.6403 -86.8675 2010-06-25T11:03:55.20Z 43.0 19.0518 34.7016 83.6 4.5823 0.039 397.6 0.0171
62 7 9.6403 -86.8675 2010-06-25T11:03:55.20Z 44.0 18.8218 34.7095 79.5 4.5817 0.037 399.8 0.0167
62 7 9.6403 -86.8675 2010-06-25T11:03:55.20Z 45.0 18.6155 34.7165 76.3 4.5818 0.039 401.8 0.0164
62 7 9.6403 -86.8675 2010-06-25T11:03:55.20Z 46.0 18.4612 34.7236 73.0 4.5806 0.037 403.8 0.0159
62 7 9.6403 -86.8675 2010-06-25T11:03:55.20Z 47.0 18.2695 34.7287 70.7 4.5799 0.034 405.2 0.0158
62 7 9.6403 -86.8675 2010-06-25T11:03:55.20Z 48.0 17.7428 34.7478 68.9 4.5878 0.032 406.6 0.0158
62 7 9.6403 -86.8675 2010-06-25T11:03:55.20Z 49.0 17.3925 34.7548 61.3 4.5876 0.033 408.9 0.0152
62 7 9.6403 -86.8675 2010-06-25T11:03:55.20Z 50.0 16.7677 34.767 55.2 4.5977 0.025 411.2 0.0148
62 7 9.6403 -86.8675 2010-06-25T11:03:55.20Z 51.0 16.5079 34.7698 50.6 4.6079 0.022 413.0 0.015
62 7 9.6403 -86.8675 2010-06-25T11:03:55.20Z 52.0 16.4284 34.772 47.1 4.612 0.021 414.9 0.0145
62 7 9.6403 -86.8675 2010-06-25T11:03:55.20Z 53.0 16.3386 34.7776 45.4 4.6122 0.022 416.9 0.0143
62 7 9.6403 -86.8675 2010-06-25T11:03:55.20Z 54.0 16.2718 34.7831 43.8 4.6144 0.023 419.2 0.0142
62 7 9.6403 -86.8675 2010-06-25T11:03:55.20Z 55.0 16.135 34.7981 42.6 4.6133 0.019 421.2 0.0142
62 7 9.6403 -86.8675 2010-06-25T11:03:55.20Z 56.0 16.0272 34.8054 41.2 4.6153 0.019 422.8 0.0142
62 7 9.6403 -86.8675 2010-06-25T11:03:55.20Z 57.0 15.9721 34.8078 37.7 4.6165 0.022 425.0 0.0142
62 7 9.6403 -86.8675 2010-06-25T11:03:55.20Z 58.0 15.8538 34.8306 35.9 4.6183 0.017 427.0 0.0141
62 7 9.6403 -86.8675 2010-06-25T11:03:55.20Z 59.0 15.7587 34.8465 34.8 4.6181 0.017 428.4 0.0139
62 7 9.6403 -86.8675 2010-06-25T11:03:55.20Z 60.0 15.6398 34.8451 33.0 4.6197 0.018 430.2 0.0134
62 7 9.6403 -86.8675 2010-06-25T11:03:55.20Z 61.0 15.5984 34.8432 31.4 4.6195 0.019 432.8 0.0129
62 7 9.6403 -86.8675 2010-06-25T11:03:55.20Z 62.0 15.4807 34.8409 30.7 4.6211 0.016 435.0 0.013
62 7 9.6403 -86.8675 2010-06-25T11:03:55.20Z 63.0 15.3572 34.8413 30.2 4.6222 0.016 436.8 0.0128
62 7 9.6403 -86.8675 2010-06-25T11:03:55.20Z 64.0 15.2553 34.8497 29.7 4.6223 0.018 438.6 0.0127
62 7 9.6403 -86.8675 2010-06-25T11:03:55.20Z 65.0 15.2178 34.8554 28.6 4.622 0.017 440.5 0.0125
62 7 9.6403 -86.8675 2010-06-25T11:03:55.20Z 66.0 15.1791 34.8596 27.5 4.6224 0.02 442.4 0.0122
62 7 9.6403 -86.8675 2010-06-25T11:03:55.20Z 67.0 15.1255 34.8658 26.6 4.624 0.017 444.2 0.0121
62 7 9.6403 -86.8675 2010-06-25T11:03:55.20Z 68.0 15.0915 34.8688 25.8 4.6263 0.014 445.8 0.0115
62 7 9.6403 -86.8675 2010-06-25T11:03:55.20Z 69.0 15.0962 34.869 24.4 4.6258 0.022 448.3 0.0112
62 7 9.6403 -86.8675 2010-06-25T11:03:55.20Z 70.0 15.0808 34.8708 23.7 4.6242 0.014 451.0 0.0111
62 7 9.6403 -86.8675 2010-06-25T11:03:55.20Z 71.0 15.0235 34.8732 23.5 4.6247 0.013 452.2 0.011
62 7 9.6403 -86.8675 2010-06-25T11:03:55.20Z 72.0 14.921 34.8738 22.8 4.6265 0.013 453.6 0.011
62 7 9.6403 -86.8675 2010-06-25T11:03:55.20Z 73.0 14.8769 34.8753 20.9 4.6253 0.02 455.6 0.0109
62 7 9.6403 -86.8675 2010-06-25T11:03:55.20Z 74.0 14.8608 34.8759 19.0 4.6283 0.016 458.8 0.0105
62 7 9.6403 -86.8675 2010-06-25T11:03:55.20Z 75.0 14.7961 34.8798 18.0 4.6275 0.013 461.2 0.0102
62 7 9.6403 -86.8675 2010-06-25T11:03:55.20Z 76.0 14.7873 34.8818 17.1 4.6283 0.012 462.4 0.00967
62 7 9.6403 -86.8675 2010-06-25T11:03:55.20Z 77.0 14.7542 34.8848 16.6 4.6263 0.018 463.5 0.00954
62 7 9.6403 -86.8675 2010-06-25T11:03:55.20Z 78.0 14.7492 34.8853 16.5 4.6286 0.02 465.9 0.00949
62 7 9.6403 -86.8675 2010-06-25T11:03:55.20Z 79.0 14.6982 34.8898 16.5 4.6245 0.013 468.2 0.00944
62 7 9.6403 -86.8675 2010-06-25T11:03:55.20Z 80.0 14.6597 34.8923 16.3 4.6271 0.014 469.5 0.00911
62 7 9.6403 -86.8675 2010-06-25T11:03:55.20Z 81.0 14.6332 34.8934 15.1 4.6289 0.017 472.0 0.00921
62 7 9.6403 -86.8675 2010-06-25T11:03:55.20Z 82.0 14.5641 34.8952 13.8 4.63 0.014 474.8 0.00831
62 7 9.6403 -86.8675 2010-06-25T11:03:55.20Z 83.0 14.5427 34.8967 12.9 4.6327 0.016 476.5 0.00799
62 7 9.6403 -86.8675 2010-06-25T11:03:55.20Z 84.0 14.5222 34.8966 12.1 4.634 0.013 478.0 0.008
62 7 9.6403 -86.8675 2010-06-25T11:03:55.20Z 85.0 14.5022 34.8958 11.9 4.6315 0.012 479.1 0.00795
62 7 9.6403 -86.8675 2010-06-25T11:03:55.20Z 86.0 14.4759 34.8936 11.3 4.6359 0.013 481.2 0.0077
62 7 9.6403 -86.8675 2010-06-25T11:03:55.20Z 87.0 14.4648 34.8921 10.6 4.6359 0.013 484.5 0.00763
62 7 9.6403 -86.8675 2010-06-25T11:03:55.20Z 88.0 14.3869 34.889 10.4 4.6397 0.011 485.5 0.00732
62 7 9.6403 -86.8675 2010-06-25T11:03:55.20Z 89.0 14.3217 34.8912 10.4 4.6371 0.012 486.6 0.00676
62 7 9.6403 -86.8675 2010-06-25T11:03:55.20Z 90.0 14.3199 34.8895 10.0 4.6369 0.014 489.6 0.00664
62 7 9.6403 -86.8675 2010-06-25T11:03:55.20Z 91.0 14.2505 34.8884 9.8 4.6389 0.013 492.2 0.00636
62 7 9.6403 -86.8675 2010-06-25T11:03:55.20Z 92.0 14.1913 34.885 9.8 4.6369 0.014 493.5 0.00637
62 7 9.6403 -86.8675 2010-06-25T11:03:55.20Z 93.0 14.1465 34.8829 9.8 4.6335 0.021 495.0 0.00632
62 7 9.6403 -86.8675 2010-06-25T11:03:55.20Z 94.0 14.1443 34.8866 10.3 4.6289 0.018 497.6 0.00593
62 7 9.6403 -86.8675 2010-06-25T11:03:55.20Z 95.0 14.1261 34.8873 11.2 4.6186 0.013 500.2 0.0063
62 7 9.6403 -86.8675 2010-06-25T11:03:55.20Z 96.0 14.1092 34.886 11.6 4.6242 0.013 501.8 0.00591
62 7 9.6403 -86.8675 2010-06-25T11:03:55.20Z 97.0 14.101 34.8869 11.8 4.6256 0.012 503.6 0.00537
62 7 9.6403 -86.8675 2010-06-25T11:03:55.20Z 98.0 14.0899 34.8882 12.0 4.623 0.011 505.6 0.00503
62 7 9.6403 -86.8675 2010-06-25T11:03:55.20Z 99.0 14.0608 34.8888 12.1 4.623 0.01 506.9 0.00505
62 7 9.6403 -86.8675 2010-06-25T11:03:55.20Z 100.0 14.0329 34.8867 12.4 4.6266 0.01 507.9 0.00484
62 7 9.6403 -86.8675 2010-06-25T11:03:55.20Z 101.0 14.028 34.8856 12.5 4.6283 0.01 510.8 0.00483
62 7 9.6403 -86.8675 2010-06-25T11:03:55.20Z 102.0 13.9868 34.8823 12.5 4.6316 0.009 514.1 0.00483
62 7 9.6403 -86.8675 2010-06-25T11:03:55.20Z 103.0 13.9587 34.8841 12.3 4.6342 0.009 515.1 0.00479
62 7 9.6403 -86.8675 2010-06-25T11:03:55.20Z 104.0 13.9441 34.8832 12.1 4.637 0.009 516.4 0.00483
62 7 9.6403 -86.8675 2010-06-25T11:03:55.20Z 105.0 13.933 34.8822 12.1 4.6346 0.009 518.5 0.00467
62 7 9.6403 -86.8675 2010-06-25T11:03:55.20Z 106.0 13.8369 34.8811 12.2 4.6374 0.009 520.6 0.00454
62 7 9.6403 -86.8675 2010-06-25T11:03:55.20Z 107.0 13.8315 34.8828 12.6 4.6396 0.009 522.2 0.00398
62 7 9.6403 -86.8675 2010-06-25T11:03:55.20Z 108.0 13.8265 34.8829 13.2 4.6404 0.009 524.1 0.00368
62 7 9.6403 -86.8675 2010-06-25T11:03:55.20Z 109.0 13.8081 34.883 13.2 4.6407 0.009 526.1 0.00334
62 7 9.6403 -86.8675 2010-06-25T11:03:55.20Z 110.0 13.7989 34.8847 12.7 4.6407 0.009 528.8 0.00371
62 7 9.6403 -86.8675 2010-06-25T11:03:55.20Z 111.0 13.7775 34.8891 12.7 4.6362 0.009 531.4 0.00331
62 7 9.6403 -86.8675 2010-06-25T11:03:55.20Z 112.0 13.7764 34.8899 13.1 4.6362 0.009 533.2 0.00335
62 7 9.6403 -86.8675 2010-06-25T11:03:55.20Z 113.0 13.7717 34.8907 13.2 4.6403 0.009 534.8 0.00333
62 7 9.6403 -86.8675 2010-06-25T11:03:55.20Z 114.0 13.7611 34.8921 13.2 4.6389 0.009 536.0 0.00325
62 7 9.6403 -86.8675 2010-06-25T11:03:55.20Z 115.0 13.7456 34.8899 13.0 4.6413 0.009 537.6 0.00324
62 7 9.6403 -86.8675 2010-06-25T11:03:55.20Z 116.0 13.7298 34.8875 13.8 4.6402 0.009 540.1 0.0032
62 7 9.6403 -86.8675 2010-06-25T11:03:55.20Z 117.0 13.7059 34.8853 15.1 4.6418 0.009 542.2 0.0031
62 7 9.6403 -86.8675 2010-06-25T11:03:55.20Z 118.0 13.6794 34.8818 16.2 4.6433 0.009 543.8 0.0028
62 7 9.6403 -86.8675 2010-06-25T11:03:55.20Z 119.0 13.6682 34.8796 18.7 4.6432 0.009 545.6 0.00251
62 7 9.6403 -86.8675 2010-06-25T11:03:55.20Z 120.0 13.6451 34.8757 20.8 4.6442 0.009 547.5 0.00226
62 7 9.6403 -86.8675 2010-06-25T11:03:55.20Z 121.0 13.6193 34.8726 21.7 4.6442 0.009 549.5 0.00208
62 7 9.6403 -86.8675 2010-06-25T11:03:55.20Z 122.0 13.5972 34.8713 22.0 4.6442 0.009 551.4 0.00189
62 7 9.6403 -86.8675 2010-06-25T11:03:55.20Z 123.0 13.5694 34.8688 22.1 4.6434 0.009 552.6 0.00175
62 7 9.6403 -86.8675 2010-06-25T11:03:55.20Z 124.0 13.5291 34.8659 22.5 4.6442 0.008 553.8 0.0018
62 7 9.6403 -86.8675 2010-06-25T11:03:55.20Z 125.0 13.5053 34.8645 19.0 4.6458 0.009 556.0 0.00174
62 7 9.6403 -86.8675 2010-06-25T11:03:55.20Z 126.0 13.4531 34.8611 15.2 4.6462 0.008 558.1 0.00182
62 7 9.6403 -86.8675 2010-06-25T11:03:55.20Z 127.0 13.4296 34.8602 14.6 4.6465 0.008 559.0 0.00177
62 7 9.6403 -86.8675 2010-06-25T11:03:55.20Z 128.0 13.4121 34.8603 13.5 4.6457 0.008 560.9 0.0016
62 7 9.6403 -86.8675 2010-06-25T11:03:55.20Z 129.0 13.3986 34.8598 13.0 4.646 0.008 563.4 0.00146
62 7 9.6403 -86.8675 2010-06-25T11:03:55.20Z 130.0 13.384 34.8596 12.8 4.6468 0.008 564.6 0.00114
62 7 9.6403 -86.8675 2010-06-25T11:03:55.20Z 131.0 13.3678 34.8582 12.7 4.646 0.008 566.1 8.51E-4
62 7 9.6403 -86.8675 2010-06-25T11:03:55.20Z 132.0 13.3471 34.8567 12.5 4.6459 0.008 568.2 5.62E-4
62 7 9.6403 -86.8675 2010-06-25T11:03:55.20Z 133.0 13.3275 34.8565 12.5 4.6455 0.008 570.9 5.11E-4
62 7 9.6403 -86.8675 2010-06-25T11:03:55.20Z 134.0 13.2863 34.8536 12.7 4.646 0.008 573.0 5.11E-4
62 7 9.6403 -86.8675 2010-06-25T11:03:55.20Z 135.0 13.256 34.8527 12.6 4.6455 0.008 574.2 3.18E-4
62 7 9.6403 -86.8675 2010-06-25T11:03:55.20Z 136.0 13.2336 34.8509 12.5 4.646 0.008 575.4 3.94E-4
62 7 9.6403 -86.8675 2010-06-25T11:03:55.20Z 137.0 13.2234 34.8496 12.5 4.6456 0.008 576.4 1.51E-4
62 7 9.6403 -86.8675 2010-06-25T11:03:55.20Z 138.0 13.218 34.8485 12.2 4.6444 0.008 578.5 1.77E-4
62 7 9.6403 -86.8675 2010-06-25T11:03:55.20Z 139.0 13.1917 34.8451 12.0 4.6459 0.008 580.8 1.96E-4
62 7 9.6403 -86.8675 2010-06-25T11:03:55.20Z 140.0 13.1444 34.8436 11.9 4.6466 0.008 581.9 1.96E-4
62 7 9.6403 -86.8675 2010-06-25T11:03:55.20Z 141.0 13.1308 34.8427 11.4 4.6455 0.008 584.2 1.9E-4
62 7 9.6403 -86.8675 2010-06-25T11:03:55.20Z 142.0 13.1008 34.8411 11.0 4.6462 0.008 586.9 1.8E-4
62 7 9.6403 -86.8675 2010-06-25T11:03:55.20Z 143.0 13.0839 34.8407 10.9 4.6473 0.008 588.2 1.93E-4
62 7 9.6403 -86.8675 2010-06-25T11:03:55.20Z 144.0 13.0719 34.8411 10.7 4.646 0.008 589.5 1.82E-4
62 7 9.6403 -86.8675 2010-06-25T11:03:55.20Z 145.0 13.0644 34.8414 10.5 4.6456 0.008 590.9 1.68E-4
62 7 9.6403 -86.8675 2010-06-25T11:03:55.20Z 146.0 13.0479 34.8416 10.2 4.6469 0.008 592.2 1.73E-4
62 7 9.6403 -86.8675 2010-06-25T11:03:55.20Z 147.0 13.037 34.8418 10.1 4.6468 0.008 593.9 1.75E-4
62 7 9.6403 -86.8675 2010-06-25T11:03:55.20Z 148.0 13.0279 34.8417 9.9 4.6462 0.008 595.9 1.14E-4
62 7 9.6403 -86.8675 2010-06-25T11:03:55.20Z 149.0 13.017 34.8415 9.9 4.6471 0.009 597.8 9.83E-5
62 7 9.6403 -86.8675 2010-06-25T11:03:55.20Z 150.0 13.0118 34.842 9.9 4.6441 0.008 599.4 5.9E-5
62 7 9.6403 -86.8675 2010-06-25T11:03:55.20Z 151.0 12.9791 34.8428 9.9 4.6459 0.008 600.9 5.47E-5
62 7 9.6403 -86.8675 2010-06-25T11:03:55.20Z 152.0 12.9622 34.8428 9.9 4.6464 0.008 602.4 2.95E-5
62 7 9.6403 -86.8675 2010-06-25T11:03:55.20Z 153.0 12.9478 34.8423 9.8 4.6465 0.008 604.4 5.75E-6
62 7 9.6403 -86.8675 2010-06-25T11:03:55.20Z 154.0 12.9391 34.8423 9.7 4.6468 0.008 606.2 -2.35E-7
62 7 9.6403 -86.8675 2010-06-25T11:03:55.20Z 155.0 12.9219 34.8409 9.7 4.6458 0.008 607.5 1.0E-12
62 7 9.6403 -86.8675 2010-06-25T11:03:55.20Z 156.0 12.9037 34.8389 9.8 4.6459 0.008 608.8 1.0E-12
62 7 9.6403 -86.8675 2010-06-25T11:03:55.20Z 157.0 12.9006 34.8385 10.1 4.6464 0.008 611.2 1.0E-12
62 7 9.6403 -86.8675 2010-06-25T11:03:55.20Z 158.0 12.8827 34.8385 10.3 4.646 0.008 613.6 1.0E-12
62 7 9.6403 -86.8675 2010-06-25T11:03:55.20Z 159.0 12.8713 34.8398 10.4 4.6469 0.008 614.6 1.0E-12
62 7 9.6403 -86.8675 2010-06-25T11:03:55.20Z 160.0 12.8611 34.8398 10.3 4.6461 0.008 615.5 1.0E-12
62 7 9.6403 -86.8675 2010-06-25T11:03:55.20Z 161.0 12.836 34.8385 10.1 4.6462 0.008 616.8 1.0E-12
62 7 9.6403 -86.8675 2010-06-25T11:03:55.20Z 162.0 12.8244 34.8374 9.6 4.6458 0.008 618.9 1.0E-12
62 7 9.6403 -86.8675 2010-06-25T11:03:55.20Z 163.0 12.801 34.8363 9.5 4.6478 0.008 621.0 1.0E-12
62 7 9.6403 -86.8675 2010-06-25T11:03:55.20Z 164.0 12.7744 34.8345 9.5 4.6453 0.008 622.5 1.0E-12
62 7 9.6403 -86.8675 2010-06-25T11:03:55.20Z 165.0 12.7579 34.8336 9.6 4.6471 0.008 624.1 1.0E-12
62 7 9.6403 -86.8675 2010-06-25T11:03:55.20Z 166.0 12.7487 34.8338 9.9 4.6471 0.008 626.1 1.0E-12
62 7 9.6403 -86.8675 2010-06-25T11:03:55.20Z 167.0 12.7441 34.8342 10.0 4.6471 0.008 627.8 1.0E-12
62 7 9.6403 -86.8675 2010-06-25T11:03:55.20Z 168.0 12.7345 34.834 10.1 4.647 0.008 629.1 1.0E-12
62 7 9.6403 -86.8675 2010-06-25T11:03:55.20Z 169.0 12.7138 34.834 10.1 4.6468 0.008 630.6 1.0E-12
62 7 9.6403 -86.8675 2010-06-25T11:03:55.20Z 170.0 12.7018 34.8334 10.1 4.6469 0.008 632.0 1.0E-12
62 7 9.6403 -86.8675 2010-06-25T11:03:55.20Z 171.0 12.6948 34.8333 10.1 4.6467 0.008 633.2 1.0E-12
62 7 9.6403 -86.8675 2010-06-25T11:03:55.20Z 172.0 12.6855 34.8329 10.1 4.6463 0.008 634.8 1.0E-12
62 7 9.6403 -86.8675 2010-06-25T11:03:55.20Z 173.0 12.6734 34.8323 10.1 4.646 0.008 636.6 1.0E-12
62 7 9.6403 -86.8675 2010-06-25T11:03:55.20Z 174.0 12.6508 34.8314 10.2 4.6464 0.008 638.2 1.0E-12
62 7 9.6403 -86.8675 2010-06-25T11:03:55.20Z 175.0 12.6391 34.831 10.3 4.6463 0.008 639.6 1.0E-12
62 7 9.6403 -86.8675 2010-06-25T11:03:55.20Z 176.0 12.635 34.8306 10.3 4.6468 0.008 642.0 1.0E-12
62 7 9.6403 -86.8675 2010-06-25T11:03:55.20Z 177.0 12.6146 34.8297 10.3 4.6432 0.008 644.1 1.0E-12
62 7 9.6403 -86.8675 2010-06-25T11:03:55.20Z 178.0 12.5968 34.8289 10.3 4.6469 0.008 645.1 1.0E-12
62 7 9.6403 -86.8675 2010-06-25T11:03:55.20Z 179.0 12.5714 34.8278 10.3 4.6466 0.008 646.2 1.0E-12
62 7 9.6403 -86.8675 2010-06-25T11:03:55.20Z 180.0 12.5639 34.8274 10.2 4.6469 0.008 647.8 1.0E-12
62 7 9.6403 -86.8675 2010-06-25T11:03:55.20Z 181.0 12.5599 34.8271 10.1 4.6463 0.008 649.2 1.0E-12
62 7 9.6403 -86.8675 2010-06-25T11:03:55.20Z 182.0 12.5547 34.8269 10.0 4.6473 0.008 650.5 1.0E-12
62 7 9.6403 -86.8675 2010-06-25T11:03:55.20Z 183.0 12.5403 34.826 10.1 4.6472 0.008 652.4 1.0E-12
62 7 9.6403 -86.8675 2010-06-25T11:03:55.20Z 184.0 12.5254 34.8249 10.3 4.6458 0.008 654.5 1.0E-12
62 7 9.6403 -86.8675 2010-06-25T11:03:55.20Z 185.0 12.5003 34.8236 10.4 4.6469 0.008 656.0 1.0E-12
62 7 9.6403 -86.8675 2010-06-25T11:03:55.20Z 186.0 12.4839 34.8229 10.5 4.6473 0.008 657.1 1.0E-12
62 7 9.6403 -86.8675 2010-06-25T11:03:55.20Z 187.0 12.473 34.8227 10.4 4.6465 0.008 659.3 1.0E-12
62 7 9.6403 -86.8675 2010-06-25T11:03:55.20Z 188.0 12.46 34.8217 10.2 4.6464 0.008 661.8 1.0E-12
62 7 9.6403 -86.8675 2010-06-25T11:03:55.20Z 189.0 12.4415 34.821 10.2 4.6471 0.008 662.8 1.0E-12
62 7 9.6403 -86.8675 2010-06-25T11:03:55.20Z 190.0 12.4268 34.8202 10.1 4.6478 0.008 663.6 1.0E-12
62 7 9.6403 -86.8675 2010-06-25T11:03:55.20Z 191.0 12.4131 34.8196 10.0 4.6476 0.008 664.8 1.0E-12
62 7 9.6403 -86.8675 2010-06-25T11:03:55.20Z 192.0 12.4095 34.8195 9.8 4.6467 0.008 666.4 1.0E-12
62 7 9.6403 -86.8675 2010-06-25T11:03:55.20Z 193.0 12.3866 34.8186 9.7 4.6477 0.008 668.0 1.0E-12
62 7 9.6403 -86.8675 2010-06-25T11:03:55.20Z 194.0 12.3745 34.8198 9.7 4.6476 0.008 669.4 1.0E-12
62 7 9.6403 -86.8675 2010-06-25T11:03:55.20Z 195.0 12.362 34.8197 9.9 4.6475 0.008 671.0 1.0E-12
62 7 9.6403 -86.8675 2010-06-25T11:03:55.20Z 196.0 12.3465 34.8186 10.3 4.6471 0.008 672.5 1.0E-12
62 7 9.6403 -86.8675 2010-06-25T11:03:55.20Z 197.0 12.3321 34.8176 10.6 4.6454 0.008 673.8 1.0E-12
62 7 9.6403 -86.8675 2010-06-25T11:03:55.20Z 198.0 12.3152 34.8165 10.7 4.6464 0.008 675.0 1.0E-12
62 7 9.6403 -86.8675 2010-06-25T11:03:55.20Z 199.0 12.3056 34.816 10.9 4.6467 0.008 676.4 1.0E-12
62 7 9.6403 -86.8675 2010-06-25T11:03:55.20Z 200.0 12.301 34.8155 10.7 4.6464 0.008 678.0 1.0E-12
62 7 9.6403 -86.8675 2010-06-25T11:03:55.20Z 201.0 12.2952 34.8152 10.7 4.6461 0.008 679.8 1.0E-12
62 7 9.6403 -86.8675 2010-06-25T11:03:55.20Z 202.0 12.2876 34.8146 10.7 4.6464 0.008 681.8 1.0E-12
62 7 9.6403 -86.8675 2010-06-25T11:03:55.20Z 203.0 12.2808 34.814 10.7 4.647 0.008 683.4 1.0E-12
62 7 9.6403 -86.8675 2010-06-25T11:03:55.20Z 204.0 12.2745 34.8136 10.7 4.6472 0.008 684.4 1.0E-12
62 7 9.6403 -86.8675 2010-06-25T11:03:55.20Z 205.0 12.2678 34.8131 10.7 4.6455 0.008 685.4 1.0E-12
62 7 9.6403 -86.8675 2010-06-25T11:03:55.20Z 206.0 12.2624 34.8128 10.7 4.6452 0.008 686.6 1.0E-12
62 7 9.6403 -86.8675 2010-06-25T11:03:55.20Z 207.0 12.2569 34.8123 10.7 4.6473 0.008 688.6 1.0E-12
62 7 9.6403 -86.8675 2010-06-25T11:03:55.20Z 208.0 12.2216 34.8091 10.9 4.6475 0.008 690.5 1.0E-12
62 7 9.6403 -86.8675 2010-06-25T11:03:55.20Z 209.0 12.1899 34.8076 11.1 4.6469 0.008 691.6 1.0E-12
62 7 9.6403 -86.8675 2010-06-25T11:03:55.20Z 210.0 12.1792 34.8071 11.0 4.6468 0.008 692.5 1.0E-12
62 7 9.6403 -86.8675 2010-06-25T11:03:55.20Z 211.0 12.157 34.805 11.0 4.647 0.008 693.5 1.0E-12
62 7 9.6403 -86.8675 2010-06-25T11:03:55.20Z 212.0 12.1295 34.803 11.0 4.6467 0.008 695.5 1.0E-12
62 7 9.6403 -86.8675 2010-06-25T11:03:55.20Z 213.0 12.0929 34.8009 10.7 4.6482 0.008 697.6 1.0E-12
62 7 9.6403 -86.8675 2010-06-25T11:03:55.20Z 214.0 12.0632 34.7985 10.4 4.6481 0.008 699.1 1.0E-12
62 7 9.6403 -86.8675 2010-06-25T11:03:55.20Z 215.0 12.0299 34.7963 10.1 4.6486 0.008 700.5 1.0E-12
62 7 9.6403 -86.8675 2010-06-25T11:03:55.20Z 216.0 12.0073 34.7957 9.7 4.649 0.008 701.8 1.0E-12
62 7 9.6403 -86.8675 2010-06-25T11:03:55.20Z 217.0 11.9956 34.7956 9.4 4.6485 0.008 702.9 1.0E-12
62 7 9.6403 -86.8675 2010-06-25T11:03:55.20Z 218.0 11.9907 34.7963 9.3 4.6491 0.008 703.9 1.0E-12
62 7 9.6403 -86.8675 2010-06-25T11:03:55.20Z 219.0 11.9848 34.7973 9.4 4.6486 0.008 705.0 1.0E-12
62 7 9.6403 -86.8675 2010-06-25T11:03:55.20Z 220.0 11.979 34.7975 10.0 4.6476 0.008 706.5 1.0E-12
62 7 9.6403 -86.8675 2010-06-25T11:03:55.20Z 221.0 11.9696 34.7973 11.4 4.6478 0.008 708.0 1.0E-12
62 7 9.6403 -86.8675 2010-06-25T11:03:55.20Z 222.0 11.9655 34.7975 12.1 4.6478 0.008 709.1 1.0E-12
62 7 9.6403 -86.8675 2010-06-25T11:03:55.20Z 223.0 11.9605 34.7976 12.6 4.6478 0.008 710.1 1.0E-12
62 7 9.6403 -86.8675 2010-06-25T11:03:55.20Z 224.0 11.9498 34.7973 13.4 4.6474 0.008 711.8 1.0E-12
62 7 9.6403 -86.8675 2010-06-25T11:03:55.20Z 225.0 11.9147 34.7944 14.4 4.6473 0.008 713.8 1.0E-12
62 7 9.6403 -86.8675 2010-06-25T11:03:55.20Z 226.0 11.8868 34.794 14.9 4.6462 0.008 715.1 1.0E-12
62 7 9.6403 -86.8675 2010-06-25T11:03:55.20Z 227.0 11.8779 34.7934 15.4 4.6461 0.008 716.2 1.0E-12
62 7 9.6403 -86.8675 2010-06-25T11:03:55.20Z 228.0 11.8734 34.7933 16.0 4.6465 0.008 718.0 1.0E-12
62 7 9.6403 -86.8675 2010-06-25T11:03:55.20Z 229.0 11.8708 34.7931 16.3 4.6463 0.008 720.0 1.0E-12
62 7 9.6403 -86.8675 2010-06-25T11:03:55.20Z 230.0 11.8644 34.7929 16.4 4.6468 0.008 721.4 1.0E-12
62 7 9.6403 -86.8675 2010-06-25T11:03:55.20Z 231.0 11.8566 34.7927 16.6 4.647 0.008 722.2 1.0E-12
62 7 9.6403 -86.8675 2010-06-25T11:03:55.20Z 232.0 11.8395 34.7922 16.6 4.6467 0.008 723.0 1.0E-12
62 7 9.6403 -86.8675 2010-06-25T11:03:55.20Z 233.0 11.8284 34.7919 16.6 4.6471 0.008 723.8 1.0E-12
62 7 9.6403 -86.8675 2010-06-25T11:03:55.20Z 234.0 11.827 34.7917 17.0 4.6466 0.008 725.4 1.0E-12
62 7 9.6403 -86.8675 2010-06-25T11:03:55.20Z 235.0 11.8154 34.791 17.2 4.6467 0.008 727.2 1.0E-12
62 7 9.6403 -86.8675 2010-06-25T11:03:55.20Z 236.0 11.8092 34.7911 17.3 4.6465 0.008 728.4 1.0E-12
62 7 9.6403 -86.8675 2010-06-25T11:03:55.20Z 237.0 11.7964 34.7904 17.4 4.6461 0.008 729.4 1.0E-12
62 7 9.6403 -86.8675 2010-06-25T11:03:55.20Z 238.0 11.7889 34.79 17.4 4.6458 0.008 731.8 1.0E-12
62 7 9.6403 -86.8675 2010-06-25T11:03:55.20Z 239.0 11.7741 34.7893 17.6 4.6468 0.008 734.1 1.0E-12
62 7 9.6403 -86.8675 2010-06-25T11:03:55.20Z 240.0 11.7453 34.7872 17.5 4.6471 0.008 735.0 1.0E-12
62 7 9.6403 -86.8675 2010-06-25T11:03:55.20Z 241.0 11.7329 34.7864 17.5 4.6447 0.008 735.9 1.0E-12
62 7 9.6403 -86.8675 2010-06-25T11:03:55.20Z 242.0 11.7241 34.786 17.1 4.6468 0.009 736.9 1.0E-12
62 7 9.6403 -86.8675 2010-06-25T11:03:55.20Z 243.0 11.7152 34.7859 16.4 4.6457 0.008 738.0 1.0E-12
62 7 9.6403 -86.8675 2010-06-25T11:03:55.20Z 244.0 11.7055 34.7856 16.1 4.6473 0.008 739.2 1.0E-12
62 7 9.6403 -86.8675 2010-06-25T11:03:55.20Z 245.0 11.6883 34.7847 16.2 4.6467 0.008 740.6 1.0E-12
62 7 9.6403 -86.8675 2010-06-25T11:03:55.20Z 246.0 11.6688 34.7832 16.4 4.6469 0.008 742.1 1.0E-12
62 7 9.6403 -86.8675 2010-06-25T11:03:55.20Z 247.0 11.6518 34.7816 16.4 4.647 0.008 743.6 1.0E-12
62 7 9.6403 -86.8675 2010-06-25T11:03:55.20Z 248.0 11.6356 34.7805 16.3 4.6464 0.008 745.0 1.0E-12
62 7 9.6403 -86.8675 2010-06-25T11:03:55.20Z 249.0 11.6209 34.7797 15.9 4.646 0.008 746.4 1.0E-12
62 7 9.6403 -86.8675 2010-06-25T11:03:55.20Z 250.0 11.6023 34.7781 15.6 4.647 0.008 748.0 1.0E-12
62 7 9.6403 -86.8675 2010-06-25T11:03:55.20Z 251.0 11.5929 34.7781 15.2 4.6462 0.008 749.5 1.0E-12
62 7 9.6403 -86.8675 2010-06-25T11:03:55.20Z 252.0 11.5768 34.7772 15.0 4.6456 0.009 750.5 1.0E-12
62 7 9.6403 -86.8675 2010-06-25T11:03:55.20Z 253.0 11.5702 34.777 15.0 4.6469 0.008 751.2 1.0E-12
62 7 9.6403 -86.8675 2010-06-25T11:03:55.20Z 254.0 11.5694 34.7771 15.1 4.6458 0.008 752.1 1.0E-12
62 7 9.6403 -86.8675 2010-06-25T11:03:55.20Z 255.0 11.567 34.777 15.3 4.6462 0.008 754.5 1.0E-12
62 7 9.6403 -86.8675 2010-06-25T11:03:55.20Z 256.0 11.5545 34.7762 15.5 4.6456 0.008 756.9 1.0E-12
62 7 9.6403 -86.8675 2010-06-25T11:03:55.20Z 257.0 11.5477 34.7756 15.6 4.6459 0.008 757.9 1.0E-12
62 7 9.6403 -86.8675 2010-06-25T11:03:55.20Z 258.0 11.5445 34.7753 15.5 4.6459 0.008 758.9 1.0E-12
62 7 9.6403 -86.8675 2010-06-25T11:03:55.20Z 259.0 11.535 34.7744 15.4 4.6472 0.009 760.0 1.0E-12
62 7 9.6403 -86.8675 2010-06-25T11:03:55.20Z 260.0 11.5216 34.7731 15.1 4.6472 0.008 761.1 1.0E-12
62 7 9.6403 -86.8675 2010-06-25T11:03:55.20Z 261.0 11.5061 34.7713 14.7 4.6471 0.009 762.4 1.0E-12
62 7 9.6403 -86.8675 2010-06-25T11:03:55.20Z 262.0 11.4874 34.7693 13.8 4.6476 0.008 764.2 1.0E-12
62 7 9.6403 -86.8675 2010-06-25T11:03:55.20Z 263.0 11.4694 34.7674 12.7 4.6479 0.009 766.0 1.0E-12
62 7 9.6403 -86.8675 2010-06-25T11:03:55.20Z 264.0 11.4565 34.766 12.1 4.6478 0.009 767.1 1.0E-12
62 7 9.6403 -86.8675 2010-06-25T11:03:55.20Z 265.0 11.4427 34.7643 11.5 4.6476 0.009 768.0 1.0E-12
62 7 9.6403 -86.8675 2010-06-25T11:03:55.20Z 266.0 11.4132 34.7621 10.6 4.6478 0.009 769.2 1.0E-12
62 7 9.6403 -86.8675 2010-06-25T11:03:55.20Z 267.0 11.4132 34.7615 8.8 4.6477 0.009 771.1 1.0E-12
62 7 9.6403 -86.8675 2010-06-25T11:03:55.20Z 268.0 11.3819 34.76 7.8 4.6453 0.009 772.6 1.0E-12
62 7 9.6403 -86.8675 2010-06-25T11:03:55.20Z 269.0 11.3625 34.7592 7.4 4.646 0.009 773.8 1.0E-12
62 7 9.6403 -86.8675 2010-06-25T11:03:55.20Z 270.0 11.3408 34.7584 6.7 4.6487 0.009 775.5 1.0E-12
62 7 9.6403 -86.8675 2010-06-25T11:03:55.20Z 271.0 11.3233 34.7579 6.2 4.6501 0.009 777.2 1.0E-12
62 7 9.6403 -86.8675 2010-06-25T11:03:55.20Z 272.0 11.3207 34.7584 6.1 4.6472 0.009 778.2 1.0E-12
62 7 9.6403 -86.8675 2010-06-25T11:03:55.20Z 273.0 11.3117 34.7583 6.0 4.6479 0.009 779.0 1.0E-12
62 7 9.6403 -86.8675 2010-06-25T11:03:55.20Z 274.0 11.2989 34.7577 5.8 4.6456 0.009 779.8 1.0E-12
62 7 9.6403 -86.8675 2010-06-25T11:03:55.20Z 275.0 11.287 34.7573 5.8 4.6491 0.009 780.6 1.0E-12
62 7 9.6403 -86.8675 2010-06-25T11:03:55.20Z 276.0 11.2822 34.7569 5.7 4.6469 0.009 782.1 1.0E-12
62 7 9.6403 -86.8675 2010-06-25T11:03:55.20Z 277.0 11.2618 34.7559 5.5 4.6466 0.009 784.0 1.0E-12
62 7 9.6403 -86.8675 2010-06-25T11:03:55.20Z 278.0 11.2521 34.7552 5.5 4.6476 0.009 785.5 1.0E-12
62 7 9.6403 -86.8675 2010-06-25T11:03:55.20Z 279.0 11.2499 34.7551 5.4 4.6472 0.009 786.6 1.0E-12
62 7 9.6403 -86.8675 2010-06-25T11:03:55.20Z 280.0 11.2354 34.7542 5.4 4.6475 0.009 787.8 1.0E-12
62 7 9.6403 -86.8675 2010-06-25T11:03:55.20Z 281.0 11.2279 34.7538 5.3 4.6469 0.009 789.0 1.0E-12
62 7 9.6403 -86.8675 2010-06-25T11:03:55.20Z 282.0 11.2223 34.7534 5.2 4.6471 0.009 790.1 1.0E-12
62 7 9.6403 -86.8675 2010-06-25T11:03:55.20Z 283.0 11.2081 34.7526 5.2 4.6431 0.009 791.2 1.0E-12
62 7 9.6403 -86.8675 2010-06-25T11:03:55.20Z 284.0 11.1939 34.7519 5.2 4.6458 0.009 792.6 1.0E-12
62 7 9.6403 -86.8675 2010-06-25T11:03:55.20Z 285.0 11.1845 34.7516 5.1 4.6448 0.009 794.1 1.0E-12
62 7 9.6403 -86.8675 2010-06-25T11:03:55.20Z 286.0 11.1795 34.7513 5.1 4.6451 0.009 795.5 1.0E-12
62 7 9.6403 -86.8675 2010-06-25T11:03:55.20Z 287.0 11.1686 34.7506 5.1 4.6453 0.009 796.9 1.0E-12
62 7 9.6403 -86.8675 2010-06-25T11:03:55.20Z 288.0 11.1565 34.7497 5.1 4.6457 0.009 798.1 1.0E-12
62 7 9.6403 -86.8675 2010-06-25T11:03:55.20Z 289.0 11.1384 34.7485 5.1 4.6446 0.009 799.4 1.0E-12
62 7 9.6403 -86.8675 2010-06-25T11:03:55.20Z 290.0 11.1157 34.7469 5.1 4.6436 0.009 800.8 1.0E-12
62 7 9.6403 -86.8675 2010-06-25T11:03:55.20Z 291.0 11.0964 34.7459 5.0 4.6438 0.009 802.0 1.0E-12
62 7 9.6403 -86.8675 2010-06-25T11:03:55.20Z 292.0 11.0797 34.7445 5.0 4.6443 0.009 803.2 1.0E-12
62 7 9.6403 -86.8675 2010-06-25T11:03:55.20Z 293.0 11.0568 34.7431 5.0 4.6443 0.009 804.6 1.0E-12
62 7 9.6403 -86.8675 2010-06-25T11:03:55.20Z 294.0 11.039 34.7426 5.0 4.6358 0.009 805.9 1.0E-12
62 7 9.6403 -86.8675 2010-06-25T11:03:55.20Z 295.0 11.0281 34.7423 5.0 4.643 0.009 806.9 1.0E-12
62 7 9.6403 -86.8675 2010-06-25T11:03:55.20Z 296.0 11.0097 34.7415 5.0 4.6411 0.009 808.2 1.0E-12
62 7 9.6403 -86.8675 2010-06-25T11:03:55.20Z 297.0 10.986 34.7396 5.0 4.6422 0.009 809.9 1.0E-12
62 7 9.6403 -86.8675 2010-06-25T11:03:55.20Z 298.0 10.9585 34.738 5.0 4.6424 0.009 811.0 1.0E-12
62 7 9.6403 -86.8675 2010-06-25T11:03:55.20Z 299.0 10.9559 34.7379 5.0 4.6417 0.009 811.9 1.0E-12
62 7 9.6403 -86.8675 2010-06-25T11:03:55.20Z 300.0 10.9562 34.738 5.0 4.6421 0.009 813.2 1.0E-12
62 7 9.6403 -86.8675 2010-06-25T11:03:55.20Z 301.0 10.9569 34.738 4.9 4.6424 0.009 815.2 1.0E-12
62 7 9.6403 -86.8675 2010-06-25T11:03:55.20Z 302.0 10.9423 34.7375 4.9 4.642 0.009 816.8 1.0E-12
62 7 9.6403 -86.8675 2010-06-25T11:03:55.20Z 303.0 10.9329 34.7372 4.9 4.6406 0.009 817.5 1.0E-12
62 7 9.6403 -86.8675 2010-06-25T11:03:55.20Z 304.0 10.9324 34.7373 4.8 4.6376 0.009 818.4 1.0E-12
62 7 9.6403 -86.8675 2010-06-25T11:03:55.20Z 305.0 10.9172 34.7363 4.8 4.6393 0.009 819.2 1.0E-12
62 7 9.6403 -86.8675 2010-06-25T11:03:55.20Z 306.0 10.8992 34.7358 4.8 4.6417 0.009 820.1 1.0E-12
62 7 9.6403 -86.8675 2010-06-25T11:03:55.20Z 307.0 10.8813 34.7355 4.9 4.6422 0.009 821.4 1.0E-12
62 7 9.6403 -86.8675 2010-06-25T11:03:55.20Z 308.0 10.8693 34.7349 4.8 4.6436 0.009 823.0 1.0E-12
62 7 9.6403 -86.8675 2010-06-25T11:03:55.20Z 309.0 10.8596 34.7346 4.8 4.6459 0.009 824.6 1.0E-12
62 7 9.6403 -86.8675 2010-06-25T11:03:55.20Z 310.0 10.8495 34.7342 4.8 4.6469 0.009 825.9 1.0E-12
62 7 9.6403 -86.8675 2010-06-25T11:03:55.20Z 311.0 10.8394 34.7336 4.8 4.6461 0.009 826.9 1.0E-12
62 7 9.6403 -86.8675 2010-06-25T11:03:55.20Z 312.0 10.825 34.7327 4.8 4.6457 0.009 827.9 1.0E-12
62 7 9.6403 -86.8675 2010-06-25T11:03:55.20Z 313.0 10.8205 34.7325 4.8 4.6476 0.009 828.9 1.0E-12
62 7 9.6403 -86.8675 2010-06-25T11:03:55.20Z 314.0 10.8144 34.7319 4.8 4.6465 0.009 829.9 1.0E-12
62 7 9.6403 -86.8675 2010-06-25T11:03:55.20Z 315.0 10.8006 34.7316 4.8 4.6447 0.009 831.2 1.0E-12
62 7 9.6403 -86.8675 2010-06-25T11:03:55.20Z 316.0 10.7954 34.7309 4.8 4.6455 0.009 833.4 1.0E-12
62 7 9.6403 -86.8675 2010-06-25T11:03:55.20Z 317.0 10.7789 34.7297 4.8 4.6447 0.009 835.2 1.0E-12
62 7 9.6403 -86.8675 2010-06-25T11:03:55.20Z 318.0 10.7588 34.7288 4.8 4.6437 0.009 836.4 1.0E-12
62 7 9.6403 -86.8675 2010-06-25T11:03:55.20Z 319.0 10.7388 34.7279 4.7 4.6437 0.009 837.4 1.0E-12
62 7 9.6403 -86.8675 2010-06-25T11:03:55.20Z 320.0 10.7224 34.7271 4.8 4.644 0.009 838.2 1.0E-12
62 7 9.6403 -86.8675 2010-06-25T11:03:55.20Z 321.0 10.7106 34.7265 4.8 4.6435 0.009 839.0 1.0E-12
62 7 9.6403 -86.8675 2010-06-25T11:03:55.20Z 322.0 10.6968 34.7258 4.7 4.6424 0.009 839.8 1.0E-12
62 7 9.6403 -86.8675 2010-06-25T11:03:55.20Z 323.0 10.6885 34.7254 4.7 4.6419 0.009 841.5 1.0E-12
62 7 9.6403 -86.8675 2010-06-25T11:03:55.20Z 324.0 10.6777 34.7244 4.7 4.64 0.009 843.5 1.0E-12
62 7 9.6403 -86.8675 2010-06-25T11:03:55.20Z 325.0 10.644 34.7224 4.7 4.6395 0.009 844.6 1.0E-12
62 7 9.6403 -86.8675 2010-06-25T11:03:55.20Z 326.0 10.6091 34.721 4.7 4.6356 0.009 845.5 1.0E-12
62 7 9.6403 -86.8675 2010-06-25T11:03:55.20Z 327.0 10.5957 34.7203 4.7 4.6353 0.009 846.2 1.0E-12
62 7 9.6403 -86.8675 2010-06-25T11:03:55.20Z 328.0 10.577 34.7196 4.7 4.6379 0.009 847.0 1.0E-12
62 7 9.6403 -86.8675 2010-06-25T11:03:55.20Z 329.0 10.5608 34.7186 4.7 4.6373 0.009 848.4 1.0E-12
62 7 9.6403 -86.8675 2010-06-25T11:03:55.20Z 330.0 10.5504 34.7182 4.7 4.6387 0.009 850.0 1.0E-12
62 7 9.6403 -86.8675 2010-06-25T11:03:55.20Z 331.0 10.5428 34.7178 4.7 4.6383 0.009 851.2 1.0E-12
62 7 9.6403 -86.8675 2010-06-25T11:03:55.20Z 332.0 10.5358 34.7175 4.6 4.638 0.009 852.4 1.0E-12
62 7 9.6403 -86.8675 2010-06-25T11:03:55.20Z 333.0 10.5284 34.7172 4.7 4.6392 0.009 853.6 1.0E-12
62 7 9.6403 -86.8675 2010-06-25T11:03:55.20Z 334.0 10.5195 34.7168 4.7 4.6396 0.009 855.0 1.0E-12
62 7 9.6403 -86.8675 2010-06-25T11:03:55.20Z 335.0 10.5083 34.7163 4.7 4.6379 0.009 856.2 1.0E-12
62 7 9.6403 -86.8675 2010-06-25T11:03:55.20Z 336.0 10.4949 34.7159 4.7 4.6382 0.009 857.4 1.0E-12
62 7 9.6403 -86.8675 2010-06-25T11:03:55.20Z 337.0 10.4694 34.7146 4.7 4.6396 0.009 858.4 1.0E-12
62 7 9.6403 -86.8675 2010-06-25T11:03:55.20Z 338.0 10.4518 34.7138 4.7 4.6389 0.009 859.9 1.0E-12
62 7 9.6403 -86.8675 2010-06-25T11:03:55.20Z 339.0 10.4316 34.7122 4.7 4.6376 0.009 861.5 1.0E-12
62 7 9.6403 -86.8675 2010-06-25T11:03:55.20Z 340.0 10.3943 34.7115 4.7 4.6383 0.009 862.6 1.0E-12
62 7 9.6403 -86.8675 2010-06-25T11:03:55.20Z 341.0 10.3833 34.7113 4.7 4.6395 0.009 863.5 1.0E-12
62 7 9.6403 -86.8675 2010-06-25T11:03:55.20Z 342.0 10.3773 34.711 4.7 4.6384 0.009 864.2 1.0E-12
62 7 9.6403 -86.8675 2010-06-25T11:03:55.20Z 343.0 10.3697 34.7106 4.7 4.6394 0.009 865.8 1.0E-12
62 7 9.6403 -86.8675 2010-06-25T11:03:55.20Z 344.0 10.3472 34.7093 4.7 4.6399 0.009 867.6 1.0E-12
62 7 9.6403 -86.8675 2010-06-25T11:03:55.20Z 345.0 10.3175 34.7074 4.7 4.6406 0.009 869.0 1.0E-12
62 7 9.6403 -86.8675 2010-06-25T11:03:55.20Z 346.0 10.2986 34.706 4.7 4.6396 0.009 870.2 1.0E-12
62 7 9.6403 -86.8675 2010-06-25T11:03:55.20Z 347.0 10.2898 34.7065 4.7 4.6387 0.009 871.5 1.0E-12
62 7 9.6403 -86.8675 2010-06-25T11:03:55.20Z 348.0 10.289 34.7068 4.6 4.6397 0.009 872.6 1.0E-12
62 7 9.6403 -86.8675 2010-06-25T11:03:55.20Z 349.0 10.2847 34.7068 4.6 4.6397 0.009 873.8 1.0E-12
62 7 9.6403 -86.8675 2010-06-25T11:03:55.20Z 350.0 10.2772 34.7066 4.6 4.6397 0.009 875.4 1.0E-12
62 7 9.6403 -86.8675 2010-06-25T11:03:55.20Z 351.0 10.2659 34.706 4.7 4.6404 0.009 877.0 1.0E-12
62 7 9.6403 -86.8675 2010-06-25T11:03:55.20Z 352.0 10.2555 34.7057 4.6 4.6421 0.009 878.1 1.0E-12
62 7 9.6403 -86.8675 2010-06-25T11:03:55.20Z 353.0 10.2518 34.7058 4.6 4.6433 0.009 879.4 1.0E-12
62 7 9.6403 -86.8675 2010-06-25T11:03:55.20Z 354.0 10.253 34.7059 4.6 4.6446 0.009 881.1 1.0E-12
62 7 9.6403 -86.8675 2010-06-25T11:03:55.20Z 355.0 10.2501 34.7063 4.6 4.6467 0.009 882.5 1.0E-12
62 7 9.6403 -86.8675 2010-06-25T11:03:55.20Z 356.0 10.2463 34.7062 4.6 4.647 0.009 883.1 1.0E-12
62 7 9.6403 -86.8675 2010-06-25T11:03:55.20Z 357.0 10.233 34.7056 4.6 4.6446 0.009 883.8 1.0E-12
62 7 9.6403 -86.8675 2010-06-25T11:03:55.20Z 358.0 10.195 34.7031 4.6 4.644 0.009 884.4 1.0E-12
62 7 9.6403 -86.8675 2010-06-25T11:03:55.20Z 359.0 10.171 34.7017 4.6 4.6454 0.009 885.0 1.0E-12
62 7 9.6403 -86.8675 2010-06-25T11:03:55.20Z 360.0 10.1599 34.7011 4.6 4.6458 0.009 886.9 1.0E-12
62 7 9.6403 -86.8675 2010-06-25T11:03:55.20Z 361.0 10.1471 34.6994 4.6 4.6465 0.009 889.4 1.0E-12
62 7 9.6403 -86.8675 2010-06-25T11:03:55.20Z 362.0 10.1099 34.6975 4.6 4.6471 0.009 890.4 1.0E-12
62 7 9.6403 -86.8675 2010-06-25T11:03:55.20Z 363.0 10.0938 34.6966 4.4 4.6469 0.009 891.2 1.0E-12
62 7 9.6403 -86.8675 2010-06-25T11:03:55.20Z 364.0 10.079 34.6955 4.6 4.6458 0.009 892.0 1.0E-12
62 7 9.6403 -86.8675 2010-06-25T11:03:55.20Z 365.0 10.0512 34.694 4.6 4.6456 0.009 893.0 1.0E-12
62 7 9.6403 -86.8675 2010-06-25T11:03:55.20Z 366.0 10.0283 34.6927 4.6 4.6455 0.009 894.1 1.0E-12
62 7 9.6403 -86.8675 2010-06-25T11:03:55.20Z 367.0 10.0173 34.692 4.6 4.645 0.009 895.4 1.0E-12
62 7 9.6403 -86.8675 2010-06-25T11:03:55.20Z 368.0 10.0078 34.6914 4.6 4.6447 0.009 896.9 1.0E-12
62 7 9.6403 -86.8675 2010-06-25T11:03:55.20Z 369.0 9.9937 34.6906 4.6 4.6448 0.009 898.1 1.0E-12
62 7 9.6403 -86.8675 2010-06-25T11:03:55.20Z 370.0 9.9721 34.6896 4.6 4.6441 0.009 899.1 1.0E-12
62 7 9.6403 -86.8675 2010-06-25T11:03:55.20Z 371.0 9.9559 34.6887 4.6 4.6424 0.009 900.0 1.0E-12
62 7 9.6403 -86.8675 2010-06-25T11:03:55.20Z 372.0 9.9426 34.6879 4.6 4.6428 0.009 900.8 1.0E-12
62 7 9.6403 -86.8675 2010-06-25T11:03:55.20Z 373.0 9.9142 34.686 4.6 4.6421 0.009 901.6 1.0E-12
62 7 9.6403 -86.8675 2010-06-25T11:03:55.20Z 374.0 9.8741 34.6837 4.6 4.642 0.009 902.8 1.0E-12
62 7 9.6403 -86.8675 2010-06-25T11:03:55.20Z 375.0 9.8173 34.6801 4.7 4.6409 0.009 904.2 1.0E-12
62 7 9.6403 -86.8675 2010-06-25T11:03:55.20Z 376.0 9.7614 34.6773 4.6 4.6407 0.009 905.9 1.0E-12
62 7 9.6403 -86.8675 2010-06-25T11:03:55.20Z 377.0 9.7308 34.6755 4.6 4.6407 0.009 907.1 1.0E-12
62 7 9.6403 -86.8675 2010-06-25T11:03:55.20Z 378.0 9.7114 34.6745 4.6 4.6393 0.009 908.2 1.0E-12
62 7 9.6403 -86.8675 2010-06-25T11:03:55.20Z 379.0 9.6892 34.6733 4.6 4.6374 0.009 909.5 1.0E-12
62 7 9.6403 -86.8675 2010-06-25T11:03:55.20Z 380.0 9.6728 34.6722 4.6 4.6369 0.009 910.8 1.0E-12
62 7 9.6403 -86.8675 2010-06-25T11:03:55.20Z 381.0 9.6505 34.6714 4.6 4.6371 0.009 911.9 1.0E-12
62 7 9.6403 -86.8675 2010-06-25T11:03:55.20Z 382.0 9.6425 34.6713 4.6 4.6372 0.009 912.8 1.0E-12
62 7 9.6403 -86.8675 2010-06-25T11:03:55.20Z 383.0 9.6401 34.6713 4.5 4.6372 0.009 913.6 1.0E-12
62 7 9.6403 -86.8675 2010-06-25T11:03:55.20Z 384.0 9.6393 34.6714 4.6 4.6373 0.01 915.1 1.0E-12
62 7 9.6403 -86.8675 2010-06-25T11:03:55.20Z 385.0 9.6337 34.6713 4.5 4.6368 0.009 917.0 1.0E-12
62 7 9.6403 -86.8675 2010-06-25T11:03:55.20Z 386.0 9.6256 34.6712 4.5 4.6368 0.01 918.2 1.0E-12
62 7 9.6403 -86.8675 2010-06-25T11:03:55.20Z 387.0 9.622 34.6711 4.5 4.6366 0.01 919.0 1.0E-12
62 7 9.6403 -86.8675 2010-06-25T11:03:55.20Z 388.0 9.6159 34.6709 4.5 4.6363 0.009 919.8 1.0E-12
62 7 9.6403 -86.8675 2010-06-25T11:03:55.20Z 389.0 9.6207 34.6714 4.5 4.6362 0.009 920.5 1.0E-12
62 7 9.6403 -86.8675 2010-06-25T11:03:55.20Z 390.0 9.6137 34.6707 4.5 4.6362 0.009 921.4 1.0E-12
62 7 9.6403 -86.8675 2010-06-25T11:03:55.20Z 391.0 9.5985 34.6699 4.5 4.6356 0.01 922.8 1.0E-12
62 7 9.6403 -86.8675 2010-06-25T11:03:55.20Z 392.0 9.5713 34.6689 4.5 4.6356 0.01 924.4 1.0E-12
62 7 9.6403 -86.8675 2010-06-25T11:03:55.20Z 393.0 9.549 34.6682 4.5 4.6346 0.009 925.6 1.0E-12
62 7 9.6403 -86.8675 2010-06-25T11:03:55.20Z 394.0 9.5308 34.6671 4.5 4.6346 0.009 926.5 1.0E-12
62 7 9.6403 -86.8675 2010-06-25T11:03:55.20Z 395.0 9.5198 34.6665 4.5 4.6341 0.009 927.4 1.0E-12
62 7 9.6403 -86.8675 2010-06-25T11:03:55.20Z 396.0 9.5105 34.666 4.5 4.6332 0.009 929.0 1.0E-12
62 7 9.6403 -86.8675 2010-06-25T11:03:55.20Z 397.0 9.485 34.665 4.5 4.6327 0.01 930.8 1.0E-12
62 7 9.6403 -86.8675 2010-06-25T11:03:55.20Z 398.0 9.47 34.6647 4.5 4.6336 0.01 931.9 1.0E-12
62 7 9.6403 -86.8675 2010-06-25T11:03:55.20Z 399.0 9.4595 34.6642 4.5 4.6325 0.01 932.9 1.0E-12
62 7 9.6403 -86.8675 2010-06-25T11:03:55.20Z 400.0 9.4518 34.6639 4.5 4.6331 0.009 933.8 1.0E-12
62 7 9.6403 -86.8675 2010-06-25T11:03:55.20Z 401.0 9.4416 34.663 4.5 4.6315 0.009 934.5 1.0E-12
62 7 9.6403 -86.8675 2010-06-25T11:03:55.20Z 402.0 9.417 34.6621 4.5 4.6322 0.009 935.4 1.0E-12
62 7 9.6403 -86.8675 2010-06-25T11:03:55.20Z 403.0 9.3848 34.6609 4.5 4.6328 0.009 936.4 1.0E-12
62 7 9.6403 -86.8675 2010-06-25T11:03:55.20Z 404.0 9.3628 34.66 4.5 4.6312 0.01 937.5 1.0E-12
62 7 9.6403 -86.8675 2010-06-25T11:03:55.20Z 405.0 9.3556 34.6598 4.6 4.6332 0.01 938.6 1.0E-12
62 7 9.6403 -86.8675 2010-06-25T11:03:55.20Z 406.0 9.3414 34.6592 4.6 4.6331 0.01 939.6 1.0E-12
62 7 9.6403 -86.8675 2010-06-25T11:03:55.20Z 407.0 9.335 34.659 4.6 4.6329 0.009 940.6 1.0E-12
62 7 9.6403 -86.8675 2010-06-25T11:03:55.20Z 408.0 9.3337 34.6591 4.6 4.6331 0.01 942.1 1.0E-12
62 7 9.6403 -86.8675 2010-06-25T11:03:55.20Z 409.0 9.3303 34.6589 4.6 4.6333 0.01 944.1 1.0E-12
62 7 9.6403 -86.8675 2010-06-25T11:03:55.20Z 410.0 9.3174 34.6586 4.6 4.6335 0.009 945.6 1.0E-12
62 7 9.6403 -86.8675 2010-06-25T11:03:55.20Z 411.0 9.3081 34.6582 4.6 4.633 0.009 946.6 1.0E-12
62 7 9.6403 -86.8675 2010-06-25T11:03:55.20Z 412.0 9.288 34.6567 4.6 4.6332 0.01 947.5 1.0E-12
62 7 9.6403 -86.8675 2010-06-25T11:03:55.20Z 413.0 9.2397 34.655 4.6 4.6327 0.01 948.4 1.0E-12
62 7 9.6403 -86.8675 2010-06-25T11:03:55.20Z 414.0 9.2225 34.6542 4.6 4.6331 0.01 949.5 1.0E-12
62 7 9.6403 -86.8675 2010-06-25T11:03:55.20Z 415.0 9.2004 34.6526 4.6 4.6329 0.01 950.9 1.0E-12
62 7 9.6403 -86.8675 2010-06-25T11:03:55.20Z 416.0 9.1809 34.6518 4.6 4.6328 0.01 952.1 1.0E-12
62 7 9.6403 -86.8675 2010-06-25T11:03:55.20Z 417.0 9.1647 34.6512 4.6 4.6328 0.01 953.1 1.0E-12
62 7 9.6403 -86.8675 2010-06-25T11:03:55.20Z 418.0 9.1531 34.6506 4.6 4.633 0.01 954.1 1.0E-12
62 7 9.6403 -86.8675 2010-06-25T11:03:55.20Z 419.0 9.1373 34.6498 4.6 4.6328 0.009 955.4 1.0E-12
62 7 9.6403 -86.8675 2010-06-25T11:03:55.20Z 420.0 9.1315 34.6496 4.6 4.6326 0.01 956.9 1.0E-12
62 7 9.6403 -86.8675 2010-06-25T11:03:55.20Z 421.0 9.1222 34.6492 4.6 4.6327 0.01 958.1 1.0E-12
62 7 9.6403 -86.8675 2010-06-25T11:03:55.20Z 422.0 9.1029 34.6486 4.6 4.6325 0.01 959.1 1.0E-12
62 7 9.6403 -86.8675 2010-06-25T11:03:55.20Z 423.0 9.0828 34.6476 4.6 4.6325 0.01 960.1 1.0E-12
62 7 9.6403 -86.8675 2010-06-25T11:03:55.20Z 424.0 9.0484 34.6458 4.6 4.6324 0.01 961.2 1.0E-12
62 7 9.6403 -86.8675 2010-06-25T11:03:55.20Z 425.0 9.0256 34.6449 4.6 4.6323 0.01 962.4 1.0E-12
62 7 9.6403 -86.8675 2010-06-25T11:03:55.20Z 426.0 9.0121 34.6443 4.6 4.6328 0.01 963.4 1.0E-12
62 7 9.6403 -86.8675 2010-06-25T11:03:55.20Z 427.0 9.0043 34.6441 4.6 4.6323 0.01 964.4 1.0E-12
62 7 9.6403 -86.8675 2010-06-25T11:03:55.20Z 428.0 8.999 34.6439 4.6 4.6324 0.01 965.4 1.0E-12
62 7 9.6403 -86.8675 2010-06-25T11:03:55.20Z 429.0 8.9966 34.6438 4.6 4.6329 0.01 966.8 1.0E-12
62 7 9.6403 -86.8675 2010-06-25T11:03:55.20Z 430.0 8.9896 34.6437 4.6 4.6327 0.01 968.2 1.0E-12
62 7 9.6403 -86.8675 2010-06-25T11:03:55.20Z 431.0 8.9863 34.6436 4.5 4.6325 0.01 969.4 1.0E-12
62 7 9.6403 -86.8675 2010-06-25T11:03:55.20Z 432.0 8.9812 34.6434 4.5 4.6322 0.009 970.5 1.0E-12
62 7 9.6403 -86.8675 2010-06-25T11:03:55.20Z 433.0 8.9662 34.6428 4.5 4.6319 0.01 971.8 1.0E-12
62 7 9.6403 -86.8675 2010-06-25T11:03:55.20Z 434.0 8.9501 34.642 4.5 4.6314 0.01 972.9 1.0E-12
62 7 9.6403 -86.8675 2010-06-25T11:03:55.20Z 435.0 8.9348 34.6413 4.5 4.6319 0.01 973.8 1.0E-12
62 7 9.6403 -86.8675 2010-06-25T11:03:55.20Z 436.0 8.9099 34.6402 4.5 4.6316 0.01 974.6 1.0E-12
62 7 9.6403 -86.8675 2010-06-25T11:03:55.20Z 437.0 8.8957 34.6395 4.5 4.6322 0.01 975.6 1.0E-12
62 7 9.6403 -86.8675 2010-06-25T11:03:55.20Z 438.0 8.8648 34.638 4.5 4.6323 0.01 976.8 1.0E-12
62 7 9.6403 -86.8675 2010-06-25T11:03:55.20Z 439.0 8.8449 34.637 4.5 4.6322 0.01 977.9 1.0E-12
62 7 9.6403 -86.8675 2010-06-25T11:03:55.20Z 440.0 8.8276 34.6361 4.5 4.632 0.01 978.9 1.0E-12
62 7 9.6403 -86.8675 2010-06-25T11:03:55.20Z 441.0 8.7998 34.6345 4.5 4.6324 0.01 979.9 1.0E-12
62 7 9.6403 -86.8675 2010-06-25T11:03:55.20Z 442.0 8.7626 34.633 4.5 4.6326 0.01 981.0 1.0E-12
62 7 9.6403 -86.8675 2010-06-25T11:03:55.20Z 443.0 8.7578 34.6326 4.5 4.6328 0.01 982.2 1.0E-12
62 7 9.6403 -86.8675 2010-06-25T11:03:55.20Z 444.0 8.7547 34.6325 4.5 4.633 0.01 983.6 1.0E-12
62 7 9.6403 -86.8675 2010-06-25T11:03:55.20Z 445.0 8.753 34.6325 4.5 4.6327 0.009 985.0 1.0E-12
62 7 9.6403 -86.8675 2010-06-25T11:03:55.20Z 446.0 8.7533 34.6326 4.5 4.6328 0.01 986.1 1.0E-12
62 7 9.6403 -86.8675 2010-06-25T11:03:55.20Z 447.0 8.7524 34.6328 4.5 4.6328 0.01 987.0 1.0E-12
62 7 9.6403 -86.8675 2010-06-25T11:03:55.20Z 448.0 8.7495 34.6326 4.5 4.6332 0.01 987.8 1.0E-12
62 7 9.6403 -86.8675 2010-06-25T11:03:55.20Z 449.0 8.7461 34.6323 4.5 4.633 0.01 988.6 1.0E-12
62 7 9.6403 -86.8675 2010-06-25T11:03:55.20Z 450.0 8.7431 34.6323 4.5 4.633 0.01 990.2 1.0E-12
62 7 9.6403 -86.8675 2010-06-25T11:03:55.20Z 451.0 8.7297 34.6314 4.5 4.6331 0.01 992.1 1.0E-12
62 7 9.6403 -86.8675 2010-06-25T11:03:55.20Z 452.0 8.6922 34.6301 4.5 4.6333 0.009 993.4 1.0E-12
62 7 9.6403 -86.8675 2010-06-25T11:03:55.20Z 453.0 8.6742 34.6286 4.5 4.6336 0.01 994.1 1.0E-12
62 7 9.6403 -86.8675 2010-06-25T11:03:55.20Z 454.0 8.6486 34.6284 4.5 4.6338 0.01 994.8 1.0E-12
62 7 9.6403 -86.8675 2010-06-25T11:03:55.20Z 455.0 8.6294 34.6278 4.5 4.634 0.01 995.5 1.0E-12
62 7 9.6403 -86.8675 2010-06-25T11:03:55.20Z 456.0 8.6184 34.6271 4.5 4.6346 0.01 996.5 1.0E-12
62 7 9.6403 -86.8675 2010-06-25T11:03:55.20Z 457.0 8.6132 34.6269 4.5 4.6344 0.01 997.8 1.0E-12
62 7 9.6403 -86.8675 2010-06-25T11:03:55.20Z 458.0 8.6077 34.6268 4.5 4.6339 0.009 998.9 1.0E-12
62 7 9.6403 -86.8675 2010-06-25T11:03:55.20Z 459.0 8.5965 34.6266 4.5 4.6338 0.01 999.8 1.0E-12
62 7 9.6403 -86.8675 2010-06-25T11:03:55.20Z 460.0 8.586 34.6263 4.5 4.6341 0.01 1000.6 1.0E-12
62 7 9.6403 -86.8675 2010-06-25T11:03:55.20Z 461.0 8.5779 34.6262 4.5 4.6344 0.009 1001.9 1.0E-12
62 7 9.6403 -86.8675 2010-06-25T11:03:55.20Z 462.0 8.5716 34.626 4.5 4.6341 0.01 1003.4 1.0E-12
62 7 9.6403 -86.8675 2010-06-25T11:03:55.20Z 463.0 8.5644 34.6258 4.5 4.6337 0.01 1004.8 1.0E-12
62 7 9.6403 -86.8675 2010-06-25T11:03:55.20Z 464.0 8.5583 34.6257 4.5 4.6335 0.01 1005.9 1.0E-12
62 7 9.6403 -86.8675 2010-06-25T11:03:55.20Z 465.0 8.5543 34.6257 4.5 4.6342 0.01 1007.1 1.0E-12
62 7 9.6403 -86.8675 2010-06-25T11:03:55.20Z 466.0 8.5479 34.6255 4.5 4.6346 0.009 1008.5 1.0E-12
62 7 9.6403 -86.8675 2010-06-25T11:03:55.20Z 467.0 8.5334 34.625 4.5 4.6349 0.01 1009.6 1.0E-12
62 7 9.6403 -86.8675 2010-06-25T11:03:55.20Z 468.0 8.5173 34.6243 4.5 4.6339 0.01 1010.5 1.0E-12
62 7 9.6403 -86.8675 2010-06-25T11:03:55.20Z 469.0 8.4946 34.6236 4.5 4.6349 0.01 1011.2 1.0E-12
62 7 9.6403 -86.8675 2010-06-25T11:03:55.20Z 470.0 8.4788 34.623 4.5 4.635 0.01 1012.0 1.0E-12
62 7 9.6403 -86.8675 2010-06-25T11:03:55.20Z 471.0 8.4528 34.6223 4.5 4.6351 0.01 1012.8 1.0E-12
62 7 9.6403 -86.8675 2010-06-25T11:03:55.20Z 472.0 8.427 34.6216 4.5 4.635 0.01 1013.8 1.0E-12
62 7 9.6403 -86.8675 2010-06-25T11:03:55.20Z 473.0 8.4076 34.621 4.5 4.6359 0.01 1014.9 1.0E-12
62 7 9.6403 -86.8675 2010-06-25T11:03:55.20Z 474.0 8.4024 34.6206 4.5 4.636 0.01 1016.0 1.0E-12
62 7 9.6403 -86.8675 2010-06-25T11:03:55.20Z 475.0 8.3894 34.6205 4.5 4.6359 0.01 1017.4 1.0E-12
62 7 9.6403 -86.8675 2010-06-25T11:03:55.20Z 476.0 8.384 34.6204 4.5 4.6363 0.01 1018.8 1.0E-12
62 7 9.6403 -86.8675 2010-06-25T11:03:55.20Z 477.0 8.3754 34.6204 4.5 4.6364 0.01 1020.0 1.0E-12
62 7 9.6403 -86.8675 2010-06-25T11:03:55.20Z 478.0 8.3658 34.6202 4.5 4.6364 0.009 1021.2 1.0E-12
62 7 9.6403 -86.8675 2010-06-25T11:03:55.20Z 479.0 8.3504 34.6201 4.5 4.635 0.009 1022.5 1.0E-12
62 7 9.6403 -86.8675 2010-06-25T11:03:55.20Z 480.0 8.3261 34.6206 4.5 4.6374 0.009 1023.6 1.0E-12
62 7 9.6403 -86.8675 2010-06-25T11:03:55.20Z 481.0 8.3153 34.6207 4.5 4.638 0.01 1024.6 1.0E-12
62 7 9.6403 -86.8675 2010-06-25T11:03:55.20Z 482.0 8.3086 34.6208 4.5 4.6378 0.01 1025.5 1.0E-12
62 7 9.6403 -86.8675 2010-06-25T11:03:55.20Z 483.0 8.3018 34.6207 4.5 4.6389 0.01 1026.4 1.0E-12
62 7 9.6403 -86.8675 2010-06-25T11:03:55.20Z 484.0 8.2882 34.6202 4.5 4.6395 0.01 1027.6 1.0E-12
62 7 9.6403 -86.8675 2010-06-25T11:03:55.20Z 485.0 8.2813 34.6199 4.5 4.6392 0.01 1029.1 1.0E-12
62 7 9.6403 -86.8675 2010-06-25T11:03:55.20Z 486.0 8.2731 34.6197 4.5 4.6397 0.01 1030.5 1.0E-12
62 7 9.6403 -86.8675 2010-06-25T11:03:55.20Z 487.0 8.2709 34.6198 4.5 4.639 0.01 1031.5 1.0E-12
62 7 9.6403 -86.8675 2010-06-25T11:03:55.20Z 488.0 8.2699 34.6199 4.5 4.6391 0.01 1032.2 1.0E-12
62 7 9.6403 -86.8675 2010-06-25T11:03:55.20Z 489.0 8.2682 34.6199 4.5 4.6389 0.01 1033.0 1.0E-12
62 7 9.6403 -86.8675 2010-06-25T11:03:55.20Z 490.0 8.2637 34.6199 4.5 4.6398 0.01 1033.9 1.0E-12
62 7 9.6403 -86.8675 2010-06-25T11:03:55.20Z 491.0 8.2614 34.6198 4.5 4.6397 0.009 1035.5 1.0E-12
62 7 9.6403 -86.8675 2010-06-25T11:03:55.20Z 492.0 8.2501 34.6194 4.4 4.6392 0.01 1037.2 1.0E-12
62 7 9.6403 -86.8675 2010-06-25T11:03:55.20Z 493.0 8.2324 34.6187 4.5 4.6397 0.009 1038.4 1.0E-12
62 7 9.6403 -86.8675 2010-06-25T11:03:55.20Z 494.0 8.1655 34.6149 4.5 4.6392 0.009 1039.2 1.0E-12
62 7 9.6403 -86.8675 2010-06-25T11:03:55.20Z 495.0 8.13 34.6138 4.5 4.6397 0.009 1039.9 1.0E-12
62 7 9.6403 -86.8675 2010-06-25T11:03:55.20Z 496.0 8.1238 34.6129 4.5 4.6397 0.009 1040.5 1.0E-12
62 7 9.6403 -86.8675 2010-06-25T11:03:55.20Z 497.0 8.1199 34.6122 4.5 4.6399 0.01 1041.2 1.0E-12
62 7 9.6403 -86.8675 2010-06-25T11:03:55.20Z 498.0 8.1149 34.6119 4.4 4.6406 0.01 1042.4 1.0E-12
62 7 9.6403 -86.8675 2010-06-25T11:03:55.20Z 499.0 8.1125 34.6118 4.4 4.6401 0.009 1044.4 1.0E-12
62 7 9.6403 -86.8675 2010-06-25T11:03:55.20Z 500.0 8.1098 34.6118 4.4 4.6408 0.009 1046.2 1.0E-12
62 7 9.6403 -86.8675 2010-06-25T11:03:55.20Z 501.0 8.0985 34.6115 4.5 4.6393 0.009 1047.2 1.0E-12
62 7 9.6403 -86.8675 2010-06-25T11:03:55.20Z 502.0 8.0863 34.6113 4.4 4.6398 0.009 1048.0 1.0E-12
62 7 9.6403 -86.8675 2010-06-25T11:03:55.20Z 503.0 8.0769 34.6111 4.4 4.64 0.009 1048.8 1.0E-12
62 7 9.6403 -86.8675 2010-06-25T11:03:55.20Z 504.0 8.0677 34.6108 4.5 4.64 0.01 1049.4 1.0E-12
62 7 9.6403 -86.8675 2010-06-25T11:03:55.20Z 505.0 8.0574 34.6108 4.4 4.6403 0.01 1050.1 1.0E-12
62 7 9.6403 -86.8675 2010-06-25T11:03:55.20Z 506.0 8.0525 34.6107 4.4 4.6404 0.01 1051.1 1.0E-12
62 7 9.6403 -86.8675 2010-06-25T11:03:55.20Z 507.0 8.0492 34.6106 4.5 4.6403 0.01 1052.4 1.0E-12
62 7 9.6403 -86.8675 2010-06-25T11:03:55.20Z 508.0 8.0391 34.6106 4.4 4.6406 0.009 1053.8 1.0E-12
62 7 9.6403 -86.8675 2010-06-25T11:03:55.20Z 509.0 8.0206 34.6103 4.4 4.6412 0.009 1054.9 1.0E-12
62 7 9.6403 -86.8675 2010-06-25T11:03:55.20Z 510.0 7.9823 34.6096 4.4 4.6402 0.009 1056.0 1.0E-12
62 7 9.6403 -86.8675 2010-06-25T11:03:55.20Z 511.0 7.951 34.6095 4.4 4.642 0.009 1057.0 1.0E-12
62 7 9.6403 -86.8675 2010-06-25T11:03:55.20Z 512.0 7.9436 34.6095 4.5 4.6419 0.009 1057.8 1.0E-12
62 7 9.6403 -86.8675 2010-06-25T11:03:55.20Z 513.0 7.9396 34.6092 4.4 4.6419 0.009 1058.6 1.0E-12
62 7 9.6403 -86.8675 2010-06-25T11:03:55.20Z 514.0 7.9375 34.6093 4.4 4.6423 0.01 1060.6 1.0E-12
62 7 9.6403 -86.8675 2010-06-25T11:03:55.20Z 515.0 7.9304 34.6089 4.4 4.6423 0.01 1062.6 1.0E-12
62 7 9.6403 -86.8675 2010-06-25T11:03:55.20Z 516.0 7.9035 34.607 4.4 4.6408 0.01 1063.6 1.0E-12
62 7 9.6403 -86.8675 2010-06-25T11:03:55.20Z 517.0 7.8551 34.6038 4.4 4.6413 0.01 1064.4 1.0E-12
62 7 9.6403 -86.8675 2010-06-25T11:03:55.20Z 518.0 7.819 34.6035 4.4 4.6412 0.009 1065.0 1.0E-12
62 7 9.6403 -86.8675 2010-06-25T11:03:55.20Z 519.0 7.8066 34.603 4.4 4.6419 0.009 1065.6 1.0E-12
62 7 9.6403 -86.8675 2010-06-25T11:03:55.20Z 520.0 7.7927 34.6026 4.4 4.6427 0.009 1066.2 1.0E-12
62 7 9.6403 -86.8675 2010-06-25T11:03:55.20Z 521.0 7.7827 34.6021 4.4 4.6422 0.009 1067.0 1.0E-12
62 7 9.6403 -86.8675 2010-06-25T11:03:55.20Z 522.0 7.7773 34.6015 4.4 4.6431 0.01 1068.2 1.0E-12
62 7 9.6403 -86.8675 2010-06-25T11:03:55.20Z 523.0 7.772 34.6014 4.4 4.6422 0.01 1069.9 1.0E-12
62 7 9.6403 -86.8675 2010-06-25T11:03:55.20Z 524.0 7.7536 34.6011 4.4 4.642 0.01 1071.1 1.0E-12
62 7 9.6403 -86.8675 2010-06-25T11:03:55.20Z 525.0 7.7367 34.6008 4.5 4.6431 0.01 1072.1 1.0E-12
62 7 9.6403 -86.8675 2010-06-25T11:03:55.20Z 526.0 7.7275 34.6007 4.5 4.6433 0.01 1073.0 1.0E-12
62 7 9.6403 -86.8675 2010-06-25T11:03:55.20Z 527.0 7.7235 34.6006 4.5 4.6422 0.009 1074.0 1.0E-12
62 7 9.6403 -86.8675 2010-06-25T11:03:55.20Z 528.0 7.7203 34.6008 4.5 4.6426 0.01 1075.5 1.0E-12
62 7 9.6403 -86.8675 2010-06-25T11:03:55.20Z 529.0 7.7163 34.6008 4.5 4.6428 0.01 1077.0 1.0E-12
62 7 9.6403 -86.8675 2010-06-25T11:03:55.20Z 530.0 7.7093 34.6008 4.5 4.6433 0.009 1078.0 1.0E-12
62 7 9.6403 -86.8675 2010-06-25T11:03:55.20Z 531.0 7.6928 34.6006 4.5 4.6425 0.009 1078.8 1.0E-12
62 7 9.6403 -86.8675 2010-06-25T11:03:55.20Z 532.0 7.6778 34.6 4.5 4.6431 0.009 1079.4 1.0E-12
62 7 9.6403 -86.8675 2010-06-25T11:03:55.20Z 533.0 7.669 34.5997 4.5 4.6437 0.01 1080.0 1.0E-12
62 7 9.6403 -86.8675 2010-06-25T11:03:55.20Z 534.0 7.6561 34.5989 4.5 4.6428 0.01 1081.1 1.0E-12
62 7 9.6403 -86.8675 2010-06-25T11:03:55.20Z 535.0 7.6462 34.5985 4.5 4.644 0.01 1082.6 1.0E-12
62 7 9.6403 -86.8675 2010-06-25T11:03:55.20Z 536.0 7.6378 34.5986 4.5 4.6439 0.009 1083.8 1.0E-12
62 7 9.6403 -86.8675 2010-06-25T11:03:55.20Z 537.0 7.6322 34.5995 4.5 4.6442 0.009 1084.6 1.0E-12
62 7 9.6403 -86.8675 2010-06-25T11:03:55.20Z 538.0 7.6276 34.5994 4.5 4.6439 0.009 1085.5 1.0E-12
62 7 9.6403 -86.8675 2010-06-25T11:03:55.20Z 539.0 7.6192 34.5992 4.5 4.6448 0.01 1086.6 1.0E-12
62 7 9.6403 -86.8675 2010-06-25T11:03:55.20Z 540.0 7.6113 34.5989 4.5 4.6444 0.009 1088.0 1.0E-12
62 7 9.6403 -86.8675 2010-06-25T11:03:55.20Z 541.0 7.6041 34.5988 4.5 4.6449 0.009 1089.1 1.0E-12
62 7 9.6403 -86.8675 2010-06-25T11:03:55.20Z 542.0 7.5886 34.5984 4.5 4.6448 0.009 1090.0 1.0E-12
62 7 9.6403 -86.8675 2010-06-25T11:03:55.20Z 543.0 7.5743 34.5979 4.5 4.6442 0.009 1090.8 1.0E-12
62 7 9.6403 -86.8675 2010-06-25T11:03:55.20Z 544.0 7.5504 34.5975 4.5 4.6449 0.009 1091.6 1.0E-12
62 7 9.6403 -86.8675 2010-06-25T11:03:55.20Z 545.0 7.5379 34.5974 4.5 4.6455 0.009 1092.8 1.0E-12
62 7 9.6403 -86.8675 2010-06-25T11:03:55.20Z 546.0 7.5336 34.5971 4.5 4.6458 0.009 1094.0 1.0E-12
62 7 9.6403 -86.8675 2010-06-25T11:03:55.20Z 547.0 7.525 34.5967 4.5 4.6456 0.01 1095.2 1.0E-12